<?xml version="1.0" encoding="UTF-8" standalone="no" ?>
<gpx xmlns="http://www.topografix.com/GPX/1/1" xmlns:xsi="http://www.w3.org/2001/XMLSchema-instance" xsi:schemaLocation="http://www.topografix.com/GPX/1/1 http://www.topografix.com/GPX/1/1/gpx.xsd" version="1.1" creator="VisuGPX - https://www.visugpx.com">
  <metadata>
    <name>Entrainement vélo</name>
    <desc><![CDATA[Sortie vélo ASPTT Angers triathlon]]></desc>
  </metadata>
  <trk>
    <name><![CDATA[Entrainement vélo_1]]></name>
    <trkseg>
      <trkpt lat="47.44232" lon="-0.50953">
        <ele>23</ele>
        <time>2010-06-26T14:49:43Z</time>
      </trkpt>
      <trkpt lat="47.44192" lon="-0.50966">
        <ele>23</ele>
        <time>2010-06-26T14:49:48Z</time>
      </trkpt>
      <trkpt lat="47.4416" lon="-0.50981">
        <ele>22</ele>
        <time>2010-06-26T14:49:53Z</time>
      </trkpt>
      <trkpt lat="47.44121" lon="-0.50999">
        <ele>21</ele>
        <time>2010-06-26T14:49:58Z</time>
      </trkpt>
      <trkpt lat="47.44082" lon="-0.51018">
        <ele>22</ele>
        <time>2010-06-26T14:50:03Z</time>
      </trkpt>
      <trkpt lat="47.44038" lon="-0.51034">
        <ele>22</ele>
        <time>2010-06-26T14:50:08Z</time>
      </trkpt>
      <trkpt lat="47.44003" lon="-0.51049">
        <ele>23</ele>
        <time>2010-06-26T14:50:13Z</time>
      </trkpt>
      <trkpt lat="47.43974" lon="-0.51044">
        <ele>23</ele>
        <time>2010-06-26T14:50:18Z</time>
      </trkpt>
      <trkpt lat="47.43953" lon="-0.50999">
        <ele>22</ele>
        <time>2010-06-26T14:50:23Z</time>
      </trkpt>
      <trkpt lat="47.43933" lon="-0.5094">
        <ele>22</ele>
        <time>2010-06-26T14:50:28Z</time>
      </trkpt>
      <trkpt lat="47.43917" lon="-0.50891">
        <ele>23</ele>
        <time>2010-06-26T14:50:33Z</time>
      </trkpt>
      <trkpt lat="47.439" lon="-0.50857">
        <ele>24</ele>
        <time>2010-06-26T14:50:38Z</time>
      </trkpt>
      <trkpt lat="47.43865" lon="-0.50851">
        <ele>24</ele>
        <time>2010-06-26T14:50:43Z</time>
      </trkpt>
      <trkpt lat="47.43847" lon="-0.50857">
        <ele>24</ele>
        <time>2010-06-26T14:50:48Z</time>
      </trkpt>
      <trkpt lat="47.43834" lon="-0.50878">
        <ele>24</ele>
        <time>2010-06-26T14:50:53Z</time>
      </trkpt>
      <trkpt lat="47.43825" lon="-0.50901">
        <ele>24</ele>
        <time>2010-06-26T14:50:58Z</time>
      </trkpt>
      <trkpt lat="47.43813" lon="-0.50927">
        <ele>24</ele>
        <time>2010-06-26T14:51:03Z</time>
      </trkpt>
      <trkpt lat="47.43801" lon="-0.50972">
        <ele>24</ele>
        <time>2010-06-26T14:51:08Z</time>
      </trkpt>
      <trkpt lat="47.43788" lon="-0.51029">
        <ele>24</ele>
        <time>2010-06-26T14:51:13Z</time>
      </trkpt>
      <trkpt lat="47.43776" lon="-0.51081">
        <ele>24</ele>
        <time>2010-06-26T14:51:18Z</time>
      </trkpt>
      <trkpt lat="47.4377" lon="-0.5113">
        <ele>23</ele>
        <time>2010-06-26T14:51:23Z</time>
      </trkpt>
      <trkpt lat="47.43766" lon="-0.51202">
        <ele>24</ele>
        <time>2010-06-26T14:51:28Z</time>
      </trkpt>
      <trkpt lat="47.43753" lon="-0.51284">
        <ele>24</ele>
        <time>2010-06-26T14:51:33Z</time>
      </trkpt>
      <trkpt lat="47.43737" lon="-0.51351">
        <ele>22</ele>
        <time>2010-06-26T14:51:38Z</time>
      </trkpt>
      <trkpt lat="47.4372" lon="-0.51416">
        <ele>22</ele>
        <time>2010-06-26T14:51:43Z</time>
      </trkpt>
      <trkpt lat="47.43713" lon="-0.51464">
        <ele>21</ele>
        <time>2010-06-26T14:51:48Z</time>
      </trkpt>
      <trkpt lat="47.43695" lon="-0.51519">
        <ele>21</ele>
        <time>2010-06-26T14:51:53Z</time>
      </trkpt>
      <trkpt lat="47.43679" lon="-0.51589">
        <ele>22</ele>
        <time>2010-06-26T14:51:58Z</time>
      </trkpt>
      <trkpt lat="47.43665" lon="-0.51647">
        <ele>23</ele>
        <time>2010-06-26T14:52:03Z</time>
      </trkpt>
      <trkpt lat="47.43652" lon="-0.51704">
        <ele>23</ele>
        <time>2010-06-26T14:52:08Z</time>
      </trkpt>
      <trkpt lat="47.43641" lon="-0.5175">
        <ele>23</ele>
        <time>2010-06-26T14:52:13Z</time>
      </trkpt>
      <trkpt lat="47.43628" lon="-0.51806">
        <ele>22</ele>
        <time>2010-06-26T14:52:18Z</time>
      </trkpt>
      <trkpt lat="47.43613" lon="-0.51872">
        <ele>20</ele>
        <time>2010-06-26T14:52:23Z</time>
      </trkpt>
      <trkpt lat="47.43601" lon="-0.51921">
        <ele>19</ele>
        <time>2010-06-26T14:52:28Z</time>
      </trkpt>
      <trkpt lat="47.43596" lon="-0.51945">
        <ele>19</ele>
        <time>2010-06-26T14:52:33Z</time>
      </trkpt>
      <trkpt lat="47.43589" lon="-0.5197">
        <ele>19</ele>
        <time>2010-06-26T14:52:38Z</time>
      </trkpt>
      <trkpt lat="47.43575" lon="-0.52032">
        <ele>18</ele>
        <time>2010-06-26T14:52:43Z</time>
      </trkpt>
      <trkpt lat="47.43561" lon="-0.52089">
        <ele>19</ele>
        <time>2010-06-26T14:52:48Z</time>
      </trkpt>
      <trkpt lat="47.43548" lon="-0.52147">
        <ele>19</ele>
        <time>2010-06-26T14:52:53Z</time>
      </trkpt>
      <trkpt lat="47.43537" lon="-0.52193">
        <ele>20</ele>
        <time>2010-06-26T14:52:58Z</time>
      </trkpt>
      <trkpt lat="47.43523" lon="-0.5225">
        <ele>20</ele>
        <time>2010-06-26T14:53:03Z</time>
      </trkpt>
      <trkpt lat="47.43509" lon="-0.52313">
        <ele>19</ele>
        <time>2010-06-26T14:53:08Z</time>
      </trkpt>
      <trkpt lat="47.43502" lon="-0.52342">
        <ele>19</ele>
        <time>2010-06-26T14:53:13Z</time>
      </trkpt>
      <trkpt lat="47.43502" lon="-0.52342">
        <ele>19</ele>
        <time>2010-06-26T14:53:18Z</time>
      </trkpt>
      <trkpt lat="47.43502" lon="-0.52343">
        <ele>19</ele>
        <time>2010-06-26T14:53:23Z</time>
      </trkpt>
      <trkpt lat="47.43503" lon="-0.52343">
        <ele>19</ele>
        <time>2010-06-26T14:53:28Z</time>
      </trkpt>
      <trkpt lat="47.43503" lon="-0.52343">
        <ele>19</ele>
        <time>2010-06-26T14:53:33Z</time>
      </trkpt>
      <trkpt lat="47.43503" lon="-0.52343">
        <ele>19</ele>
        <time>2010-06-26T14:53:38Z</time>
      </trkpt>
      <trkpt lat="47.43502" lon="-0.52343">
        <ele>19</ele>
        <time>2010-06-26T14:53:43Z</time>
      </trkpt>
      <trkpt lat="47.43502" lon="-0.52343">
        <ele>19</ele>
        <time>2010-06-26T14:53:48Z</time>
      </trkpt>
      <trkpt lat="47.435" lon="-0.52353">
        <ele>19</ele>
        <time>2010-06-26T14:53:53Z</time>
      </trkpt>
      <trkpt lat="47.4349" lon="-0.52391">
        <ele>19</ele>
        <time>2010-06-26T14:53:58Z</time>
      </trkpt>
      <trkpt lat="47.43479" lon="-0.5243">
        <ele>19</ele>
        <time>2010-06-26T14:54:03Z</time>
      </trkpt>
      <trkpt lat="47.43467" lon="-0.52483">
        <ele>19</ele>
        <time>2010-06-26T14:54:08Z</time>
      </trkpt>
      <trkpt lat="47.43455" lon="-0.52536">
        <ele>19</ele>
        <time>2010-06-26T14:54:13Z</time>
      </trkpt>
      <trkpt lat="47.4344" lon="-0.52597">
        <ele>19</ele>
        <time>2010-06-26T14:54:18Z</time>
      </trkpt>
      <trkpt lat="47.43433" lon="-0.52628">
        <ele>19</ele>
        <time>2010-06-26T14:54:23Z</time>
      </trkpt>
      <trkpt lat="47.43433" lon="-0.52627">
        <ele>19</ele>
        <time>2010-06-26T14:54:28Z</time>
      </trkpt>
      <trkpt lat="47.43433" lon="-0.52627">
        <ele>19</ele>
        <time>2010-06-26T14:54:33Z</time>
      </trkpt>
      <trkpt lat="47.43433" lon="-0.52627">
        <ele>19</ele>
        <time>2010-06-26T14:54:38Z</time>
      </trkpt>
      <trkpt lat="47.43431" lon="-0.52636">
        <ele>19</ele>
        <time>2010-06-26T14:54:43Z</time>
      </trkpt>
      <trkpt lat="47.43425" lon="-0.52659">
        <ele>20</ele>
        <time>2010-06-26T14:54:48Z</time>
      </trkpt>
      <trkpt lat="47.43414" lon="-0.52704">
        <ele>21</ele>
        <time>2010-06-26T14:54:53Z</time>
      </trkpt>
      <trkpt lat="47.43403" lon="-0.52755">
        <ele>22</ele>
        <time>2010-06-26T14:54:58Z</time>
      </trkpt>
      <trkpt lat="47.43389" lon="-0.52819">
        <ele>22</ele>
        <time>2010-06-26T14:55:03Z</time>
      </trkpt>
      <trkpt lat="47.43377" lon="-0.52872">
        <ele>21</ele>
        <time>2010-06-26T14:55:08Z</time>
      </trkpt>
      <trkpt lat="47.43374" lon="-0.52893">
        <ele>21</ele>
        <time>2010-06-26T14:55:13Z</time>
      </trkpt>
      <trkpt lat="47.43373" lon="-0.52895">
        <ele>21</ele>
        <time>2010-06-26T14:55:18Z</time>
      </trkpt>
      <trkpt lat="47.43366" lon="-0.52896">
        <ele>21</ele>
        <time>2010-06-26T14:55:23Z</time>
      </trkpt>
      <trkpt lat="47.43355" lon="-0.52903">
        <ele>21</ele>
        <time>2010-06-26T14:55:28Z</time>
      </trkpt>
      <trkpt lat="47.43346" lon="-0.52899">
        <ele>21</ele>
        <time>2010-06-26T14:55:33Z</time>
      </trkpt>
      <trkpt lat="47.43346" lon="-0.52898">
        <ele>21</ele>
        <time>2010-06-26T14:55:38Z</time>
      </trkpt>
      <trkpt lat="47.43344" lon="-0.52897">
        <ele>21</ele>
        <time>2010-06-26T14:55:43Z</time>
      </trkpt>
      <trkpt lat="47.43344" lon="-0.52898">
        <ele>21</ele>
        <time>2010-06-26T14:55:48Z</time>
      </trkpt>
      <trkpt lat="47.43344" lon="-0.52896">
        <ele>21</ele>
        <time>2010-06-26T14:55:53Z</time>
      </trkpt>
      <trkpt lat="47.43345" lon="-0.52896">
        <ele>21</ele>
        <time>2010-06-26T14:55:58Z</time>
      </trkpt>
      <trkpt lat="47.43347" lon="-0.52896">
        <ele>21</ele>
        <time>2010-06-26T14:56:03Z</time>
      </trkpt>
      <trkpt lat="47.43348" lon="-0.52898">
        <ele>21</ele>
        <time>2010-06-26T14:56:08Z</time>
      </trkpt>
      <trkpt lat="47.43347" lon="-0.52898">
        <ele>21</ele>
        <time>2010-06-26T14:56:13Z</time>
      </trkpt>
      <trkpt lat="47.43348" lon="-0.52897">
        <ele>21</ele>
        <time>2010-06-26T14:56:18Z</time>
      </trkpt>
      <trkpt lat="47.4335" lon="-0.52896">
        <ele>21</ele>
        <time>2010-06-26T14:56:23Z</time>
      </trkpt>
      <trkpt lat="47.43349" lon="-0.52895">
        <ele>21</ele>
        <time>2010-06-26T14:56:28Z</time>
      </trkpt>
      <trkpt lat="47.4335" lon="-0.52895">
        <ele>21</ele>
        <time>2010-06-26T14:56:33Z</time>
      </trkpt>
      <trkpt lat="47.43356" lon="-0.52894">
        <ele>21</ele>
        <time>2010-06-26T14:56:38Z</time>
      </trkpt>
      <trkpt lat="47.43359" lon="-0.52893">
        <ele>21</ele>
        <time>2010-06-26T14:56:43Z</time>
      </trkpt>
      <trkpt lat="47.43358" lon="-0.52892">
        <ele>21</ele>
        <time>2010-06-26T14:56:48Z</time>
      </trkpt>
      <trkpt lat="47.43354" lon="-0.52894">
        <ele>21</ele>
        <time>2010-06-26T14:56:53Z</time>
      </trkpt>
      <trkpt lat="47.43353" lon="-0.52897">
        <ele>21</ele>
        <time>2010-06-26T14:56:58Z</time>
      </trkpt>
      <trkpt lat="47.43353" lon="-0.52897">
        <ele>21</ele>
        <time>2010-06-26T14:57:03Z</time>
      </trkpt>
      <trkpt lat="47.43352" lon="-0.52897">
        <ele>21</ele>
        <time>2010-06-26T14:57:08Z</time>
      </trkpt>
      <trkpt lat="47.43352" lon="-0.52896">
        <ele>21</ele>
        <time>2010-06-26T14:57:13Z</time>
      </trkpt>
      <trkpt lat="47.43352" lon="-0.52897">
        <ele>21</ele>
        <time>2010-06-26T14:57:18Z</time>
      </trkpt>
      <trkpt lat="47.43352" lon="-0.52897">
        <ele>21</ele>
        <time>2010-06-26T14:57:23Z</time>
      </trkpt>
      <trkpt lat="47.43351" lon="-0.52897">
        <ele>21</ele>
        <time>2010-06-26T14:57:28Z</time>
      </trkpt>
      <trkpt lat="47.43351" lon="-0.52896">
        <ele>21</ele>
        <time>2010-06-26T14:57:33Z</time>
      </trkpt>
      <trkpt lat="47.43354" lon="-0.52895">
        <ele>21</ele>
        <time>2010-06-26T14:57:38Z</time>
      </trkpt>
      <trkpt lat="47.43354" lon="-0.52894">
        <ele>21</ele>
        <time>2010-06-26T14:57:43Z</time>
      </trkpt>
      <trkpt lat="47.43353" lon="-0.52893">
        <ele>21</ele>
        <time>2010-06-26T14:57:48Z</time>
      </trkpt>
      <trkpt lat="47.43353" lon="-0.52894">
        <ele>21</ele>
        <time>2010-06-26T14:57:53Z</time>
      </trkpt>
      <trkpt lat="47.43352" lon="-0.52895">
        <ele>21</ele>
        <time>2010-06-26T14:57:58Z</time>
      </trkpt>
      <trkpt lat="47.43351" lon="-0.52897">
        <ele>21</ele>
        <time>2010-06-26T14:58:03Z</time>
      </trkpt>
      <trkpt lat="47.43349" lon="-0.52897">
        <ele>21</ele>
        <time>2010-06-26T14:58:08Z</time>
      </trkpt>
      <trkpt lat="47.43349" lon="-0.52896">
        <ele>21</ele>
        <time>2010-06-26T14:58:13Z</time>
      </trkpt>
      <trkpt lat="47.43347" lon="-0.52897">
        <ele>21</ele>
        <time>2010-06-26T14:58:18Z</time>
      </trkpt>
      <trkpt lat="47.43344" lon="-0.52898">
        <ele>21</ele>
        <time>2010-06-26T14:58:23Z</time>
      </trkpt>
      <trkpt lat="47.43342" lon="-0.529">
        <ele>21</ele>
        <time>2010-06-26T14:58:28Z</time>
      </trkpt>
      <trkpt lat="47.43342" lon="-0.529">
        <ele>21</ele>
        <time>2010-06-26T14:58:33Z</time>
      </trkpt>
      <trkpt lat="47.43343" lon="-0.52899">
        <ele>21</ele>
        <time>2010-06-26T14:58:38Z</time>
      </trkpt>
      <trkpt lat="47.43347" lon="-0.52897">
        <ele>21</ele>
        <time>2010-06-26T14:58:43Z</time>
      </trkpt>
      <trkpt lat="47.43346" lon="-0.52897">
        <ele>21</ele>
        <time>2010-06-26T14:58:48Z</time>
      </trkpt>
      <trkpt lat="47.43344" lon="-0.52898">
        <ele>21</ele>
        <time>2010-06-26T14:58:53Z</time>
      </trkpt>
      <trkpt lat="47.43342" lon="-0.52899">
        <ele>21</ele>
        <time>2010-06-26T14:58:58Z</time>
      </trkpt>
      <trkpt lat="47.43343" lon="-0.52899">
        <ele>21</ele>
        <time>2010-06-26T14:59:03Z</time>
      </trkpt>
      <trkpt lat="47.43345" lon="-0.52898">
        <ele>21</ele>
        <time>2010-06-26T14:59:08Z</time>
      </trkpt>
      <trkpt lat="47.4335" lon="-0.52896">
        <ele>21</ele>
        <time>2010-06-26T14:59:13Z</time>
      </trkpt>
      <trkpt lat="47.43355" lon="-0.52893">
        <ele>21</ele>
        <time>2010-06-26T14:59:18Z</time>
      </trkpt>
      <trkpt lat="47.43357" lon="-0.52893">
        <ele>21</ele>
        <time>2010-06-26T14:59:23Z</time>
      </trkpt>
      <trkpt lat="47.43357" lon="-0.52892">
        <ele>21</ele>
        <time>2010-06-26T14:59:28Z</time>
      </trkpt>
      <trkpt lat="47.43358" lon="-0.52891">
        <ele>21</ele>
        <time>2010-06-26T14:59:33Z</time>
      </trkpt>
      <trkpt lat="47.43358" lon="-0.52892">
        <ele>21</ele>
        <time>2010-06-26T14:59:38Z</time>
      </trkpt>
      <trkpt lat="47.4336" lon="-0.52891">
        <ele>21</ele>
        <time>2010-06-26T14:59:43Z</time>
      </trkpt>
      <trkpt lat="47.43361" lon="-0.5289">
        <ele>21</ele>
        <time>2010-06-26T14:59:48Z</time>
      </trkpt>
      <trkpt lat="47.43361" lon="-0.5289">
        <ele>21</ele>
        <time>2010-06-26T14:59:53Z</time>
      </trkpt>
      <trkpt lat="47.43359" lon="-0.52891">
        <ele>21</ele>
        <time>2010-06-26T14:59:58Z</time>
      </trkpt>
      <trkpt lat="47.43357" lon="-0.52892">
        <ele>21</ele>
        <time>2010-06-26T15:00:03Z</time>
      </trkpt>
      <trkpt lat="47.43355" lon="-0.52893">
        <ele>21</ele>
        <time>2010-06-26T15:00:08Z</time>
      </trkpt>
      <trkpt lat="47.43352" lon="-0.52894">
        <ele>21</ele>
        <time>2010-06-26T15:00:13Z</time>
      </trkpt>
      <trkpt lat="47.43352" lon="-0.52894">
        <ele>21</ele>
        <time>2010-06-26T15:00:18Z</time>
      </trkpt>
      <trkpt lat="47.43353" lon="-0.52894">
        <ele>21</ele>
        <time>2010-06-26T15:00:23Z</time>
      </trkpt>
      <trkpt lat="47.43357" lon="-0.52895">
        <ele>21</ele>
        <time>2010-06-26T15:00:28Z</time>
      </trkpt>
      <trkpt lat="47.43357" lon="-0.52895">
        <ele>21</ele>
        <time>2010-06-26T15:00:33Z</time>
      </trkpt>
      <trkpt lat="47.43358" lon="-0.52895">
        <ele>21</ele>
        <time>2010-06-26T15:00:38Z</time>
      </trkpt>
      <trkpt lat="47.43356" lon="-0.52895">
        <ele>21</ele>
        <time>2010-06-26T15:00:43Z</time>
      </trkpt>
      <trkpt lat="47.43349" lon="-0.52898">
        <ele>21</ele>
        <time>2010-06-26T15:00:48Z</time>
      </trkpt>
      <trkpt lat="47.43345" lon="-0.52899">
        <ele>21</ele>
        <time>2010-06-26T15:00:53Z</time>
      </trkpt>
      <trkpt lat="47.43341" lon="-0.529">
        <ele>21</ele>
        <time>2010-06-26T15:00:58Z</time>
      </trkpt>
      <trkpt lat="47.4334" lon="-0.52899">
        <ele>21</ele>
        <time>2010-06-26T15:01:03Z</time>
      </trkpt>
      <trkpt lat="47.43341" lon="-0.52899">
        <ele>21</ele>
        <time>2010-06-26T15:01:08Z</time>
      </trkpt>
      <trkpt lat="47.43342" lon="-0.52898">
        <ele>21</ele>
        <time>2010-06-26T15:01:13Z</time>
      </trkpt>
      <trkpt lat="47.43343" lon="-0.52897">
        <ele>21</ele>
        <time>2010-06-26T15:01:18Z</time>
      </trkpt>
      <trkpt lat="47.43346" lon="-0.52896">
        <ele>21</ele>
        <time>2010-06-26T15:01:23Z</time>
      </trkpt>
      <trkpt lat="47.43348" lon="-0.52895">
        <ele>21</ele>
        <time>2010-06-26T15:01:28Z</time>
      </trkpt>
      <trkpt lat="47.4335" lon="-0.52896">
        <ele>21</ele>
        <time>2010-06-26T15:01:33Z</time>
      </trkpt>
      <trkpt lat="47.4335" lon="-0.52896">
        <ele>21</ele>
        <time>2010-06-26T15:01:38Z</time>
      </trkpt>
      <trkpt lat="47.43351" lon="-0.52895">
        <ele>21</ele>
        <time>2010-06-26T15:01:43Z</time>
      </trkpt>
      <trkpt lat="47.43351" lon="-0.52893">
        <ele>21</ele>
        <time>2010-06-26T15:01:48Z</time>
      </trkpt>
      <trkpt lat="47.4335" lon="-0.52893">
        <ele>21</ele>
        <time>2010-06-26T15:01:53Z</time>
      </trkpt>
      <trkpt lat="47.43349" lon="-0.52893">
        <ele>21</ele>
        <time>2010-06-26T15:01:58Z</time>
      </trkpt>
      <trkpt lat="47.43348" lon="-0.52893">
        <ele>21</ele>
        <time>2010-06-26T15:02:03Z</time>
      </trkpt>
      <trkpt lat="47.43349" lon="-0.52895">
        <ele>21</ele>
        <time>2010-06-26T15:02:08Z</time>
      </trkpt>
      <trkpt lat="47.43348" lon="-0.52897">
        <ele>21</ele>
        <time>2010-06-26T15:02:13Z</time>
      </trkpt>
      <trkpt lat="47.43347" lon="-0.52899">
        <ele>21</ele>
        <time>2010-06-26T15:02:18Z</time>
      </trkpt>
      <trkpt lat="47.43347" lon="-0.529">
        <ele>21</ele>
        <time>2010-06-26T15:02:23Z</time>
      </trkpt>
      <trkpt lat="47.43347" lon="-0.52901">
        <ele>21</ele>
        <time>2010-06-26T15:02:28Z</time>
      </trkpt>
      <trkpt lat="47.43348" lon="-0.529">
        <ele>21</ele>
        <time>2010-06-26T15:02:33Z</time>
      </trkpt>
      <trkpt lat="47.43348" lon="-0.52899">
        <ele>21</ele>
        <time>2010-06-26T15:02:38Z</time>
      </trkpt>
      <trkpt lat="47.43348" lon="-0.52899">
        <ele>21</ele>
        <time>2010-06-26T15:02:43Z</time>
      </trkpt>
      <trkpt lat="47.43349" lon="-0.52899">
        <ele>21</ele>
        <time>2010-06-26T15:02:48Z</time>
      </trkpt>
      <trkpt lat="47.43352" lon="-0.52901">
        <ele>21</ele>
        <time>2010-06-26T15:02:53Z</time>
      </trkpt>
      <trkpt lat="47.43353" lon="-0.529">
        <ele>21</ele>
        <time>2010-06-26T15:02:58Z</time>
      </trkpt>
      <trkpt lat="47.43353" lon="-0.529">
        <ele>21</ele>
        <time>2010-06-26T15:03:03Z</time>
      </trkpt>
      <trkpt lat="47.43348" lon="-0.52903">
        <ele>21</ele>
        <time>2010-06-26T15:03:08Z</time>
      </trkpt>
      <trkpt lat="47.43347" lon="-0.52903">
        <ele>21</ele>
        <time>2010-06-26T15:03:13Z</time>
      </trkpt>
      <trkpt lat="47.43346" lon="-0.52903">
        <ele>21</ele>
        <time>2010-06-26T15:03:18Z</time>
      </trkpt>
      <trkpt lat="47.43345" lon="-0.52903">
        <ele>21</ele>
        <time>2010-06-26T15:03:23Z</time>
      </trkpt>
      <trkpt lat="47.43345" lon="-0.52903">
        <ele>21</ele>
        <time>2010-06-26T15:03:28Z</time>
      </trkpt>
      <trkpt lat="47.43345" lon="-0.52903">
        <ele>21</ele>
        <time>2010-06-26T15:03:33Z</time>
      </trkpt>
      <trkpt lat="47.43345" lon="-0.52903">
        <ele>21</ele>
        <time>2010-06-26T15:03:38Z</time>
      </trkpt>
      <trkpt lat="47.43345" lon="-0.52904">
        <ele>21</ele>
        <time>2010-06-26T15:03:43Z</time>
      </trkpt>
      <trkpt lat="47.43345" lon="-0.52904">
        <ele>21</ele>
        <time>2010-06-26T15:03:48Z</time>
      </trkpt>
      <trkpt lat="47.43344" lon="-0.52903">
        <ele>21</ele>
        <time>2010-06-26T15:03:53Z</time>
      </trkpt>
      <trkpt lat="47.4334" lon="-0.52906">
        <ele>21</ele>
        <time>2010-06-26T15:03:58Z</time>
      </trkpt>
      <trkpt lat="47.43338" lon="-0.52906">
        <ele>21</ele>
        <time>2010-06-26T15:04:03Z</time>
      </trkpt>
      <trkpt lat="47.43329" lon="-0.5291">
        <ele>21</ele>
        <time>2010-06-26T15:04:08Z</time>
      </trkpt>
      <trkpt lat="47.4332" lon="-0.52912">
        <ele>21</ele>
        <time>2010-06-26T15:04:13Z</time>
      </trkpt>
      <trkpt lat="47.43316" lon="-0.52912">
        <ele>21</ele>
        <time>2010-06-26T15:04:18Z</time>
      </trkpt>
      <trkpt lat="47.4331" lon="-0.52917">
        <ele>21</ele>
        <time>2010-06-26T15:04:23Z</time>
      </trkpt>
      <trkpt lat="47.43307" lon="-0.5292">
        <ele>22</ele>
        <time>2010-06-26T15:04:28Z</time>
      </trkpt>
      <trkpt lat="47.43295" lon="-0.52926">
        <ele>22</ele>
        <time>2010-06-26T15:04:33Z</time>
      </trkpt>
      <trkpt lat="47.43273" lon="-0.52918">
        <ele>22</ele>
        <time>2010-06-26T15:04:38Z</time>
      </trkpt>
      <trkpt lat="47.43255" lon="-0.52909">
        <ele>22</ele>
        <time>2010-06-26T15:04:43Z</time>
      </trkpt>
      <trkpt lat="47.43229" lon="-0.52894">
        <ele>22</ele>
        <time>2010-06-26T15:04:48Z</time>
      </trkpt>
      <trkpt lat="47.43201" lon="-0.52877">
        <ele>21</ele>
        <time>2010-06-26T15:04:53Z</time>
      </trkpt>
      <trkpt lat="47.43167" lon="-0.52861">
        <ele>21</ele>
        <time>2010-06-26T15:04:58Z</time>
      </trkpt>
      <trkpt lat="47.43137" lon="-0.52846">
        <ele>20</ele>
        <time>2010-06-26T15:05:03Z</time>
      </trkpt>
      <trkpt lat="47.43114" lon="-0.52837">
        <ele>20</ele>
        <time>2010-06-26T15:05:08Z</time>
      </trkpt>
      <trkpt lat="47.43082" lon="-0.52827">
        <ele>19</ele>
        <time>2010-06-26T15:05:13Z</time>
      </trkpt>
      <trkpt lat="47.43044" lon="-0.52818">
        <ele>19</ele>
        <time>2010-06-26T15:05:18Z</time>
      </trkpt>
      <trkpt lat="47.43009" lon="-0.52804">
        <ele>20</ele>
        <time>2010-06-26T15:05:23Z</time>
      </trkpt>
      <trkpt lat="47.42985" lon="-0.52791">
        <ele>20</ele>
        <time>2010-06-26T15:05:28Z</time>
      </trkpt>
      <trkpt lat="47.42948" lon="-0.52782">
        <ele>21</ele>
        <time>2010-06-26T15:05:33Z</time>
      </trkpt>
      <trkpt lat="47.42912" lon="-0.52781">
        <ele>21</ele>
        <time>2010-06-26T15:05:38Z</time>
      </trkpt>
      <trkpt lat="47.42873" lon="-0.52766">
        <ele>21</ele>
        <time>2010-06-26T15:05:43Z</time>
      </trkpt>
      <trkpt lat="47.42836" lon="-0.52754">
        <ele>23</ele>
        <time>2010-06-26T15:05:48Z</time>
      </trkpt>
      <trkpt lat="47.42812" lon="-0.52741">
        <ele>22</ele>
        <time>2010-06-26T15:05:53Z</time>
      </trkpt>
      <trkpt lat="47.42786" lon="-0.52725">
        <ele>22</ele>
        <time>2010-06-26T15:05:58Z</time>
      </trkpt>
      <trkpt lat="47.42756" lon="-0.52705">
        <ele>22</ele>
        <time>2010-06-26T15:06:03Z</time>
      </trkpt>
      <trkpt lat="47.42729" lon="-0.52686">
        <ele>21</ele>
        <time>2010-06-26T15:06:08Z</time>
      </trkpt>
      <trkpt lat="47.42707" lon="-0.52671">
        <ele>21</ele>
        <time>2010-06-26T15:06:13Z</time>
      </trkpt>
      <trkpt lat="47.42678" lon="-0.52652">
        <ele>19</ele>
        <time>2010-06-26T15:06:18Z</time>
      </trkpt>
      <trkpt lat="47.42646" lon="-0.52631">
        <ele>21</ele>
        <time>2010-06-26T15:06:23Z</time>
      </trkpt>
      <trkpt lat="47.42612" lon="-0.5261">
        <ele>21</ele>
        <time>2010-06-26T15:06:28Z</time>
      </trkpt>
      <trkpt lat="47.42568" lon="-0.52579">
        <ele>22</ele>
        <time>2010-06-26T15:06:33Z</time>
      </trkpt>
      <trkpt lat="47.42539" lon="-0.5256">
        <ele>23</ele>
        <time>2010-06-26T15:06:38Z</time>
      </trkpt>
      <trkpt lat="47.42506" lon="-0.52536">
        <ele>23</ele>
        <time>2010-06-26T15:06:43Z</time>
      </trkpt>
      <trkpt lat="47.4247" lon="-0.52529">
        <ele>23</ele>
        <time>2010-06-26T15:06:48Z</time>
      </trkpt>
      <trkpt lat="47.42449" lon="-0.52493">
        <ele>23</ele>
        <time>2010-06-26T15:06:53Z</time>
      </trkpt>
      <trkpt lat="47.42428" lon="-0.5247">
        <ele>23</ele>
        <time>2010-06-26T15:06:58Z</time>
      </trkpt>
      <trkpt lat="47.42399" lon="-0.52453">
        <ele>24</ele>
        <time>2010-06-26T15:07:03Z</time>
      </trkpt>
      <trkpt lat="47.42362" lon="-0.52429">
        <ele>24</ele>
        <time>2010-06-26T15:07:08Z</time>
      </trkpt>
      <trkpt lat="47.42333" lon="-0.52407">
        <ele>24</ele>
        <time>2010-06-26T15:07:13Z</time>
      </trkpt>
      <trkpt lat="47.42302" lon="-0.52385">
        <ele>23</ele>
        <time>2010-06-26T15:07:18Z</time>
      </trkpt>
      <trkpt lat="47.42276" lon="-0.52373">
        <ele>23</ele>
        <time>2010-06-26T15:07:23Z</time>
      </trkpt>
      <trkpt lat="47.42243" lon="-0.5237">
        <ele>19</ele>
        <time>2010-06-26T15:07:28Z</time>
      </trkpt>
      <trkpt lat="47.42201" lon="-0.52368">
        <ele>18</ele>
        <time>2010-06-26T15:07:33Z</time>
      </trkpt>
      <trkpt lat="47.42165" lon="-0.52366">
        <ele>14</ele>
        <time>2010-06-26T15:07:38Z</time>
      </trkpt>
      <trkpt lat="47.42136" lon="-0.52364">
        <ele>14</ele>
        <time>2010-06-26T15:07:43Z</time>
      </trkpt>
      <trkpt lat="47.421" lon="-0.52362">
        <ele>14</ele>
        <time>2010-06-26T15:07:48Z</time>
      </trkpt>
      <trkpt lat="47.42063" lon="-0.52358">
        <ele>14</ele>
        <time>2010-06-26T15:07:53Z</time>
      </trkpt>
      <trkpt lat="47.42018" lon="-0.52355">
        <ele>14</ele>
        <time>2010-06-26T15:07:58Z</time>
      </trkpt>
      <trkpt lat="47.4198" lon="-0.52353">
        <ele>17</ele>
        <time>2010-06-26T15:08:03Z</time>
      </trkpt>
      <trkpt lat="47.4195" lon="-0.5235">
        <ele>19</ele>
        <time>2010-06-26T15:08:08Z</time>
      </trkpt>
      <trkpt lat="47.41911" lon="-0.52346">
        <ele>22</ele>
        <time>2010-06-26T15:08:13Z</time>
      </trkpt>
      <trkpt lat="47.41862" lon="-0.52342">
        <ele>22</ele>
        <time>2010-06-26T15:08:18Z</time>
      </trkpt>
      <trkpt lat="47.41825" lon="-0.52339">
        <ele>22</ele>
        <time>2010-06-26T15:08:23Z</time>
      </trkpt>
      <trkpt lat="47.41789" lon="-0.52336">
        <ele>22</ele>
        <time>2010-06-26T15:08:28Z</time>
      </trkpt>
      <trkpt lat="47.41759" lon="-0.52333">
        <ele>22</ele>
        <time>2010-06-26T15:08:33Z</time>
      </trkpt>
      <trkpt lat="47.41721" lon="-0.52331">
        <ele>22</ele>
        <time>2010-06-26T15:08:38Z</time>
      </trkpt>
      <trkpt lat="47.41676" lon="-0.52328">
        <ele>23</ele>
        <time>2010-06-26T15:08:43Z</time>
      </trkpt>
      <trkpt lat="47.41639" lon="-0.52325">
        <ele>24</ele>
        <time>2010-06-26T15:08:48Z</time>
      </trkpt>
      <trkpt lat="47.4161" lon="-0.52323">
        <ele>24</ele>
        <time>2010-06-26T15:08:53Z</time>
      </trkpt>
      <trkpt lat="47.41574" lon="-0.5232">
        <ele>24</ele>
        <time>2010-06-26T15:08:58Z</time>
      </trkpt>
      <trkpt lat="47.4154" lon="-0.52317">
        <ele>24</ele>
        <time>2010-06-26T15:09:03Z</time>
      </trkpt>
      <trkpt lat="47.41523" lon="-0.52311">
        <ele>24</ele>
        <time>2010-06-26T15:09:08Z</time>
      </trkpt>
      <trkpt lat="47.41526" lon="-0.52309">
        <ele>24</ele>
        <time>2010-06-26T15:09:13Z</time>
      </trkpt>
      <trkpt lat="47.41527" lon="-0.52307">
        <ele>24</ele>
        <time>2010-06-26T15:09:18Z</time>
      </trkpt>
      <trkpt lat="47.41515" lon="-0.52305">
        <ele>24</ele>
        <time>2010-06-26T15:09:23Z</time>
      </trkpt>
      <trkpt lat="47.41476" lon="-0.52309">
        <ele>23</ele>
        <time>2010-06-26T15:09:28Z</time>
      </trkpt>
      <trkpt lat="47.41441" lon="-0.52315">
        <ele>23</ele>
        <time>2010-06-26T15:09:33Z</time>
      </trkpt>
      <trkpt lat="47.41414" lon="-0.52324">
        <ele>22</ele>
        <time>2010-06-26T15:09:38Z</time>
      </trkpt>
      <trkpt lat="47.41377" lon="-0.52334">
        <ele>21</ele>
        <time>2010-06-26T15:09:43Z</time>
      </trkpt>
      <trkpt lat="47.41331" lon="-0.52348">
        <ele>21</ele>
        <time>2010-06-26T15:09:48Z</time>
      </trkpt>
      <trkpt lat="47.41294" lon="-0.52359">
        <ele>22</ele>
        <time>2010-06-26T15:09:53Z</time>
      </trkpt>
      <trkpt lat="47.41256" lon="-0.5237">
        <ele>22</ele>
        <time>2010-06-26T15:09:58Z</time>
      </trkpt>
      <trkpt lat="47.41226" lon="-0.52379">
        <ele>20</ele>
        <time>2010-06-26T15:10:03Z</time>
      </trkpt>
      <trkpt lat="47.41188" lon="-0.52388">
        <ele>19</ele>
        <time>2010-06-26T15:10:08Z</time>
      </trkpt>
      <trkpt lat="47.41149" lon="-0.52401">
        <ele>18</ele>
        <time>2010-06-26T15:10:13Z</time>
      </trkpt>
      <trkpt lat="47.41104" lon="-0.52416">
        <ele>18</ele>
        <time>2010-06-26T15:10:18Z</time>
      </trkpt>
      <trkpt lat="47.41074" lon="-0.52427">
        <ele>19</ele>
        <time>2010-06-26T15:10:23Z</time>
      </trkpt>
      <trkpt lat="47.41036" lon="-0.5244">
        <ele>20</ele>
        <time>2010-06-26T15:10:28Z</time>
      </trkpt>
      <trkpt lat="47.41" lon="-0.52455">
        <ele>21</ele>
        <time>2010-06-26T15:10:33Z</time>
      </trkpt>
      <trkpt lat="47.40954" lon="-0.52472">
        <ele>21</ele>
        <time>2010-06-26T15:10:38Z</time>
      </trkpt>
      <trkpt lat="47.40918" lon="-0.52487">
        <ele>21</ele>
        <time>2010-06-26T15:10:43Z</time>
      </trkpt>
      <trkpt lat="47.40904" lon="-0.52492">
        <ele>21</ele>
        <time>2010-06-26T15:10:48Z</time>
      </trkpt>
      <trkpt lat="47.40903" lon="-0.52492">
        <ele>21</ele>
        <time>2010-06-26T15:10:53Z</time>
      </trkpt>
      <trkpt lat="47.409" lon="-0.52488">
        <ele>21</ele>
        <time>2010-06-26T15:10:58Z</time>
      </trkpt>
      <trkpt lat="47.40897" lon="-0.52458">
        <ele>21</ele>
        <time>2010-06-26T15:11:03Z</time>
      </trkpt>
      <trkpt lat="47.40914" lon="-0.52425">
        <ele>21</ele>
        <time>2010-06-26T15:11:08Z</time>
      </trkpt>
      <trkpt lat="47.40925" lon="-0.52392">
        <ele>21</ele>
        <time>2010-06-26T15:11:13Z</time>
      </trkpt>
      <trkpt lat="47.40932" lon="-0.52339">
        <ele>20</ele>
        <time>2010-06-26T15:11:18Z</time>
      </trkpt>
      <trkpt lat="47.40943" lon="-0.52271">
        <ele>20</ele>
        <time>2010-06-26T15:11:23Z</time>
      </trkpt>
      <trkpt lat="47.40949" lon="-0.52226">
        <ele>20</ele>
        <time>2010-06-26T15:11:28Z</time>
      </trkpt>
      <trkpt lat="47.4096" lon="-0.52173">
        <ele>19</ele>
        <time>2010-06-26T15:11:33Z</time>
      </trkpt>
      <trkpt lat="47.40973" lon="-0.52121">
        <ele>19</ele>
        <time>2010-06-26T15:11:38Z</time>
      </trkpt>
      <trkpt lat="47.40985" lon="-0.52069">
        <ele>19</ele>
        <time>2010-06-26T15:11:43Z</time>
      </trkpt>
      <trkpt lat="47.40997" lon="-0.52005">
        <ele>20</ele>
        <time>2010-06-26T15:11:48Z</time>
      </trkpt>
      <trkpt lat="47.41006" lon="-0.51953">
        <ele>21</ele>
        <time>2010-06-26T15:11:53Z</time>
      </trkpt>
      <trkpt lat="47.41012" lon="-0.51911">
        <ele>22</ele>
        <time>2010-06-26T15:11:58Z</time>
      </trkpt>
      <trkpt lat="47.4102" lon="-0.5186">
        <ele>22</ele>
        <time>2010-06-26T15:12:03Z</time>
      </trkpt>
      <trkpt lat="47.41029" lon="-0.51798">
        <ele>22</ele>
        <time>2010-06-26T15:12:08Z</time>
      </trkpt>
      <trkpt lat="47.41039" lon="-0.51746">
        <ele>21</ele>
        <time>2010-06-26T15:12:13Z</time>
      </trkpt>
      <trkpt lat="47.41044" lon="-0.51705">
        <ele>21</ele>
        <time>2010-06-26T15:12:18Z</time>
      </trkpt>
      <trkpt lat="47.41051" lon="-0.51654">
        <ele>20</ele>
        <time>2010-06-26T15:12:23Z</time>
      </trkpt>
      <trkpt lat="47.41057" lon="-0.51602">
        <ele>19</ele>
        <time>2010-06-26T15:12:28Z</time>
      </trkpt>
      <trkpt lat="47.41067" lon="-0.51541">
        <ele>19</ele>
        <time>2010-06-26T15:12:33Z</time>
      </trkpt>
      <trkpt lat="47.41085" lon="-0.51494">
        <ele>18</ele>
        <time>2010-06-26T15:12:38Z</time>
      </trkpt>
      <trkpt lat="47.41106" lon="-0.51463">
        <ele>19</ele>
        <time>2010-06-26T15:12:43Z</time>
      </trkpt>
      <trkpt lat="47.41135" lon="-0.51425">
        <ele>20</ele>
        <time>2010-06-26T15:12:48Z</time>
      </trkpt>
      <trkpt lat="47.4117" lon="-0.51379">
        <ele>20</ele>
        <time>2010-06-26T15:12:53Z</time>
      </trkpt>
      <trkpt lat="47.41196" lon="-0.51339">
        <ele>20</ele>
        <time>2010-06-26T15:12:58Z</time>
      </trkpt>
      <trkpt lat="47.41216" lon="-0.51306">
        <ele>19</ele>
        <time>2010-06-26T15:13:03Z</time>
      </trkpt>
      <trkpt lat="47.4124" lon="-0.51265">
        <ele>18</ele>
        <time>2010-06-26T15:13:08Z</time>
      </trkpt>
      <trkpt lat="47.41263" lon="-0.51225">
        <ele>19</ele>
        <time>2010-06-26T15:13:13Z</time>
      </trkpt>
      <trkpt lat="47.41292" lon="-0.51176">
        <ele>20</ele>
        <time>2010-06-26T15:13:18Z</time>
      </trkpt>
      <trkpt lat="47.41315" lon="-0.51136">
        <ele>21</ele>
        <time>2010-06-26T15:13:23Z</time>
      </trkpt>
      <trkpt lat="47.41332" lon="-0.51104">
        <ele>22</ele>
        <time>2010-06-26T15:13:28Z</time>
      </trkpt>
      <trkpt lat="47.41356" lon="-0.51067">
        <ele>22</ele>
        <time>2010-06-26T15:13:33Z</time>
      </trkpt>
      <trkpt lat="47.41377" lon="-0.51026">
        <ele>22</ele>
        <time>2010-06-26T15:13:38Z</time>
      </trkpt>
      <trkpt lat="47.41389" lon="-0.50967">
        <ele>21</ele>
        <time>2010-06-26T15:13:43Z</time>
      </trkpt>
      <trkpt lat="47.41393" lon="-0.50926">
        <ele>20</ele>
        <time>2010-06-26T15:13:48Z</time>
      </trkpt>
      <trkpt lat="47.41399" lon="-0.50875">
        <ele>20</ele>
        <time>2010-06-26T15:13:53Z</time>
      </trkpt>
      <trkpt lat="47.41405" lon="-0.50824">
        <ele>22</ele>
        <time>2010-06-26T15:13:58Z</time>
      </trkpt>
      <trkpt lat="47.41408" lon="-0.5076">
        <ele>23</ele>
        <time>2010-06-26T15:14:03Z</time>
      </trkpt>
      <trkpt lat="47.41404" lon="-0.50701">
        <ele>24</ele>
        <time>2010-06-26T15:14:08Z</time>
      </trkpt>
      <trkpt lat="47.41394" lon="-0.50651">
        <ele>23</ele>
        <time>2010-06-26T15:14:13Z</time>
      </trkpt>
      <trkpt lat="47.41385" lon="-0.506">
        <ele>22</ele>
        <time>2010-06-26T15:14:18Z</time>
      </trkpt>
      <trkpt lat="47.41377" lon="-0.50548">
        <ele>20</ele>
        <time>2010-06-26T15:14:23Z</time>
      </trkpt>
      <trkpt lat="47.41367" lon="-0.50485">
        <ele>19</ele>
        <time>2010-06-26T15:14:28Z</time>
      </trkpt>
      <trkpt lat="47.41358" lon="-0.50432">
        <ele>18</ele>
        <time>2010-06-26T15:14:33Z</time>
      </trkpt>
      <trkpt lat="47.41354" lon="-0.50389">
        <ele>18</ele>
        <time>2010-06-26T15:14:38Z</time>
      </trkpt>
      <trkpt lat="47.41355" lon="-0.50335">
        <ele>19</ele>
        <time>2010-06-26T15:14:43Z</time>
      </trkpt>
      <trkpt lat="47.41344" lon="-0.50272">
        <ele>20</ele>
        <time>2010-06-26T15:14:48Z</time>
      </trkpt>
      <trkpt lat="47.4133" lon="-0.5022">
        <ele>20</ele>
        <time>2010-06-26T15:14:53Z</time>
      </trkpt>
      <trkpt lat="47.41322" lon="-0.50179">
        <ele>20</ele>
        <time>2010-06-26T15:14:58Z</time>
      </trkpt>
      <trkpt lat="47.41319" lon="-0.50123">
        <ele>22</ele>
        <time>2010-06-26T15:15:03Z</time>
      </trkpt>
      <trkpt lat="47.41316" lon="-0.50058">
        <ele>23</ele>
        <time>2010-06-26T15:15:08Z</time>
      </trkpt>
      <trkpt lat="47.4131" lon="-0.50007">
        <ele>23</ele>
        <time>2010-06-26T15:15:13Z</time>
      </trkpt>
      <trkpt lat="47.41309" lon="-0.4995">
        <ele>20</ele>
        <time>2010-06-26T15:15:18Z</time>
      </trkpt>
      <trkpt lat="47.41308" lon="-0.49904">
        <ele>18</ele>
        <time>2010-06-26T15:15:23Z</time>
      </trkpt>
      <trkpt lat="47.41306" lon="-0.4985">
        <ele>19</ele>
        <time>2010-06-26T15:15:28Z</time>
      </trkpt>
      <trkpt lat="47.41303" lon="-0.49785">
        <ele>19</ele>
        <time>2010-06-26T15:15:33Z</time>
      </trkpt>
      <trkpt lat="47.41294" lon="-0.49732">
        <ele>19</ele>
        <time>2010-06-26T15:15:38Z</time>
      </trkpt>
      <trkpt lat="47.41285" lon="-0.4969">
        <ele>20</ele>
        <time>2010-06-26T15:15:43Z</time>
      </trkpt>
      <trkpt lat="47.41274" lon="-0.49637">
        <ele>22</ele>
        <time>2010-06-26T15:15:48Z</time>
      </trkpt>
      <trkpt lat="47.41261" lon="-0.49571">
        <ele>22</ele>
        <time>2010-06-26T15:15:53Z</time>
      </trkpt>
      <trkpt lat="47.41249" lon="-0.49515">
        <ele>23</ele>
        <time>2010-06-26T15:15:58Z</time>
      </trkpt>
      <trkpt lat="47.41237" lon="-0.49458">
        <ele>23</ele>
        <time>2010-06-26T15:16:03Z</time>
      </trkpt>
      <trkpt lat="47.4123" lon="-0.49411">
        <ele>24</ele>
        <time>2010-06-26T15:16:08Z</time>
      </trkpt>
      <trkpt lat="47.41219" lon="-0.4936">
        <ele>23</ele>
        <time>2010-06-26T15:16:13Z</time>
      </trkpt>
      <trkpt lat="47.41205" lon="-0.49294">
        <ele>22</ele>
        <time>2010-06-26T15:16:18Z</time>
      </trkpt>
      <trkpt lat="47.41195" lon="-0.4924">
        <ele>20</ele>
        <time>2010-06-26T15:16:23Z</time>
      </trkpt>
      <trkpt lat="47.41187" lon="-0.49198">
        <ele>20</ele>
        <time>2010-06-26T15:16:28Z</time>
      </trkpt>
      <trkpt lat="47.41175" lon="-0.49146">
        <ele>21</ele>
        <time>2010-06-26T15:16:33Z</time>
      </trkpt>
      <trkpt lat="47.41156" lon="-0.49087">
        <ele>23</ele>
        <time>2010-06-26T15:16:38Z</time>
      </trkpt>
      <trkpt lat="47.41139" lon="-0.49038">
        <ele>24</ele>
        <time>2010-06-26T15:16:43Z</time>
      </trkpt>
      <trkpt lat="47.41125" lon="-0.48989">
        <ele>23</ele>
        <time>2010-06-26T15:16:48Z</time>
      </trkpt>
      <trkpt lat="47.41112" lon="-0.4895">
        <ele>22</ele>
        <time>2010-06-26T15:16:53Z</time>
      </trkpt>
      <trkpt lat="47.41096" lon="-0.489">
        <ele>20</ele>
        <time>2010-06-26T15:16:58Z</time>
      </trkpt>
      <trkpt lat="47.4108" lon="-0.48852">
        <ele>19</ele>
        <time>2010-06-26T15:17:03Z</time>
      </trkpt>
      <trkpt lat="47.41061" lon="-0.48793">
        <ele>18</ele>
        <time>2010-06-26T15:17:08Z</time>
      </trkpt>
      <trkpt lat="47.41045" lon="-0.48745">
        <ele>18</ele>
        <time>2010-06-26T15:17:13Z</time>
      </trkpt>
      <trkpt lat="47.41032" lon="-0.48706">
        <ele>17</ele>
        <time>2010-06-26T15:17:18Z</time>
      </trkpt>
      <trkpt lat="47.41016" lon="-0.48657">
        <ele>18</ele>
        <time>2010-06-26T15:17:23Z</time>
      </trkpt>
      <trkpt lat="47.40995" lon="-0.48598">
        <ele>19</ele>
        <time>2010-06-26T15:17:28Z</time>
      </trkpt>
      <trkpt lat="47.40976" lon="-0.4855">
        <ele>19</ele>
        <time>2010-06-26T15:17:33Z</time>
      </trkpt>
      <trkpt lat="47.40959" lon="-0.48511">
        <ele>19</ele>
        <time>2010-06-26T15:17:38Z</time>
      </trkpt>
      <trkpt lat="47.40939" lon="-0.48464">
        <ele>19</ele>
        <time>2010-06-26T15:17:43Z</time>
      </trkpt>
      <trkpt lat="47.40918" lon="-0.48416">
        <ele>21</ele>
        <time>2010-06-26T15:17:48Z</time>
      </trkpt>
      <trkpt lat="47.40895" lon="-0.4836">
        <ele>21</ele>
        <time>2010-06-26T15:17:53Z</time>
      </trkpt>
      <trkpt lat="47.40878" lon="-0.48312">
        <ele>20</ele>
        <time>2010-06-26T15:17:58Z</time>
      </trkpt>
      <trkpt lat="47.40869" lon="-0.48271">
        <ele>20</ele>
        <time>2010-06-26T15:18:03Z</time>
      </trkpt>
      <trkpt lat="47.40861" lon="-0.48219">
        <ele>21</ele>
        <time>2010-06-26T15:18:08Z</time>
      </trkpt>
      <trkpt lat="47.40853" lon="-0.48159">
        <ele>22</ele>
        <time>2010-06-26T15:18:13Z</time>
      </trkpt>
      <trkpt lat="47.40845" lon="-0.48121">
        <ele>23</ele>
        <time>2010-06-26T15:18:18Z</time>
      </trkpt>
      <trkpt lat="47.40845" lon="-0.48084">
        <ele>23</ele>
        <time>2010-06-26T15:18:23Z</time>
      </trkpt>
      <trkpt lat="47.40837" lon="-0.48031">
        <ele>22</ele>
        <time>2010-06-26T15:18:28Z</time>
      </trkpt>
      <trkpt lat="47.40819" lon="-0.47973">
        <ele>25</ele>
        <time>2010-06-26T15:18:33Z</time>
      </trkpt>
      <trkpt lat="47.40804" lon="-0.47928">
        <ele>25</ele>
        <time>2010-06-26T15:18:38Z</time>
      </trkpt>
      <trkpt lat="47.40786" lon="-0.47888">
        <ele>25</ele>
        <time>2010-06-26T15:18:43Z</time>
      </trkpt>
      <trkpt lat="47.40775" lon="-0.47873">
        <ele>25</ele>
        <time>2010-06-26T15:18:48Z</time>
      </trkpt>
      <trkpt lat="47.40768" lon="-0.47851">
        <ele>25</ele>
        <time>2010-06-26T15:18:53Z</time>
      </trkpt>
      <trkpt lat="47.40761" lon="-0.478">
        <ele>24</ele>
        <time>2010-06-26T15:18:58Z</time>
      </trkpt>
      <trkpt lat="47.4076" lon="-0.47753">
        <ele>24</ele>
        <time>2010-06-26T15:19:03Z</time>
      </trkpt>
      <trkpt lat="47.40763" lon="-0.47714">
        <ele>24</ele>
        <time>2010-06-26T15:19:08Z</time>
      </trkpt>
      <trkpt lat="47.40767" lon="-0.47665">
        <ele>24</ele>
        <time>2010-06-26T15:19:13Z</time>
      </trkpt>
      <trkpt lat="47.40771" lon="-0.47618">
        <ele>23</ele>
        <time>2010-06-26T15:19:18Z</time>
      </trkpt>
      <trkpt lat="47.40758" lon="-0.47565">
        <ele>23</ele>
        <time>2010-06-26T15:19:23Z</time>
      </trkpt>
      <trkpt lat="47.40733" lon="-0.47525">
        <ele>24</ele>
        <time>2010-06-26T15:19:28Z</time>
      </trkpt>
      <trkpt lat="47.40713" lon="-0.47488">
        <ele>23</ele>
        <time>2010-06-26T15:19:33Z</time>
      </trkpt>
      <trkpt lat="47.40685" lon="-0.47449">
        <ele>23</ele>
        <time>2010-06-26T15:19:38Z</time>
      </trkpt>
      <trkpt lat="47.40649" lon="-0.47411">
        <ele>23</ele>
        <time>2010-06-26T15:19:43Z</time>
      </trkpt>
      <trkpt lat="47.40618" lon="-0.47384">
        <ele>23</ele>
        <time>2010-06-26T15:19:48Z</time>
      </trkpt>
      <trkpt lat="47.40593" lon="-0.47359">
        <ele>24</ele>
        <time>2010-06-26T15:19:53Z</time>
      </trkpt>
      <trkpt lat="47.4057" lon="-0.47314">
        <ele>25</ele>
        <time>2010-06-26T15:19:58Z</time>
      </trkpt>
      <trkpt lat="47.40552" lon="-0.47271">
        <ele>25</ele>
        <time>2010-06-26T15:20:03Z</time>
      </trkpt>
      <trkpt lat="47.4053" lon="-0.47222">
        <ele>25</ele>
        <time>2010-06-26T15:20:08Z</time>
      </trkpt>
      <trkpt lat="47.40512" lon="-0.47181">
        <ele>26</ele>
        <time>2010-06-26T15:20:13Z</time>
      </trkpt>
      <trkpt lat="47.40498" lon="-0.47147">
        <ele>28</ele>
        <time>2010-06-26T15:20:18Z</time>
      </trkpt>
      <trkpt lat="47.4048" lon="-0.47104">
        <ele>29</ele>
        <time>2010-06-26T15:20:23Z</time>
      </trkpt>
      <trkpt lat="47.40461" lon="-0.47063">
        <ele>30</ele>
        <time>2010-06-26T15:20:28Z</time>
      </trkpt>
      <trkpt lat="47.40438" lon="-0.47015">
        <ele>31</ele>
        <time>2010-06-26T15:20:33Z</time>
      </trkpt>
      <trkpt lat="47.40418" lon="-0.46974">
        <ele>30</ele>
        <time>2010-06-26T15:20:38Z</time>
      </trkpt>
      <trkpt lat="47.40401" lon="-0.46943">
        <ele>31</ele>
        <time>2010-06-26T15:20:43Z</time>
      </trkpt>
      <trkpt lat="47.40377" lon="-0.4691">
        <ele>31</ele>
        <time>2010-06-26T15:20:48Z</time>
      </trkpt>
      <trkpt lat="47.40349" lon="-0.46863">
        <ele>32</ele>
        <time>2010-06-26T15:20:53Z</time>
      </trkpt>
      <trkpt lat="47.40336" lon="-0.46813">
        <ele>31</ele>
        <time>2010-06-26T15:20:58Z</time>
      </trkpt>
      <trkpt lat="47.40331" lon="-0.4677">
        <ele>30</ele>
        <time>2010-06-26T15:21:03Z</time>
      </trkpt>
      <trkpt lat="47.40324" lon="-0.46711">
        <ele>29</ele>
        <time>2010-06-26T15:21:08Z</time>
      </trkpt>
      <trkpt lat="47.40314" lon="-0.46637">
        <ele>26</ele>
        <time>2010-06-26T15:21:13Z</time>
      </trkpt>
      <trkpt lat="47.40303" lon="-0.46572">
        <ele>24</ele>
        <time>2010-06-26T15:21:18Z</time>
      </trkpt>
      <trkpt lat="47.40287" lon="-0.46511">
        <ele>23</ele>
        <time>2010-06-26T15:21:23Z</time>
      </trkpt>
      <trkpt lat="47.40272" lon="-0.46466">
        <ele>22</ele>
        <time>2010-06-26T15:21:28Z</time>
      </trkpt>
      <trkpt lat="47.40252" lon="-0.46413">
        <ele>22</ele>
        <time>2010-06-26T15:21:33Z</time>
      </trkpt>
      <trkpt lat="47.4023" lon="-0.46354">
        <ele>24</ele>
        <time>2010-06-26T15:21:38Z</time>
      </trkpt>
      <trkpt lat="47.40213" lon="-0.46307">
        <ele>24</ele>
        <time>2010-06-26T15:21:43Z</time>
      </trkpt>
      <trkpt lat="47.40199" lon="-0.46271">
        <ele>25</ele>
        <time>2010-06-26T15:21:48Z</time>
      </trkpt>
      <trkpt lat="47.40184" lon="-0.46225">
        <ele>26</ele>
        <time>2010-06-26T15:21:53Z</time>
      </trkpt>
      <trkpt lat="47.40176" lon="-0.46165">
        <ele>28</ele>
        <time>2010-06-26T15:21:58Z</time>
      </trkpt>
      <trkpt lat="47.4017" lon="-0.46116">
        <ele>28</ele>
        <time>2010-06-26T15:22:03Z</time>
      </trkpt>
      <trkpt lat="47.40159" lon="-0.46068">
        <ele>28</ele>
        <time>2010-06-26T15:22:08Z</time>
      </trkpt>
      <trkpt lat="47.40147" lon="-0.46029">
        <ele>28</ele>
        <time>2010-06-26T15:22:13Z</time>
      </trkpt>
      <trkpt lat="47.40132" lon="-0.45978">
        <ele>28</ele>
        <time>2010-06-26T15:22:18Z</time>
      </trkpt>
      <trkpt lat="47.40113" lon="-0.45918">
        <ele>28</ele>
        <time>2010-06-26T15:22:23Z</time>
      </trkpt>
      <trkpt lat="47.40099" lon="-0.45865">
        <ele>28</ele>
        <time>2010-06-26T15:22:28Z</time>
      </trkpt>
      <trkpt lat="47.40088" lon="-0.45821">
        <ele>28</ele>
        <time>2010-06-26T15:22:33Z</time>
      </trkpt>
      <trkpt lat="47.40075" lon="-0.45767">
        <ele>29</ele>
        <time>2010-06-26T15:22:38Z</time>
      </trkpt>
      <trkpt lat="47.40059" lon="-0.45705">
        <ele>29</ele>
        <time>2010-06-26T15:22:43Z</time>
      </trkpt>
      <trkpt lat="47.40046" lon="-0.45656">
        <ele>29</ele>
        <time>2010-06-26T15:22:48Z</time>
      </trkpt>
      <trkpt lat="47.40032" lon="-0.45607">
        <ele>30</ele>
        <time>2010-06-26T15:22:53Z</time>
      </trkpt>
      <trkpt lat="47.40018" lon="-0.4557">
        <ele>30</ele>
        <time>2010-06-26T15:22:58Z</time>
      </trkpt>
      <trkpt lat="47.39997" lon="-0.45524">
        <ele>31</ele>
        <time>2010-06-26T15:23:03Z</time>
      </trkpt>
      <trkpt lat="47.39972" lon="-0.45466">
        <ele>30</ele>
        <time>2010-06-26T15:23:08Z</time>
      </trkpt>
      <trkpt lat="47.39954" lon="-0.45416">
        <ele>30</ele>
        <time>2010-06-26T15:23:13Z</time>
      </trkpt>
      <trkpt lat="47.39943" lon="-0.4537">
        <ele>30</ele>
        <time>2010-06-26T15:23:18Z</time>
      </trkpt>
      <trkpt lat="47.3993" lon="-0.45302">
        <ele>28</ele>
        <time>2010-06-26T15:23:23Z</time>
      </trkpt>
      <trkpt lat="47.39917" lon="-0.4523">
        <ele>27</ele>
        <time>2010-06-26T15:23:28Z</time>
      </trkpt>
      <trkpt lat="47.39903" lon="-0.45171">
        <ele>26</ele>
        <time>2010-06-26T15:23:33Z</time>
      </trkpt>
      <trkpt lat="47.39895" lon="-0.45137">
        <ele>26</ele>
        <time>2010-06-26T15:23:38Z</time>
      </trkpt>
      <trkpt lat="47.39887" lon="-0.4511">
        <ele>27</ele>
        <time>2010-06-26T15:23:43Z</time>
      </trkpt>
      <trkpt lat="47.39875" lon="-0.45079">
        <ele>28</ele>
        <time>2010-06-26T15:23:48Z</time>
      </trkpt>
      <trkpt lat="47.39855" lon="-0.45038">
        <ele>28</ele>
        <time>2010-06-26T15:23:53Z</time>
      </trkpt>
      <trkpt lat="47.39841" lon="-0.44999">
        <ele>29</ele>
        <time>2010-06-26T15:23:58Z</time>
      </trkpt>
      <trkpt lat="47.39827" lon="-0.44963">
        <ele>30</ele>
        <time>2010-06-26T15:24:03Z</time>
      </trkpt>
      <trkpt lat="47.39815" lon="-0.44935">
        <ele>30</ele>
        <time>2010-06-26T15:24:08Z</time>
      </trkpt>
      <trkpt lat="47.39799" lon="-0.44899">
        <ele>31</ele>
        <time>2010-06-26T15:24:13Z</time>
      </trkpt>
      <trkpt lat="47.39779" lon="-0.44862">
        <ele>31</ele>
        <time>2010-06-26T15:24:18Z</time>
      </trkpt>
      <trkpt lat="47.39763" lon="-0.44825">
        <ele>32</ele>
        <time>2010-06-26T15:24:23Z</time>
      </trkpt>
      <trkpt lat="47.39749" lon="-0.44795">
        <ele>32</ele>
        <time>2010-06-26T15:24:28Z</time>
      </trkpt>
      <trkpt lat="47.39731" lon="-0.44756">
        <ele>32</ele>
        <time>2010-06-26T15:24:33Z</time>
      </trkpt>
      <trkpt lat="47.39713" lon="-0.44715">
        <ele>33</ele>
        <time>2010-06-26T15:24:38Z</time>
      </trkpt>
      <trkpt lat="47.39693" lon="-0.44662">
        <ele>33</ele>
        <time>2010-06-26T15:24:43Z</time>
      </trkpt>
      <trkpt lat="47.39679" lon="-0.44617">
        <ele>33</ele>
        <time>2010-06-26T15:24:48Z</time>
      </trkpt>
      <trkpt lat="47.39661" lon="-0.4459">
        <ele>33</ele>
        <time>2010-06-26T15:24:53Z</time>
      </trkpt>
      <trkpt lat="47.39634" lon="-0.4457">
        <ele>33</ele>
        <time>2010-06-26T15:24:58Z</time>
      </trkpt>
      <trkpt lat="47.39635" lon="-0.44514">
        <ele>34</ele>
        <time>2010-06-26T15:25:03Z</time>
      </trkpt>
      <trkpt lat="47.39623" lon="-0.4447">
        <ele>35</ele>
        <time>2010-06-26T15:25:08Z</time>
      </trkpt>
      <trkpt lat="47.3961" lon="-0.44437">
        <ele>35</ele>
        <time>2010-06-26T15:25:13Z</time>
      </trkpt>
      <trkpt lat="47.39594" lon="-0.44399">
        <ele>37</ele>
        <time>2010-06-26T15:25:18Z</time>
      </trkpt>
      <trkpt lat="47.39575" lon="-0.44356">
        <ele>38</ele>
        <time>2010-06-26T15:25:23Z</time>
      </trkpt>
      <trkpt lat="47.3956" lon="-0.44322">
        <ele>41</ele>
        <time>2010-06-26T15:25:28Z</time>
      </trkpt>
      <trkpt lat="47.39546" lon="-0.44291">
        <ele>42</ele>
        <time>2010-06-26T15:25:33Z</time>
      </trkpt>
      <trkpt lat="47.39536" lon="-0.44267">
        <ele>43</ele>
        <time>2010-06-26T15:25:38Z</time>
      </trkpt>
      <trkpt lat="47.39522" lon="-0.44238">
        <ele>47</ele>
        <time>2010-06-26T15:25:43Z</time>
      </trkpt>
      <trkpt lat="47.39507" lon="-0.44203">
        <ele>49</ele>
        <time>2010-06-26T15:25:48Z</time>
      </trkpt>
      <trkpt lat="47.39494" lon="-0.44175">
        <ele>48</ele>
        <time>2010-06-26T15:25:53Z</time>
      </trkpt>
      <trkpt lat="47.39484" lon="-0.44152">
        <ele>51</ele>
        <time>2010-06-26T15:25:58Z</time>
      </trkpt>
      <trkpt lat="47.39472" lon="-0.44124">
        <ele>52</ele>
        <time>2010-06-26T15:26:03Z</time>
      </trkpt>
      <trkpt lat="47.3946" lon="-0.44096">
        <ele>53</ele>
        <time>2010-06-26T15:26:08Z</time>
      </trkpt>
      <trkpt lat="47.39446" lon="-0.44061">
        <ele>57</ele>
        <time>2010-06-26T15:26:13Z</time>
      </trkpt>
      <trkpt lat="47.39437" lon="-0.44032">
        <ele>58</ele>
        <time>2010-06-26T15:26:18Z</time>
      </trkpt>
      <trkpt lat="47.39432" lon="-0.44013">
        <ele>58</ele>
        <time>2010-06-26T15:26:23Z</time>
      </trkpt>
      <trkpt lat="47.39425" lon="-0.43987">
        <ele>60</ele>
        <time>2010-06-26T15:26:28Z</time>
      </trkpt>
      <trkpt lat="47.39419" lon="-0.43956">
        <ele>62</ele>
        <time>2010-06-26T15:26:33Z</time>
      </trkpt>
      <trkpt lat="47.39414" lon="-0.4393">
        <ele>61</ele>
        <time>2010-06-26T15:26:38Z</time>
      </trkpt>
      <trkpt lat="47.39409" lon="-0.43906">
        <ele>64</ele>
        <time>2010-06-26T15:26:43Z</time>
      </trkpt>
      <trkpt lat="47.39406" lon="-0.43887">
        <ele>65</ele>
        <time>2010-06-26T15:26:48Z</time>
      </trkpt>
      <trkpt lat="47.39402" lon="-0.43861">
        <ele>66</ele>
        <time>2010-06-26T15:26:53Z</time>
      </trkpt>
      <trkpt lat="47.39397" lon="-0.43829">
        <ele>71</ele>
        <time>2010-06-26T15:26:58Z</time>
      </trkpt>
      <trkpt lat="47.39394" lon="-0.43802">
        <ele>72</ele>
        <time>2010-06-26T15:27:03Z</time>
      </trkpt>
      <trkpt lat="47.39392" lon="-0.4378">
        <ele>73</ele>
        <time>2010-06-26T15:27:08Z</time>
      </trkpt>
      <trkpt lat="47.3939" lon="-0.43751">
        <ele>74</ele>
        <time>2010-06-26T15:27:13Z</time>
      </trkpt>
      <trkpt lat="47.39389" lon="-0.43722">
        <ele>77</ele>
        <time>2010-06-26T15:27:18Z</time>
      </trkpt>
      <trkpt lat="47.39385" lon="-0.43688">
        <ele>77</ele>
        <time>2010-06-26T15:27:23Z</time>
      </trkpt>
      <trkpt lat="47.39377" lon="-0.4366">
        <ele>79</ele>
        <time>2010-06-26T15:27:28Z</time>
      </trkpt>
      <trkpt lat="47.39369" lon="-0.43639">
        <ele>79</ele>
        <time>2010-06-26T15:27:33Z</time>
      </trkpt>
      <trkpt lat="47.39359" lon="-0.43612">
        <ele>79</ele>
        <time>2010-06-26T15:27:38Z</time>
      </trkpt>
      <trkpt lat="47.39344" lon="-0.43576">
        <ele>80</ele>
        <time>2010-06-26T15:27:43Z</time>
      </trkpt>
      <trkpt lat="47.39332" lon="-0.4354">
        <ele>80</ele>
        <time>2010-06-26T15:27:48Z</time>
      </trkpt>
      <trkpt lat="47.39323" lon="-0.43509">
        <ele>80</ele>
        <time>2010-06-26T15:27:53Z</time>
      </trkpt>
      <trkpt lat="47.39309" lon="-0.43471">
        <ele>81</ele>
        <time>2010-06-26T15:27:58Z</time>
      </trkpt>
      <trkpt lat="47.39293" lon="-0.43432">
        <ele>81</ele>
        <time>2010-06-26T15:28:03Z</time>
      </trkpt>
      <trkpt lat="47.39274" lon="-0.4338">
        <ele>80</ele>
        <time>2010-06-26T15:28:08Z</time>
      </trkpt>
      <trkpt lat="47.39259" lon="-0.43332">
        <ele>81</ele>
        <time>2010-06-26T15:28:13Z</time>
      </trkpt>
      <trkpt lat="47.39245" lon="-0.43294">
        <ele>80</ele>
        <time>2010-06-26T15:28:18Z</time>
      </trkpt>
      <trkpt lat="47.39229" lon="-0.43249">
        <ele>81</ele>
        <time>2010-06-26T15:28:23Z</time>
      </trkpt>
      <trkpt lat="47.39209" lon="-0.43205">
        <ele>80</ele>
        <time>2010-06-26T15:28:28Z</time>
      </trkpt>
      <trkpt lat="47.3919" lon="-0.43147">
        <ele>79</ele>
        <time>2010-06-26T15:28:33Z</time>
      </trkpt>
      <trkpt lat="47.39176" lon="-0.43109">
        <ele>79</ele>
        <time>2010-06-26T15:28:38Z</time>
      </trkpt>
      <trkpt lat="47.39157" lon="-0.43058">
        <ele>78</ele>
        <time>2010-06-26T15:28:43Z</time>
      </trkpt>
      <trkpt lat="47.39137" lon="-0.42995">
        <ele>77</ele>
        <time>2010-06-26T15:28:48Z</time>
      </trkpt>
      <trkpt lat="47.39117" lon="-0.42946">
        <ele>77</ele>
        <time>2010-06-26T15:28:53Z</time>
      </trkpt>
      <trkpt lat="47.39097" lon="-0.42897">
        <ele>77</ele>
        <time>2010-06-26T15:28:58Z</time>
      </trkpt>
      <trkpt lat="47.39082" lon="-0.42857">
        <ele>77</ele>
        <time>2010-06-26T15:29:03Z</time>
      </trkpt>
      <trkpt lat="47.39064" lon="-0.42808">
        <ele>77</ele>
        <time>2010-06-26T15:29:08Z</time>
      </trkpt>
      <trkpt lat="47.39048" lon="-0.42761">
        <ele>77</ele>
        <time>2010-06-26T15:29:13Z</time>
      </trkpt>
      <trkpt lat="47.39028" lon="-0.42708">
        <ele>79</ele>
        <time>2010-06-26T15:29:18Z</time>
      </trkpt>
      <trkpt lat="47.39016" lon="-0.42674">
        <ele>80</ele>
        <time>2010-06-26T15:29:23Z</time>
      </trkpt>
      <trkpt lat="47.39001" lon="-0.42632">
        <ele>81</ele>
        <time>2010-06-26T15:29:28Z</time>
      </trkpt>
      <trkpt lat="47.38987" lon="-0.42589">
        <ele>81</ele>
        <time>2010-06-26T15:29:33Z</time>
      </trkpt>
      <trkpt lat="47.38971" lon="-0.4254">
        <ele>82</ele>
        <time>2010-06-26T15:29:38Z</time>
      </trkpt>
      <trkpt lat="47.38959" lon="-0.42501">
        <ele>82</ele>
        <time>2010-06-26T15:29:43Z</time>
      </trkpt>
      <trkpt lat="47.38963" lon="-0.42473">
        <ele>81</ele>
        <time>2010-06-26T15:29:48Z</time>
      </trkpt>
      <trkpt lat="47.38995" lon="-0.42455">
        <ele>81</ele>
        <time>2010-06-26T15:29:53Z</time>
      </trkpt>
      <trkpt lat="47.39032" lon="-0.42426">
        <ele>79</ele>
        <time>2010-06-26T15:29:58Z</time>
      </trkpt>
      <trkpt lat="47.39061" lon="-0.42394">
        <ele>78</ele>
        <time>2010-06-26T15:30:03Z</time>
      </trkpt>
      <trkpt lat="47.39088" lon="-0.42355">
        <ele>76</ele>
        <time>2010-06-26T15:30:08Z</time>
      </trkpt>
      <trkpt lat="47.39114" lon="-0.4232">
        <ele>74</ele>
        <time>2010-06-26T15:30:13Z</time>
      </trkpt>
      <trkpt lat="47.39158" lon="-0.42295">
        <ele>73</ele>
        <time>2010-06-26T15:30:18Z</time>
      </trkpt>
      <trkpt lat="47.39223" lon="-0.42271">
        <ele>70</ele>
        <time>2010-06-26T15:30:23Z</time>
      </trkpt>
      <trkpt lat="47.39274" lon="-0.4225">
        <ele>68</ele>
        <time>2010-06-26T15:30:28Z</time>
      </trkpt>
      <trkpt lat="47.39318" lon="-0.42234">
        <ele>63</ele>
        <time>2010-06-26T15:30:33Z</time>
      </trkpt>
      <trkpt lat="47.39373" lon="-0.42224">
        <ele>61</ele>
        <time>2010-06-26T15:30:38Z</time>
      </trkpt>
      <trkpt lat="47.39435" lon="-0.42223">
        <ele>59</ele>
        <time>2010-06-26T15:30:43Z</time>
      </trkpt>
      <trkpt lat="47.39481" lon="-0.42227">
        <ele>59</ele>
        <time>2010-06-26T15:30:48Z</time>
      </trkpt>
      <trkpt lat="47.39522" lon="-0.42234">
        <ele>58</ele>
        <time>2010-06-26T15:30:53Z</time>
      </trkpt>
      <trkpt lat="47.39554" lon="-0.42224">
        <ele>57</ele>
        <time>2010-06-26T15:30:58Z</time>
      </trkpt>
      <trkpt lat="47.39589" lon="-0.42182">
        <ele>56</ele>
        <time>2010-06-26T15:31:03Z</time>
      </trkpt>
      <trkpt lat="47.3963" lon="-0.4214">
        <ele>54</ele>
        <time>2010-06-26T15:31:08Z</time>
      </trkpt>
      <trkpt lat="47.39666" lon="-0.42116">
        <ele>53</ele>
        <time>2010-06-26T15:31:13Z</time>
      </trkpt>
      <trkpt lat="47.39697" lon="-0.42103">
        <ele>52</ele>
        <time>2010-06-26T15:31:18Z</time>
      </trkpt>
      <trkpt lat="47.39741" lon="-0.42094">
        <ele>51</ele>
        <time>2010-06-26T15:31:23Z</time>
      </trkpt>
      <trkpt lat="47.39787" lon="-0.42085">
        <ele>48</ele>
        <time>2010-06-26T15:31:28Z</time>
      </trkpt>
      <trkpt lat="47.39843" lon="-0.42074">
        <ele>42</ele>
        <time>2010-06-26T15:31:33Z</time>
      </trkpt>
      <trkpt lat="47.39873" lon="-0.42044">
        <ele>40</ele>
        <time>2010-06-26T15:31:38Z</time>
      </trkpt>
      <trkpt lat="47.39879" lon="-0.41998">
        <ele>39</ele>
        <time>2010-06-26T15:31:43Z</time>
      </trkpt>
      <trkpt lat="47.39885" lon="-0.41943">
        <ele>38</ele>
        <time>2010-06-26T15:31:48Z</time>
      </trkpt>
      <trkpt lat="47.39905" lon="-0.41879">
        <ele>37</ele>
        <time>2010-06-26T15:31:53Z</time>
      </trkpt>
      <trkpt lat="47.39934" lon="-0.41828">
        <ele>33</ele>
        <time>2010-06-26T15:31:58Z</time>
      </trkpt>
      <trkpt lat="47.39948" lon="-0.41788">
        <ele>31</ele>
        <time>2010-06-26T15:32:03Z</time>
      </trkpt>
      <trkpt lat="47.39952" lon="-0.41762">
        <ele>31</ele>
        <time>2010-06-26T15:32:08Z</time>
      </trkpt>
      <trkpt lat="47.39967" lon="-0.41728">
        <ele>28</ele>
        <time>2010-06-26T15:32:13Z</time>
      </trkpt>
      <trkpt lat="47.39996" lon="-0.41682">
        <ele>26</ele>
        <time>2010-06-26T15:32:18Z</time>
      </trkpt>
      <trkpt lat="47.40011" lon="-0.4164">
        <ele>23</ele>
        <time>2010-06-26T15:32:23Z</time>
      </trkpt>
      <trkpt lat="47.40012" lon="-0.41594">
        <ele>22</ele>
        <time>2010-06-26T15:32:28Z</time>
      </trkpt>
      <trkpt lat="47.40004" lon="-0.41536">
        <ele>21</ele>
        <time>2010-06-26T15:32:33Z</time>
      </trkpt>
      <trkpt lat="47.39997" lon="-0.41476">
        <ele>23</ele>
        <time>2010-06-26T15:32:38Z</time>
      </trkpt>
      <trkpt lat="47.40003" lon="-0.41427">
        <ele>21</ele>
        <time>2010-06-26T15:32:43Z</time>
      </trkpt>
      <trkpt lat="47.40009" lon="-0.41388">
        <ele>20</ele>
        <time>2010-06-26T15:32:48Z</time>
      </trkpt>
      <trkpt lat="47.40016" lon="-0.4134">
        <ele>21</ele>
        <time>2010-06-26T15:32:53Z</time>
      </trkpt>
      <trkpt lat="47.4002" lon="-0.41292">
        <ele>21</ele>
        <time>2010-06-26T15:32:58Z</time>
      </trkpt>
      <trkpt lat="47.40023" lon="-0.41233">
        <ele>22</ele>
        <time>2010-06-26T15:33:03Z</time>
      </trkpt>
      <trkpt lat="47.40026" lon="-0.41182">
        <ele>22</ele>
        <time>2010-06-26T15:33:08Z</time>
      </trkpt>
      <trkpt lat="47.40028" lon="-0.4114">
        <ele>22</ele>
        <time>2010-06-26T15:33:13Z</time>
      </trkpt>
      <trkpt lat="47.40031" lon="-0.41087">
        <ele>23</ele>
        <time>2010-06-26T15:33:18Z</time>
      </trkpt>
      <trkpt lat="47.40034" lon="-0.41033">
        <ele>22</ele>
        <time>2010-06-26T15:33:23Z</time>
      </trkpt>
      <trkpt lat="47.40037" lon="-0.40968">
        <ele>21</ele>
        <time>2010-06-26T15:33:28Z</time>
      </trkpt>
      <trkpt lat="47.4004" lon="-0.40914">
        <ele>20</ele>
        <time>2010-06-26T15:33:33Z</time>
      </trkpt>
      <trkpt lat="47.40041" lon="-0.40872">
        <ele>20</ele>
        <time>2010-06-26T15:33:38Z</time>
      </trkpt>
      <trkpt lat="47.40043" lon="-0.40824">
        <ele>21</ele>
        <time>2010-06-26T15:33:43Z</time>
      </trkpt>
      <trkpt lat="47.40044" lon="-0.40771">
        <ele>22</ele>
        <time>2010-06-26T15:33:48Z</time>
      </trkpt>
      <trkpt lat="47.40045" lon="-0.4073">
        <ele>24</ele>
        <time>2010-06-26T15:33:53Z</time>
      </trkpt>
      <trkpt lat="47.40046" lon="-0.40701">
        <ele>25</ele>
        <time>2010-06-26T15:33:58Z</time>
      </trkpt>
      <trkpt lat="47.40047" lon="-0.40665">
        <ele>28</ele>
        <time>2010-06-26T15:34:03Z</time>
      </trkpt>
      <trkpt lat="47.40048" lon="-0.40622">
        <ele>29</ele>
        <time>2010-06-26T15:34:08Z</time>
      </trkpt>
      <trkpt lat="47.40049" lon="-0.40587">
        <ele>29</ele>
        <time>2010-06-26T15:34:13Z</time>
      </trkpt>
      <trkpt lat="47.40049" lon="-0.40551">
        <ele>30</ele>
        <time>2010-06-26T15:34:18Z</time>
      </trkpt>
      <trkpt lat="47.40048" lon="-0.40521">
        <ele>30</ele>
        <time>2010-06-26T15:34:23Z</time>
      </trkpt>
      <trkpt lat="47.40047" lon="-0.40483">
        <ele>32</ele>
        <time>2010-06-26T15:34:28Z</time>
      </trkpt>
      <trkpt lat="47.40044" lon="-0.40439">
        <ele>32</ele>
        <time>2010-06-26T15:34:33Z</time>
      </trkpt>
      <trkpt lat="47.40041" lon="-0.40397">
        <ele>33</ele>
        <time>2010-06-26T15:34:38Z</time>
      </trkpt>
      <trkpt lat="47.40037" lon="-0.40362">
        <ele>33</ele>
        <time>2010-06-26T15:34:43Z</time>
      </trkpt>
      <trkpt lat="47.40023" lon="-0.40318">
        <ele>32</ele>
        <time>2010-06-26T15:34:48Z</time>
      </trkpt>
      <trkpt lat="47.40004" lon="-0.40265">
        <ele>31</ele>
        <time>2010-06-26T15:34:53Z</time>
      </trkpt>
      <trkpt lat="47.39988" lon="-0.4022">
        <ele>34</ele>
        <time>2010-06-26T15:34:58Z</time>
      </trkpt>
      <trkpt lat="47.39976" lon="-0.40181">
        <ele>33</ele>
        <time>2010-06-26T15:35:03Z</time>
      </trkpt>
      <trkpt lat="47.3996" lon="-0.40132">
        <ele>32</ele>
        <time>2010-06-26T15:35:08Z</time>
      </trkpt>
      <trkpt lat="47.3995" lon="-0.40079">
        <ele>29</ele>
        <time>2010-06-26T15:35:13Z</time>
      </trkpt>
      <trkpt lat="47.39945" lon="-0.40018">
        <ele>28</ele>
        <time>2010-06-26T15:35:18Z</time>
      </trkpt>
      <trkpt lat="47.3994" lon="-0.39942">
        <ele>27</ele>
        <time>2010-06-26T15:35:23Z</time>
      </trkpt>
      <trkpt lat="47.39937" lon="-0.39893">
        <ele>27</ele>
        <time>2010-06-26T15:35:28Z</time>
      </trkpt>
      <trkpt lat="47.39932" lon="-0.39832">
        <ele>29</ele>
        <time>2010-06-26T15:35:33Z</time>
      </trkpt>
      <trkpt lat="47.39928" lon="-0.39771">
        <ele>27</ele>
        <time>2010-06-26T15:35:38Z</time>
      </trkpt>
      <trkpt lat="47.39911" lon="-0.39703">
        <ele>29</ele>
        <time>2010-06-26T15:35:43Z</time>
      </trkpt>
      <trkpt lat="47.39894" lon="-0.39652">
        <ele>26</ele>
        <time>2010-06-26T15:35:48Z</time>
      </trkpt>
      <trkpt lat="47.39881" lon="-0.3961">
        <ele>27</ele>
        <time>2010-06-26T15:35:53Z</time>
      </trkpt>
      <trkpt lat="47.39872" lon="-0.39555">
        <ele>26</ele>
        <time>2010-06-26T15:35:58Z</time>
      </trkpt>
      <trkpt lat="47.39867" lon="-0.39496">
        <ele>25</ele>
        <time>2010-06-26T15:36:03Z</time>
      </trkpt>
      <trkpt lat="47.39849" lon="-0.39429">
        <ele>24</ele>
        <time>2010-06-26T15:36:08Z</time>
      </trkpt>
      <trkpt lat="47.39829" lon="-0.3938">
        <ele>26</ele>
        <time>2010-06-26T15:36:13Z</time>
      </trkpt>
      <trkpt lat="47.39818" lon="-0.39337">
        <ele>25</ele>
        <time>2010-06-26T15:36:18Z</time>
      </trkpt>
      <trkpt lat="47.39813" lon="-0.39281">
        <ele>24</ele>
        <time>2010-06-26T15:36:23Z</time>
      </trkpt>
      <trkpt lat="47.3981" lon="-0.39212">
        <ele>23</ele>
        <time>2010-06-26T15:36:28Z</time>
      </trkpt>
      <trkpt lat="47.39807" lon="-0.39155">
        <ele>22</ele>
        <time>2010-06-26T15:36:33Z</time>
      </trkpt>
      <trkpt lat="47.39805" lon="-0.39111">
        <ele>22</ele>
        <time>2010-06-26T15:36:38Z</time>
      </trkpt>
      <trkpt lat="47.39802" lon="-0.39057">
        <ele>23</ele>
        <time>2010-06-26T15:36:43Z</time>
      </trkpt>
      <trkpt lat="47.39794" lon="-0.38995">
        <ele>24</ele>
        <time>2010-06-26T15:36:48Z</time>
      </trkpt>
      <trkpt lat="47.3978" lon="-0.38951">
        <ele>24</ele>
        <time>2010-06-26T15:36:53Z</time>
      </trkpt>
      <trkpt lat="47.39762" lon="-0.38913">
        <ele>25</ele>
        <time>2010-06-26T15:36:58Z</time>
      </trkpt>
      <trkpt lat="47.39746" lon="-0.38883">
        <ele>27</ele>
        <time>2010-06-26T15:37:03Z</time>
      </trkpt>
      <trkpt lat="47.39731" lon="-0.38842">
        <ele>27</ele>
        <time>2010-06-26T15:37:08Z</time>
      </trkpt>
      <trkpt lat="47.39726" lon="-0.38789">
        <ele>28</ele>
        <time>2010-06-26T15:37:13Z</time>
      </trkpt>
      <trkpt lat="47.39735" lon="-0.38746">
        <ele>31</ele>
        <time>2010-06-26T15:37:18Z</time>
      </trkpt>
      <trkpt lat="47.39741" lon="-0.38715">
        <ele>33</ele>
        <time>2010-06-26T15:37:23Z</time>
      </trkpt>
      <trkpt lat="47.39749" lon="-0.3868">
        <ele>37</ele>
        <time>2010-06-26T15:37:28Z</time>
      </trkpt>
      <trkpt lat="47.39757" lon="-0.38642">
        <ele>41</ele>
        <time>2010-06-26T15:37:33Z</time>
      </trkpt>
      <trkpt lat="47.39762" lon="-0.3861">
        <ele>43</ele>
        <time>2010-06-26T15:37:38Z</time>
      </trkpt>
      <trkpt lat="47.39766" lon="-0.38579">
        <ele>47</ele>
        <time>2010-06-26T15:37:43Z</time>
      </trkpt>
      <trkpt lat="47.39768" lon="-0.38557">
        <ele>47</ele>
        <time>2010-06-26T15:37:48Z</time>
      </trkpt>
      <trkpt lat="47.39772" lon="-0.38529">
        <ele>47</ele>
        <time>2010-06-26T15:37:53Z</time>
      </trkpt>
      <trkpt lat="47.39776" lon="-0.38499">
        <ele>48</ele>
        <time>2010-06-26T15:37:58Z</time>
      </trkpt>
      <trkpt lat="47.39779" lon="-0.38465">
        <ele>48</ele>
        <time>2010-06-26T15:38:03Z</time>
      </trkpt>
      <trkpt lat="47.3978" lon="-0.38438">
        <ele>49</ele>
        <time>2010-06-26T15:38:08Z</time>
      </trkpt>
      <trkpt lat="47.3978" lon="-0.38401">
        <ele>49</ele>
        <time>2010-06-26T15:38:13Z</time>
      </trkpt>
      <trkpt lat="47.39777" lon="-0.38353">
        <ele>49</ele>
        <time>2010-06-26T15:38:18Z</time>
      </trkpt>
      <trkpt lat="47.39785" lon="-0.38309">
        <ele>47</ele>
        <time>2010-06-26T15:38:23Z</time>
      </trkpt>
      <trkpt lat="47.39812" lon="-0.3828">
        <ele>47</ele>
        <time>2010-06-26T15:38:28Z</time>
      </trkpt>
      <trkpt lat="47.39835" lon="-0.38262">
        <ele>44</ele>
        <time>2010-06-26T15:38:33Z</time>
      </trkpt>
      <trkpt lat="47.39873" lon="-0.38228">
        <ele>40</ele>
        <time>2010-06-26T15:38:38Z</time>
      </trkpt>
      <trkpt lat="47.39889" lon="-0.38172">
        <ele>37</ele>
        <time>2010-06-26T15:38:43Z</time>
      </trkpt>
      <trkpt lat="47.39881" lon="-0.38108">
        <ele>37</ele>
        <time>2010-06-26T15:38:48Z</time>
      </trkpt>
      <trkpt lat="47.39879" lon="-0.38069">
        <ele>39</ele>
        <time>2010-06-26T15:38:53Z</time>
      </trkpt>
      <trkpt lat="47.39871" lon="-0.38025">
        <ele>40</ele>
        <time>2010-06-26T15:38:58Z</time>
      </trkpt>
      <trkpt lat="47.39861" lon="-0.37984">
        <ele>41</ele>
        <time>2010-06-26T15:39:03Z</time>
      </trkpt>
      <trkpt lat="47.3986" lon="-0.37931">
        <ele>41</ele>
        <time>2010-06-26T15:39:08Z</time>
      </trkpt>
      <trkpt lat="47.39862" lon="-0.37879">
        <ele>38</ele>
        <time>2010-06-26T15:39:13Z</time>
      </trkpt>
      <trkpt lat="47.39859" lon="-0.3783">
        <ele>36</ele>
        <time>2010-06-26T15:39:18Z</time>
      </trkpt>
      <trkpt lat="47.39878" lon="-0.37766">
        <ele>34</ele>
        <time>2010-06-26T15:39:23Z</time>
      </trkpt>
      <trkpt lat="47.39885" lon="-0.37694">
        <ele>31</ele>
        <time>2010-06-26T15:39:28Z</time>
      </trkpt>
      <trkpt lat="47.39874" lon="-0.37601">
        <ele>28</ele>
        <time>2010-06-26T15:39:33Z</time>
      </trkpt>
      <trkpt lat="47.39887" lon="-0.37524">
        <ele>26</ele>
        <time>2010-06-26T15:39:38Z</time>
      </trkpt>
      <trkpt lat="47.39909" lon="-0.37473">
        <ele>26</ele>
        <time>2010-06-26T15:39:43Z</time>
      </trkpt>
      <trkpt lat="47.39937" lon="-0.37421">
        <ele>25</ele>
        <time>2010-06-26T15:39:48Z</time>
      </trkpt>
      <trkpt lat="47.39963" lon="-0.3737">
        <ele>27</ele>
        <time>2010-06-26T15:39:53Z</time>
      </trkpt>
      <trkpt lat="47.39981" lon="-0.37333">
        <ele>28</ele>
        <time>2010-06-26T15:39:58Z</time>
      </trkpt>
      <trkpt lat="47.39995" lon="-0.37304">
        <ele>29</ele>
        <time>2010-06-26T15:40:03Z</time>
      </trkpt>
      <trkpt lat="47.40004" lon="-0.37263">
        <ele>29</ele>
        <time>2010-06-26T15:40:08Z</time>
      </trkpt>
      <trkpt lat="47.39992" lon="-0.37223">
        <ele>32</ele>
        <time>2010-06-26T15:40:13Z</time>
      </trkpt>
      <trkpt lat="47.39983" lon="-0.37173">
        <ele>34</ele>
        <time>2010-06-26T15:40:18Z</time>
      </trkpt>
      <trkpt lat="47.39987" lon="-0.37131">
        <ele>36</ele>
        <time>2010-06-26T15:40:23Z</time>
      </trkpt>
      <trkpt lat="47.39996" lon="-0.37104">
        <ele>37</ele>
        <time>2010-06-26T15:40:28Z</time>
      </trkpt>
      <trkpt lat="47.40017" lon="-0.37086">
        <ele>35</ele>
        <time>2010-06-26T15:40:33Z</time>
      </trkpt>
      <trkpt lat="47.40047" lon="-0.37053">
        <ele>33</ele>
        <time>2010-06-26T15:40:38Z</time>
      </trkpt>
      <trkpt lat="47.40079" lon="-0.37015">
        <ele>32</ele>
        <time>2010-06-26T15:40:43Z</time>
      </trkpt>
      <trkpt lat="47.40096" lon="-0.36971">
        <ele>28</ele>
        <time>2010-06-26T15:40:48Z</time>
      </trkpt>
      <trkpt lat="47.40113" lon="-0.36917">
        <ele>28</ele>
        <time>2010-06-26T15:40:53Z</time>
      </trkpt>
      <trkpt lat="47.40139" lon="-0.36858">
        <ele>26</ele>
        <time>2010-06-26T15:40:58Z</time>
      </trkpt>
      <trkpt lat="47.40155" lon="-0.36804">
        <ele>26</ele>
        <time>2010-06-26T15:41:03Z</time>
      </trkpt>
      <trkpt lat="47.40165" lon="-0.36746">
        <ele>25</ele>
        <time>2010-06-26T15:41:08Z</time>
      </trkpt>
      <trkpt lat="47.40172" lon="-0.36701">
        <ele>23</ele>
        <time>2010-06-26T15:41:13Z</time>
      </trkpt>
      <trkpt lat="47.40179" lon="-0.36646">
        <ele>24</ele>
        <time>2010-06-26T15:41:18Z</time>
      </trkpt>
      <trkpt lat="47.40192" lon="-0.36584">
        <ele>25</ele>
        <time>2010-06-26T15:41:23Z</time>
      </trkpt>
      <trkpt lat="47.40207" lon="-0.36537">
        <ele>25</ele>
        <time>2010-06-26T15:41:28Z</time>
      </trkpt>
      <trkpt lat="47.40219" lon="-0.36501">
        <ele>25</ele>
        <time>2010-06-26T15:41:33Z</time>
      </trkpt>
      <trkpt lat="47.40234" lon="-0.36455">
        <ele>26</ele>
        <time>2010-06-26T15:41:38Z</time>
      </trkpt>
      <trkpt lat="47.40248" lon="-0.36406">
        <ele>26</ele>
        <time>2010-06-26T15:41:43Z</time>
      </trkpt>
      <trkpt lat="47.40267" lon="-0.36345">
        <ele>24</ele>
        <time>2010-06-26T15:41:48Z</time>
      </trkpt>
      <trkpt lat="47.40282" lon="-0.36295">
        <ele>25</ele>
        <time>2010-06-26T15:41:53Z</time>
      </trkpt>
      <trkpt lat="47.40295" lon="-0.36255">
        <ele>25</ele>
        <time>2010-06-26T15:41:58Z</time>
      </trkpt>
      <trkpt lat="47.40314" lon="-0.36208">
        <ele>27</ele>
        <time>2010-06-26T15:42:03Z</time>
      </trkpt>
      <trkpt lat="47.4034" lon="-0.36157">
        <ele>29</ele>
        <time>2010-06-26T15:42:08Z</time>
      </trkpt>
      <trkpt lat="47.4037" lon="-0.36128">
        <ele>30</ele>
        <time>2010-06-26T15:42:13Z</time>
      </trkpt>
      <trkpt lat="47.40393" lon="-0.36108">
        <ele>30</ele>
        <time>2010-06-26T15:42:18Z</time>
      </trkpt>
      <trkpt lat="47.40421" lon="-0.3608">
        <ele>31</ele>
        <time>2010-06-26T15:42:23Z</time>
      </trkpt>
      <trkpt lat="47.40445" lon="-0.36046">
        <ele>31</ele>
        <time>2010-06-26T15:42:28Z</time>
      </trkpt>
      <trkpt lat="47.40475" lon="-0.36017">
        <ele>31</ele>
        <time>2010-06-26T15:42:33Z</time>
      </trkpt>
      <trkpt lat="47.40503" lon="-0.36005">
        <ele>30</ele>
        <time>2010-06-26T15:42:38Z</time>
      </trkpt>
      <trkpt lat="47.40532" lon="-0.36002">
        <ele>28</ele>
        <time>2010-06-26T15:42:43Z</time>
      </trkpt>
      <trkpt lat="47.40576" lon="-0.36005">
        <ele>25</ele>
        <time>2010-06-26T15:42:48Z</time>
      </trkpt>
      <trkpt lat="47.40622" lon="-0.36017">
        <ele>23</ele>
        <time>2010-06-26T15:42:53Z</time>
      </trkpt>
      <trkpt lat="47.40639" lon="-0.35964">
        <ele>25</ele>
        <time>2010-06-26T15:42:58Z</time>
      </trkpt>
      <trkpt lat="47.40643" lon="-0.35916">
        <ele>27</ele>
        <time>2010-06-26T15:43:03Z</time>
      </trkpt>
      <trkpt lat="47.40646" lon="-0.35877">
        <ele>28</ele>
        <time>2010-06-26T15:43:08Z</time>
      </trkpt>
      <trkpt lat="47.40641" lon="-0.35828">
        <ele>29</ele>
        <time>2010-06-26T15:43:13Z</time>
      </trkpt>
      <trkpt lat="47.40632" lon="-0.35765">
        <ele>31</ele>
        <time>2010-06-26T15:43:18Z</time>
      </trkpt>
      <trkpt lat="47.40626" lon="-0.3571">
        <ele>32</ele>
        <time>2010-06-26T15:43:23Z</time>
      </trkpt>
      <trkpt lat="47.40623" lon="-0.35663">
        <ele>32</ele>
        <time>2010-06-26T15:43:28Z</time>
      </trkpt>
      <trkpt lat="47.40612" lon="-0.35603">
        <ele>33</ele>
        <time>2010-06-26T15:43:33Z</time>
      </trkpt>
      <trkpt lat="47.40607" lon="-0.35552">
        <ele>31</ele>
        <time>2010-06-26T15:43:38Z</time>
      </trkpt>
      <trkpt lat="47.40598" lon="-0.35491">
        <ele>29</ele>
        <time>2010-06-26T15:43:43Z</time>
      </trkpt>
      <trkpt lat="47.40586" lon="-0.35437">
        <ele>26</ele>
        <time>2010-06-26T15:43:48Z</time>
      </trkpt>
      <trkpt lat="47.40576" lon="-0.35396">
        <ele>31</ele>
        <time>2010-06-26T15:43:53Z</time>
      </trkpt>
      <trkpt lat="47.40564" lon="-0.35349">
        <ele>32</ele>
        <time>2010-06-26T15:43:58Z</time>
      </trkpt>
      <trkpt lat="47.40543" lon="-0.35295">
        <ele>32</ele>
        <time>2010-06-26T15:44:03Z</time>
      </trkpt>
      <trkpt lat="47.40527" lon="-0.35242">
        <ele>30</ele>
        <time>2010-06-26T15:44:08Z</time>
      </trkpt>
      <trkpt lat="47.40515" lon="-0.352">
        <ele>28</ele>
        <time>2010-06-26T15:44:13Z</time>
      </trkpt>
      <trkpt lat="47.40505" lon="-0.35147">
        <ele>24</ele>
        <time>2010-06-26T15:44:18Z</time>
      </trkpt>
      <trkpt lat="47.40524" lon="-0.35086">
        <ele>23</ele>
        <time>2010-06-26T15:44:23Z</time>
      </trkpt>
      <trkpt lat="47.40526" lon="-0.35031">
        <ele>21</ele>
        <time>2010-06-26T15:44:28Z</time>
      </trkpt>
      <trkpt lat="47.40524" lon="-0.34971">
        <ele>20</ele>
        <time>2010-06-26T15:44:33Z</time>
      </trkpt>
      <trkpt lat="47.40521" lon="-0.34927">
        <ele>20</ele>
        <time>2010-06-26T15:44:38Z</time>
      </trkpt>
      <trkpt lat="47.40516" lon="-0.34873">
        <ele>21</ele>
        <time>2010-06-26T15:44:43Z</time>
      </trkpt>
      <trkpt lat="47.4051" lon="-0.34821">
        <ele>21</ele>
        <time>2010-06-26T15:44:48Z</time>
      </trkpt>
      <trkpt lat="47.40502" lon="-0.34758">
        <ele>19</ele>
        <time>2010-06-26T15:44:53Z</time>
      </trkpt>
      <trkpt lat="47.405" lon="-0.34716">
        <ele>20</ele>
        <time>2010-06-26T15:44:58Z</time>
      </trkpt>
      <trkpt lat="47.40502" lon="-0.34663">
        <ele>20</ele>
        <time>2010-06-26T15:45:03Z</time>
      </trkpt>
      <trkpt lat="47.40506" lon="-0.34609">
        <ele>20</ele>
        <time>2010-06-26T15:45:08Z</time>
      </trkpt>
      <trkpt lat="47.40512" lon="-0.34547">
        <ele>21</ele>
        <time>2010-06-26T15:45:13Z</time>
      </trkpt>
      <trkpt lat="47.40518" lon="-0.34494">
        <ele>22</ele>
        <time>2010-06-26T15:45:18Z</time>
      </trkpt>
      <trkpt lat="47.40523" lon="-0.34452">
        <ele>22</ele>
        <time>2010-06-26T15:45:23Z</time>
      </trkpt>
      <trkpt lat="47.40527" lon="-0.34398">
        <ele>21</ele>
        <time>2010-06-26T15:45:28Z</time>
      </trkpt>
      <trkpt lat="47.40516" lon="-0.34346">
        <ele>21</ele>
        <time>2010-06-26T15:45:33Z</time>
      </trkpt>
      <trkpt lat="47.40493" lon="-0.34288">
        <ele>20</ele>
        <time>2010-06-26T15:45:38Z</time>
      </trkpt>
      <trkpt lat="47.40472" lon="-0.3424">
        <ele>19</ele>
        <time>2010-06-26T15:45:43Z</time>
      </trkpt>
      <trkpt lat="47.40449" lon="-0.3421">
        <ele>20</ele>
        <time>2010-06-26T15:45:48Z</time>
      </trkpt>
      <trkpt lat="47.40416" lon="-0.34181">
        <ele>19</ele>
        <time>2010-06-26T15:45:53Z</time>
      </trkpt>
      <trkpt lat="47.40387" lon="-0.3413">
        <ele>19</ele>
        <time>2010-06-26T15:45:58Z</time>
      </trkpt>
      <trkpt lat="47.40375" lon="-0.34076">
        <ele>20</ele>
        <time>2010-06-26T15:46:03Z</time>
      </trkpt>
      <trkpt lat="47.40369" lon="-0.34031">
        <ele>21</ele>
        <time>2010-06-26T15:46:08Z</time>
      </trkpt>
      <trkpt lat="47.40355" lon="-0.33979">
        <ele>24</ele>
        <time>2010-06-26T15:46:13Z</time>
      </trkpt>
      <trkpt lat="47.40332" lon="-0.33934">
        <ele>29</ele>
        <time>2010-06-26T15:46:18Z</time>
      </trkpt>
      <trkpt lat="47.40311" lon="-0.33871">
        <ele>30</ele>
        <time>2010-06-26T15:46:23Z</time>
      </trkpt>
      <trkpt lat="47.40302" lon="-0.33815">
        <ele>25</ele>
        <time>2010-06-26T15:46:28Z</time>
      </trkpt>
      <trkpt lat="47.40294" lon="-0.33771">
        <ele>24</ele>
        <time>2010-06-26T15:46:33Z</time>
      </trkpt>
      <trkpt lat="47.40289" lon="-0.33713">
        <ele>21</ele>
        <time>2010-06-26T15:46:38Z</time>
      </trkpt>
      <trkpt lat="47.40301" lon="-0.33647">
        <ele>21</ele>
        <time>2010-06-26T15:46:43Z</time>
      </trkpt>
      <trkpt lat="47.40313" lon="-0.33594">
        <ele>21</ele>
        <time>2010-06-26T15:46:48Z</time>
      </trkpt>
      <trkpt lat="47.40319" lon="-0.3355">
        <ele>21</ele>
        <time>2010-06-26T15:46:53Z</time>
      </trkpt>
      <trkpt lat="47.40316" lon="-0.33494">
        <ele>22</ele>
        <time>2010-06-26T15:46:58Z</time>
      </trkpt>
      <trkpt lat="47.40306" lon="-0.33441">
        <ele>24</ele>
        <time>2010-06-26T15:47:03Z</time>
      </trkpt>
      <trkpt lat="47.40284" lon="-0.33385">
        <ele>26</ele>
        <time>2010-06-26T15:47:08Z</time>
      </trkpt>
      <trkpt lat="47.40255" lon="-0.33352">
        <ele>27</ele>
        <time>2010-06-26T15:47:13Z</time>
      </trkpt>
      <trkpt lat="47.4023" lon="-0.33327">
        <ele>25</ele>
        <time>2010-06-26T15:47:18Z</time>
      </trkpt>
      <trkpt lat="47.40206" lon="-0.33285">
        <ele>24</ele>
        <time>2010-06-26T15:47:23Z</time>
      </trkpt>
      <trkpt lat="47.40186" lon="-0.33219">
        <ele>23</ele>
        <time>2010-06-26T15:47:28Z</time>
      </trkpt>
      <trkpt lat="47.40171" lon="-0.33165">
        <ele>21</ele>
        <time>2010-06-26T15:47:33Z</time>
      </trkpt>
      <trkpt lat="47.4016" lon="-0.33122">
        <ele>22</ele>
        <time>2010-06-26T15:47:38Z</time>
      </trkpt>
      <trkpt lat="47.40148" lon="-0.33068">
        <ele>23</ele>
        <time>2010-06-26T15:47:43Z</time>
      </trkpt>
      <trkpt lat="47.40135" lon="-0.33014">
        <ele>23</ele>
        <time>2010-06-26T15:47:48Z</time>
      </trkpt>
      <trkpt lat="47.40125" lon="-0.3295">
        <ele>23</ele>
        <time>2010-06-26T15:47:53Z</time>
      </trkpt>
      <trkpt lat="47.40114" lon="-0.32898">
        <ele>22</ele>
        <time>2010-06-26T15:47:58Z</time>
      </trkpt>
      <trkpt lat="47.40106" lon="-0.32856">
        <ele>22</ele>
        <time>2010-06-26T15:48:03Z</time>
      </trkpt>
      <trkpt lat="47.40095" lon="-0.328">
        <ele>22</ele>
        <time>2010-06-26T15:48:08Z</time>
      </trkpt>
      <trkpt lat="47.40083" lon="-0.32745">
        <ele>23</ele>
        <time>2010-06-26T15:48:13Z</time>
      </trkpt>
      <trkpt lat="47.40069" lon="-0.32682">
        <ele>22</ele>
        <time>2010-06-26T15:48:18Z</time>
      </trkpt>
      <trkpt lat="47.4006" lon="-0.32638">
        <ele>22</ele>
        <time>2010-06-26T15:48:23Z</time>
      </trkpt>
      <trkpt lat="47.40048" lon="-0.32585">
        <ele>22</ele>
        <time>2010-06-26T15:48:28Z</time>
      </trkpt>
      <trkpt lat="47.40034" lon="-0.32521">
        <ele>23</ele>
        <time>2010-06-26T15:48:33Z</time>
      </trkpt>
      <trkpt lat="47.40022" lon="-0.32468">
        <ele>23</ele>
        <time>2010-06-26T15:48:38Z</time>
      </trkpt>
      <trkpt lat="47.40011" lon="-0.32416">
        <ele>23</ele>
        <time>2010-06-26T15:48:43Z</time>
      </trkpt>
      <trkpt lat="47.40003" lon="-0.32373">
        <ele>22</ele>
        <time>2010-06-26T15:48:48Z</time>
      </trkpt>
      <trkpt lat="47.3999" lon="-0.32319">
        <ele>23</ele>
        <time>2010-06-26T15:48:53Z</time>
      </trkpt>
      <trkpt lat="47.39976" lon="-0.32254">
        <ele>23</ele>
        <time>2010-06-26T15:48:58Z</time>
      </trkpt>
      <trkpt lat="47.39964" lon="-0.32199">
        <ele>24</ele>
        <time>2010-06-26T15:49:03Z</time>
      </trkpt>
      <trkpt lat="47.39952" lon="-0.32147">
        <ele>25</ele>
        <time>2010-06-26T15:49:08Z</time>
      </trkpt>
      <trkpt lat="47.39943" lon="-0.3211">
        <ele>26</ele>
        <time>2010-06-26T15:49:13Z</time>
      </trkpt>
      <trkpt lat="47.39933" lon="-0.32069">
        <ele>28</ele>
        <time>2010-06-26T15:49:18Z</time>
      </trkpt>
      <trkpt lat="47.39928" lon="-0.32042">
        <ele>28</ele>
        <time>2010-06-26T15:49:23Z</time>
      </trkpt>
      <trkpt lat="47.39925" lon="-0.3201">
        <ele>28</ele>
        <time>2010-06-26T15:49:28Z</time>
      </trkpt>
      <trkpt lat="47.39921" lon="-0.31983">
        <ele>28</ele>
        <time>2010-06-26T15:49:33Z</time>
      </trkpt>
      <trkpt lat="47.39915" lon="-0.31938">
        <ele>28</ele>
        <time>2010-06-26T15:49:38Z</time>
      </trkpt>
      <trkpt lat="47.39915" lon="-0.31881">
        <ele>27</ele>
        <time>2010-06-26T15:49:43Z</time>
      </trkpt>
      <trkpt lat="47.39917" lon="-0.3184">
        <ele>27</ele>
        <time>2010-06-26T15:49:48Z</time>
      </trkpt>
      <trkpt lat="47.39916" lon="-0.31789">
        <ele>26</ele>
        <time>2010-06-26T15:49:53Z</time>
      </trkpt>
      <trkpt lat="47.39901" lon="-0.31772">
        <ele>26</ele>
        <time>2010-06-26T15:49:58Z</time>
      </trkpt>
      <trkpt lat="47.39873" lon="-0.31767">
        <ele>26</ele>
        <time>2010-06-26T15:50:03Z</time>
      </trkpt>
      <trkpt lat="47.39836" lon="-0.31756">
        <ele>25</ele>
        <time>2010-06-26T15:50:08Z</time>
      </trkpt>
      <trkpt lat="47.39802" lon="-0.31744">
        <ele>27</ele>
        <time>2010-06-26T15:50:13Z</time>
      </trkpt>
      <trkpt lat="47.39778" lon="-0.31732">
        <ele>27</ele>
        <time>2010-06-26T15:50:18Z</time>
      </trkpt>
      <trkpt lat="47.39766" lon="-0.31709">
        <ele>28</ele>
        <time>2010-06-26T15:50:23Z</time>
      </trkpt>
      <trkpt lat="47.39768" lon="-0.31656">
        <ele>29</ele>
        <time>2010-06-26T15:50:28Z</time>
      </trkpt>
      <trkpt lat="47.39768" lon="-0.31609">
        <ele>29</ele>
        <time>2010-06-26T15:50:33Z</time>
      </trkpt>
      <trkpt lat="47.3976" lon="-0.31566">
        <ele>29</ele>
        <time>2010-06-26T15:50:38Z</time>
      </trkpt>
      <trkpt lat="47.3976" lon="-0.31534">
        <ele>29</ele>
        <time>2010-06-26T15:50:43Z</time>
      </trkpt>
      <trkpt lat="47.39757" lon="-0.3149">
        <ele>29</ele>
        <time>2010-06-26T15:50:48Z</time>
      </trkpt>
      <trkpt lat="47.3976" lon="-0.31435">
        <ele>28</ele>
        <time>2010-06-26T15:50:53Z</time>
      </trkpt>
      <trkpt lat="47.39768" lon="-0.31388">
        <ele>27</ele>
        <time>2010-06-26T15:50:58Z</time>
      </trkpt>
      <trkpt lat="47.39773" lon="-0.31349">
        <ele>27</ele>
        <time>2010-06-26T15:51:03Z</time>
      </trkpt>
      <trkpt lat="47.39777" lon="-0.31298">
        <ele>26</ele>
        <time>2010-06-26T15:51:08Z</time>
      </trkpt>
      <trkpt lat="47.39777" lon="-0.31244">
        <ele>26</ele>
        <time>2010-06-26T15:51:13Z</time>
      </trkpt>
      <trkpt lat="47.3978" lon="-0.3118">
        <ele>26</ele>
        <time>2010-06-26T15:51:18Z</time>
      </trkpt>
      <trkpt lat="47.39781" lon="-0.31126">
        <ele>26</ele>
        <time>2010-06-26T15:51:23Z</time>
      </trkpt>
      <trkpt lat="47.39782" lon="-0.31082">
        <ele>26</ele>
        <time>2010-06-26T15:51:28Z</time>
      </trkpt>
      <trkpt lat="47.39783" lon="-0.31026">
        <ele>26</ele>
        <time>2010-06-26T15:51:33Z</time>
      </trkpt>
      <trkpt lat="47.39782" lon="-0.3096">
        <ele>26</ele>
        <time>2010-06-26T15:51:38Z</time>
      </trkpt>
      <trkpt lat="47.39777" lon="-0.30906">
        <ele>26</ele>
        <time>2010-06-26T15:51:43Z</time>
      </trkpt>
      <trkpt lat="47.39773" lon="-0.30852">
        <ele>26</ele>
        <time>2010-06-26T15:51:48Z</time>
      </trkpt>
      <trkpt lat="47.39767" lon="-0.30808">
        <ele>26</ele>
        <time>2010-06-26T15:51:53Z</time>
      </trkpt>
      <trkpt lat="47.39762" lon="-0.30752">
        <ele>26</ele>
        <time>2010-06-26T15:51:58Z</time>
      </trkpt>
      <trkpt lat="47.39755" lon="-0.30685">
        <ele>25</ele>
        <time>2010-06-26T15:52:03Z</time>
      </trkpt>
      <trkpt lat="47.39744" lon="-0.3063">
        <ele>27</ele>
        <time>2010-06-26T15:52:08Z</time>
      </trkpt>
      <trkpt lat="47.3973" lon="-0.30589">
        <ele>27</ele>
        <time>2010-06-26T15:52:13Z</time>
      </trkpt>
      <trkpt lat="47.39715" lon="-0.30535">
        <ele>27</ele>
        <time>2010-06-26T15:52:18Z</time>
      </trkpt>
      <trkpt lat="47.39708" lon="-0.3047">
        <ele>27</ele>
        <time>2010-06-26T15:52:23Z</time>
      </trkpt>
      <trkpt lat="47.39707" lon="-0.30423">
        <ele>27</ele>
        <time>2010-06-26T15:52:28Z</time>
      </trkpt>
      <trkpt lat="47.39705" lon="-0.30381">
        <ele>28</ele>
        <time>2010-06-26T15:52:33Z</time>
      </trkpt>
      <trkpt lat="47.39704" lon="-0.3035">
        <ele>28</ele>
        <time>2010-06-26T15:52:38Z</time>
      </trkpt>
      <trkpt lat="47.39702" lon="-0.3031">
        <ele>29</ele>
        <time>2010-06-26T15:52:43Z</time>
      </trkpt>
      <trkpt lat="47.39695" lon="-0.3026">
        <ele>30</ele>
        <time>2010-06-26T15:52:48Z</time>
      </trkpt>
      <trkpt lat="47.39689" lon="-0.30215">
        <ele>30</ele>
        <time>2010-06-26T15:52:53Z</time>
      </trkpt>
      <trkpt lat="47.39683" lon="-0.30177">
        <ele>30</ele>
        <time>2010-06-26T15:52:58Z</time>
      </trkpt>
      <trkpt lat="47.39676" lon="-0.30126">
        <ele>28</ele>
        <time>2010-06-26T15:53:03Z</time>
      </trkpt>
      <trkpt lat="47.39667" lon="-0.30065">
        <ele>31</ele>
        <time>2010-06-26T15:53:08Z</time>
      </trkpt>
      <trkpt lat="47.39658" lon="-0.30012">
        <ele>30</ele>
        <time>2010-06-26T15:53:13Z</time>
      </trkpt>
      <trkpt lat="47.39649" lon="-0.29955">
        <ele>30</ele>
        <time>2010-06-26T15:53:18Z</time>
      </trkpt>
      <trkpt lat="47.3964" lon="-0.29909">
        <ele>28</ele>
        <time>2010-06-26T15:53:23Z</time>
      </trkpt>
      <trkpt lat="47.39625" lon="-0.29854">
        <ele>29</ele>
        <time>2010-06-26T15:53:28Z</time>
      </trkpt>
      <trkpt lat="47.39608" lon="-0.29795">
        <ele>30</ele>
        <time>2010-06-26T15:53:33Z</time>
      </trkpt>
      <trkpt lat="47.39595" lon="-0.29753">
        <ele>32</ele>
        <time>2010-06-26T15:53:38Z</time>
      </trkpt>
      <trkpt lat="47.39584" lon="-0.29724">
        <ele>32</ele>
        <time>2010-06-26T15:53:43Z</time>
      </trkpt>
      <trkpt lat="47.3957" lon="-0.29688">
        <ele>36</ele>
        <time>2010-06-26T15:53:48Z</time>
      </trkpt>
      <trkpt lat="47.39557" lon="-0.29654">
        <ele>36</ele>
        <time>2010-06-26T15:53:53Z</time>
      </trkpt>
      <trkpt lat="47.39539" lon="-0.29606">
        <ele>36</ele>
        <time>2010-06-26T15:53:58Z</time>
      </trkpt>
      <trkpt lat="47.39524" lon="-0.29557">
        <ele>36</ele>
        <time>2010-06-26T15:54:03Z</time>
      </trkpt>
      <trkpt lat="47.39517" lon="-0.29513">
        <ele>37</ele>
        <time>2010-06-26T15:54:08Z</time>
      </trkpt>
      <trkpt lat="47.39519" lon="-0.29457">
        <ele>36</ele>
        <time>2010-06-26T15:54:13Z</time>
      </trkpt>
      <trkpt lat="47.39523" lon="-0.2939">
        <ele>34</ele>
        <time>2010-06-26T15:54:18Z</time>
      </trkpt>
      <trkpt lat="47.39511" lon="-0.29333">
        <ele>34</ele>
        <time>2010-06-26T15:54:23Z</time>
      </trkpt>
      <trkpt lat="47.39493" lon="-0.29292">
        <ele>35</ele>
        <time>2010-06-26T15:54:28Z</time>
      </trkpt>
      <trkpt lat="47.39474" lon="-0.29232">
        <ele>30</ele>
        <time>2010-06-26T15:54:33Z</time>
      </trkpt>
      <trkpt lat="47.39451" lon="-0.29166">
        <ele>29</ele>
        <time>2010-06-26T15:54:38Z</time>
      </trkpt>
      <trkpt lat="47.39429" lon="-0.29096">
        <ele>30</ele>
        <time>2010-06-26T15:54:43Z</time>
      </trkpt>
      <trkpt lat="47.39411" lon="-0.29042">
        <ele>35</ele>
        <time>2010-06-26T15:54:48Z</time>
      </trkpt>
      <trkpt lat="47.39399" lon="-0.29">
        <ele>34</ele>
        <time>2010-06-26T15:54:53Z</time>
      </trkpt>
      <trkpt lat="47.39383" lon="-0.28951">
        <ele>34</ele>
        <time>2010-06-26T15:54:58Z</time>
      </trkpt>
      <trkpt lat="47.39361" lon="-0.2889">
        <ele>32</ele>
        <time>2010-06-26T15:55:03Z</time>
      </trkpt>
      <trkpt lat="47.39343" lon="-0.28841">
        <ele>32</ele>
        <time>2010-06-26T15:55:08Z</time>
      </trkpt>
      <trkpt lat="47.39325" lon="-0.2879">
        <ele>36</ele>
        <time>2010-06-26T15:55:13Z</time>
      </trkpt>
      <trkpt lat="47.39312" lon="-0.28749">
        <ele>33</ele>
        <time>2010-06-26T15:55:18Z</time>
      </trkpt>
      <trkpt lat="47.39294" lon="-0.28699">
        <ele>35</ele>
        <time>2010-06-26T15:55:23Z</time>
      </trkpt>
      <trkpt lat="47.39273" lon="-0.2864">
        <ele>34</ele>
        <time>2010-06-26T15:55:28Z</time>
      </trkpt>
      <trkpt lat="47.39262" lon="-0.28587">
        <ele>34</ele>
        <time>2010-06-26T15:55:33Z</time>
      </trkpt>
      <trkpt lat="47.39256" lon="-0.28542">
        <ele>31</ele>
        <time>2010-06-26T15:55:38Z</time>
      </trkpt>
      <trkpt lat="47.39248" lon="-0.28487">
        <ele>31</ele>
        <time>2010-06-26T15:55:43Z</time>
      </trkpt>
      <trkpt lat="47.39235" lon="-0.28435">
        <ele>29</ele>
        <time>2010-06-26T15:55:48Z</time>
      </trkpt>
      <trkpt lat="47.39216" lon="-0.28377">
        <ele>26</ele>
        <time>2010-06-26T15:55:53Z</time>
      </trkpt>
      <trkpt lat="47.39198" lon="-0.28328">
        <ele>23</ele>
        <time>2010-06-26T15:55:58Z</time>
      </trkpt>
      <trkpt lat="47.39183" lon="-0.28287">
        <ele>23</ele>
        <time>2010-06-26T15:56:03Z</time>
      </trkpt>
      <trkpt lat="47.39163" lon="-0.28245">
        <ele>26</ele>
        <time>2010-06-26T15:56:08Z</time>
      </trkpt>
      <trkpt lat="47.39134" lon="-0.28193">
        <ele>27</ele>
        <time>2010-06-26T15:56:13Z</time>
      </trkpt>
      <trkpt lat="47.39109" lon="-0.28155">
        <ele>26</ele>
        <time>2010-06-26T15:56:18Z</time>
      </trkpt>
      <trkpt lat="47.39089" lon="-0.28124">
        <ele>25</ele>
        <time>2010-06-26T15:56:23Z</time>
      </trkpt>
      <trkpt lat="47.39063" lon="-0.28084">
        <ele>31</ele>
        <time>2010-06-26T15:56:28Z</time>
      </trkpt>
      <trkpt lat="47.39037" lon="-0.28042">
        <ele>31</ele>
        <time>2010-06-26T15:56:33Z</time>
      </trkpt>
      <trkpt lat="47.39004" lon="-0.28002">
        <ele>34</ele>
        <time>2010-06-26T15:56:38Z</time>
      </trkpt>
      <trkpt lat="47.38974" lon="-0.27974">
        <ele>35</ele>
        <time>2010-06-26T15:56:43Z</time>
      </trkpt>
      <trkpt lat="47.3895" lon="-0.27943">
        <ele>35</ele>
        <time>2010-06-26T15:56:48Z</time>
      </trkpt>
      <trkpt lat="47.38921" lon="-0.27898">
        <ele>31</ele>
        <time>2010-06-26T15:56:53Z</time>
      </trkpt>
      <trkpt lat="47.38889" lon="-0.27864">
        <ele>35</ele>
        <time>2010-06-26T15:56:58Z</time>
      </trkpt>
      <trkpt lat="47.3885" lon="-0.27841">
        <ele>36</ele>
        <time>2010-06-26T15:57:03Z</time>
      </trkpt>
      <trkpt lat="47.38823" lon="-0.27827">
        <ele>34</ele>
        <time>2010-06-26T15:57:08Z</time>
      </trkpt>
      <trkpt lat="47.3879" lon="-0.27807">
        <ele>33</ele>
        <time>2010-06-26T15:57:13Z</time>
      </trkpt>
      <trkpt lat="47.38751" lon="-0.2778">
        <ele>33</ele>
        <time>2010-06-26T15:57:18Z</time>
      </trkpt>
      <trkpt lat="47.38719" lon="-0.27757">
        <ele>39</ele>
        <time>2010-06-26T15:57:23Z</time>
      </trkpt>
      <trkpt lat="47.38686" lon="-0.27728">
        <ele>33</ele>
        <time>2010-06-26T15:57:28Z</time>
      </trkpt>
      <trkpt lat="47.38661" lon="-0.27705">
        <ele>39</ele>
        <time>2010-06-26T15:57:33Z</time>
      </trkpt>
      <trkpt lat="47.38633" lon="-0.2768">
        <ele>39</ele>
        <time>2010-06-26T15:57:38Z</time>
      </trkpt>
      <trkpt lat="47.38597" lon="-0.27651">
        <ele>35</ele>
        <time>2010-06-26T15:57:43Z</time>
      </trkpt>
      <trkpt lat="47.38565" lon="-0.27623">
        <ele>39</ele>
        <time>2010-06-26T15:57:48Z</time>
      </trkpt>
      <trkpt lat="47.38539" lon="-0.27599">
        <ele>39</ele>
        <time>2010-06-26T15:57:53Z</time>
      </trkpt>
      <trkpt lat="47.38506" lon="-0.27572">
        <ele>33</ele>
        <time>2010-06-26T15:57:58Z</time>
      </trkpt>
      <trkpt lat="47.38472" lon="-0.27545">
        <ele>34</ele>
        <time>2010-06-26T15:58:03Z</time>
      </trkpt>
      <trkpt lat="47.38431" lon="-0.2751">
        <ele>35</ele>
        <time>2010-06-26T15:58:08Z</time>
      </trkpt>
      <trkpt lat="47.38397" lon="-0.27477">
        <ele>36</ele>
        <time>2010-06-26T15:58:13Z</time>
      </trkpt>
      <trkpt lat="47.38369" lon="-0.27455">
        <ele>36</ele>
        <time>2010-06-26T15:58:18Z</time>
      </trkpt>
      <trkpt lat="47.38336" lon="-0.27423">
        <ele>37</ele>
        <time>2010-06-26T15:58:23Z</time>
      </trkpt>
      <trkpt lat="47.38297" lon="-0.2739">
        <ele>36</ele>
        <time>2010-06-26T15:58:28Z</time>
      </trkpt>
      <trkpt lat="47.38265" lon="-0.27363">
        <ele>36</ele>
        <time>2010-06-26T15:58:33Z</time>
      </trkpt>
      <trkpt lat="47.38233" lon="-0.27338">
        <ele>42</ele>
        <time>2010-06-26T15:58:38Z</time>
      </trkpt>
      <trkpt lat="47.38207" lon="-0.27314">
        <ele>35</ele>
        <time>2010-06-26T15:58:43Z</time>
      </trkpt>
      <trkpt lat="47.38173" lon="-0.27292">
        <ele>35</ele>
        <time>2010-06-26T15:58:48Z</time>
      </trkpt>
      <trkpt lat="47.38133" lon="-0.27271">
        <ele>41</ele>
        <time>2010-06-26T15:58:53Z</time>
      </trkpt>
      <trkpt lat="47.38099" lon="-0.27248">
        <ele>33</ele>
        <time>2010-06-26T15:58:58Z</time>
      </trkpt>
      <trkpt lat="47.38072" lon="-0.27229">
        <ele>37</ele>
        <time>2010-06-26T15:59:03Z</time>
      </trkpt>
      <trkpt lat="47.38039" lon="-0.27207">
        <ele>36</ele>
        <time>2010-06-26T15:59:08Z</time>
      </trkpt>
      <trkpt lat="47.38" lon="-0.27182">
        <ele>38</ele>
        <time>2010-06-26T15:59:13Z</time>
      </trkpt>
      <trkpt lat="47.37965" lon="-0.27156">
        <ele>36</ele>
        <time>2010-06-26T15:59:18Z</time>
      </trkpt>
      <trkpt lat="47.3793" lon="-0.27127">
        <ele>35</ele>
        <time>2010-06-26T15:59:23Z</time>
      </trkpt>
      <trkpt lat="47.37902" lon="-0.27108">
        <ele>41</ele>
        <time>2010-06-26T15:59:28Z</time>
      </trkpt>
      <trkpt lat="47.37869" lon="-0.27084">
        <ele>43</ele>
        <time>2010-06-26T15:59:33Z</time>
      </trkpt>
      <trkpt lat="47.3783" lon="-0.27055">
        <ele>44</ele>
        <time>2010-06-26T15:59:38Z</time>
      </trkpt>
      <trkpt lat="47.37797" lon="-0.27031">
        <ele>44</ele>
        <time>2010-06-26T15:59:43Z</time>
      </trkpt>
      <trkpt lat="47.37771" lon="-0.27013">
        <ele>44</ele>
        <time>2010-06-26T15:59:48Z</time>
      </trkpt>
      <trkpt lat="47.37738" lon="-0.26985">
        <ele>43</ele>
        <time>2010-06-26T15:59:53Z</time>
      </trkpt>
      <trkpt lat="47.37697" lon="-0.26954">
        <ele>42</ele>
        <time>2010-06-26T15:59:58Z</time>
      </trkpt>
      <trkpt lat="47.37662" lon="-0.26933">
        <ele>42</ele>
        <time>2010-06-26T16:00:03Z</time>
      </trkpt>
      <trkpt lat="47.37626" lon="-0.26911">
        <ele>38</ele>
        <time>2010-06-26T16:00:08Z</time>
      </trkpt>
      <trkpt lat="47.37597" lon="-0.2689">
        <ele>41</ele>
        <time>2010-06-26T16:00:13Z</time>
      </trkpt>
      <trkpt lat="47.37562" lon="-0.26867">
        <ele>49</ele>
        <time>2010-06-26T16:00:18Z</time>
      </trkpt>
      <trkpt lat="47.37525" lon="-0.2683">
        <ele>41</ele>
        <time>2010-06-26T16:00:23Z</time>
      </trkpt>
      <trkpt lat="47.37484" lon="-0.26801">
        <ele>44</ele>
        <time>2010-06-26T16:00:28Z</time>
      </trkpt>
      <trkpt lat="47.37457" lon="-0.26782">
        <ele>43</ele>
        <time>2010-06-26T16:00:33Z</time>
      </trkpt>
      <trkpt lat="47.37425" lon="-0.26746">
        <ele>34</ele>
        <time>2010-06-26T16:00:38Z</time>
      </trkpt>
      <trkpt lat="47.37395" lon="-0.26719">
        <ele>32</ele>
        <time>2010-06-26T16:00:43Z</time>
      </trkpt>
      <trkpt lat="47.37363" lon="-0.26688">
        <ele>31</ele>
        <time>2010-06-26T16:00:48Z</time>
      </trkpt>
      <trkpt lat="47.37335" lon="-0.26661">
        <ele>29</ele>
        <time>2010-06-26T16:00:53Z</time>
      </trkpt>
      <trkpt lat="47.37314" lon="-0.26637">
        <ele>27</ele>
        <time>2010-06-26T16:00:58Z</time>
      </trkpt>
      <trkpt lat="47.37288" lon="-0.26611">
        <ele>26</ele>
        <time>2010-06-26T16:01:03Z</time>
      </trkpt>
      <trkpt lat="47.37255" lon="-0.26589">
        <ele>27</ele>
        <time>2010-06-26T16:01:08Z</time>
      </trkpt>
      <trkpt lat="47.37227" lon="-0.26574">
        <ele>25</ele>
        <time>2010-06-26T16:01:13Z</time>
      </trkpt>
      <trkpt lat="47.37196" lon="-0.26558">
        <ele>25</ele>
        <time>2010-06-26T16:01:18Z</time>
      </trkpt>
      <trkpt lat="47.37171" lon="-0.26542">
        <ele>26</ele>
        <time>2010-06-26T16:01:23Z</time>
      </trkpt>
      <trkpt lat="47.37137" lon="-0.26517">
        <ele>29</ele>
        <time>2010-06-26T16:01:28Z</time>
      </trkpt>
      <trkpt lat="47.37106" lon="-0.26497">
        <ele>25</ele>
        <time>2010-06-26T16:01:33Z</time>
      </trkpt>
      <trkpt lat="47.37071" lon="-0.2647">
        <ele>27</ele>
        <time>2010-06-26T16:01:38Z</time>
      </trkpt>
      <trkpt lat="47.37049" lon="-0.26452">
        <ele>26</ele>
        <time>2010-06-26T16:01:43Z</time>
      </trkpt>
      <trkpt lat="47.37019" lon="-0.26435">
        <ele>27</ele>
        <time>2010-06-26T16:01:48Z</time>
      </trkpt>
      <trkpt lat="47.36988" lon="-0.26412">
        <ele>26</ele>
        <time>2010-06-26T16:01:53Z</time>
      </trkpt>
      <trkpt lat="47.3695" lon="-0.26388">
        <ele>24</ele>
        <time>2010-06-26T16:01:58Z</time>
      </trkpt>
      <trkpt lat="47.36918" lon="-0.2637">
        <ele>22</ele>
        <time>2010-06-26T16:02:03Z</time>
      </trkpt>
      <trkpt lat="47.36892" lon="-0.26356">
        <ele>25</ele>
        <time>2010-06-26T16:02:08Z</time>
      </trkpt>
      <trkpt lat="47.36859" lon="-0.26341">
        <ele>28</ele>
        <time>2010-06-26T16:02:13Z</time>
      </trkpt>
      <trkpt lat="47.36817" lon="-0.26329">
        <ele>25</ele>
        <time>2010-06-26T16:02:18Z</time>
      </trkpt>
      <trkpt lat="47.36781" lon="-0.26324">
        <ele>24</ele>
        <time>2010-06-26T16:02:23Z</time>
      </trkpt>
      <trkpt lat="47.36752" lon="-0.26321">
        <ele>26</ele>
        <time>2010-06-26T16:02:28Z</time>
      </trkpt>
      <trkpt lat="47.36716" lon="-0.26316">
        <ele>24</ele>
        <time>2010-06-26T16:02:33Z</time>
      </trkpt>
      <trkpt lat="47.36673" lon="-0.26313">
        <ele>24</ele>
        <time>2010-06-26T16:02:38Z</time>
      </trkpt>
      <trkpt lat="47.36637" lon="-0.26308">
        <ele>24</ele>
        <time>2010-06-26T16:02:43Z</time>
      </trkpt>
      <trkpt lat="47.366" lon="-0.26309">
        <ele>24</ele>
        <time>2010-06-26T16:02:48Z</time>
      </trkpt>
      <trkpt lat="47.36571" lon="-0.26311">
        <ele>25</ele>
        <time>2010-06-26T16:02:53Z</time>
      </trkpt>
      <trkpt lat="47.36532" lon="-0.26309">
        <ele>25</ele>
        <time>2010-06-26T16:02:58Z</time>
      </trkpt>
      <trkpt lat="47.36484" lon="-0.26302">
        <ele>25</ele>
        <time>2010-06-26T16:03:03Z</time>
      </trkpt>
      <trkpt lat="47.36445" lon="-0.26297">
        <ele>25</ele>
        <time>2010-06-26T16:03:08Z</time>
      </trkpt>
      <trkpt lat="47.36415" lon="-0.2629">
        <ele>25</ele>
        <time>2010-06-26T16:03:13Z</time>
      </trkpt>
      <trkpt lat="47.36376" lon="-0.26277">
        <ele>24</ele>
        <time>2010-06-26T16:03:18Z</time>
      </trkpt>
      <trkpt lat="47.36332" lon="-0.26257">
        <ele>25</ele>
        <time>2010-06-26T16:03:23Z</time>
      </trkpt>
      <trkpt lat="47.36297" lon="-0.2624">
        <ele>25</ele>
        <time>2010-06-26T16:03:28Z</time>
      </trkpt>
      <trkpt lat="47.36261" lon="-0.2622">
        <ele>24</ele>
        <time>2010-06-26T16:03:33Z</time>
      </trkpt>
      <trkpt lat="47.36233" lon="-0.26202">
        <ele>27</ele>
        <time>2010-06-26T16:03:38Z</time>
      </trkpt>
      <trkpt lat="47.362" lon="-0.26176">
        <ele>28</ele>
        <time>2010-06-26T16:03:43Z</time>
      </trkpt>
      <trkpt lat="47.3616" lon="-0.2615">
        <ele>30</ele>
        <time>2010-06-26T16:03:48Z</time>
      </trkpt>
      <trkpt lat="47.36127" lon="-0.26129">
        <ele>29</ele>
        <time>2010-06-26T16:03:53Z</time>
      </trkpt>
      <trkpt lat="47.36101" lon="-0.26109">
        <ele>29</ele>
        <time>2010-06-26T16:03:58Z</time>
      </trkpt>
      <trkpt lat="47.36068" lon="-0.26082">
        <ele>28</ele>
        <time>2010-06-26T16:04:03Z</time>
      </trkpt>
      <trkpt lat="47.36036" lon="-0.26053">
        <ele>28</ele>
        <time>2010-06-26T16:04:08Z</time>
      </trkpt>
      <trkpt lat="47.36001" lon="-0.26007">
        <ele>28</ele>
        <time>2010-06-26T16:04:13Z</time>
      </trkpt>
      <trkpt lat="47.3597" lon="-0.25962">
        <ele>28</ele>
        <time>2010-06-26T16:04:18Z</time>
      </trkpt>
      <trkpt lat="47.35945" lon="-0.25934">
        <ele>28</ele>
        <time>2010-06-26T16:04:23Z</time>
      </trkpt>
      <trkpt lat="47.35913" lon="-0.25897">
        <ele>27</ele>
        <time>2010-06-26T16:04:28Z</time>
      </trkpt>
      <trkpt lat="47.35874" lon="-0.25853">
        <ele>27</ele>
        <time>2010-06-26T16:04:33Z</time>
      </trkpt>
      <trkpt lat="47.35845" lon="-0.25821">
        <ele>26</ele>
        <time>2010-06-26T16:04:38Z</time>
      </trkpt>
      <trkpt lat="47.35818" lon="-0.25778">
        <ele>27</ele>
        <time>2010-06-26T16:04:43Z</time>
      </trkpt>
      <trkpt lat="47.35798" lon="-0.25733">
        <ele>26</ele>
        <time>2010-06-26T16:04:48Z</time>
      </trkpt>
      <trkpt lat="47.35774" lon="-0.25691">
        <ele>26</ele>
        <time>2010-06-26T16:04:53Z</time>
      </trkpt>
      <trkpt lat="47.35746" lon="-0.25636">
        <ele>24</ele>
        <time>2010-06-26T16:04:58Z</time>
      </trkpt>
      <trkpt lat="47.35725" lon="-0.25583">
        <ele>24</ele>
        <time>2010-06-26T16:05:03Z</time>
      </trkpt>
      <trkpt lat="47.3571" lon="-0.25542">
        <ele>24</ele>
        <time>2010-06-26T16:05:08Z</time>
      </trkpt>
      <trkpt lat="47.35691" lon="-0.25492">
        <ele>25</ele>
        <time>2010-06-26T16:05:13Z</time>
      </trkpt>
      <trkpt lat="47.35671" lon="-0.25444">
        <ele>25</ele>
        <time>2010-06-26T16:05:18Z</time>
      </trkpt>
      <trkpt lat="47.35646" lon="-0.25386">
        <ele>27</ele>
        <time>2010-06-26T16:05:23Z</time>
      </trkpt>
      <trkpt lat="47.35621" lon="-0.25343">
        <ele>28</ele>
        <time>2010-06-26T16:05:28Z</time>
      </trkpt>
      <trkpt lat="47.35601" lon="-0.25309">
        <ele>27</ele>
        <time>2010-06-26T16:05:33Z</time>
      </trkpt>
      <trkpt lat="47.35585" lon="-0.25253">
        <ele>26</ele>
        <time>2010-06-26T16:05:38Z</time>
      </trkpt>
      <trkpt lat="47.35554" lon="-0.25208">
        <ele>26</ele>
        <time>2010-06-26T16:05:43Z</time>
      </trkpt>
      <trkpt lat="47.35524" lon="-0.25167">
        <ele>27</ele>
        <time>2010-06-26T16:05:48Z</time>
      </trkpt>
      <trkpt lat="47.35503" lon="-0.25137">
        <ele>26</ele>
        <time>2010-06-26T16:05:53Z</time>
      </trkpt>
      <trkpt lat="47.35478" lon="-0.25102">
        <ele>32</ele>
        <time>2010-06-26T16:05:58Z</time>
      </trkpt>
      <trkpt lat="47.3544" lon="-0.25072">
        <ele>31</ele>
        <time>2010-06-26T16:06:03Z</time>
      </trkpt>
      <trkpt lat="47.35407" lon="-0.25044">
        <ele>33</ele>
        <time>2010-06-26T16:06:08Z</time>
      </trkpt>
      <trkpt lat="47.35373" lon="-0.25016">
        <ele>32</ele>
        <time>2010-06-26T16:06:13Z</time>
      </trkpt>
      <trkpt lat="47.35346" lon="-0.24994">
        <ele>30</ele>
        <time>2010-06-26T16:06:18Z</time>
      </trkpt>
      <trkpt lat="47.35313" lon="-0.2496">
        <ele>33</ele>
        <time>2010-06-26T16:06:23Z</time>
      </trkpt>
      <trkpt lat="47.35272" lon="-0.24916">
        <ele>31</ele>
        <time>2010-06-26T16:06:28Z</time>
      </trkpt>
      <trkpt lat="47.35243" lon="-0.24882">
        <ele>32</ele>
        <time>2010-06-26T16:06:33Z</time>
      </trkpt>
      <trkpt lat="47.3522" lon="-0.2485">
        <ele>31</ele>
        <time>2010-06-26T16:06:38Z</time>
      </trkpt>
      <trkpt lat="47.35194" lon="-0.24807">
        <ele>29</ele>
        <time>2010-06-26T16:06:43Z</time>
      </trkpt>
      <trkpt lat="47.3517" lon="-0.24759">
        <ele>30</ele>
        <time>2010-06-26T16:06:48Z</time>
      </trkpt>
      <trkpt lat="47.35156" lon="-0.24718">
        <ele>37</ele>
        <time>2010-06-26T16:06:53Z</time>
      </trkpt>
      <trkpt lat="47.35136" lon="-0.24667">
        <ele>37</ele>
        <time>2010-06-26T16:06:58Z</time>
      </trkpt>
      <trkpt lat="47.35117" lon="-0.24625">
        <ele>36</ele>
        <time>2010-06-26T16:07:03Z</time>
      </trkpt>
      <trkpt lat="47.35093" lon="-0.24572">
        <ele>33</ele>
        <time>2010-06-26T16:07:08Z</time>
      </trkpt>
      <trkpt lat="47.35068" lon="-0.24528">
        <ele>36</ele>
        <time>2010-06-26T16:07:13Z</time>
      </trkpt>
      <trkpt lat="47.35046" lon="-0.24483">
        <ele>30</ele>
        <time>2010-06-26T16:07:18Z</time>
      </trkpt>
      <trkpt lat="47.35029" lon="-0.24457">
        <ele>31</ele>
        <time>2010-06-26T16:07:23Z</time>
      </trkpt>
      <trkpt lat="47.34998" lon="-0.24417">
        <ele>35</ele>
        <time>2010-06-26T16:07:28Z</time>
      </trkpt>
      <trkpt lat="47.34964" lon="-0.24376">
        <ele>34</ele>
        <time>2010-06-26T16:07:33Z</time>
      </trkpt>
      <trkpt lat="47.34928" lon="-0.24341">
        <ele>34</ele>
        <time>2010-06-26T16:07:38Z</time>
      </trkpt>
      <trkpt lat="47.34899" lon="-0.2431">
        <ele>37</ele>
        <time>2010-06-26T16:07:43Z</time>
      </trkpt>
      <trkpt lat="47.34875" lon="-0.24281">
        <ele>38</ele>
        <time>2010-06-26T16:07:48Z</time>
      </trkpt>
      <trkpt lat="47.34846" lon="-0.24243">
        <ele>34</ele>
        <time>2010-06-26T16:07:53Z</time>
      </trkpt>
      <trkpt lat="47.34813" lon="-0.24195">
        <ele>38</ele>
        <time>2010-06-26T16:07:58Z</time>
      </trkpt>
      <trkpt lat="47.34788" lon="-0.24159">
        <ele>32</ele>
        <time>2010-06-26T16:08:03Z</time>
      </trkpt>
      <trkpt lat="47.34764" lon="-0.24115">
        <ele>31</ele>
        <time>2010-06-26T16:08:08Z</time>
      </trkpt>
      <trkpt lat="47.34749" lon="-0.24068">
        <ele>31</ele>
        <time>2010-06-26T16:08:13Z</time>
      </trkpt>
      <trkpt lat="47.34728" lon="-0.24005">
        <ele>30</ele>
        <time>2010-06-26T16:08:18Z</time>
      </trkpt>
      <trkpt lat="47.34709" lon="-0.2396">
        <ele>27</ele>
        <time>2010-06-26T16:08:23Z</time>
      </trkpt>
      <trkpt lat="47.34685" lon="-0.2391">
        <ele>24</ele>
        <time>2010-06-26T16:08:28Z</time>
      </trkpt>
      <trkpt lat="47.34667" lon="-0.23869">
        <ele>23</ele>
        <time>2010-06-26T16:08:33Z</time>
      </trkpt>
      <trkpt lat="47.34647" lon="-0.23826">
        <ele>23</ele>
        <time>2010-06-26T16:08:38Z</time>
      </trkpt>
      <trkpt lat="47.34624" lon="-0.23768">
        <ele>23</ele>
        <time>2010-06-26T16:08:43Z</time>
      </trkpt>
      <trkpt lat="47.34602" lon="-0.23721">
        <ele>24</ele>
        <time>2010-06-26T16:08:48Z</time>
      </trkpt>
      <trkpt lat="47.34579" lon="-0.23676">
        <ele>30</ele>
        <time>2010-06-26T16:08:53Z</time>
      </trkpt>
      <trkpt lat="47.3456" lon="-0.23644">
        <ele>30</ele>
        <time>2010-06-26T16:08:58Z</time>
      </trkpt>
      <trkpt lat="47.34538" lon="-0.23595">
        <ele>31</ele>
        <time>2010-06-26T16:09:03Z</time>
      </trkpt>
      <trkpt lat="47.34515" lon="-0.23536">
        <ele>28</ele>
        <time>2010-06-26T16:09:08Z</time>
      </trkpt>
      <trkpt lat="47.34496" lon="-0.23489">
        <ele>31</ele>
        <time>2010-06-26T16:09:13Z</time>
      </trkpt>
      <trkpt lat="47.34479" lon="-0.23449">
        <ele>35</ele>
        <time>2010-06-26T16:09:18Z</time>
      </trkpt>
      <trkpt lat="47.34459" lon="-0.23403">
        <ele>32</ele>
        <time>2010-06-26T16:09:23Z</time>
      </trkpt>
      <trkpt lat="47.34435" lon="-0.23346">
        <ele>31</ele>
        <time>2010-06-26T16:09:28Z</time>
      </trkpt>
      <trkpt lat="47.34417" lon="-0.23301">
        <ele>30</ele>
        <time>2010-06-26T16:09:33Z</time>
      </trkpt>
      <trkpt lat="47.34401" lon="-0.23262">
        <ele>34</ele>
        <time>2010-06-26T16:09:38Z</time>
      </trkpt>
      <trkpt lat="47.34389" lon="-0.2323">
        <ele>33</ele>
        <time>2010-06-26T16:09:43Z</time>
      </trkpt>
      <trkpt lat="47.34372" lon="-0.23197">
        <ele>32</ele>
        <time>2010-06-26T16:09:48Z</time>
      </trkpt>
      <trkpt lat="47.34369" lon="-0.232">
        <ele>33</ele>
        <time>2010-06-26T16:09:53Z</time>
      </trkpt>
      <trkpt lat="47.34369" lon="-0.23201">
        <ele>33</ele>
        <time>2010-06-26T16:09:58Z</time>
      </trkpt>
      <trkpt lat="47.34369" lon="-0.23201">
        <ele>33</ele>
        <time>2010-06-26T16:10:03Z</time>
      </trkpt>
      <trkpt lat="47.34369" lon="-0.23202">
        <ele>33</ele>
        <time>2010-06-26T16:10:08Z</time>
      </trkpt>
      <trkpt lat="47.34369" lon="-0.23202">
        <ele>33</ele>
        <time>2010-06-26T16:10:13Z</time>
      </trkpt>
      <trkpt lat="47.34369" lon="-0.232">
        <ele>33</ele>
        <time>2010-06-26T16:10:18Z</time>
      </trkpt>
      <trkpt lat="47.34368" lon="-0.232">
        <ele>33</ele>
        <time>2010-06-26T16:10:23Z</time>
      </trkpt>
      <trkpt lat="47.34368" lon="-0.23199">
        <ele>33</ele>
        <time>2010-06-26T16:10:28Z</time>
      </trkpt>
      <trkpt lat="47.34368" lon="-0.232">
        <ele>33</ele>
        <time>2010-06-26T16:10:33Z</time>
      </trkpt>
      <trkpt lat="47.34368" lon="-0.23201">
        <ele>33</ele>
        <time>2010-06-26T16:10:38Z</time>
      </trkpt>
      <trkpt lat="47.34368" lon="-0.23202">
        <ele>33</ele>
        <time>2010-06-26T16:10:43Z</time>
      </trkpt>
      <trkpt lat="47.34368" lon="-0.23201">
        <ele>33</ele>
        <time>2010-06-26T16:10:48Z</time>
      </trkpt>
      <trkpt lat="47.34368" lon="-0.23199">
        <ele>33</ele>
        <time>2010-06-26T16:10:53Z</time>
      </trkpt>
      <trkpt lat="47.34367" lon="-0.23199">
        <ele>33</ele>
        <time>2010-06-26T16:10:58Z</time>
      </trkpt>
      <trkpt lat="47.34353" lon="-0.23205">
        <ele>34</ele>
        <time>2010-06-26T16:11:03Z</time>
      </trkpt>
      <trkpt lat="47.34331" lon="-0.23208">
        <ele>41</ele>
        <time>2010-06-26T16:11:08Z</time>
      </trkpt>
      <trkpt lat="47.3431" lon="-0.23206">
        <ele>41</ele>
        <time>2010-06-26T16:11:13Z</time>
      </trkpt>
      <trkpt lat="47.34281" lon="-0.23198">
        <ele>42</ele>
        <time>2010-06-26T16:11:18Z</time>
      </trkpt>
      <trkpt lat="47.34242" lon="-0.23192">
        <ele>43</ele>
        <time>2010-06-26T16:11:23Z</time>
      </trkpt>
      <trkpt lat="47.34211" lon="-0.23189">
        <ele>43</ele>
        <time>2010-06-26T16:11:28Z</time>
      </trkpt>
      <trkpt lat="47.34175" lon="-0.23185">
        <ele>40</ele>
        <time>2010-06-26T16:11:33Z</time>
      </trkpt>
      <trkpt lat="47.34146" lon="-0.23177">
        <ele>35</ele>
        <time>2010-06-26T16:11:38Z</time>
      </trkpt>
      <trkpt lat="47.34111" lon="-0.23164">
        <ele>29</ele>
        <time>2010-06-26T16:11:43Z</time>
      </trkpt>
      <trkpt lat="47.34104" lon="-0.23124">
        <ele>29</ele>
        <time>2010-06-26T16:11:48Z</time>
      </trkpt>
      <trkpt lat="47.34095" lon="-0.23068">
        <ele>27</ele>
        <time>2010-06-26T16:11:53Z</time>
      </trkpt>
      <trkpt lat="47.34085" lon="-0.23031">
        <ele>27</ele>
        <time>2010-06-26T16:11:58Z</time>
      </trkpt>
      <trkpt lat="47.34073" lon="-0.22981">
        <ele>27</ele>
        <time>2010-06-26T16:12:03Z</time>
      </trkpt>
      <trkpt lat="47.34061" lon="-0.22931">
        <ele>27</ele>
        <time>2010-06-26T16:12:08Z</time>
      </trkpt>
      <trkpt lat="47.34045" lon="-0.22868">
        <ele>27</ele>
        <time>2010-06-26T16:12:13Z</time>
      </trkpt>
      <trkpt lat="47.34032" lon="-0.22817">
        <ele>28</ele>
        <time>2010-06-26T16:12:18Z</time>
      </trkpt>
      <trkpt lat="47.34022" lon="-0.22776">
        <ele>28</ele>
        <time>2010-06-26T16:12:23Z</time>
      </trkpt>
      <trkpt lat="47.3401" lon="-0.22724">
        <ele>28</ele>
        <time>2010-06-26T16:12:28Z</time>
      </trkpt>
      <trkpt lat="47.33994" lon="-0.22663">
        <ele>27</ele>
        <time>2010-06-26T16:12:33Z</time>
      </trkpt>
      <trkpt lat="47.33981" lon="-0.22611">
        <ele>28</ele>
        <time>2010-06-26T16:12:38Z</time>
      </trkpt>
      <trkpt lat="47.33971" lon="-0.2257">
        <ele>27</ele>
        <time>2010-06-26T16:12:43Z</time>
      </trkpt>
      <trkpt lat="47.33961" lon="-0.22516">
        <ele>28</ele>
        <time>2010-06-26T16:12:48Z</time>
      </trkpt>
      <trkpt lat="47.33948" lon="-0.22454">
        <ele>29</ele>
        <time>2010-06-26T16:12:53Z</time>
      </trkpt>
      <trkpt lat="47.33934" lon="-0.22404">
        <ele>31</ele>
        <time>2010-06-26T16:12:58Z</time>
      </trkpt>
      <trkpt lat="47.33921" lon="-0.22353">
        <ele>33</ele>
        <time>2010-06-26T16:13:03Z</time>
      </trkpt>
      <trkpt lat="47.33911" lon="-0.22314">
        <ele>37</ele>
        <time>2010-06-26T16:13:08Z</time>
      </trkpt>
      <trkpt lat="47.33899" lon="-0.22265">
        <ele>35</ele>
        <time>2010-06-26T16:13:13Z</time>
      </trkpt>
      <trkpt lat="47.33884" lon="-0.22207">
        <ele>31</ele>
        <time>2010-06-26T16:13:18Z</time>
      </trkpt>
      <trkpt lat="47.33872" lon="-0.22157">
        <ele>28</ele>
        <time>2010-06-26T16:13:23Z</time>
      </trkpt>
      <trkpt lat="47.33862" lon="-0.22116">
        <ele>28</ele>
        <time>2010-06-26T16:13:28Z</time>
      </trkpt>
      <trkpt lat="47.33847" lon="-0.22067">
        <ele>29</ele>
        <time>2010-06-26T16:13:33Z</time>
      </trkpt>
      <trkpt lat="47.33832" lon="-0.22019">
        <ele>39</ele>
        <time>2010-06-26T16:13:38Z</time>
      </trkpt>
      <trkpt lat="47.33812" lon="-0.21964">
        <ele>38</ele>
        <time>2010-06-26T16:13:43Z</time>
      </trkpt>
      <trkpt lat="47.33795" lon="-0.21917">
        <ele>38</ele>
        <time>2010-06-26T16:13:48Z</time>
      </trkpt>
      <trkpt lat="47.33781" lon="-0.2188">
        <ele>34</ele>
        <time>2010-06-26T16:13:53Z</time>
      </trkpt>
      <trkpt lat="47.33761" lon="-0.21833">
        <ele>35</ele>
        <time>2010-06-26T16:13:58Z</time>
      </trkpt>
      <trkpt lat="47.33743" lon="-0.21782">
        <ele>44</ele>
        <time>2010-06-26T16:14:03Z</time>
      </trkpt>
      <trkpt lat="47.33723" lon="-0.21726">
        <ele>40</ele>
        <time>2010-06-26T16:14:08Z</time>
      </trkpt>
      <trkpt lat="47.3371" lon="-0.21674">
        <ele>40</ele>
        <time>2010-06-26T16:14:13Z</time>
      </trkpt>
      <trkpt lat="47.337" lon="-0.21632">
        <ele>37</ele>
        <time>2010-06-26T16:14:18Z</time>
      </trkpt>
      <trkpt lat="47.33687" lon="-0.21579">
        <ele>36</ele>
        <time>2010-06-26T16:14:23Z</time>
      </trkpt>
      <trkpt lat="47.33677" lon="-0.21513">
        <ele>33</ele>
        <time>2010-06-26T16:14:28Z</time>
      </trkpt>
      <trkpt lat="47.33666" lon="-0.2146">
        <ele>40</ele>
        <time>2010-06-26T16:14:33Z</time>
      </trkpt>
      <trkpt lat="47.33651" lon="-0.21421">
        <ele>37</ele>
        <time>2010-06-26T16:14:38Z</time>
      </trkpt>
      <trkpt lat="47.3363" lon="-0.21376">
        <ele>39</ele>
        <time>2010-06-26T16:14:43Z</time>
      </trkpt>
      <trkpt lat="47.33606" lon="-0.21333">
        <ele>35</ele>
        <time>2010-06-26T16:14:48Z</time>
      </trkpt>
      <trkpt lat="47.33577" lon="-0.21281">
        <ele>41</ele>
        <time>2010-06-26T16:14:53Z</time>
      </trkpt>
      <trkpt lat="47.33554" lon="-0.21234">
        <ele>35</ele>
        <time>2010-06-26T16:14:58Z</time>
      </trkpt>
      <trkpt lat="47.33539" lon="-0.21193">
        <ele>35</ele>
        <time>2010-06-26T16:15:03Z</time>
      </trkpt>
      <trkpt lat="47.33522" lon="-0.21139">
        <ele>32</ele>
        <time>2010-06-26T16:15:08Z</time>
      </trkpt>
      <trkpt lat="47.33503" lon="-0.21084">
        <ele>32</ele>
        <time>2010-06-26T16:15:13Z</time>
      </trkpt>
      <trkpt lat="47.3348" lon="-0.21022">
        <ele>36</ele>
        <time>2010-06-26T16:15:18Z</time>
      </trkpt>
      <trkpt lat="47.33467" lon="-0.2098">
        <ele>36</ele>
        <time>2010-06-26T16:15:23Z</time>
      </trkpt>
      <trkpt lat="47.33455" lon="-0.20925">
        <ele>37</ele>
        <time>2010-06-26T16:15:28Z</time>
      </trkpt>
      <trkpt lat="47.33439" lon="-0.20859">
        <ele>34</ele>
        <time>2010-06-26T16:15:33Z</time>
      </trkpt>
      <trkpt lat="47.33429" lon="-0.20805">
        <ele>31</ele>
        <time>2010-06-26T16:15:38Z</time>
      </trkpt>
      <trkpt lat="47.33416" lon="-0.20751">
        <ele>34</ele>
        <time>2010-06-26T16:15:43Z</time>
      </trkpt>
      <trkpt lat="47.33409" lon="-0.20703">
        <ele>36</ele>
        <time>2010-06-26T16:15:48Z</time>
      </trkpt>
      <trkpt lat="47.33397" lon="-0.2065">
        <ele>30</ele>
        <time>2010-06-26T16:15:53Z</time>
      </trkpt>
      <trkpt lat="47.3338" lon="-0.20597">
        <ele>33</ele>
        <time>2010-06-26T16:15:58Z</time>
      </trkpt>
      <trkpt lat="47.33354" lon="-0.20556">
        <ele>30</ele>
        <time>2010-06-26T16:16:03Z</time>
      </trkpt>
      <trkpt lat="47.33335" lon="-0.2052">
        <ele>24</ele>
        <time>2010-06-26T16:16:08Z</time>
      </trkpt>
      <trkpt lat="47.33313" lon="-0.20475">
        <ele>29</ele>
        <time>2010-06-26T16:16:13Z</time>
      </trkpt>
      <trkpt lat="47.33286" lon="-0.20419">
        <ele>33</ele>
        <time>2010-06-26T16:16:18Z</time>
      </trkpt>
      <trkpt lat="47.33263" lon="-0.20373">
        <ele>31</ele>
        <time>2010-06-26T16:16:23Z</time>
      </trkpt>
      <trkpt lat="47.33241" lon="-0.20324">
        <ele>36</ele>
        <time>2010-06-26T16:16:28Z</time>
      </trkpt>
      <trkpt lat="47.33224" lon="-0.20289">
        <ele>36</ele>
        <time>2010-06-26T16:16:33Z</time>
      </trkpt>
      <trkpt lat="47.33207" lon="-0.20243">
        <ele>30</ele>
        <time>2010-06-26T16:16:38Z</time>
      </trkpt>
      <trkpt lat="47.33179" lon="-0.20185">
        <ele>31</ele>
        <time>2010-06-26T16:16:43Z</time>
      </trkpt>
      <trkpt lat="47.33161" lon="-0.20148">
        <ele>32</ele>
        <time>2010-06-26T16:16:48Z</time>
      </trkpt>
      <trkpt lat="47.3313" lon="-0.20098">
        <ele>31</ele>
        <time>2010-06-26T16:16:53Z</time>
      </trkpt>
      <trkpt lat="47.33103" lon="-0.20072">
        <ele>28</ele>
        <time>2010-06-26T16:16:58Z</time>
      </trkpt>
      <trkpt lat="47.3306" lon="-0.20046">
        <ele>30</ele>
        <time>2010-06-26T16:17:03Z</time>
      </trkpt>
      <trkpt lat="47.33029" lon="-0.20018">
        <ele>30</ele>
        <time>2010-06-26T16:17:08Z</time>
      </trkpt>
      <trkpt lat="47.33" lon="-0.19985">
        <ele>30</ele>
        <time>2010-06-26T16:17:13Z</time>
      </trkpt>
      <trkpt lat="47.32976" lon="-0.19958">
        <ele>30</ele>
        <time>2010-06-26T16:17:18Z</time>
      </trkpt>
      <trkpt lat="47.32947" lon="-0.19923">
        <ele>32</ele>
        <time>2010-06-26T16:17:23Z</time>
      </trkpt>
      <trkpt lat="47.32918" lon="-0.19889">
        <ele>30</ele>
        <time>2010-06-26T16:17:28Z</time>
      </trkpt>
      <trkpt lat="47.32885" lon="-0.19846">
        <ele>40</ele>
        <time>2010-06-26T16:17:33Z</time>
      </trkpt>
      <trkpt lat="47.32858" lon="-0.19808">
        <ele>38</ele>
        <time>2010-06-26T16:17:38Z</time>
      </trkpt>
      <trkpt lat="47.32838" lon="-0.19778">
        <ele>36</ele>
        <time>2010-06-26T16:17:43Z</time>
      </trkpt>
      <trkpt lat="47.32812" lon="-0.19739">
        <ele>40</ele>
        <time>2010-06-26T16:17:48Z</time>
      </trkpt>
      <trkpt lat="47.32782" lon="-0.19691">
        <ele>42</ele>
        <time>2010-06-26T16:17:53Z</time>
      </trkpt>
      <trkpt lat="47.32759" lon="-0.19648">
        <ele>37</ele>
        <time>2010-06-26T16:17:58Z</time>
      </trkpt>
      <trkpt lat="47.3274" lon="-0.19614">
        <ele>40</ele>
        <time>2010-06-26T16:18:03Z</time>
      </trkpt>
      <trkpt lat="47.32713" lon="-0.19573">
        <ele>33</ele>
        <time>2010-06-26T16:18:08Z</time>
      </trkpt>
      <trkpt lat="47.32678" lon="-0.19525">
        <ele>32</ele>
        <time>2010-06-26T16:18:13Z</time>
      </trkpt>
      <trkpt lat="47.32651" lon="-0.19481">
        <ele>38</ele>
        <time>2010-06-26T16:18:18Z</time>
      </trkpt>
      <trkpt lat="47.32633" lon="-0.19435">
        <ele>40</ele>
        <time>2010-06-26T16:18:23Z</time>
      </trkpt>
      <trkpt lat="47.32619" lon="-0.194">
        <ele>38</ele>
        <time>2010-06-26T16:18:28Z</time>
      </trkpt>
      <trkpt lat="47.32598" lon="-0.19357">
        <ele>37</ele>
        <time>2010-06-26T16:18:33Z</time>
      </trkpt>
      <trkpt lat="47.32577" lon="-0.19305">
        <ele>44</ele>
        <time>2010-06-26T16:18:38Z</time>
      </trkpt>
      <trkpt lat="47.32556" lon="-0.19262">
        <ele>43</ele>
        <time>2010-06-26T16:18:43Z</time>
      </trkpt>
      <trkpt lat="47.32537" lon="-0.19229">
        <ele>39</ele>
        <time>2010-06-26T16:18:48Z</time>
      </trkpt>
      <trkpt lat="47.32509" lon="-0.19181">
        <ele>36</ele>
        <time>2010-06-26T16:18:53Z</time>
      </trkpt>
      <trkpt lat="47.3247" lon="-0.19129">
        <ele>35</ele>
        <time>2010-06-26T16:18:58Z</time>
      </trkpt>
      <trkpt lat="47.32439" lon="-0.19081">
        <ele>29</ele>
        <time>2010-06-26T16:19:03Z</time>
      </trkpt>
      <trkpt lat="47.32413" lon="-0.19029">
        <ele>31</ele>
        <time>2010-06-26T16:19:08Z</time>
      </trkpt>
      <trkpt lat="47.32394" lon="-0.18988">
        <ele>29</ele>
        <time>2010-06-26T16:19:13Z</time>
      </trkpt>
      <trkpt lat="47.32371" lon="-0.18936">
        <ele>30</ele>
        <time>2010-06-26T16:19:18Z</time>
      </trkpt>
      <trkpt lat="47.32345" lon="-0.18874">
        <ele>30</ele>
        <time>2010-06-26T16:19:23Z</time>
      </trkpt>
      <trkpt lat="47.32323" lon="-0.18831">
        <ele>31</ele>
        <time>2010-06-26T16:19:28Z</time>
      </trkpt>
      <trkpt lat="47.32303" lon="-0.18791">
        <ele>28</ele>
        <time>2010-06-26T16:19:33Z</time>
      </trkpt>
      <trkpt lat="47.32283" lon="-0.18752">
        <ele>28</ele>
        <time>2010-06-26T16:19:38Z</time>
      </trkpt>
      <trkpt lat="47.32251" lon="-0.18685">
        <ele>25</ele>
        <time>2010-06-26T16:19:43Z</time>
      </trkpt>
      <trkpt lat="47.32226" lon="-0.18639">
        <ele>26</ele>
        <time>2010-06-26T16:19:48Z</time>
      </trkpt>
      <trkpt lat="47.32201" lon="-0.18594">
        <ele>26</ele>
        <time>2010-06-26T16:19:53Z</time>
      </trkpt>
      <trkpt lat="47.32179" lon="-0.1856">
        <ele>24</ele>
        <time>2010-06-26T16:19:58Z</time>
      </trkpt>
      <trkpt lat="47.32152" lon="-0.18519">
        <ele>30</ele>
        <time>2010-06-26T16:20:03Z</time>
      </trkpt>
      <trkpt lat="47.32119" lon="-0.1847">
        <ele>27</ele>
        <time>2010-06-26T16:20:08Z</time>
      </trkpt>
      <trkpt lat="47.32093" lon="-0.1843">
        <ele>27</ele>
        <time>2010-06-26T16:20:13Z</time>
      </trkpt>
      <trkpt lat="47.32065" lon="-0.18391">
        <ele>27</ele>
        <time>2010-06-26T16:20:18Z</time>
      </trkpt>
      <trkpt lat="47.32042" lon="-0.1836">
        <ele>28</ele>
        <time>2010-06-26T16:20:23Z</time>
      </trkpt>
      <trkpt lat="47.32018" lon="-0.18316">
        <ele>28</ele>
        <time>2010-06-26T16:20:28Z</time>
      </trkpt>
      <trkpt lat="47.31999" lon="-0.18258">
        <ele>34</ele>
        <time>2010-06-26T16:20:33Z</time>
      </trkpt>
      <trkpt lat="47.31979" lon="-0.18209">
        <ele>37</ele>
        <time>2010-06-26T16:20:38Z</time>
      </trkpt>
      <trkpt lat="47.31964" lon="-0.18171">
        <ele>37</ele>
        <time>2010-06-26T16:20:43Z</time>
      </trkpt>
      <trkpt lat="47.31944" lon="-0.18122">
        <ele>33</ele>
        <time>2010-06-26T16:20:48Z</time>
      </trkpt>
      <trkpt lat="47.31921" lon="-0.18074">
        <ele>31</ele>
        <time>2010-06-26T16:20:53Z</time>
      </trkpt>
      <trkpt lat="47.31898" lon="-0.18014">
        <ele>36</ele>
        <time>2010-06-26T16:20:58Z</time>
      </trkpt>
      <trkpt lat="47.3188" lon="-0.17961">
        <ele>31</ele>
        <time>2010-06-26T16:21:03Z</time>
      </trkpt>
      <trkpt lat="47.31865" lon="-0.1792">
        <ele>31</ele>
        <time>2010-06-26T16:21:08Z</time>
      </trkpt>
      <trkpt lat="47.31846" lon="-0.1787">
        <ele>27</ele>
        <time>2010-06-26T16:21:13Z</time>
      </trkpt>
      <trkpt lat="47.31823" lon="-0.17809">
        <ele>33</ele>
        <time>2010-06-26T16:21:18Z</time>
      </trkpt>
      <trkpt lat="47.31804" lon="-0.17758">
        <ele>32</ele>
        <time>2010-06-26T16:21:23Z</time>
      </trkpt>
      <trkpt lat="47.31791" lon="-0.17716">
        <ele>30</ele>
        <time>2010-06-26T16:21:28Z</time>
      </trkpt>
      <trkpt lat="47.31775" lon="-0.1766">
        <ele>30</ele>
        <time>2010-06-26T16:21:33Z</time>
      </trkpt>
      <trkpt lat="47.31765" lon="-0.17591">
        <ele>34</ele>
        <time>2010-06-26T16:21:38Z</time>
      </trkpt>
      <trkpt lat="47.31757" lon="-0.17539">
        <ele>34</ele>
        <time>2010-06-26T16:21:43Z</time>
      </trkpt>
      <trkpt lat="47.31754" lon="-0.17495">
        <ele>38</ele>
        <time>2010-06-26T16:21:48Z</time>
      </trkpt>
      <trkpt lat="47.31749" lon="-0.17459">
        <ele>45</ele>
        <time>2010-06-26T16:21:53Z</time>
      </trkpt>
      <trkpt lat="47.3173" lon="-0.17403">
        <ele>40</ele>
        <time>2010-06-26T16:21:58Z</time>
      </trkpt>
      <trkpt lat="47.31695" lon="-0.17351">
        <ele>43</ele>
        <time>2010-06-26T16:22:03Z</time>
      </trkpt>
      <trkpt lat="47.31663" lon="-0.17314">
        <ele>43</ele>
        <time>2010-06-26T16:22:08Z</time>
      </trkpt>
      <trkpt lat="47.3164" lon="-0.17285">
        <ele>41</ele>
        <time>2010-06-26T16:22:13Z</time>
      </trkpt>
      <trkpt lat="47.31617" lon="-0.17242">
        <ele>34</ele>
        <time>2010-06-26T16:22:18Z</time>
      </trkpt>
      <trkpt lat="47.31588" lon="-0.1719">
        <ele>32</ele>
        <time>2010-06-26T16:22:23Z</time>
      </trkpt>
      <trkpt lat="47.31563" lon="-0.1715">
        <ele>37</ele>
        <time>2010-06-26T16:22:28Z</time>
      </trkpt>
      <trkpt lat="47.31542" lon="-0.17106">
        <ele>40</ele>
        <time>2010-06-26T16:22:33Z</time>
      </trkpt>
      <trkpt lat="47.31528" lon="-0.1707">
        <ele>39</ele>
        <time>2010-06-26T16:22:38Z</time>
      </trkpt>
      <trkpt lat="47.31509" lon="-0.17022">
        <ele>38</ele>
        <time>2010-06-26T16:22:43Z</time>
      </trkpt>
      <trkpt lat="47.31491" lon="-0.1696">
        <ele>42</ele>
        <time>2010-06-26T16:22:48Z</time>
      </trkpt>
      <trkpt lat="47.31478" lon="-0.16901">
        <ele>35</ele>
        <time>2010-06-26T16:22:53Z</time>
      </trkpt>
      <trkpt lat="47.31471" lon="-0.16856">
        <ele>34</ele>
        <time>2010-06-26T16:22:58Z</time>
      </trkpt>
      <trkpt lat="47.31459" lon="-0.168">
        <ele>33</ele>
        <time>2010-06-26T16:23:03Z</time>
      </trkpt>
      <trkpt lat="47.31441" lon="-0.16736">
        <ele>35</ele>
        <time>2010-06-26T16:23:08Z</time>
      </trkpt>
      <trkpt lat="47.31425" lon="-0.16684">
        <ele>37</ele>
        <time>2010-06-26T16:23:13Z</time>
      </trkpt>
      <trkpt lat="47.31412" lon="-0.1663">
        <ele>48</ele>
        <time>2010-06-26T16:23:18Z</time>
      </trkpt>
      <trkpt lat="47.31404" lon="-0.16587">
        <ele>44</ele>
        <time>2010-06-26T16:23:23Z</time>
      </trkpt>
      <trkpt lat="47.31395" lon="-0.16529">
        <ele>47</ele>
        <time>2010-06-26T16:23:28Z</time>
      </trkpt>
      <trkpt lat="47.31386" lon="-0.1646">
        <ele>45</ele>
        <time>2010-06-26T16:23:33Z</time>
      </trkpt>
      <trkpt lat="47.3138" lon="-0.16402">
        <ele>42</ele>
        <time>2010-06-26T16:23:38Z</time>
      </trkpt>
      <trkpt lat="47.31375" lon="-0.16347">
        <ele>42</ele>
        <time>2010-06-26T16:23:43Z</time>
      </trkpt>
      <trkpt lat="47.31372" lon="-0.16302">
        <ele>37</ele>
        <time>2010-06-26T16:23:48Z</time>
      </trkpt>
      <trkpt lat="47.3137" lon="-0.16242">
        <ele>32</ele>
        <time>2010-06-26T16:23:53Z</time>
      </trkpt>
      <trkpt lat="47.31354" lon="-0.16176">
        <ele>31</ele>
        <time>2010-06-26T16:23:58Z</time>
      </trkpt>
      <trkpt lat="47.31334" lon="-0.16126">
        <ele>28</ele>
        <time>2010-06-26T16:24:03Z</time>
      </trkpt>
      <trkpt lat="47.31316" lon="-0.16089">
        <ele>40</ele>
        <time>2010-06-26T16:24:08Z</time>
      </trkpt>
      <trkpt lat="47.3129" lon="-0.1605">
        <ele>42</ele>
        <time>2010-06-26T16:24:13Z</time>
      </trkpt>
      <trkpt lat="47.31259" lon="-0.16014">
        <ele>42</ele>
        <time>2010-06-26T16:24:18Z</time>
      </trkpt>
      <trkpt lat="47.31229" lon="-0.15966">
        <ele>44</ele>
        <time>2010-06-26T16:24:23Z</time>
      </trkpt>
      <trkpt lat="47.31202" lon="-0.15925">
        <ele>44</ele>
        <time>2010-06-26T16:24:28Z</time>
      </trkpt>
      <trkpt lat="47.31183" lon="-0.15891">
        <ele>35</ele>
        <time>2010-06-26T16:24:33Z</time>
      </trkpt>
      <trkpt lat="47.3116" lon="-0.15843">
        <ele>37</ele>
        <time>2010-06-26T16:24:38Z</time>
      </trkpt>
      <trkpt lat="47.31134" lon="-0.15787">
        <ele>34</ele>
        <time>2010-06-26T16:24:43Z</time>
      </trkpt>
      <trkpt lat="47.31112" lon="-0.15742">
        <ele>29</ele>
        <time>2010-06-26T16:24:48Z</time>
      </trkpt>
      <trkpt lat="47.31093" lon="-0.15705">
        <ele>28</ele>
        <time>2010-06-26T16:24:53Z</time>
      </trkpt>
      <trkpt lat="47.31065" lon="-0.15661">
        <ele>32</ele>
        <time>2010-06-26T16:24:58Z</time>
      </trkpt>
      <trkpt lat="47.31038" lon="-0.15621">
        <ele>34</ele>
        <time>2010-06-26T16:25:03Z</time>
      </trkpt>
      <trkpt lat="47.31007" lon="-0.15573">
        <ele>32</ele>
        <time>2010-06-26T16:25:08Z</time>
      </trkpt>
      <trkpt lat="47.30981" lon="-0.15536">
        <ele>39</ele>
        <time>2010-06-26T16:25:13Z</time>
      </trkpt>
      <trkpt lat="47.30959" lon="-0.15503">
        <ele>39</ele>
        <time>2010-06-26T16:25:18Z</time>
      </trkpt>
      <trkpt lat="47.30936" lon="-0.15451">
        <ele>31</ele>
        <time>2010-06-26T16:25:23Z</time>
      </trkpt>
      <trkpt lat="47.30902" lon="-0.15398">
        <ele>34</ele>
        <time>2010-06-26T16:25:28Z</time>
      </trkpt>
      <trkpt lat="47.30872" lon="-0.15356">
        <ele>34</ele>
        <time>2010-06-26T16:25:33Z</time>
      </trkpt>
      <trkpt lat="47.30846" lon="-0.15327">
        <ele>28</ele>
        <time>2010-06-26T16:25:38Z</time>
      </trkpt>
      <trkpt lat="47.30811" lon="-0.15298">
        <ele>28</ele>
        <time>2010-06-26T16:25:43Z</time>
      </trkpt>
      <trkpt lat="47.30774" lon="-0.15259">
        <ele>28</ele>
        <time>2010-06-26T16:25:48Z</time>
      </trkpt>
      <trkpt lat="47.30747" lon="-0.15221">
        <ele>34</ele>
        <time>2010-06-26T16:25:53Z</time>
      </trkpt>
      <trkpt lat="47.30729" lon="-0.15171">
        <ele>34</ele>
        <time>2010-06-26T16:25:58Z</time>
      </trkpt>
      <trkpt lat="47.30716" lon="-0.1513">
        <ele>35</ele>
        <time>2010-06-26T16:26:03Z</time>
      </trkpt>
      <trkpt lat="47.30693" lon="-0.15087">
        <ele>38</ele>
        <time>2010-06-26T16:26:08Z</time>
      </trkpt>
      <trkpt lat="47.3066" lon="-0.15038">
        <ele>47</ele>
        <time>2010-06-26T16:26:13Z</time>
      </trkpt>
      <trkpt lat="47.30634" lon="-0.14997">
        <ele>39</ele>
        <time>2010-06-26T16:26:18Z</time>
      </trkpt>
      <trkpt lat="47.30609" lon="-0.14955">
        <ele>41</ele>
        <time>2010-06-26T16:26:23Z</time>
      </trkpt>
      <trkpt lat="47.30589" lon="-0.14919">
        <ele>42</ele>
        <time>2010-06-26T16:26:28Z</time>
      </trkpt>
      <trkpt lat="47.30564" lon="-0.14876">
        <ele>44</ele>
        <time>2010-06-26T16:26:33Z</time>
      </trkpt>
      <trkpt lat="47.30533" lon="-0.14823">
        <ele>37</ele>
        <time>2010-06-26T16:26:38Z</time>
      </trkpt>
      <trkpt lat="47.30507" lon="-0.14777">
        <ele>36</ele>
        <time>2010-06-26T16:26:43Z</time>
      </trkpt>
      <trkpt lat="47.30487" lon="-0.14742">
        <ele>41</ele>
        <time>2010-06-26T16:26:48Z</time>
      </trkpt>
      <trkpt lat="47.30462" lon="-0.14699">
        <ele>44</ele>
        <time>2010-06-26T16:26:53Z</time>
      </trkpt>
      <trkpt lat="47.30428" lon="-0.14652">
        <ele>43</ele>
        <time>2010-06-26T16:26:58Z</time>
      </trkpt>
      <trkpt lat="47.30398" lon="-0.14615">
        <ele>52</ele>
        <time>2010-06-26T16:27:03Z</time>
      </trkpt>
      <trkpt lat="47.30365" lon="-0.14583">
        <ele>42</ele>
        <time>2010-06-26T16:27:08Z</time>
      </trkpt>
      <trkpt lat="47.30339" lon="-0.14558">
        <ele>42</ele>
        <time>2010-06-26T16:27:13Z</time>
      </trkpt>
      <trkpt lat="47.30307" lon="-0.14527">
        <ele>49</ele>
        <time>2010-06-26T16:27:18Z</time>
      </trkpt>
      <trkpt lat="47.30267" lon="-0.14487">
        <ele>40</ele>
        <time>2010-06-26T16:27:23Z</time>
      </trkpt>
      <trkpt lat="47.30232" lon="-0.14455">
        <ele>48</ele>
        <time>2010-06-26T16:27:28Z</time>
      </trkpt>
      <trkpt lat="47.30207" lon="-0.1443">
        <ele>49</ele>
        <time>2010-06-26T16:27:33Z</time>
      </trkpt>
      <trkpt lat="47.3018" lon="-0.14399">
        <ele>41</ele>
        <time>2010-06-26T16:27:38Z</time>
      </trkpt>
      <trkpt lat="47.30166" lon="-0.14386">
        <ele>51</ele>
        <time>2010-06-26T16:27:43Z</time>
      </trkpt>
      <trkpt lat="47.3016" lon="-0.14376">
        <ele>50</ele>
        <time>2010-06-26T16:27:48Z</time>
      </trkpt>
      <trkpt lat="47.30142" lon="-0.14361">
        <ele>49</ele>
        <time>2010-06-26T16:27:53Z</time>
      </trkpt>
      <trkpt lat="47.30122" lon="-0.14342">
        <ele>49</ele>
        <time>2010-06-26T16:27:58Z</time>
      </trkpt>
      <trkpt lat="47.30095" lon="-0.14318">
        <ele>40</ele>
        <time>2010-06-26T16:28:03Z</time>
      </trkpt>
      <trkpt lat="47.3006" lon="-0.14285">
        <ele>44</ele>
        <time>2010-06-26T16:28:08Z</time>
      </trkpt>
      <trkpt lat="47.3003" lon="-0.14258">
        <ele>44</ele>
        <time>2010-06-26T16:28:13Z</time>
      </trkpt>
      <trkpt lat="47.30004" lon="-0.14235">
        <ele>35</ele>
        <time>2010-06-26T16:28:18Z</time>
      </trkpt>
      <trkpt lat="47.29969" lon="-0.14205">
        <ele>39</ele>
        <time>2010-06-26T16:28:23Z</time>
      </trkpt>
      <trkpt lat="47.29926" lon="-0.14173">
        <ele>37</ele>
        <time>2010-06-26T16:28:28Z</time>
      </trkpt>
      <trkpt lat="47.29891" lon="-0.14144">
        <ele>36</ele>
        <time>2010-06-26T16:28:33Z</time>
      </trkpt>
      <trkpt lat="47.29855" lon="-0.14115">
        <ele>36</ele>
        <time>2010-06-26T16:28:38Z</time>
      </trkpt>
      <trkpt lat="47.29824" lon="-0.14087">
        <ele>38</ele>
        <time>2010-06-26T16:28:43Z</time>
      </trkpt>
      <trkpt lat="47.29788" lon="-0.14063">
        <ele>33</ele>
        <time>2010-06-26T16:28:48Z</time>
      </trkpt>
      <trkpt lat="47.29743" lon="-0.1403">
        <ele>37</ele>
        <time>2010-06-26T16:28:53Z</time>
      </trkpt>
      <trkpt lat="47.29706" lon="-0.14001">
        <ele>36</ele>
        <time>2010-06-26T16:28:58Z</time>
      </trkpt>
      <trkpt lat="47.29677" lon="-0.13978">
        <ele>28</ele>
        <time>2010-06-26T16:29:03Z</time>
      </trkpt>
      <trkpt lat="47.29641" lon="-0.13949">
        <ele>29</ele>
        <time>2010-06-26T16:29:08Z</time>
      </trkpt>
      <trkpt lat="47.29606" lon="-0.13923">
        <ele>28</ele>
        <time>2010-06-26T16:29:13Z</time>
      </trkpt>
      <trkpt lat="47.29567" lon="-0.13882">
        <ele>29</ele>
        <time>2010-06-26T16:29:18Z</time>
      </trkpt>
      <trkpt lat="47.29531" lon="-0.13854">
        <ele>30</ele>
        <time>2010-06-26T16:29:23Z</time>
      </trkpt>
      <trkpt lat="47.29501" lon="-0.13831">
        <ele>29</ele>
        <time>2010-06-26T16:29:28Z</time>
      </trkpt>
      <trkpt lat="47.29465" lon="-0.13804">
        <ele>31</ele>
        <time>2010-06-26T16:29:33Z</time>
      </trkpt>
      <trkpt lat="47.2943" lon="-0.13777">
        <ele>30</ele>
        <time>2010-06-26T16:29:38Z</time>
      </trkpt>
      <trkpt lat="47.29387" lon="-0.13744">
        <ele>28</ele>
        <time>2010-06-26T16:29:43Z</time>
      </trkpt>
      <trkpt lat="47.29352" lon="-0.13718">
        <ele>29</ele>
        <time>2010-06-26T16:29:48Z</time>
      </trkpt>
      <trkpt lat="47.29325" lon="-0.13696">
        <ele>33</ele>
        <time>2010-06-26T16:29:53Z</time>
      </trkpt>
      <trkpt lat="47.2929" lon="-0.13669">
        <ele>34</ele>
        <time>2010-06-26T16:29:58Z</time>
      </trkpt>
      <trkpt lat="47.29256" lon="-0.13642">
        <ele>31</ele>
        <time>2010-06-26T16:30:03Z</time>
      </trkpt>
      <trkpt lat="47.29215" lon="-0.13611">
        <ele>33</ele>
        <time>2010-06-26T16:30:08Z</time>
      </trkpt>
      <trkpt lat="47.29187" lon="-0.1359">
        <ele>32</ele>
        <time>2010-06-26T16:30:13Z</time>
      </trkpt>
      <trkpt lat="47.2915" lon="-0.13568">
        <ele>30</ele>
        <time>2010-06-26T16:30:18Z</time>
      </trkpt>
      <trkpt lat="47.2911" lon="-0.13532">
        <ele>31</ele>
        <time>2010-06-26T16:30:23Z</time>
      </trkpt>
      <trkpt lat="47.29079" lon="-0.13497">
        <ele>29</ele>
        <time>2010-06-26T16:30:28Z</time>
      </trkpt>
      <trkpt lat="47.29048" lon="-0.13464">
        <ele>30</ele>
        <time>2010-06-26T16:30:33Z</time>
      </trkpt>
      <trkpt lat="47.29024" lon="-0.13436">
        <ele>31</ele>
        <time>2010-06-26T16:30:38Z</time>
      </trkpt>
      <trkpt lat="47.28995" lon="-0.13399">
        <ele>35</ele>
        <time>2010-06-26T16:30:43Z</time>
      </trkpt>
      <trkpt lat="47.28961" lon="-0.13358">
        <ele>37</ele>
        <time>2010-06-26T16:30:48Z</time>
      </trkpt>
      <trkpt lat="47.28936" lon="-0.13318">
        <ele>35</ele>
        <time>2010-06-26T16:30:53Z</time>
      </trkpt>
      <trkpt lat="47.28917" lon="-0.13282">
        <ele>32</ele>
        <time>2010-06-26T16:30:58Z</time>
      </trkpt>
      <trkpt lat="47.28892" lon="-0.13239">
        <ele>35</ele>
        <time>2010-06-26T16:31:03Z</time>
      </trkpt>
      <trkpt lat="47.28864" lon="-0.132">
        <ele>37</ele>
        <time>2010-06-26T16:31:08Z</time>
      </trkpt>
      <trkpt lat="47.28826" lon="-0.1316">
        <ele>38</ele>
        <time>2010-06-26T16:31:13Z</time>
      </trkpt>
      <trkpt lat="47.28799" lon="-0.13124">
        <ele>41</ele>
        <time>2010-06-26T16:31:18Z</time>
      </trkpt>
      <trkpt lat="47.28779" lon="-0.1309">
        <ele>41</ele>
        <time>2010-06-26T16:31:23Z</time>
      </trkpt>
      <trkpt lat="47.28753" lon="-0.13044">
        <ele>34</ele>
        <time>2010-06-26T16:31:28Z</time>
      </trkpt>
      <trkpt lat="47.28719" lon="-0.12993">
        <ele>29</ele>
        <time>2010-06-26T16:31:33Z</time>
      </trkpt>
      <trkpt lat="47.28693" lon="-0.1295">
        <ele>29</ele>
        <time>2010-06-26T16:31:38Z</time>
      </trkpt>
      <trkpt lat="47.28671" lon="-0.12914">
        <ele>26</ele>
        <time>2010-06-26T16:31:43Z</time>
      </trkpt>
      <trkpt lat="47.28645" lon="-0.1287">
        <ele>26</ele>
        <time>2010-06-26T16:31:48Z</time>
      </trkpt>
      <trkpt lat="47.28619" lon="-0.12826">
        <ele>26</ele>
        <time>2010-06-26T16:31:53Z</time>
      </trkpt>
      <trkpt lat="47.28586" lon="-0.12773">
        <ele>27</ele>
        <time>2010-06-26T16:31:58Z</time>
      </trkpt>
      <trkpt lat="47.2856" lon="-0.12728">
        <ele>33</ele>
        <time>2010-06-26T16:32:03Z</time>
      </trkpt>
      <trkpt lat="47.28538" lon="-0.12692">
        <ele>34</ele>
        <time>2010-06-26T16:32:08Z</time>
      </trkpt>
      <trkpt lat="47.28511" lon="-0.12646">
        <ele>32</ele>
        <time>2010-06-26T16:32:13Z</time>
      </trkpt>
      <trkpt lat="47.28479" lon="-0.12593">
        <ele>40</ele>
        <time>2010-06-26T16:32:18Z</time>
      </trkpt>
      <trkpt lat="47.28454" lon="-0.12549">
        <ele>41</ele>
        <time>2010-06-26T16:32:23Z</time>
      </trkpt>
      <trkpt lat="47.28436" lon="-0.12515">
        <ele>41</ele>
        <time>2010-06-26T16:32:28Z</time>
      </trkpt>
      <trkpt lat="47.28414" lon="-0.12475">
        <ele>45</ele>
        <time>2010-06-26T16:32:33Z</time>
      </trkpt>
      <trkpt lat="47.28394" lon="-0.12432">
        <ele>42</ele>
        <time>2010-06-26T16:32:38Z</time>
      </trkpt>
      <trkpt lat="47.28359" lon="-0.12384">
        <ele>38</ele>
        <time>2010-06-26T16:32:43Z</time>
      </trkpt>
      <trkpt lat="47.28328" lon="-0.12347">
        <ele>44</ele>
        <time>2010-06-26T16:32:48Z</time>
      </trkpt>
      <trkpt lat="47.28304" lon="-0.12315">
        <ele>39</ele>
        <time>2010-06-26T16:32:53Z</time>
      </trkpt>
      <trkpt lat="47.2827" lon="-0.1228">
        <ele>38</ele>
        <time>2010-06-26T16:32:58Z</time>
      </trkpt>
      <trkpt lat="47.2823" lon="-0.1224">
        <ele>35</ele>
        <time>2010-06-26T16:33:03Z</time>
      </trkpt>
      <trkpt lat="47.28197" lon="-0.12208">
        <ele>37</ele>
        <time>2010-06-26T16:33:08Z</time>
      </trkpt>
      <trkpt lat="47.28163" lon="-0.12176">
        <ele>38</ele>
        <time>2010-06-26T16:33:13Z</time>
      </trkpt>
      <trkpt lat="47.28136" lon="-0.12152">
        <ele>34</ele>
        <time>2010-06-26T16:33:18Z</time>
      </trkpt>
      <trkpt lat="47.28102" lon="-0.1212">
        <ele>34</ele>
        <time>2010-06-26T16:33:23Z</time>
      </trkpt>
      <trkpt lat="47.28061" lon="-0.12082">
        <ele>30</ele>
        <time>2010-06-26T16:33:28Z</time>
      </trkpt>
      <trkpt lat="47.28028" lon="-0.12047">
        <ele>30</ele>
        <time>2010-06-26T16:33:33Z</time>
      </trkpt>
      <trkpt lat="47.28003" lon="-0.12015">
        <ele>30</ele>
        <time>2010-06-26T16:33:38Z</time>
      </trkpt>
      <trkpt lat="47.27975" lon="-0.11974">
        <ele>30</ele>
        <time>2010-06-26T16:33:43Z</time>
      </trkpt>
      <trkpt lat="47.27949" lon="-0.1193">
        <ele>30</ele>
        <time>2010-06-26T16:33:48Z</time>
      </trkpt>
      <trkpt lat="47.27919" lon="-0.11873">
        <ele>28</ele>
        <time>2010-06-26T16:33:53Z</time>
      </trkpt>
      <trkpt lat="47.27894" lon="-0.11825">
        <ele>27</ele>
        <time>2010-06-26T16:33:58Z</time>
      </trkpt>
      <trkpt lat="47.27874" lon="-0.11787">
        <ele>28</ele>
        <time>2010-06-26T16:34:03Z</time>
      </trkpt>
      <trkpt lat="47.27849" lon="-0.11738">
        <ele>28</ele>
        <time>2010-06-26T16:34:08Z</time>
      </trkpt>
      <trkpt lat="47.27817" lon="-0.11679">
        <ele>32</ele>
        <time>2010-06-26T16:34:13Z</time>
      </trkpt>
      <trkpt lat="47.2779" lon="-0.11631">
        <ele>32</ele>
        <time>2010-06-26T16:34:18Z</time>
      </trkpt>
      <trkpt lat="47.27768" lon="-0.11594">
        <ele>31</ele>
        <time>2010-06-26T16:34:23Z</time>
      </trkpt>
      <trkpt lat="47.2774" lon="-0.1155">
        <ele>32</ele>
        <time>2010-06-26T16:34:28Z</time>
      </trkpt>
      <trkpt lat="47.27706" lon="-0.11498">
        <ele>30</ele>
        <time>2010-06-26T16:34:33Z</time>
      </trkpt>
      <trkpt lat="47.27679" lon="-0.11455">
        <ele>30</ele>
        <time>2010-06-26T16:34:38Z</time>
      </trkpt>
      <trkpt lat="47.2765" lon="-0.11411">
        <ele>29</ele>
        <time>2010-06-26T16:34:43Z</time>
      </trkpt>
      <trkpt lat="47.27628" lon="-0.11375">
        <ele>30</ele>
        <time>2010-06-26T16:34:48Z</time>
      </trkpt>
      <trkpt lat="47.276" lon="-0.11332">
        <ele>29</ele>
        <time>2010-06-26T16:34:53Z</time>
      </trkpt>
      <trkpt lat="47.27567" lon="-0.11282">
        <ele>29</ele>
        <time>2010-06-26T16:34:58Z</time>
      </trkpt>
      <trkpt lat="47.27541" lon="-0.11241">
        <ele>28</ele>
        <time>2010-06-26T16:35:03Z</time>
      </trkpt>
      <trkpt lat="47.2752" lon="-0.11207">
        <ele>28</ele>
        <time>2010-06-26T16:35:08Z</time>
      </trkpt>
      <trkpt lat="47.27496" lon="-0.11159">
        <ele>30</ele>
        <time>2010-06-26T16:35:13Z</time>
      </trkpt>
      <trkpt lat="47.27486" lon="-0.11104">
        <ele>32</ele>
        <time>2010-06-26T16:35:18Z</time>
      </trkpt>
      <trkpt lat="47.27477" lon="-0.11036">
        <ele>33</ele>
        <time>2010-06-26T16:35:23Z</time>
      </trkpt>
      <trkpt lat="47.27466" lon="-0.10981">
        <ele>31</ele>
        <time>2010-06-26T16:35:28Z</time>
      </trkpt>
      <trkpt lat="47.27454" lon="-0.1094">
        <ele>31</ele>
        <time>2010-06-26T16:35:33Z</time>
      </trkpt>
      <trkpt lat="47.27428" lon="-0.109">
        <ele>30</ele>
        <time>2010-06-26T16:35:38Z</time>
      </trkpt>
      <trkpt lat="47.27398" lon="-0.10849">
        <ele>32</ele>
        <time>2010-06-26T16:35:43Z</time>
      </trkpt>
      <trkpt lat="47.27372" lon="-0.10809">
        <ele>30</ele>
        <time>2010-06-26T16:35:48Z</time>
      </trkpt>
      <trkpt lat="47.27341" lon="-0.10776">
        <ele>30</ele>
        <time>2010-06-26T16:35:53Z</time>
      </trkpt>
      <trkpt lat="47.27317" lon="-0.10755">
        <ele>34</ele>
        <time>2010-06-26T16:35:58Z</time>
      </trkpt>
      <trkpt lat="47.27285" lon="-0.10724">
        <ele>33</ele>
        <time>2010-06-26T16:36:03Z</time>
      </trkpt>
      <trkpt lat="47.27254" lon="-0.10679">
        <ele>31</ele>
        <time>2010-06-26T16:36:08Z</time>
      </trkpt>
      <trkpt lat="47.27231" lon="-0.10633">
        <ele>32</ele>
        <time>2010-06-26T16:36:13Z</time>
      </trkpt>
      <trkpt lat="47.27209" lon="-0.10598">
        <ele>32</ele>
        <time>2010-06-26T16:36:18Z</time>
      </trkpt>
      <trkpt lat="47.27177" lon="-0.1056">
        <ele>30</ele>
        <time>2010-06-26T16:36:23Z</time>
      </trkpt>
      <trkpt lat="47.27141" lon="-0.10534">
        <ele>33</ele>
        <time>2010-06-26T16:36:28Z</time>
      </trkpt>
      <trkpt lat="47.27098" lon="-0.10495">
        <ele>31</ele>
        <time>2010-06-26T16:36:33Z</time>
      </trkpt>
      <trkpt lat="47.27066" lon="-0.10469">
        <ele>31</ele>
        <time>2010-06-26T16:36:38Z</time>
      </trkpt>
      <trkpt lat="47.27038" lon="-0.10448">
        <ele>31</ele>
        <time>2010-06-26T16:36:43Z</time>
      </trkpt>
      <trkpt lat="47.27002" lon="-0.10421">
        <ele>30</ele>
        <time>2010-06-26T16:36:48Z</time>
      </trkpt>
      <trkpt lat="47.26961" lon="-0.1039">
        <ele>31</ele>
        <time>2010-06-26T16:36:53Z</time>
      </trkpt>
      <trkpt lat="47.26922" lon="-0.1036">
        <ele>32</ele>
        <time>2010-06-26T16:36:58Z</time>
      </trkpt>
      <trkpt lat="47.26892" lon="-0.10338">
        <ele>35</ele>
        <time>2010-06-26T16:37:03Z</time>
      </trkpt>
      <trkpt lat="47.26861" lon="-0.10305">
        <ele>32</ele>
        <time>2010-06-26T16:37:08Z</time>
      </trkpt>
      <trkpt lat="47.26826" lon="-0.10272">
        <ele>33</ele>
        <time>2010-06-26T16:37:13Z</time>
      </trkpt>
      <trkpt lat="47.26781" lon="-0.10246">
        <ele>31</ele>
        <time>2010-06-26T16:37:18Z</time>
      </trkpt>
      <trkpt lat="47.26742" lon="-0.10232">
        <ele>33</ele>
        <time>2010-06-26T16:37:23Z</time>
      </trkpt>
      <trkpt lat="47.26711" lon="-0.10217">
        <ele>32</ele>
        <time>2010-06-26T16:37:28Z</time>
      </trkpt>
      <trkpt lat="47.26675" lon="-0.10199">
        <ele>32</ele>
        <time>2010-06-26T16:37:33Z</time>
      </trkpt>
      <trkpt lat="47.26637" lon="-0.10173">
        <ele>33</ele>
        <time>2010-06-26T16:37:38Z</time>
      </trkpt>
      <trkpt lat="47.26601" lon="-0.10152">
        <ele>31</ele>
        <time>2010-06-26T16:37:43Z</time>
      </trkpt>
      <trkpt lat="47.26573" lon="-0.10136">
        <ele>33</ele>
        <time>2010-06-26T16:37:48Z</time>
      </trkpt>
      <trkpt lat="47.26539" lon="-0.10124">
        <ele>33</ele>
        <time>2010-06-26T16:37:53Z</time>
      </trkpt>
      <trkpt lat="47.26516" lon="-0.10099">
        <ele>33</ele>
        <time>2010-06-26T16:37:58Z</time>
      </trkpt>
      <trkpt lat="47.26524" lon="-0.10041">
        <ele>31</ele>
        <time>2010-06-26T16:38:03Z</time>
      </trkpt>
      <trkpt lat="47.26517" lon="-0.10007">
        <ele>31</ele>
        <time>2010-06-26T16:38:08Z</time>
      </trkpt>
      <trkpt lat="47.26513" lon="-0.09983">
        <ele>30</ele>
        <time>2010-06-26T16:38:13Z</time>
      </trkpt>
      <trkpt lat="47.26502" lon="-0.09938">
        <ele>30</ele>
        <time>2010-06-26T16:38:18Z</time>
      </trkpt>
      <trkpt lat="47.26484" lon="-0.09877">
        <ele>30</ele>
        <time>2010-06-26T16:38:23Z</time>
      </trkpt>
      <trkpt lat="47.26476" lon="-0.09827">
        <ele>30</ele>
        <time>2010-06-26T16:38:28Z</time>
      </trkpt>
      <trkpt lat="47.2647" lon="-0.09787">
        <ele>30</ele>
        <time>2010-06-26T16:38:33Z</time>
      </trkpt>
      <trkpt lat="47.26454" lon="-0.09737">
        <ele>29</ele>
        <time>2010-06-26T16:38:38Z</time>
      </trkpt>
      <trkpt lat="47.26439" lon="-0.09678">
        <ele>28</ele>
        <time>2010-06-26T16:38:43Z</time>
      </trkpt>
      <trkpt lat="47.26427" lon="-0.0963">
        <ele>26</ele>
        <time>2010-06-26T16:38:48Z</time>
      </trkpt>
      <trkpt lat="47.26414" lon="-0.09579">
        <ele>25</ele>
        <time>2010-06-26T16:38:53Z</time>
      </trkpt>
      <trkpt lat="47.264" lon="-0.09553">
        <ele>26</ele>
        <time>2010-06-26T16:38:58Z</time>
      </trkpt>
      <trkpt lat="47.26396" lon="-0.09545">
        <ele>26</ele>
        <time>2010-06-26T16:39:03Z</time>
      </trkpt>
      <trkpt lat="47.2639" lon="-0.09546">
        <ele>26</ele>
        <time>2010-06-26T16:39:08Z</time>
      </trkpt>
      <trkpt lat="47.26369" lon="-0.09551">
        <ele>26</ele>
        <time>2010-06-26T16:39:13Z</time>
      </trkpt>
      <trkpt lat="47.26347" lon="-0.09534">
        <ele>27</ele>
        <time>2010-06-26T16:39:18Z</time>
      </trkpt>
      <trkpt lat="47.26334" lon="-0.09506">
        <ele>28</ele>
        <time>2010-06-26T16:39:23Z</time>
      </trkpt>
      <trkpt lat="47.26323" lon="-0.09463">
        <ele>27</ele>
        <time>2010-06-26T16:39:28Z</time>
      </trkpt>
      <trkpt lat="47.26311" lon="-0.09419">
        <ele>27</ele>
        <time>2010-06-26T16:39:33Z</time>
      </trkpt>
      <trkpt lat="47.26303" lon="-0.0936">
        <ele>28</ele>
        <time>2010-06-26T16:39:38Z</time>
      </trkpt>
      <trkpt lat="47.26314" lon="-0.09317">
        <ele>29</ele>
        <time>2010-06-26T16:39:43Z</time>
      </trkpt>
      <trkpt lat="47.26334" lon="-0.09285">
        <ele>29</ele>
        <time>2010-06-26T16:39:48Z</time>
      </trkpt>
      <trkpt lat="47.26339" lon="-0.09275">
        <ele>29</ele>
        <time>2010-06-26T16:39:53Z</time>
      </trkpt>
      <trkpt lat="47.2634" lon="-0.09276">
        <ele>29</ele>
        <time>2010-06-26T16:39:58Z</time>
      </trkpt>
      <trkpt lat="47.2634" lon="-0.09276">
        <ele>29</ele>
        <time>2010-06-26T16:40:03Z</time>
      </trkpt>
      <trkpt lat="47.2634" lon="-0.09276">
        <ele>29</ele>
        <time>2010-06-26T16:40:08Z</time>
      </trkpt>
      <trkpt lat="47.26341" lon="-0.09265">
        <ele>29</ele>
        <time>2010-06-26T16:40:13Z</time>
      </trkpt>
      <trkpt lat="47.2634" lon="-0.09229">
        <ele>30</ele>
        <time>2010-06-26T16:40:18Z</time>
      </trkpt>
      <trkpt lat="47.26331" lon="-0.09191">
        <ele>31</ele>
        <time>2010-06-26T16:40:23Z</time>
      </trkpt>
      <trkpt lat="47.26324" lon="-0.09161">
        <ele>31</ele>
        <time>2010-06-26T16:40:28Z</time>
      </trkpt>
      <trkpt lat="47.26311" lon="-0.09119">
        <ele>32</ele>
        <time>2010-06-26T16:40:33Z</time>
      </trkpt>
      <trkpt lat="47.263" lon="-0.09076">
        <ele>32</ele>
        <time>2010-06-26T16:40:38Z</time>
      </trkpt>
      <trkpt lat="47.2628" lon="-0.09057">
        <ele>32</ele>
        <time>2010-06-26T16:40:43Z</time>
      </trkpt>
      <trkpt lat="47.2628" lon="-0.09058">
        <ele>32</ele>
        <time>2010-06-26T16:40:48Z</time>
      </trkpt>
      <trkpt lat="47.2628" lon="-0.0906">
        <ele>32</ele>
        <time>2010-06-26T16:40:53Z</time>
      </trkpt>
      <trkpt lat="47.2628" lon="-0.09061">
        <ele>33</ele>
        <time>2010-06-26T16:40:58Z</time>
      </trkpt>
      <trkpt lat="47.26271" lon="-0.0905">
        <ele>33</ele>
        <time>2010-06-26T16:41:03Z</time>
      </trkpt>
      <trkpt lat="47.26273" lon="-0.09018">
        <ele>32</ele>
        <time>2010-06-26T16:41:08Z</time>
      </trkpt>
      <trkpt lat="47.26295" lon="-0.09023">
        <ele>32</ele>
        <time>2010-06-26T16:41:13Z</time>
      </trkpt>
      <trkpt lat="47.26324" lon="-0.0904">
        <ele>31</ele>
        <time>2010-06-26T16:41:18Z</time>
      </trkpt>
      <trkpt lat="47.26362" lon="-0.09057">
        <ele>30</ele>
        <time>2010-06-26T16:41:23Z</time>
      </trkpt>
      <trkpt lat="47.26395" lon="-0.09071">
        <ele>30</ele>
        <time>2010-06-26T16:41:28Z</time>
      </trkpt>
      <trkpt lat="47.26424" lon="-0.09093">
        <ele>30</ele>
        <time>2010-06-26T16:41:33Z</time>
      </trkpt>
      <trkpt lat="47.26448" lon="-0.091">
        <ele>30</ele>
        <time>2010-06-26T16:41:38Z</time>
      </trkpt>
      <trkpt lat="47.26481" lon="-0.09109">
        <ele>30</ele>
        <time>2010-06-26T16:41:43Z</time>
      </trkpt>
      <trkpt lat="47.26512" lon="-0.09113">
        <ele>30</ele>
        <time>2010-06-26T16:41:48Z</time>
      </trkpt>
      <trkpt lat="47.2655" lon="-0.09106">
        <ele>30</ele>
        <time>2010-06-26T16:41:53Z</time>
      </trkpt>
      <trkpt lat="47.26575" lon="-0.09095">
        <ele>30</ele>
        <time>2010-06-26T16:41:58Z</time>
      </trkpt>
      <trkpt lat="47.26605" lon="-0.09071">
        <ele>30</ele>
        <time>2010-06-26T16:42:03Z</time>
      </trkpt>
      <trkpt lat="47.26637" lon="-0.09031">
        <ele>30</ele>
        <time>2010-06-26T16:42:08Z</time>
      </trkpt>
      <trkpt lat="47.26659" lon="-0.08987">
        <ele>30</ele>
        <time>2010-06-26T16:42:13Z</time>
      </trkpt>
      <trkpt lat="47.26679" lon="-0.08941">
        <ele>31</ele>
        <time>2010-06-26T16:42:18Z</time>
      </trkpt>
      <trkpt lat="47.26695" lon="-0.08905">
        <ele>30</ele>
        <time>2010-06-26T16:42:23Z</time>
      </trkpt>
      <trkpt lat="47.26714" lon="-0.08858">
        <ele>29</ele>
        <time>2010-06-26T16:42:28Z</time>
      </trkpt>
      <trkpt lat="47.26734" lon="-0.08812">
        <ele>28</ele>
        <time>2010-06-26T16:42:33Z</time>
      </trkpt>
      <trkpt lat="47.26759" lon="-0.08754">
        <ele>28</ele>
        <time>2010-06-26T16:42:38Z</time>
      </trkpt>
      <trkpt lat="47.26779" lon="-0.08704">
        <ele>25</ele>
        <time>2010-06-26T16:42:43Z</time>
      </trkpt>
      <trkpt lat="47.2678" lon="-0.0866">
        <ele>24</ele>
        <time>2010-06-26T16:42:48Z</time>
      </trkpt>
      <trkpt lat="47.26753" lon="-0.08619">
        <ele>23</ele>
        <time>2010-06-26T16:42:53Z</time>
      </trkpt>
      <trkpt lat="47.26718" lon="-0.08579">
        <ele>23</ele>
        <time>2010-06-26T16:42:58Z</time>
      </trkpt>
      <trkpt lat="47.26692" lon="-0.08541">
        <ele>24</ele>
        <time>2010-06-26T16:43:03Z</time>
      </trkpt>
      <trkpt lat="47.26669" lon="-0.0851">
        <ele>23</ele>
        <time>2010-06-26T16:43:08Z</time>
      </trkpt>
      <trkpt lat="47.26636" lon="-0.08473">
        <ele>23</ele>
        <time>2010-06-26T16:43:13Z</time>
      </trkpt>
      <trkpt lat="47.26603" lon="-0.08435">
        <ele>25</ele>
        <time>2010-06-26T16:43:18Z</time>
      </trkpt>
      <trkpt lat="47.26568" lon="-0.0839">
        <ele>27</ele>
        <time>2010-06-26T16:43:23Z</time>
      </trkpt>
      <trkpt lat="47.2654" lon="-0.08354">
        <ele>27</ele>
        <time>2010-06-26T16:43:28Z</time>
      </trkpt>
      <trkpt lat="47.26517" lon="-0.08324">
        <ele>26</ele>
        <time>2010-06-26T16:43:33Z</time>
      </trkpt>
      <trkpt lat="47.26488" lon="-0.08286">
        <ele>26</ele>
        <time>2010-06-26T16:43:38Z</time>
      </trkpt>
      <trkpt lat="47.26454" lon="-0.08239">
        <ele>26</ele>
        <time>2010-06-26T16:43:43Z</time>
      </trkpt>
      <trkpt lat="47.26427" lon="-0.08199">
        <ele>27</ele>
        <time>2010-06-26T16:43:48Z</time>
      </trkpt>
      <trkpt lat="47.26406" lon="-0.08163">
        <ele>28</ele>
        <time>2010-06-26T16:43:53Z</time>
      </trkpt>
      <trkpt lat="47.26382" lon="-0.08117">
        <ele>27</ele>
        <time>2010-06-26T16:43:58Z</time>
      </trkpt>
      <trkpt lat="47.26351" lon="-0.08063">
        <ele>27</ele>
        <time>2010-06-26T16:44:03Z</time>
      </trkpt>
      <trkpt lat="47.26325" lon="-0.0802">
        <ele>30</ele>
        <time>2010-06-26T16:44:08Z</time>
      </trkpt>
      <trkpt lat="47.26298" lon="-0.07978">
        <ele>29</ele>
        <time>2010-06-26T16:44:13Z</time>
      </trkpt>
      <trkpt lat="47.26275" lon="-0.07948">
        <ele>29</ele>
        <time>2010-06-26T16:44:18Z</time>
      </trkpt>
      <trkpt lat="47.26259" lon="-0.07894">
        <ele>28</ele>
        <time>2010-06-26T16:44:23Z</time>
      </trkpt>
      <trkpt lat="47.26229" lon="-0.07842">
        <ele>31</ele>
        <time>2010-06-26T16:44:28Z</time>
      </trkpt>
      <trkpt lat="47.26204" lon="-0.07798">
        <ele>31</ele>
        <time>2010-06-26T16:44:33Z</time>
      </trkpt>
      <trkpt lat="47.26184" lon="-0.07765">
        <ele>33</ele>
        <time>2010-06-26T16:44:38Z</time>
      </trkpt>
      <trkpt lat="47.26163" lon="-0.07724">
        <ele>35</ele>
        <time>2010-06-26T16:44:43Z</time>
      </trkpt>
      <trkpt lat="47.2614" lon="-0.07686">
        <ele>34</ele>
        <time>2010-06-26T16:44:48Z</time>
      </trkpt>
      <trkpt lat="47.26135" lon="-0.0768">
        <ele>34</ele>
        <time>2010-06-26T16:44:53Z</time>
      </trkpt>
      <trkpt lat="47.2613" lon="-0.07669">
        <ele>34</ele>
        <time>2010-06-26T16:44:58Z</time>
      </trkpt>
      <trkpt lat="47.26136" lon="-0.07654">
        <ele>33</ele>
        <time>2010-06-26T16:45:03Z</time>
      </trkpt>
      <trkpt lat="47.26154" lon="-0.07633">
        <ele>32</ele>
        <time>2010-06-26T16:45:08Z</time>
      </trkpt>
      <trkpt lat="47.26181" lon="-0.076">
        <ele>27</ele>
        <time>2010-06-26T16:45:13Z</time>
      </trkpt>
      <trkpt lat="47.26206" lon="-0.07571">
        <ele>24</ele>
        <time>2010-06-26T16:45:18Z</time>
      </trkpt>
      <trkpt lat="47.26232" lon="-0.07541">
        <ele>23</ele>
        <time>2010-06-26T16:45:23Z</time>
      </trkpt>
      <trkpt lat="47.26254" lon="-0.07517">
        <ele>22</ele>
        <time>2010-06-26T16:45:28Z</time>
      </trkpt>
      <trkpt lat="47.26282" lon="-0.07487">
        <ele>23</ele>
        <time>2010-06-26T16:45:33Z</time>
      </trkpt>
      <trkpt lat="47.26315" lon="-0.07449">
        <ele>25</ele>
        <time>2010-06-26T16:45:38Z</time>
      </trkpt>
      <trkpt lat="47.26341" lon="-0.07415">
        <ele>31</ele>
        <time>2010-06-26T16:45:43Z</time>
      </trkpt>
      <trkpt lat="47.26362" lon="-0.07387">
        <ele>33</ele>
        <time>2010-06-26T16:45:48Z</time>
      </trkpt>
      <trkpt lat="47.26388" lon="-0.07356">
        <ele>34</ele>
        <time>2010-06-26T16:45:53Z</time>
      </trkpt>
      <trkpt lat="47.26411" lon="-0.07326">
        <ele>35</ele>
        <time>2010-06-26T16:45:58Z</time>
      </trkpt>
      <trkpt lat="47.26442" lon="-0.07298">
        <ele>35</ele>
        <time>2010-06-26T16:46:03Z</time>
      </trkpt>
      <trkpt lat="47.26468" lon="-0.07266">
        <ele>35</ele>
        <time>2010-06-26T16:46:08Z</time>
      </trkpt>
      <trkpt lat="47.26488" lon="-0.0724">
        <ele>35</ele>
        <time>2010-06-26T16:46:13Z</time>
      </trkpt>
      <trkpt lat="47.26515" lon="-0.07209">
        <ele>32</ele>
        <time>2010-06-26T16:46:18Z</time>
      </trkpt>
      <trkpt lat="47.26546" lon="-0.07174">
        <ele>30</ele>
        <time>2010-06-26T16:46:23Z</time>
      </trkpt>
      <trkpt lat="47.26573" lon="-0.07146">
        <ele>25</ele>
        <time>2010-06-26T16:46:28Z</time>
      </trkpt>
      <trkpt lat="47.26595" lon="-0.07122">
        <ele>22</ele>
        <time>2010-06-26T16:46:33Z</time>
      </trkpt>
      <trkpt lat="47.26621" lon="-0.07091">
        <ele>22</ele>
        <time>2010-06-26T16:46:38Z</time>
      </trkpt>
      <trkpt lat="47.26653" lon="-0.07054">
        <ele>22</ele>
        <time>2010-06-26T16:46:43Z</time>
      </trkpt>
      <trkpt lat="47.2668" lon="-0.07024">
        <ele>24</ele>
        <time>2010-06-26T16:46:48Z</time>
      </trkpt>
      <trkpt lat="47.26703" lon="-0.06997">
        <ele>26</ele>
        <time>2010-06-26T16:46:53Z</time>
      </trkpt>
      <trkpt lat="47.26715" lon="-0.06974">
        <ele>27</ele>
        <time>2010-06-26T16:46:58Z</time>
      </trkpt>
      <trkpt lat="47.26739" lon="-0.06953">
        <ele>28</ele>
        <time>2010-06-26T16:47:03Z</time>
      </trkpt>
      <trkpt lat="47.26767" lon="-0.06921">
        <ele>32</ele>
        <time>2010-06-26T16:47:08Z</time>
      </trkpt>
      <trkpt lat="47.26796" lon="-0.06898">
        <ele>33</ele>
        <time>2010-06-26T16:47:13Z</time>
      </trkpt>
      <trkpt lat="47.26816" lon="-0.0687">
        <ele>33</ele>
        <time>2010-06-26T16:47:18Z</time>
      </trkpt>
      <trkpt lat="47.26845" lon="-0.06838">
        <ele>33</ele>
        <time>2010-06-26T16:47:23Z</time>
      </trkpt>
      <trkpt lat="47.26873" lon="-0.06814">
        <ele>32</ele>
        <time>2010-06-26T16:47:28Z</time>
      </trkpt>
      <trkpt lat="47.26915" lon="-0.06766">
        <ele>32</ele>
        <time>2010-06-26T16:47:33Z</time>
      </trkpt>
      <trkpt lat="47.26948" lon="-0.06734">
        <ele>31</ele>
        <time>2010-06-26T16:47:38Z</time>
      </trkpt>
      <trkpt lat="47.26965" lon="-0.06701">
        <ele>31</ele>
        <time>2010-06-26T16:47:43Z</time>
      </trkpt>
      <trkpt lat="47.26996" lon="-0.06672">
        <ele>29</ele>
        <time>2010-06-26T16:47:48Z</time>
      </trkpt>
      <trkpt lat="47.27033" lon="-0.06635">
        <ele>28</ele>
        <time>2010-06-26T16:47:53Z</time>
      </trkpt>
      <trkpt lat="47.2706" lon="-0.06599">
        <ele>28</ele>
        <time>2010-06-26T16:47:58Z</time>
      </trkpt>
      <trkpt lat="47.27084" lon="-0.06571">
        <ele>28</ele>
        <time>2010-06-26T16:48:03Z</time>
      </trkpt>
      <trkpt lat="47.27116" lon="-0.06535">
        <ele>28</ele>
        <time>2010-06-26T16:48:08Z</time>
      </trkpt>
      <trkpt lat="47.2715" lon="-0.0649">
        <ele>27</ele>
        <time>2010-06-26T16:48:13Z</time>
      </trkpt>
      <trkpt lat="47.27175" lon="-0.06457">
        <ele>26</ele>
        <time>2010-06-26T16:48:18Z</time>
      </trkpt>
      <trkpt lat="47.27176" lon="-0.06455">
        <ele>26</ele>
        <time>2010-06-26T16:48:23Z</time>
      </trkpt>
      <trkpt lat="47.27176" lon="-0.06455">
        <ele>26</ele>
        <time>2010-06-26T16:48:28Z</time>
      </trkpt>
      <trkpt lat="47.27176" lon="-0.06455">
        <ele>26</ele>
        <time>2010-06-26T16:48:33Z</time>
      </trkpt>
      <trkpt lat="47.27175" lon="-0.06455">
        <ele>26</ele>
        <time>2010-06-26T16:48:38Z</time>
      </trkpt>
      <trkpt lat="47.27176" lon="-0.06454">
        <ele>26</ele>
        <time>2010-06-26T16:48:43Z</time>
      </trkpt>
      <trkpt lat="47.27185" lon="-0.06443">
        <ele>26</ele>
        <time>2010-06-26T16:48:48Z</time>
      </trkpt>
      <trkpt lat="47.27203" lon="-0.06424">
        <ele>26</ele>
        <time>2010-06-26T16:48:53Z</time>
      </trkpt>
      <trkpt lat="47.27228" lon="-0.06396">
        <ele>27</ele>
        <time>2010-06-26T16:48:58Z</time>
      </trkpt>
      <trkpt lat="47.27263" lon="-0.0636">
        <ele>27</ele>
        <time>2010-06-26T16:49:03Z</time>
      </trkpt>
      <trkpt lat="47.2729" lon="-0.06325">
        <ele>27</ele>
        <time>2010-06-26T16:49:08Z</time>
      </trkpt>
      <trkpt lat="47.27313" lon="-0.06298">
        <ele>27</ele>
        <time>2010-06-26T16:49:13Z</time>
      </trkpt>
      <trkpt lat="47.27342" lon="-0.06262">
        <ele>27</ele>
        <time>2010-06-26T16:49:18Z</time>
      </trkpt>
      <trkpt lat="47.27378" lon="-0.06222">
        <ele>27</ele>
        <time>2010-06-26T16:49:23Z</time>
      </trkpt>
      <trkpt lat="47.27407" lon="-0.06189">
        <ele>26</ele>
        <time>2010-06-26T16:49:28Z</time>
      </trkpt>
      <trkpt lat="47.27436" lon="-0.06157">
        <ele>26</ele>
        <time>2010-06-26T16:49:33Z</time>
      </trkpt>
      <trkpt lat="47.27458" lon="-0.06133">
        <ele>26</ele>
        <time>2010-06-26T16:49:38Z</time>
      </trkpt>
      <trkpt lat="47.2747" lon="-0.06092">
        <ele>26</ele>
        <time>2010-06-26T16:49:43Z</time>
      </trkpt>
      <trkpt lat="47.27505" lon="-0.06074">
        <ele>26</ele>
        <time>2010-06-26T16:49:48Z</time>
      </trkpt>
      <trkpt lat="47.27534" lon="-0.06046">
        <ele>26</ele>
        <time>2010-06-26T16:49:53Z</time>
      </trkpt>
      <trkpt lat="47.27556" lon="-0.0602">
        <ele>26</ele>
        <time>2010-06-26T16:49:58Z</time>
      </trkpt>
      <trkpt lat="47.27585" lon="-0.05987">
        <ele>25</ele>
        <time>2010-06-26T16:50:03Z</time>
      </trkpt>
      <trkpt lat="47.27621" lon="-0.05947">
        <ele>24</ele>
        <time>2010-06-26T16:50:08Z</time>
      </trkpt>
      <trkpt lat="47.27651" lon="-0.05913">
        <ele>24</ele>
        <time>2010-06-26T16:50:13Z</time>
      </trkpt>
      <trkpt lat="47.27681" lon="-0.05877">
        <ele>25</ele>
        <time>2010-06-26T16:50:18Z</time>
      </trkpt>
      <trkpt lat="47.27705" lon="-0.05852">
        <ele>26</ele>
        <time>2010-06-26T16:50:23Z</time>
      </trkpt>
      <trkpt lat="47.27735" lon="-0.0582">
        <ele>26</ele>
        <time>2010-06-26T16:50:28Z</time>
      </trkpt>
      <trkpt lat="47.27769" lon="-0.05777">
        <ele>26</ele>
        <time>2010-06-26T16:50:33Z</time>
      </trkpt>
      <trkpt lat="47.27799" lon="-0.05743">
        <ele>25</ele>
        <time>2010-06-26T16:50:38Z</time>
      </trkpt>
      <trkpt lat="47.27822" lon="-0.05716">
        <ele>25</ele>
        <time>2010-06-26T16:50:43Z</time>
      </trkpt>
      <trkpt lat="47.27852" lon="-0.05681">
        <ele>24</ele>
        <time>2010-06-26T16:50:48Z</time>
      </trkpt>
      <trkpt lat="47.27881" lon="-0.05647">
        <ele>25</ele>
        <time>2010-06-26T16:50:53Z</time>
      </trkpt>
      <trkpt lat="47.27916" lon="-0.05608">
        <ele>25</ele>
        <time>2010-06-26T16:50:58Z</time>
      </trkpt>
      <trkpt lat="47.27944" lon="-0.05575">
        <ele>25</ele>
        <time>2010-06-26T16:51:03Z</time>
      </trkpt>
      <trkpt lat="47.27967" lon="-0.05552">
        <ele>24</ele>
        <time>2010-06-26T16:51:08Z</time>
      </trkpt>
      <trkpt lat="47.27995" lon="-0.05519">
        <ele>25</ele>
        <time>2010-06-26T16:51:13Z</time>
      </trkpt>
      <trkpt lat="47.28022" lon="-0.05488">
        <ele>25</ele>
        <time>2010-06-26T16:51:18Z</time>
      </trkpt>
      <trkpt lat="47.28054" lon="-0.05451">
        <ele>25</ele>
        <time>2010-06-26T16:51:23Z</time>
      </trkpt>
      <trkpt lat="47.28075" lon="-0.05426">
        <ele>26</ele>
        <time>2010-06-26T16:51:28Z</time>
      </trkpt>
      <trkpt lat="47.28102" lon="-0.05396">
        <ele>26</ele>
        <time>2010-06-26T16:51:33Z</time>
      </trkpt>
      <trkpt lat="47.28129" lon="-0.05364">
        <ele>27</ele>
        <time>2010-06-26T16:51:38Z</time>
      </trkpt>
      <trkpt lat="47.28163" lon="-0.05325">
        <ele>28</ele>
        <time>2010-06-26T16:51:43Z</time>
      </trkpt>
      <trkpt lat="47.28191" lon="-0.05293">
        <ele>27</ele>
        <time>2010-06-26T16:51:48Z</time>
      </trkpt>
      <trkpt lat="47.28214" lon="-0.05266">
        <ele>27</ele>
        <time>2010-06-26T16:51:53Z</time>
      </trkpt>
      <trkpt lat="47.28242" lon="-0.05232">
        <ele>24</ele>
        <time>2010-06-26T16:51:58Z</time>
      </trkpt>
      <trkpt lat="47.28276" lon="-0.05192">
        <ele>24</ele>
        <time>2010-06-26T16:52:03Z</time>
      </trkpt>
      <trkpt lat="47.28306" lon="-0.05162">
        <ele>25</ele>
        <time>2010-06-26T16:52:08Z</time>
      </trkpt>
      <trkpt lat="47.28335" lon="-0.05128">
        <ele>25</ele>
        <time>2010-06-26T16:52:13Z</time>
      </trkpt>
      <trkpt lat="47.28358" lon="-0.05101">
        <ele>26</ele>
        <time>2010-06-26T16:52:18Z</time>
      </trkpt>
      <trkpt lat="47.28387" lon="-0.05067">
        <ele>26</ele>
        <time>2010-06-26T16:52:23Z</time>
      </trkpt>
      <trkpt lat="47.28422" lon="-0.05027">
        <ele>24</ele>
        <time>2010-06-26T16:52:28Z</time>
      </trkpt>
      <trkpt lat="47.28451" lon="-0.04992">
        <ele>25</ele>
        <time>2010-06-26T16:52:33Z</time>
      </trkpt>
      <trkpt lat="47.28474" lon="-0.04965">
        <ele>25</ele>
        <time>2010-06-26T16:52:38Z</time>
      </trkpt>
      <trkpt lat="47.28503" lon="-0.0493">
        <ele>25</ele>
        <time>2010-06-26T16:52:43Z</time>
      </trkpt>
      <trkpt lat="47.2854" lon="-0.04888">
        <ele>25</ele>
        <time>2010-06-26T16:52:48Z</time>
      </trkpt>
      <trkpt lat="47.28569" lon="-0.04855">
        <ele>25</ele>
        <time>2010-06-26T16:52:53Z</time>
      </trkpt>
      <trkpt lat="47.28598" lon="-0.04834">
        <ele>25</ele>
        <time>2010-06-26T16:52:58Z</time>
      </trkpt>
      <trkpt lat="47.2862" lon="-0.04827">
        <ele>26</ele>
        <time>2010-06-26T16:53:03Z</time>
      </trkpt>
      <trkpt lat="47.28644" lon="-0.0481">
        <ele>26</ele>
        <time>2010-06-26T16:53:08Z</time>
      </trkpt>
      <trkpt lat="47.28671" lon="-0.0477">
        <ele>27</ele>
        <time>2010-06-26T16:53:13Z</time>
      </trkpt>
      <trkpt lat="47.28691" lon="-0.04737">
        <ele>27</ele>
        <time>2010-06-26T16:53:18Z</time>
      </trkpt>
      <trkpt lat="47.28695" lon="-0.04731">
        <ele>27</ele>
        <time>2010-06-26T16:53:23Z</time>
      </trkpt>
      <trkpt lat="47.28694" lon="-0.04731">
        <ele>27</ele>
        <time>2010-06-26T16:53:28Z</time>
      </trkpt>
      <trkpt lat="47.28694" lon="-0.04732">
        <ele>27</ele>
        <time>2010-06-26T16:53:33Z</time>
      </trkpt>
      <trkpt lat="47.28694" lon="-0.04731">
        <ele>27</ele>
        <time>2010-06-26T16:53:38Z</time>
      </trkpt>
      <trkpt lat="47.28694" lon="-0.04732">
        <ele>27</ele>
        <time>2010-06-26T16:53:43Z</time>
      </trkpt>
      <trkpt lat="47.28694" lon="-0.04732">
        <ele>27</ele>
        <time>2010-06-26T16:53:48Z</time>
      </trkpt>
      <trkpt lat="47.28693" lon="-0.04732">
        <ele>27</ele>
        <time>2010-06-26T16:53:53Z</time>
      </trkpt>
      <trkpt lat="47.28693" lon="-0.04732">
        <ele>27</ele>
        <time>2010-06-26T16:53:58Z</time>
      </trkpt>
      <trkpt lat="47.28694" lon="-0.04732">
        <ele>27</ele>
        <time>2010-06-26T16:54:03Z</time>
      </trkpt>
      <trkpt lat="47.28694" lon="-0.04733">
        <ele>27</ele>
        <time>2010-06-26T16:54:08Z</time>
      </trkpt>
      <trkpt lat="47.28693" lon="-0.04732">
        <ele>27</ele>
        <time>2010-06-26T16:54:13Z</time>
      </trkpt>
      <trkpt lat="47.28693" lon="-0.04732">
        <ele>27</ele>
        <time>2010-06-26T16:54:18Z</time>
      </trkpt>
      <trkpt lat="47.28693" lon="-0.04733">
        <ele>27</ele>
        <time>2010-06-26T16:54:23Z</time>
      </trkpt>
      <trkpt lat="47.28694" lon="-0.04733">
        <ele>27</ele>
        <time>2010-06-26T16:54:28Z</time>
      </trkpt>
      <trkpt lat="47.28693" lon="-0.04733">
        <ele>27</ele>
        <time>2010-06-26T16:54:33Z</time>
      </trkpt>
      <trkpt lat="47.28694" lon="-0.04734">
        <ele>27</ele>
        <time>2010-06-26T16:54:38Z</time>
      </trkpt>
      <trkpt lat="47.28694" lon="-0.04735">
        <ele>27</ele>
        <time>2010-06-26T16:54:43Z</time>
      </trkpt>
      <trkpt lat="47.28695" lon="-0.04735">
        <ele>27</ele>
        <time>2010-06-26T16:54:48Z</time>
      </trkpt>
      <trkpt lat="47.28695" lon="-0.04736">
        <ele>27</ele>
        <time>2010-06-26T16:54:53Z</time>
      </trkpt>
      <trkpt lat="47.28695" lon="-0.04736">
        <ele>27</ele>
        <time>2010-06-26T16:54:58Z</time>
      </trkpt>
      <trkpt lat="47.28695" lon="-0.04736">
        <ele>27</ele>
        <time>2010-06-26T16:55:03Z</time>
      </trkpt>
      <trkpt lat="47.28695" lon="-0.04737">
        <ele>27</ele>
        <time>2010-06-26T16:55:08Z</time>
      </trkpt>
      <trkpt lat="47.28695" lon="-0.04737">
        <ele>27</ele>
        <time>2010-06-26T16:55:13Z</time>
      </trkpt>
      <trkpt lat="47.28695" lon="-0.04737">
        <ele>27</ele>
        <time>2010-06-26T16:55:18Z</time>
      </trkpt>
      <trkpt lat="47.28695" lon="-0.04737">
        <ele>27</ele>
        <time>2010-06-26T16:55:23Z</time>
      </trkpt>
      <trkpt lat="47.28695" lon="-0.04736">
        <ele>27</ele>
        <time>2010-06-26T16:55:28Z</time>
      </trkpt>
      <trkpt lat="47.28695" lon="-0.04736">
        <ele>27</ele>
        <time>2010-06-26T16:55:33Z</time>
      </trkpt>
      <trkpt lat="47.28695" lon="-0.04736">
        <ele>27</ele>
        <time>2010-06-26T16:55:38Z</time>
      </trkpt>
      <trkpt lat="47.28696" lon="-0.04736">
        <ele>27</ele>
        <time>2010-06-26T16:55:43Z</time>
      </trkpt>
      <trkpt lat="47.28696" lon="-0.04736">
        <ele>27</ele>
        <time>2010-06-26T16:55:48Z</time>
      </trkpt>
      <trkpt lat="47.28696" lon="-0.04736">
        <ele>27</ele>
        <time>2010-06-26T16:55:53Z</time>
      </trkpt>
      <trkpt lat="47.28696" lon="-0.04736">
        <ele>27</ele>
        <time>2010-06-26T16:55:58Z</time>
      </trkpt>
      <trkpt lat="47.28696" lon="-0.04735">
        <ele>27</ele>
        <time>2010-06-26T16:56:03Z</time>
      </trkpt>
      <trkpt lat="47.28696" lon="-0.04735">
        <ele>27</ele>
        <time>2010-06-26T16:56:08Z</time>
      </trkpt>
      <trkpt lat="47.28696" lon="-0.04735">
        <ele>27</ele>
        <time>2010-06-26T16:56:13Z</time>
      </trkpt>
      <trkpt lat="47.28696" lon="-0.04735">
        <ele>27</ele>
        <time>2010-06-26T16:56:18Z</time>
      </trkpt>
      <trkpt lat="47.28696" lon="-0.04735">
        <ele>27</ele>
        <time>2010-06-26T16:56:23Z</time>
      </trkpt>
      <trkpt lat="47.28696" lon="-0.04736">
        <ele>27</ele>
        <time>2010-06-26T16:56:28Z</time>
      </trkpt>
      <trkpt lat="47.28696" lon="-0.04735">
        <ele>27</ele>
        <time>2010-06-26T16:56:33Z</time>
      </trkpt>
      <trkpt lat="47.28696" lon="-0.04735">
        <ele>27</ele>
        <time>2010-06-26T16:56:38Z</time>
      </trkpt>
      <trkpt lat="47.28696" lon="-0.04733">
        <ele>27</ele>
        <time>2010-06-26T16:56:43Z</time>
      </trkpt>
      <trkpt lat="47.28696" lon="-0.04734">
        <ele>27</ele>
        <time>2010-06-26T16:56:48Z</time>
      </trkpt>
      <trkpt lat="47.28689" lon="-0.04744">
        <ele>27</ele>
        <time>2010-06-26T16:56:53Z</time>
      </trkpt>
      <trkpt lat="47.28674" lon="-0.0477">
        <ele>27</ele>
        <time>2010-06-26T16:56:58Z</time>
      </trkpt>
      <trkpt lat="47.28661" lon="-0.0479">
        <ele>26</ele>
        <time>2010-06-26T16:57:03Z</time>
      </trkpt>
      <trkpt lat="47.28657" lon="-0.04794">
        <ele>26</ele>
        <time>2010-06-26T16:57:08Z</time>
      </trkpt>
      <trkpt lat="47.28648" lon="-0.04805">
        <ele>26</ele>
        <time>2010-06-26T16:57:13Z</time>
      </trkpt>
      <trkpt lat="47.28628" lon="-0.04828">
        <ele>26</ele>
        <time>2010-06-26T16:57:18Z</time>
      </trkpt>
      <trkpt lat="47.28594" lon="-0.04841">
        <ele>25</ele>
        <time>2010-06-26T16:57:23Z</time>
      </trkpt>
      <trkpt lat="47.28563" lon="-0.04841">
        <ele>25</ele>
        <time>2010-06-26T16:57:28Z</time>
      </trkpt>
      <trkpt lat="47.28541" lon="-0.04828">
        <ele>26</ele>
        <time>2010-06-26T16:57:33Z</time>
      </trkpt>
      <trkpt lat="47.28513" lon="-0.04812">
        <ele>26</ele>
        <time>2010-06-26T16:57:38Z</time>
      </trkpt>
      <trkpt lat="47.28485" lon="-0.04794">
        <ele>25</ele>
        <time>2010-06-26T16:57:43Z</time>
      </trkpt>
      <trkpt lat="47.28453" lon="-0.04757">
        <ele>25</ele>
        <time>2010-06-26T16:57:48Z</time>
      </trkpt>
      <trkpt lat="47.28433" lon="-0.04718">
        <ele>24</ele>
        <time>2010-06-26T16:57:53Z</time>
      </trkpt>
      <trkpt lat="47.28421" lon="-0.04681">
        <ele>23</ele>
        <time>2010-06-26T16:57:58Z</time>
      </trkpt>
      <trkpt lat="47.28402" lon="-0.04639">
        <ele>23</ele>
        <time>2010-06-26T16:58:03Z</time>
      </trkpt>
      <trkpt lat="47.28369" lon="-0.04602">
        <ele>23</ele>
        <time>2010-06-26T16:58:08Z</time>
      </trkpt>
      <trkpt lat="47.28335" lon="-0.04587">
        <ele>23</ele>
        <time>2010-06-26T16:58:13Z</time>
      </trkpt>
      <trkpt lat="47.283" lon="-0.04585">
        <ele>23</ele>
        <time>2010-06-26T16:58:18Z</time>
      </trkpt>
      <trkpt lat="47.28271" lon="-0.04588">
        <ele>23</ele>
        <time>2010-06-26T16:58:23Z</time>
      </trkpt>
      <trkpt lat="47.28235" lon="-0.046">
        <ele>23</ele>
        <time>2010-06-26T16:58:28Z</time>
      </trkpt>
      <trkpt lat="47.28192" lon="-0.04605">
        <ele>23</ele>
        <time>2010-06-26T16:58:33Z</time>
      </trkpt>
      <trkpt lat="47.28162" lon="-0.04576">
        <ele>23</ele>
        <time>2010-06-26T16:58:38Z</time>
      </trkpt>
      <trkpt lat="47.28153" lon="-0.04536">
        <ele>22</ele>
        <time>2010-06-26T16:58:43Z</time>
      </trkpt>
      <trkpt lat="47.28147" lon="-0.04482">
        <ele>22</ele>
        <time>2010-06-26T16:58:48Z</time>
      </trkpt>
      <trkpt lat="47.28142" lon="-0.04417">
        <ele>22</ele>
        <time>2010-06-26T16:58:53Z</time>
      </trkpt>
      <trkpt lat="47.28137" lon="-0.04362">
        <ele>22</ele>
        <time>2010-06-26T16:58:58Z</time>
      </trkpt>
      <trkpt lat="47.28131" lon="-0.04307">
        <ele>23</ele>
        <time>2010-06-26T16:59:03Z</time>
      </trkpt>
      <trkpt lat="47.2813" lon="-0.04262">
        <ele>23</ele>
        <time>2010-06-26T16:59:08Z</time>
      </trkpt>
      <trkpt lat="47.28128" lon="-0.04208">
        <ele>24</ele>
        <time>2010-06-26T16:59:13Z</time>
      </trkpt>
      <trkpt lat="47.28104" lon="-0.04169">
        <ele>24</ele>
        <time>2010-06-26T16:59:18Z</time>
      </trkpt>
      <trkpt lat="47.28073" lon="-0.04156">
        <ele>25</ele>
        <time>2010-06-26T16:59:23Z</time>
      </trkpt>
      <trkpt lat="47.28056" lon="-0.04125">
        <ele>25</ele>
        <time>2010-06-26T16:59:28Z</time>
      </trkpt>
      <trkpt lat="47.28045" lon="-0.04075">
        <ele>24</ele>
        <time>2010-06-26T16:59:33Z</time>
      </trkpt>
      <trkpt lat="47.28034" lon="-0.0401">
        <ele>23</ele>
        <time>2010-06-26T16:59:38Z</time>
      </trkpt>
      <trkpt lat="47.28028" lon="-0.03954">
        <ele>23</ele>
        <time>2010-06-26T16:59:43Z</time>
      </trkpt>
      <trkpt lat="47.28018" lon="-0.03901">
        <ele>24</ele>
        <time>2010-06-26T16:59:48Z</time>
      </trkpt>
      <trkpt lat="47.28007" lon="-0.03857">
        <ele>24</ele>
        <time>2010-06-26T16:59:53Z</time>
      </trkpt>
      <trkpt lat="47.27995" lon="-0.03801">
        <ele>24</ele>
        <time>2010-06-26T16:59:58Z</time>
      </trkpt>
      <trkpt lat="47.27984" lon="-0.03735">
        <ele>23</ele>
        <time>2010-06-26T17:00:03Z</time>
      </trkpt>
      <trkpt lat="47.27976" lon="-0.03681">
        <ele>23</ele>
        <time>2010-06-26T17:00:08Z</time>
      </trkpt>
      <trkpt lat="47.27969" lon="-0.03637">
        <ele>23</ele>
        <time>2010-06-26T17:00:13Z</time>
      </trkpt>
      <trkpt lat="47.2796" lon="-0.03587">
        <ele>22</ele>
        <time>2010-06-26T17:00:18Z</time>
      </trkpt>
      <trkpt lat="47.27953" lon="-0.03532">
        <ele>23</ele>
        <time>2010-06-26T17:00:23Z</time>
      </trkpt>
      <trkpt lat="47.27952" lon="-0.03483">
        <ele>23</ele>
        <time>2010-06-26T17:00:28Z</time>
      </trkpt>
      <trkpt lat="47.27953" lon="-0.03432">
        <ele>23</ele>
        <time>2010-06-26T17:00:33Z</time>
      </trkpt>
      <trkpt lat="47.27959" lon="-0.03391">
        <ele>23</ele>
        <time>2010-06-26T17:00:38Z</time>
      </trkpt>
      <trkpt lat="47.27962" lon="-0.03339">
        <ele>23</ele>
        <time>2010-06-26T17:00:43Z</time>
      </trkpt>
      <trkpt lat="47.27955" lon="-0.03289">
        <ele>23</ele>
        <time>2010-06-26T17:00:48Z</time>
      </trkpt>
      <trkpt lat="47.27945" lon="-0.03228">
        <ele>23</ele>
        <time>2010-06-26T17:00:53Z</time>
      </trkpt>
      <trkpt lat="47.27966" lon="-0.03196">
        <ele>23</ele>
        <time>2010-06-26T17:00:58Z</time>
      </trkpt>
      <trkpt lat="47.27991" lon="-0.03177">
        <ele>22</ele>
        <time>2010-06-26T17:01:03Z</time>
      </trkpt>
      <trkpt lat="47.28023" lon="-0.03151">
        <ele>23</ele>
        <time>2010-06-26T17:01:08Z</time>
      </trkpt>
      <trkpt lat="47.28028" lon="-0.03094">
        <ele>23</ele>
        <time>2010-06-26T17:01:13Z</time>
      </trkpt>
      <trkpt lat="47.28016" lon="-0.03044">
        <ele>23</ele>
        <time>2010-06-26T17:01:18Z</time>
      </trkpt>
      <trkpt lat="47.28003" lon="-0.03006">
        <ele>24</ele>
        <time>2010-06-26T17:01:23Z</time>
      </trkpt>
      <trkpt lat="47.27977" lon="-0.02954">
        <ele>26</ele>
        <time>2010-06-26T17:01:28Z</time>
      </trkpt>
      <trkpt lat="47.27951" lon="-0.02916">
        <ele>29</ele>
        <time>2010-06-26T17:01:33Z</time>
      </trkpt>
      <trkpt lat="47.27925" lon="-0.02881">
        <ele>29</ele>
        <time>2010-06-26T17:01:38Z</time>
      </trkpt>
      <trkpt lat="47.27893" lon="-0.02865">
        <ele>28</ele>
        <time>2010-06-26T17:01:43Z</time>
      </trkpt>
      <trkpt lat="47.27872" lon="-0.02848">
        <ele>27</ele>
        <time>2010-06-26T17:01:48Z</time>
      </trkpt>
      <trkpt lat="47.2785" lon="-0.02805">
        <ele>27</ele>
        <time>2010-06-26T17:01:53Z</time>
      </trkpt>
      <trkpt lat="47.27823" lon="-0.02754">
        <ele>23</ele>
        <time>2010-06-26T17:01:58Z</time>
      </trkpt>
      <trkpt lat="47.27797" lon="-0.02713">
        <ele>22</ele>
        <time>2010-06-26T17:02:03Z</time>
      </trkpt>
      <trkpt lat="47.27775" lon="-0.02686">
        <ele>22</ele>
        <time>2010-06-26T17:02:08Z</time>
      </trkpt>
      <trkpt lat="47.27746" lon="-0.02652">
        <ele>23</ele>
        <time>2010-06-26T17:02:13Z</time>
      </trkpt>
      <trkpt lat="47.27718" lon="-0.02618">
        <ele>22</ele>
        <time>2010-06-26T17:02:18Z</time>
      </trkpt>
      <trkpt lat="47.27685" lon="-0.02577">
        <ele>22</ele>
        <time>2010-06-26T17:02:23Z</time>
      </trkpt>
      <trkpt lat="47.27656" lon="-0.02548">
        <ele>23</ele>
        <time>2010-06-26T17:02:28Z</time>
      </trkpt>
      <trkpt lat="47.27631" lon="-0.02528">
        <ele>23</ele>
        <time>2010-06-26T17:02:33Z</time>
      </trkpt>
      <trkpt lat="47.27598" lon="-0.02497">
        <ele>24</ele>
        <time>2010-06-26T17:02:38Z</time>
      </trkpt>
      <trkpt lat="47.2756" lon="-0.0246">
        <ele>24</ele>
        <time>2010-06-26T17:02:43Z</time>
      </trkpt>
      <trkpt lat="47.27529" lon="-0.02428">
        <ele>24</ele>
        <time>2010-06-26T17:02:48Z</time>
      </trkpt>
      <trkpt lat="47.27504" lon="-0.02403">
        <ele>25</ele>
        <time>2010-06-26T17:02:53Z</time>
      </trkpt>
      <trkpt lat="47.27472" lon="-0.02371">
        <ele>25</ele>
        <time>2010-06-26T17:02:58Z</time>
      </trkpt>
      <trkpt lat="47.27436" lon="-0.02328">
        <ele>24</ele>
        <time>2010-06-26T17:03:03Z</time>
      </trkpt>
      <trkpt lat="47.27408" lon="-0.02286">
        <ele>24</ele>
        <time>2010-06-26T17:03:08Z</time>
      </trkpt>
      <trkpt lat="47.27377" lon="-0.0225">
        <ele>25</ele>
        <time>2010-06-26T17:03:13Z</time>
      </trkpt>
      <trkpt lat="47.27347" lon="-0.02259">
        <ele>25</ele>
        <time>2010-06-26T17:03:18Z</time>
      </trkpt>
      <trkpt lat="47.27312" lon="-0.02271">
        <ele>25</ele>
        <time>2010-06-26T17:03:23Z</time>
      </trkpt>
      <trkpt lat="47.2728" lon="-0.02225">
        <ele>25</ele>
        <time>2010-06-26T17:03:28Z</time>
      </trkpt>
      <trkpt lat="47.27257" lon="-0.02172">
        <ele>24</ele>
        <time>2010-06-26T17:03:33Z</time>
      </trkpt>
      <trkpt lat="47.2724" lon="-0.02134">
        <ele>24</ele>
        <time>2010-06-26T17:03:38Z</time>
      </trkpt>
      <trkpt lat="47.27229" lon="-0.02081">
        <ele>24</ele>
        <time>2010-06-26T17:03:43Z</time>
      </trkpt>
      <trkpt lat="47.27235" lon="-0.02017">
        <ele>23</ele>
        <time>2010-06-26T17:03:48Z</time>
      </trkpt>
      <trkpt lat="47.27243" lon="-0.01964">
        <ele>24</ele>
        <time>2010-06-26T17:03:53Z</time>
      </trkpt>
      <trkpt lat="47.27246" lon="-0.01909">
        <ele>24</ele>
        <time>2010-06-26T17:03:58Z</time>
      </trkpt>
      <trkpt lat="47.27244" lon="-0.01865">
        <ele>23</ele>
        <time>2010-06-26T17:04:03Z</time>
      </trkpt>
      <trkpt lat="47.27243" lon="-0.01808">
        <ele>23</ele>
        <time>2010-06-26T17:04:08Z</time>
      </trkpt>
      <trkpt lat="47.27236" lon="-0.0174">
        <ele>24</ele>
        <time>2010-06-26T17:04:13Z</time>
      </trkpt>
      <trkpt lat="47.27234" lon="-0.01683">
        <ele>25</ele>
        <time>2010-06-26T17:04:18Z</time>
      </trkpt>
      <trkpt lat="47.27232" lon="-0.01626">
        <ele>24</ele>
        <time>2010-06-26T17:04:23Z</time>
      </trkpt>
      <trkpt lat="47.2723" lon="-0.01582">
        <ele>23</ele>
        <time>2010-06-26T17:04:28Z</time>
      </trkpt>
      <trkpt lat="47.27222" lon="-0.01527">
        <ele>23</ele>
        <time>2010-06-26T17:04:33Z</time>
      </trkpt>
      <trkpt lat="47.27208" lon="-0.01463">
        <ele>24</ele>
        <time>2010-06-26T17:04:38Z</time>
      </trkpt>
      <trkpt lat="47.27195" lon="-0.0141">
        <ele>24</ele>
        <time>2010-06-26T17:04:43Z</time>
      </trkpt>
      <trkpt lat="47.27185" lon="-0.01369">
        <ele>24</ele>
        <time>2010-06-26T17:04:48Z</time>
      </trkpt>
      <trkpt lat="47.2717" lon="-0.0132">
        <ele>23</ele>
        <time>2010-06-26T17:04:53Z</time>
      </trkpt>
      <trkpt lat="47.27159" lon="-0.01268">
        <ele>23</ele>
        <time>2010-06-26T17:04:58Z</time>
      </trkpt>
      <trkpt lat="47.27159" lon="-0.0125">
        <ele>23</ele>
        <time>2010-06-26T17:05:03Z</time>
      </trkpt>
      <trkpt lat="47.2718" lon="-0.01238">
        <ele>23</ele>
        <time>2010-06-26T17:05:08Z</time>
      </trkpt>
      <trkpt lat="47.27203" lon="-0.01227">
        <ele>24</ele>
        <time>2010-06-26T17:05:13Z</time>
      </trkpt>
      <trkpt lat="47.27233" lon="-0.01209">
        <ele>24</ele>
        <time>2010-06-26T17:05:18Z</time>
      </trkpt>
      <trkpt lat="47.27263" lon="-0.01181">
        <ele>25</ele>
        <time>2010-06-26T17:05:23Z</time>
      </trkpt>
      <trkpt lat="47.2729" lon="-0.01135">
        <ele>25</ele>
        <time>2010-06-26T17:05:28Z</time>
      </trkpt>
      <trkpt lat="47.27298" lon="-0.01093">
        <ele>24</ele>
        <time>2010-06-26T17:05:33Z</time>
      </trkpt>
      <trkpt lat="47.27285" lon="-0.01044">
        <ele>24</ele>
        <time>2010-06-26T17:05:38Z</time>
      </trkpt>
      <trkpt lat="47.27271" lon="-0.00997">
        <ele>24</ele>
        <time>2010-06-26T17:05:43Z</time>
      </trkpt>
      <trkpt lat="47.27266" lon="-0.00934">
        <ele>23</ele>
        <time>2010-06-26T17:05:48Z</time>
      </trkpt>
      <trkpt lat="47.27278" lon="-0.00886">
        <ele>23</ele>
        <time>2010-06-26T17:05:53Z</time>
      </trkpt>
      <trkpt lat="47.27294" lon="-0.00857">
        <ele>24</ele>
        <time>2010-06-26T17:05:58Z</time>
      </trkpt>
      <trkpt lat="47.27316" lon="-0.00832">
        <ele>24</ele>
        <time>2010-06-26T17:06:03Z</time>
      </trkpt>
      <trkpt lat="47.27348" lon="-0.00799">
        <ele>24</ele>
        <time>2010-06-26T17:06:08Z</time>
      </trkpt>
      <trkpt lat="47.27377" lon="-0.0077">
        <ele>24</ele>
        <time>2010-06-26T17:06:13Z</time>
      </trkpt>
      <trkpt lat="47.27401" lon="-0.00747">
        <ele>24</ele>
        <time>2010-06-26T17:06:18Z</time>
      </trkpt>
      <trkpt lat="47.27431" lon="-0.00721">
        <ele>23</ele>
        <time>2010-06-26T17:06:23Z</time>
      </trkpt>
      <trkpt lat="47.27471" lon="-0.00691">
        <ele>23</ele>
        <time>2010-06-26T17:06:28Z</time>
      </trkpt>
      <trkpt lat="47.27507" lon="-0.00671">
        <ele>24</ele>
        <time>2010-06-26T17:06:33Z</time>
      </trkpt>
      <trkpt lat="47.27542" lon="-0.00648">
        <ele>24</ele>
        <time>2010-06-26T17:06:38Z</time>
      </trkpt>
      <trkpt lat="47.27572" lon="-0.00634">
        <ele>24</ele>
        <time>2010-06-26T17:06:43Z</time>
      </trkpt>
      <trkpt lat="47.2761" lon="-0.00626">
        <ele>24</ele>
        <time>2010-06-26T17:06:48Z</time>
      </trkpt>
      <trkpt lat="47.27655" lon="-0.00632">
        <ele>24</ele>
        <time>2010-06-26T17:06:53Z</time>
      </trkpt>
      <trkpt lat="47.27689" lon="-0.00654">
        <ele>24</ele>
        <time>2010-06-26T17:06:58Z</time>
      </trkpt>
      <trkpt lat="47.27712" lon="-0.00682">
        <ele>24</ele>
        <time>2010-06-26T17:07:03Z</time>
      </trkpt>
      <trkpt lat="47.27745" lon="-0.00712">
        <ele>24</ele>
        <time>2010-06-26T17:07:08Z</time>
      </trkpt>
      <trkpt lat="47.27783" lon="-0.00747">
        <ele>24</ele>
        <time>2010-06-26T17:07:13Z</time>
      </trkpt>
      <trkpt lat="47.27818" lon="-0.00775">
        <ele>24</ele>
        <time>2010-06-26T17:07:18Z</time>
      </trkpt>
      <trkpt lat="47.27854" lon="-0.0078">
        <ele>24</ele>
        <time>2010-06-26T17:07:23Z</time>
      </trkpt>
      <trkpt lat="47.27886" lon="-0.00776">
        <ele>24</ele>
        <time>2010-06-26T17:07:28Z</time>
      </trkpt>
      <trkpt lat="47.27924" lon="-0.00769">
        <ele>24</ele>
        <time>2010-06-26T17:07:33Z</time>
      </trkpt>
      <trkpt lat="47.27962" lon="-0.00763">
        <ele>24</ele>
        <time>2010-06-26T17:07:38Z</time>
      </trkpt>
      <trkpt lat="47.28006" lon="-0.0074">
        <ele>24</ele>
        <time>2010-06-26T17:07:43Z</time>
      </trkpt>
      <trkpt lat="47.28039" lon="-0.00711">
        <ele>24</ele>
        <time>2010-06-26T17:07:48Z</time>
      </trkpt>
      <trkpt lat="47.28061" lon="-0.00681">
        <ele>24</ele>
        <time>2010-06-26T17:07:53Z</time>
      </trkpt>
      <trkpt lat="47.28064" lon="-0.00623">
        <ele>23</ele>
        <time>2010-06-26T17:07:58Z</time>
      </trkpt>
      <trkpt lat="47.2807" lon="-0.0056">
        <ele>23</ele>
        <time>2010-06-26T17:08:03Z</time>
      </trkpt>
      <trkpt lat="47.28074" lon="-0.00504">
        <ele>23</ele>
        <time>2010-06-26T17:08:08Z</time>
      </trkpt>
      <trkpt lat="47.28071" lon="-0.00461">
        <ele>23</ele>
        <time>2010-06-26T17:08:13Z</time>
      </trkpt>
      <trkpt lat="47.28062" lon="-0.00408">
        <ele>24</ele>
        <time>2010-06-26T17:08:18Z</time>
      </trkpt>
      <trkpt lat="47.28052" lon="-0.00342">
        <ele>24</ele>
        <time>2010-06-26T17:08:23Z</time>
      </trkpt>
      <trkpt lat="47.28053" lon="-0.00286">
        <ele>24</ele>
        <time>2010-06-26T17:08:28Z</time>
      </trkpt>
      <trkpt lat="47.28058" lon="-0.00228">
        <ele>23</ele>
        <time>2010-06-26T17:08:33Z</time>
      </trkpt>
      <trkpt lat="47.28065" lon="-0.00185">
        <ele>23</ele>
        <time>2010-06-26T17:08:38Z</time>
      </trkpt>
      <trkpt lat="47.28078" lon="-0.00135">
        <ele>23</ele>
        <time>2010-06-26T17:08:43Z</time>
      </trkpt>
      <trkpt lat="47.28098" lon="-0.00075">
        <ele>23</ele>
        <time>2010-06-26T17:08:48Z</time>
      </trkpt>
      <trkpt lat="47.28109" lon="-0.0002">
        <ele>22</ele>
        <time>2010-06-26T17:08:53Z</time>
      </trkpt>
      <trkpt lat="47.28112" lon="0.00024">
        <ele>22</ele>
        <time>2010-06-26T17:08:58Z</time>
      </trkpt>
      <trkpt lat="47.28114" lon="0.0008">
        <ele>22</ele>
        <time>2010-06-26T17:09:03Z</time>
      </trkpt>
      <trkpt lat="47.28116" lon="0.00135">
        <ele>22</ele>
        <time>2010-06-26T17:09:08Z</time>
      </trkpt>
      <trkpt lat="47.28119" lon="0.00201">
        <ele>23</ele>
        <time>2010-06-26T17:09:13Z</time>
      </trkpt>
      <trkpt lat="47.28122" lon="0.00258">
        <ele>23</ele>
        <time>2010-06-26T17:09:18Z</time>
      </trkpt>
      <trkpt lat="47.28124" lon="0.00302">
        <ele>23</ele>
        <time>2010-06-26T17:09:23Z</time>
      </trkpt>
      <trkpt lat="47.28127" lon="0.00358">
        <ele>24</ele>
        <time>2010-06-26T17:09:28Z</time>
      </trkpt>
      <trkpt lat="47.28126" lon="0.00425">
        <ele>24</ele>
        <time>2010-06-26T17:09:33Z</time>
      </trkpt>
      <trkpt lat="47.28122" lon="0.0048">
        <ele>24</ele>
        <time>2010-06-26T17:09:38Z</time>
      </trkpt>
      <trkpt lat="47.2812" lon="0.00523">
        <ele>24</ele>
        <time>2010-06-26T17:09:43Z</time>
      </trkpt>
      <trkpt lat="47.28118" lon="0.00577">
        <ele>25</ele>
        <time>2010-06-26T17:09:48Z</time>
      </trkpt>
      <trkpt lat="47.28113" lon="0.00632">
        <ele>24</ele>
        <time>2010-06-26T17:09:53Z</time>
      </trkpt>
      <trkpt lat="47.28101" lon="0.00694">
        <ele>24</ele>
        <time>2010-06-26T17:09:58Z</time>
      </trkpt>
      <trkpt lat="47.28085" lon="0.00744">
        <ele>24</ele>
        <time>2010-06-26T17:10:03Z</time>
      </trkpt>
      <trkpt lat="47.2807" lon="0.00781">
        <ele>24</ele>
        <time>2010-06-26T17:10:08Z</time>
      </trkpt>
      <trkpt lat="47.2805" lon="0.00826">
        <ele>24</ele>
        <time>2010-06-26T17:10:13Z</time>
      </trkpt>
      <trkpt lat="47.28029" lon="0.00868">
        <ele>24</ele>
        <time>2010-06-26T17:10:18Z</time>
      </trkpt>
      <trkpt lat="47.28014" lon="0.00925">
        <ele>24</ele>
        <time>2010-06-26T17:10:23Z</time>
      </trkpt>
      <trkpt lat="47.28016" lon="0.00976">
        <ele>24</ele>
        <time>2010-06-26T17:10:28Z</time>
      </trkpt>
      <trkpt lat="47.28017" lon="0.01019">
        <ele>24</ele>
        <time>2010-06-26T17:10:33Z</time>
      </trkpt>
      <trkpt lat="47.28041" lon="0.0107">
        <ele>24</ele>
        <time>2010-06-26T17:10:38Z</time>
      </trkpt>
      <trkpt lat="47.28075" lon="0.01098">
        <ele>23</ele>
        <time>2010-06-26T17:10:43Z</time>
      </trkpt>
      <trkpt lat="47.28108" lon="0.01124">
        <ele>23</ele>
        <time>2010-06-26T17:10:48Z</time>
      </trkpt>
      <trkpt lat="47.2812" lon="0.01164">
        <ele>23</ele>
        <time>2010-06-26T17:10:53Z</time>
      </trkpt>
      <trkpt lat="47.28098" lon="0.01209">
        <ele>23</ele>
        <time>2010-06-26T17:10:58Z</time>
      </trkpt>
      <trkpt lat="47.28075" lon="0.01252">
        <ele>23</ele>
        <time>2010-06-26T17:11:03Z</time>
      </trkpt>
      <trkpt lat="47.28049" lon="0.01306">
        <ele>23</ele>
        <time>2010-06-26T17:11:08Z</time>
      </trkpt>
      <trkpt lat="47.28031" lon="0.01354">
        <ele>23</ele>
        <time>2010-06-26T17:11:13Z</time>
      </trkpt>
      <trkpt lat="47.28018" lon="0.01393">
        <ele>23</ele>
        <time>2010-06-26T17:11:18Z</time>
      </trkpt>
      <trkpt lat="47.28001" lon="0.01443">
        <ele>23</ele>
        <time>2010-06-26T17:11:23Z</time>
      </trkpt>
      <trkpt lat="47.27981" lon="0.01502">
        <ele>24</ele>
        <time>2010-06-26T17:11:28Z</time>
      </trkpt>
      <trkpt lat="47.27967" lon="0.01551">
        <ele>25</ele>
        <time>2010-06-26T17:11:33Z</time>
      </trkpt>
      <trkpt lat="47.27956" lon="0.0159">
        <ele>26</ele>
        <time>2010-06-26T17:11:38Z</time>
      </trkpt>
      <trkpt lat="47.27945" lon="0.01627">
        <ele>26</ele>
        <time>2010-06-26T17:11:43Z</time>
      </trkpt>
      <trkpt lat="47.27954" lon="0.01648">
        <ele>26</ele>
        <time>2010-06-26T17:11:48Z</time>
      </trkpt>
      <trkpt lat="47.27976" lon="0.01669">
        <ele>26</ele>
        <time>2010-06-26T17:11:53Z</time>
      </trkpt>
      <trkpt lat="47.28003" lon="0.01693">
        <ele>27</ele>
        <time>2010-06-26T17:11:58Z</time>
      </trkpt>
      <trkpt lat="47.28025" lon="0.01715">
        <ele>26</ele>
        <time>2010-06-26T17:12:03Z</time>
      </trkpt>
      <trkpt lat="47.28055" lon="0.01743">
        <ele>26</ele>
        <time>2010-06-26T17:12:08Z</time>
      </trkpt>
      <trkpt lat="47.28096" lon="0.01774">
        <ele>26</ele>
        <time>2010-06-26T17:12:13Z</time>
      </trkpt>
      <trkpt lat="47.28132" lon="0.01796">
        <ele>25</ele>
        <time>2010-06-26T17:12:18Z</time>
      </trkpt>
      <trkpt lat="47.28161" lon="0.01809">
        <ele>25</ele>
        <time>2010-06-26T17:12:23Z</time>
      </trkpt>
      <trkpt lat="47.28198" lon="0.0182">
        <ele>25</ele>
        <time>2010-06-26T17:12:28Z</time>
      </trkpt>
      <trkpt lat="47.28232" lon="0.0183">
        <ele>25</ele>
        <time>2010-06-26T17:12:33Z</time>
      </trkpt>
      <trkpt lat="47.28271" lon="0.0184">
        <ele>25</ele>
        <time>2010-06-26T17:12:38Z</time>
      </trkpt>
      <trkpt lat="47.28301" lon="0.01848">
        <ele>25</ele>
        <time>2010-06-26T17:12:43Z</time>
      </trkpt>
      <trkpt lat="47.28326" lon="0.01854">
        <ele>24</ele>
        <time>2010-06-26T17:12:48Z</time>
      </trkpt>
      <trkpt lat="47.28358" lon="0.01862">
        <ele>25</ele>
        <time>2010-06-26T17:12:53Z</time>
      </trkpt>
      <trkpt lat="47.284" lon="0.01873">
        <ele>25</ele>
        <time>2010-06-26T17:12:58Z</time>
      </trkpt>
      <trkpt lat="47.28441" lon="0.01883">
        <ele>25</ele>
        <time>2010-06-26T17:13:03Z</time>
      </trkpt>
      <trkpt lat="47.28477" lon="0.01893">
        <ele>24</ele>
        <time>2010-06-26T17:13:08Z</time>
      </trkpt>
      <trkpt lat="47.28524" lon="0.01908">
        <ele>24</ele>
        <time>2010-06-26T17:13:13Z</time>
      </trkpt>
      <trkpt lat="47.2857" lon="0.01913">
        <ele>23</ele>
        <time>2010-06-26T17:13:18Z</time>
      </trkpt>
      <trkpt lat="47.2862" lon="0.0192">
        <ele>23</ele>
        <time>2010-06-26T17:13:23Z</time>
      </trkpt>
      <trkpt lat="47.28661" lon="0.01929">
        <ele>24</ele>
        <time>2010-06-26T17:13:28Z</time>
      </trkpt>
      <trkpt lat="47.28692" lon="0.01937">
        <ele>25</ele>
        <time>2010-06-26T17:13:33Z</time>
      </trkpt>
      <trkpt lat="47.28729" lon="0.01939">
        <ele>27</ele>
        <time>2010-06-26T17:13:38Z</time>
      </trkpt>
      <trkpt lat="47.28776" lon="0.01935">
        <ele>28</ele>
        <time>2010-06-26T17:13:43Z</time>
      </trkpt>
      <trkpt lat="47.28811" lon="0.0193">
        <ele>28</ele>
        <time>2010-06-26T17:13:48Z</time>
      </trkpt>
      <trkpt lat="47.28846" lon="0.0193">
        <ele>27</ele>
        <time>2010-06-26T17:13:53Z</time>
      </trkpt>
      <trkpt lat="47.28875" lon="0.01937">
        <ele>25</ele>
        <time>2010-06-26T17:13:58Z</time>
      </trkpt>
      <trkpt lat="47.28911" lon="0.01958">
        <ele>25</ele>
        <time>2010-06-26T17:14:03Z</time>
      </trkpt>
      <trkpt lat="47.2895" lon="0.01984">
        <ele>23</ele>
        <time>2010-06-26T17:14:08Z</time>
      </trkpt>
      <trkpt lat="47.28984" lon="0.02004">
        <ele>24</ele>
        <time>2010-06-26T17:14:13Z</time>
      </trkpt>
      <trkpt lat="47.2901" lon="0.02021">
        <ele>24</ele>
        <time>2010-06-26T17:14:18Z</time>
      </trkpt>
      <trkpt lat="47.29043" lon="0.02041">
        <ele>24</ele>
        <time>2010-06-26T17:14:23Z</time>
      </trkpt>
      <trkpt lat="47.29074" lon="0.02061">
        <ele>25</ele>
        <time>2010-06-26T17:14:28Z</time>
      </trkpt>
      <trkpt lat="47.29111" lon="0.02085">
        <ele>25</ele>
        <time>2010-06-26T17:14:33Z</time>
      </trkpt>
      <trkpt lat="47.29141" lon="0.02109">
        <ele>25</ele>
        <time>2010-06-26T17:14:38Z</time>
      </trkpt>
      <trkpt lat="47.29164" lon="0.02128">
        <ele>25</ele>
        <time>2010-06-26T17:14:43Z</time>
      </trkpt>
      <trkpt lat="47.29195" lon="0.0215">
        <ele>25</ele>
        <time>2010-06-26T17:14:48Z</time>
      </trkpt>
      <trkpt lat="47.2923" lon="0.02179">
        <ele>26</ele>
        <time>2010-06-26T17:14:53Z</time>
      </trkpt>
      <trkpt lat="47.29252" lon="0.02213">
        <ele>27</ele>
        <time>2010-06-26T17:14:58Z</time>
      </trkpt>
      <trkpt lat="47.29267" lon="0.02242">
        <ele>27</ele>
        <time>2010-06-26T17:15:03Z</time>
      </trkpt>
      <trkpt lat="47.29278" lon="0.02278">
        <ele>28</ele>
        <time>2010-06-26T17:15:08Z</time>
      </trkpt>
      <trkpt lat="47.2928" lon="0.02312">
        <ele>28</ele>
        <time>2010-06-26T17:15:13Z</time>
      </trkpt>
      <trkpt lat="47.29278" lon="0.02334">
        <ele>28</ele>
        <time>2010-06-26T17:15:18Z</time>
      </trkpt>
      <trkpt lat="47.29283" lon="0.02341">
        <ele>28</ele>
        <time>2010-06-26T17:15:23Z</time>
      </trkpt>
      <trkpt lat="47.29292" lon="0.02363">
        <ele>29</ele>
        <time>2010-06-26T17:15:28Z</time>
      </trkpt>
      <trkpt lat="47.293" lon="0.02388">
        <ele>29</ele>
        <time>2010-06-26T17:15:33Z</time>
      </trkpt>
      <trkpt lat="47.293" lon="0.02395">
        <ele>29</ele>
        <time>2010-06-26T17:15:38Z</time>
      </trkpt>
      <trkpt lat="47.29301" lon="0.02394">
        <ele>29</ele>
        <time>2010-06-26T17:15:43Z</time>
      </trkpt>
      <trkpt lat="47.29306" lon="0.02394">
        <ele>29</ele>
        <time>2010-06-26T17:15:48Z</time>
      </trkpt>
      <trkpt lat="47.29311" lon="0.02387">
        <ele>29</ele>
        <time>2010-06-26T17:15:53Z</time>
      </trkpt>
      <trkpt lat="47.29311" lon="0.02387">
        <ele>29</ele>
        <time>2010-06-26T17:15:58Z</time>
      </trkpt>
      <trkpt lat="47.29315" lon="0.02385">
        <ele>29</ele>
        <time>2010-06-26T17:16:03Z</time>
      </trkpt>
      <trkpt lat="47.29322" lon="0.02385">
        <ele>29</ele>
        <time>2010-06-26T17:16:08Z</time>
      </trkpt>
      <trkpt lat="47.29325" lon="0.02386">
        <ele>29</ele>
        <time>2010-06-26T17:16:13Z</time>
      </trkpt>
      <trkpt lat="47.29327" lon="0.02373">
        <ele>29</ele>
        <time>2010-06-26T17:16:18Z</time>
      </trkpt>
      <trkpt lat="47.29332" lon="0.02342">
        <ele>29</ele>
        <time>2010-06-26T17:16:23Z</time>
      </trkpt>
      <trkpt lat="47.29337" lon="0.02301">
        <ele>28</ele>
        <time>2010-06-26T17:16:28Z</time>
      </trkpt>
      <trkpt lat="47.29339" lon="0.02275">
        <ele>28</ele>
        <time>2010-06-26T17:16:33Z</time>
      </trkpt>
      <trkpt lat="47.29328" lon="0.02264">
        <ele>28</ele>
        <time>2010-06-26T17:16:38Z</time>
      </trkpt>
      <trkpt lat="47.29308" lon="0.02265">
        <ele>28</ele>
        <time>2010-06-26T17:16:43Z</time>
      </trkpt>
      <trkpt lat="47.29284" lon="0.0226">
        <ele>28</ele>
        <time>2010-06-26T17:16:48Z</time>
      </trkpt>
      <trkpt lat="47.29267" lon="0.02246">
        <ele>27</ele>
        <time>2010-06-26T17:16:53Z</time>
      </trkpt>
      <trkpt lat="47.29255" lon="0.02241">
        <ele>27</ele>
        <time>2010-06-26T17:16:58Z</time>
      </trkpt>
      <trkpt lat="47.29245" lon="0.02239">
        <ele>27</ele>
        <time>2010-06-26T17:17:03Z</time>
      </trkpt>
      <trkpt lat="47.29247" lon="0.02237">
        <ele>26</ele>
        <time>2010-06-26T17:17:08Z</time>
      </trkpt>
      <trkpt lat="47.29247" lon="0.02238">
        <ele>26</ele>
        <time>2010-06-26T17:17:13Z</time>
      </trkpt>
      <trkpt lat="47.29249" lon="0.02237">
        <ele>27</ele>
        <time>2010-06-26T17:17:18Z</time>
      </trkpt>
      <trkpt lat="47.29247" lon="0.02235">
        <ele>26</ele>
        <time>2010-06-26T17:17:23Z</time>
      </trkpt>
      <trkpt lat="47.29249" lon="0.02234">
        <ele>26</ele>
        <time>2010-06-26T17:17:28Z</time>
      </trkpt>
      <trkpt lat="47.29248" lon="0.02235">
        <ele>26</ele>
        <time>2010-06-26T17:17:33Z</time>
      </trkpt>
      <trkpt lat="47.29249" lon="0.02234">
        <ele>26</ele>
        <time>2010-06-26T17:17:38Z</time>
      </trkpt>
      <trkpt lat="47.2925" lon="0.02236">
        <ele>26</ele>
        <time>2010-06-26T17:17:43Z</time>
      </trkpt>
      <trkpt lat="47.29251" lon="0.02237">
        <ele>27</ele>
        <time>2010-06-26T17:17:48Z</time>
      </trkpt>
      <trkpt lat="47.29251" lon="0.02237">
        <ele>27</ele>
        <time>2010-06-26T17:17:53Z</time>
      </trkpt>
      <trkpt lat="47.29251" lon="0.02236">
        <ele>27</ele>
        <time>2010-06-26T17:17:58Z</time>
      </trkpt>
      <trkpt lat="47.2925" lon="0.02237">
        <ele>27</ele>
        <time>2010-06-26T17:18:03Z</time>
      </trkpt>
      <trkpt lat="47.2925" lon="0.02237">
        <ele>27</ele>
        <time>2010-06-26T17:18:08Z</time>
      </trkpt>
      <trkpt lat="47.29251" lon="0.02238">
        <ele>27</ele>
        <time>2010-06-26T17:18:13Z</time>
      </trkpt>
      <trkpt lat="47.29251" lon="0.02237">
        <ele>27</ele>
        <time>2010-06-26T17:18:18Z</time>
      </trkpt>
      <trkpt lat="47.29251" lon="0.02236">
        <ele>27</ele>
        <time>2010-06-26T17:18:23Z</time>
      </trkpt>
      <trkpt lat="47.29251" lon="0.02236">
        <ele>27</ele>
        <time>2010-06-26T17:18:28Z</time>
      </trkpt>
      <trkpt lat="47.29251" lon="0.02236">
        <ele>27</ele>
        <time>2010-06-26T17:18:33Z</time>
      </trkpt>
      <trkpt lat="47.2925" lon="0.02235">
        <ele>27</ele>
        <time>2010-06-26T17:18:38Z</time>
      </trkpt>
      <trkpt lat="47.29251" lon="0.02236">
        <ele>27</ele>
        <time>2010-06-26T17:18:43Z</time>
      </trkpt>
      <trkpt lat="47.2925" lon="0.02235">
        <ele>26</ele>
        <time>2010-06-26T17:18:48Z</time>
      </trkpt>
      <trkpt lat="47.29251" lon="0.02232">
        <ele>27</ele>
        <time>2010-06-26T17:18:53Z</time>
      </trkpt>
      <trkpt lat="47.2925" lon="0.02232">
        <ele>26</ele>
        <time>2010-06-26T17:18:58Z</time>
      </trkpt>
      <trkpt lat="47.29249" lon="0.02233">
        <ele>26</ele>
        <time>2010-06-26T17:19:03Z</time>
      </trkpt>
      <trkpt lat="47.29249" lon="0.02233">
        <ele>26</ele>
        <time>2010-06-26T17:19:08Z</time>
      </trkpt>
      <trkpt lat="47.29249" lon="0.02233">
        <ele>26</ele>
        <time>2010-06-26T17:19:13Z</time>
      </trkpt>
      <trkpt lat="47.29252" lon="0.02234">
        <ele>27</ele>
        <time>2010-06-26T17:19:18Z</time>
      </trkpt>
      <trkpt lat="47.29261" lon="0.02237">
        <ele>27</ele>
        <time>2010-06-26T17:19:23Z</time>
      </trkpt>
      <trkpt lat="47.29275" lon="0.02263">
        <ele>28</ele>
        <time>2010-06-26T17:19:28Z</time>
      </trkpt>
      <trkpt lat="47.29277" lon="0.02302">
        <ele>28</ele>
        <time>2010-06-26T17:19:33Z</time>
      </trkpt>
      <trkpt lat="47.29281" lon="0.02333">
        <ele>28</ele>
        <time>2010-06-26T17:19:38Z</time>
      </trkpt>
      <trkpt lat="47.29295" lon="0.0237">
        <ele>29</ele>
        <time>2010-06-26T17:19:43Z</time>
      </trkpt>
      <trkpt lat="47.29304" lon="0.02402">
        <ele>29</ele>
        <time>2010-06-26T17:19:48Z</time>
      </trkpt>
      <trkpt lat="47.29301" lon="0.02441">
        <ele>28</ele>
        <time>2010-06-26T17:19:53Z</time>
      </trkpt>
      <trkpt lat="47.29296" lon="0.02477">
        <ele>28</ele>
        <time>2010-06-26T17:19:58Z</time>
      </trkpt>
      <trkpt lat="47.2929" lon="0.02509">
        <ele>28</ele>
        <time>2010-06-26T17:20:03Z</time>
      </trkpt>
      <trkpt lat="47.2928" lon="0.02549">
        <ele>28</ele>
        <time>2010-06-26T17:20:08Z</time>
      </trkpt>
      <trkpt lat="47.29272" lon="0.026">
        <ele>28</ele>
        <time>2010-06-26T17:20:13Z</time>
      </trkpt>
      <trkpt lat="47.29265" lon="0.02644">
        <ele>28</ele>
        <time>2010-06-26T17:20:18Z</time>
      </trkpt>
      <trkpt lat="47.29261" lon="0.02678">
        <ele>28</ele>
        <time>2010-06-26T17:20:23Z</time>
      </trkpt>
      <trkpt lat="47.29251" lon="0.02722">
        <ele>28</ele>
        <time>2010-06-26T17:20:28Z</time>
      </trkpt>
      <trkpt lat="47.29239" lon="0.02777">
        <ele>26</ele>
        <time>2010-06-26T17:20:33Z</time>
      </trkpt>
      <trkpt lat="47.2923" lon="0.02824">
        <ele>25</ele>
        <time>2010-06-26T17:20:38Z</time>
      </trkpt>
      <trkpt lat="47.29221" lon="0.02872">
        <ele>25</ele>
        <time>2010-06-26T17:20:43Z</time>
      </trkpt>
      <trkpt lat="47.29213" lon="0.0291">
        <ele>25</ele>
        <time>2010-06-26T17:20:48Z</time>
      </trkpt>
      <trkpt lat="47.29204" lon="0.02958">
        <ele>26</ele>
        <time>2010-06-26T17:20:53Z</time>
      </trkpt>
      <trkpt lat="47.29194" lon="0.03005">
        <ele>27</ele>
        <time>2010-06-26T17:20:58Z</time>
      </trkpt>
      <trkpt lat="47.29183" lon="0.03062">
        <ele>26</ele>
        <time>2010-06-26T17:21:03Z</time>
      </trkpt>
      <trkpt lat="47.29176" lon="0.031">
        <ele>27</ele>
        <time>2010-06-26T17:21:08Z</time>
      </trkpt>
      <trkpt lat="47.29165" lon="0.03146">
        <ele>27</ele>
        <time>2010-06-26T17:21:13Z</time>
      </trkpt>
      <trkpt lat="47.29156" lon="0.03194">
        <ele>27</ele>
        <time>2010-06-26T17:21:18Z</time>
      </trkpt>
      <trkpt lat="47.29145" lon="0.03252">
        <ele>27</ele>
        <time>2010-06-26T17:21:23Z</time>
      </trkpt>
      <trkpt lat="47.29134" lon="0.033">
        <ele>27</ele>
        <time>2010-06-26T17:21:28Z</time>
      </trkpt>
      <trkpt lat="47.29127" lon="0.03336">
        <ele>26</ele>
        <time>2010-06-26T17:21:33Z</time>
      </trkpt>
      <trkpt lat="47.29118" lon="0.03379">
        <ele>26</ele>
        <time>2010-06-26T17:21:38Z</time>
      </trkpt>
      <trkpt lat="47.29107" lon="0.03432">
        <ele>28</ele>
        <time>2010-06-26T17:21:43Z</time>
      </trkpt>
      <trkpt lat="47.29099" lon="0.03474">
        <ele>28</ele>
        <time>2010-06-26T17:21:48Z</time>
      </trkpt>
      <trkpt lat="47.29091" lon="0.03507">
        <ele>29</ele>
        <time>2010-06-26T17:21:53Z</time>
      </trkpt>
      <trkpt lat="47.29082" lon="0.03551">
        <ele>29</ele>
        <time>2010-06-26T17:21:58Z</time>
      </trkpt>
      <trkpt lat="47.29073" lon="0.03596">
        <ele>30</ele>
        <time>2010-06-26T17:22:03Z</time>
      </trkpt>
      <trkpt lat="47.29064" lon="0.03642">
        <ele>29</ele>
        <time>2010-06-26T17:22:08Z</time>
      </trkpt>
      <trkpt lat="47.29052" lon="0.037">
        <ele>28</ele>
        <time>2010-06-26T17:22:13Z</time>
      </trkpt>
      <trkpt lat="47.29044" lon="0.0374">
        <ele>28</ele>
        <time>2010-06-26T17:22:18Z</time>
      </trkpt>
      <trkpt lat="47.29034" lon="0.03788">
        <ele>28</ele>
        <time>2010-06-26T17:22:23Z</time>
      </trkpt>
      <trkpt lat="47.29023" lon="0.03843">
        <ele>29</ele>
        <time>2010-06-26T17:22:28Z</time>
      </trkpt>
      <trkpt lat="47.29016" lon="0.03878">
        <ele>29</ele>
        <time>2010-06-26T17:22:33Z</time>
      </trkpt>
      <trkpt lat="47.29019" lon="0.03875">
        <ele>29</ele>
        <time>2010-06-26T17:22:38Z</time>
      </trkpt>
      <trkpt lat="47.29026" lon="0.03843">
        <ele>29</ele>
        <time>2010-06-26T17:22:43Z</time>
      </trkpt>
      <trkpt lat="47.29033" lon="0.03803">
        <ele>28</ele>
        <time>2010-06-26T17:22:48Z</time>
      </trkpt>
      <trkpt lat="47.29045" lon="0.03747">
        <ele>28</ele>
        <time>2010-06-26T17:22:53Z</time>
      </trkpt>
      <trkpt lat="47.29055" lon="0.03694">
        <ele>28</ele>
        <time>2010-06-26T17:22:58Z</time>
      </trkpt>
      <trkpt lat="47.29064" lon="0.03651">
        <ele>29</ele>
        <time>2010-06-26T17:23:03Z</time>
      </trkpt>
      <trkpt lat="47.29075" lon="0.03596">
        <ele>30</ele>
        <time>2010-06-26T17:23:08Z</time>
      </trkpt>
      <trkpt lat="47.29089" lon="0.03528">
        <ele>30</ele>
        <time>2010-06-26T17:23:13Z</time>
      </trkpt>
      <trkpt lat="47.29101" lon="0.03471">
        <ele>28</ele>
        <time>2010-06-26T17:23:18Z</time>
      </trkpt>
      <trkpt lat="47.29112" lon="0.03414">
        <ele>26</ele>
        <time>2010-06-26T17:23:23Z</time>
      </trkpt>
      <trkpt lat="47.29122" lon="0.03368">
        <ele>26</ele>
        <time>2010-06-26T17:23:28Z</time>
      </trkpt>
      <trkpt lat="47.29133" lon="0.03311">
        <ele>27</ele>
        <time>2010-06-26T17:23:33Z</time>
      </trkpt>
      <trkpt lat="47.29147" lon="0.03242">
        <ele>27</ele>
        <time>2010-06-26T17:23:38Z</time>
      </trkpt>
      <trkpt lat="47.29159" lon="0.03185">
        <ele>27</ele>
        <time>2010-06-26T17:23:43Z</time>
      </trkpt>
      <trkpt lat="47.29169" lon="0.03139">
        <ele>27</ele>
        <time>2010-06-26T17:23:48Z</time>
      </trkpt>
      <trkpt lat="47.29181" lon="0.0308">
        <ele>26</ele>
        <time>2010-06-26T17:23:53Z</time>
      </trkpt>
      <trkpt lat="47.29193" lon="0.03021">
        <ele>27</ele>
        <time>2010-06-26T17:23:58Z</time>
      </trkpt>
      <trkpt lat="47.29207" lon="0.0295">
        <ele>26</ele>
        <time>2010-06-26T17:24:03Z</time>
      </trkpt>
      <trkpt lat="47.29219" lon="0.02893">
        <ele>25</ele>
        <time>2010-06-26T17:24:08Z</time>
      </trkpt>
      <trkpt lat="47.29228" lon="0.02847">
        <ele>25</ele>
        <time>2010-06-26T17:24:13Z</time>
      </trkpt>
      <trkpt lat="47.2924" lon="0.02791">
        <ele>25</ele>
        <time>2010-06-26T17:24:18Z</time>
      </trkpt>
      <trkpt lat="47.29254" lon="0.02723">
        <ele>28</ele>
        <time>2010-06-26T17:24:23Z</time>
      </trkpt>
      <trkpt lat="47.29265" lon="0.02671">
        <ele>28</ele>
        <time>2010-06-26T17:24:28Z</time>
      </trkpt>
      <trkpt lat="47.29272" lon="0.02631">
        <ele>28</ele>
        <time>2010-06-26T17:24:33Z</time>
      </trkpt>
      <trkpt lat="47.29281" lon="0.02579">
        <ele>28</ele>
        <time>2010-06-26T17:24:38Z</time>
      </trkpt>
      <trkpt lat="47.29292" lon="0.02515">
        <ele>28</ele>
        <time>2010-06-26T17:24:43Z</time>
      </trkpt>
      <trkpt lat="47.293" lon="0.0246">
        <ele>28</ele>
        <time>2010-06-26T17:24:48Z</time>
      </trkpt>
      <trkpt lat="47.29311" lon="0.02408">
        <ele>29</ele>
        <time>2010-06-26T17:24:53Z</time>
      </trkpt>
      <trkpt lat="47.29319" lon="0.0237">
        <ele>29</ele>
        <time>2010-06-26T17:24:58Z</time>
      </trkpt>
      <trkpt lat="47.29329" lon="0.02323">
        <ele>29</ele>
        <time>2010-06-26T17:25:03Z</time>
      </trkpt>
      <trkpt lat="47.29341" lon="0.02271">
        <ele>28</ele>
        <time>2010-06-26T17:25:08Z</time>
      </trkpt>
      <trkpt lat="47.29356" lon="0.02234">
        <ele>28</ele>
        <time>2010-06-26T17:25:13Z</time>
      </trkpt>
      <trkpt lat="47.2937" lon="0.02201">
        <ele>27</ele>
        <time>2010-06-26T17:25:18Z</time>
      </trkpt>
      <trkpt lat="47.29393" lon="0.02175">
        <ele>27</ele>
        <time>2010-06-26T17:25:23Z</time>
      </trkpt>
      <trkpt lat="47.29421" lon="0.02176">
        <ele>27</ele>
        <time>2010-06-26T17:25:28Z</time>
      </trkpt>
      <trkpt lat="47.29458" lon="0.0219">
        <ele>28</ele>
        <time>2010-06-26T17:25:33Z</time>
      </trkpt>
      <trkpt lat="47.29488" lon="0.02202">
        <ele>28</ele>
        <time>2010-06-26T17:25:38Z</time>
      </trkpt>
      <trkpt lat="47.29511" lon="0.02203">
        <ele>29</ele>
        <time>2010-06-26T17:25:43Z</time>
      </trkpt>
      <trkpt lat="47.29541" lon="0.02202">
        <ele>29</ele>
        <time>2010-06-26T17:25:48Z</time>
      </trkpt>
      <trkpt lat="47.29572" lon="0.02201">
        <ele>30</ele>
        <time>2010-06-26T17:25:53Z</time>
      </trkpt>
      <trkpt lat="47.29597" lon="0.02199">
        <ele>33</ele>
        <time>2010-06-26T17:25:58Z</time>
      </trkpt>
      <trkpt lat="47.29617" lon="0.02198">
        <ele>34</ele>
        <time>2010-06-26T17:26:03Z</time>
      </trkpt>
      <trkpt lat="47.29641" lon="0.02198">
        <ele>35</ele>
        <time>2010-06-26T17:26:08Z</time>
      </trkpt>
      <trkpt lat="47.29671" lon="0.02196">
        <ele>38</ele>
        <time>2010-06-26T17:26:13Z</time>
      </trkpt>
      <trkpt lat="47.29695" lon="0.02194">
        <ele>38</ele>
        <time>2010-06-26T17:26:18Z</time>
      </trkpt>
      <trkpt lat="47.29721" lon="0.0219">
        <ele>38</ele>
        <time>2010-06-26T17:26:23Z</time>
      </trkpt>
      <trkpt lat="47.29741" lon="0.02182">
        <ele>38</ele>
        <time>2010-06-26T17:26:28Z</time>
      </trkpt>
      <trkpt lat="47.2977" lon="0.02171">
        <ele>38</ele>
        <time>2010-06-26T17:26:33Z</time>
      </trkpt>
      <trkpt lat="47.29801" lon="0.02159">
        <ele>38</ele>
        <time>2010-06-26T17:26:38Z</time>
      </trkpt>
      <trkpt lat="47.29838" lon="0.0214">
        <ele>38</ele>
        <time>2010-06-26T17:26:43Z</time>
      </trkpt>
      <trkpt lat="47.29869" lon="0.02124">
        <ele>38</ele>
        <time>2010-06-26T17:26:48Z</time>
      </trkpt>
      <trkpt lat="47.29892" lon="0.02109">
        <ele>38</ele>
        <time>2010-06-26T17:26:53Z</time>
      </trkpt>
      <trkpt lat="47.29921" lon="0.02087">
        <ele>39</ele>
        <time>2010-06-26T17:26:58Z</time>
      </trkpt>
      <trkpt lat="47.29956" lon="0.02058">
        <ele>39</ele>
        <time>2010-06-26T17:27:03Z</time>
      </trkpt>
      <trkpt lat="47.29985" lon="0.02036">
        <ele>39</ele>
        <time>2010-06-26T17:27:08Z</time>
      </trkpt>
      <trkpt lat="47.30009" lon="0.02017">
        <ele>39</ele>
        <time>2010-06-26T17:27:13Z</time>
      </trkpt>
      <trkpt lat="47.30039" lon="0.01996">
        <ele>39</ele>
        <time>2010-06-26T17:27:18Z</time>
      </trkpt>
      <trkpt lat="47.3007" lon="0.01982">
        <ele>39</ele>
        <time>2010-06-26T17:27:23Z</time>
      </trkpt>
      <trkpt lat="47.30111" lon="0.01964">
        <ele>39</ele>
        <time>2010-06-26T17:27:28Z</time>
      </trkpt>
      <trkpt lat="47.30145" lon="0.0195">
        <ele>39</ele>
        <time>2010-06-26T17:27:33Z</time>
      </trkpt>
      <trkpt lat="47.30172" lon="0.01939">
        <ele>39</ele>
        <time>2010-06-26T17:27:38Z</time>
      </trkpt>
      <trkpt lat="47.30206" lon="0.01926">
        <ele>39</ele>
        <time>2010-06-26T17:27:43Z</time>
      </trkpt>
      <trkpt lat="47.30246" lon="0.01909">
        <ele>38</ele>
        <time>2010-06-26T17:27:48Z</time>
      </trkpt>
      <trkpt lat="47.30281" lon="0.01896">
        <ele>38</ele>
        <time>2010-06-26T17:27:53Z</time>
      </trkpt>
      <trkpt lat="47.30308" lon="0.01893">
        <ele>38</ele>
        <time>2010-06-26T17:27:58Z</time>
      </trkpt>
      <trkpt lat="47.30344" lon="0.01896">
        <ele>38</ele>
        <time>2010-06-26T17:28:03Z</time>
      </trkpt>
      <trkpt lat="47.30394" lon="0.01901">
        <ele>39</ele>
        <time>2010-06-26T17:28:08Z</time>
      </trkpt>
      <trkpt lat="47.30434" lon="0.01912">
        <ele>39</ele>
        <time>2010-06-26T17:28:13Z</time>
      </trkpt>
      <trkpt lat="47.30475" lon="0.01908">
        <ele>39</ele>
        <time>2010-06-26T17:28:18Z</time>
      </trkpt>
      <trkpt lat="47.30504" lon="0.01909">
        <ele>39</ele>
        <time>2010-06-26T17:28:23Z</time>
      </trkpt>
      <trkpt lat="47.30539" lon="0.01911">
        <ele>39</ele>
        <time>2010-06-26T17:28:28Z</time>
      </trkpt>
      <trkpt lat="47.30581" lon="0.01909">
        <ele>39</ele>
        <time>2010-06-26T17:28:33Z</time>
      </trkpt>
      <trkpt lat="47.3061" lon="0.01898">
        <ele>39</ele>
        <time>2010-06-26T17:28:38Z</time>
      </trkpt>
      <trkpt lat="47.30632" lon="0.01891">
        <ele>39</ele>
        <time>2010-06-26T17:28:43Z</time>
      </trkpt>
      <trkpt lat="47.30659" lon="0.01881">
        <ele>40</ele>
        <time>2010-06-26T17:28:48Z</time>
      </trkpt>
      <trkpt lat="47.3069" lon="0.01869">
        <ele>40</ele>
        <time>2010-06-26T17:28:53Z</time>
      </trkpt>
      <trkpt lat="47.3073" lon="0.01866">
        <ele>40</ele>
        <time>2010-06-26T17:28:58Z</time>
      </trkpt>
      <trkpt lat="47.30756" lon="0.01866">
        <ele>40</ele>
        <time>2010-06-26T17:29:03Z</time>
      </trkpt>
      <trkpt lat="47.30789" lon="0.01867">
        <ele>40</ele>
        <time>2010-06-26T17:29:08Z</time>
      </trkpt>
      <trkpt lat="47.30821" lon="0.01868">
        <ele>40</ele>
        <time>2010-06-26T17:29:13Z</time>
      </trkpt>
      <trkpt lat="47.3086" lon="0.01872">
        <ele>41</ele>
        <time>2010-06-26T17:29:18Z</time>
      </trkpt>
      <trkpt lat="47.30891" lon="0.01876">
        <ele>41</ele>
        <time>2010-06-26T17:29:23Z</time>
      </trkpt>
      <trkpt lat="47.30922" lon="0.01878">
        <ele>42</ele>
        <time>2010-06-26T17:29:28Z</time>
      </trkpt>
      <trkpt lat="47.30945" lon="0.01882">
        <ele>42</ele>
        <time>2010-06-26T17:29:33Z</time>
      </trkpt>
      <trkpt lat="47.30981" lon="0.01887">
        <ele>42</ele>
        <time>2010-06-26T17:29:38Z</time>
      </trkpt>
      <trkpt lat="47.3101" lon="0.01895">
        <ele>43</ele>
        <time>2010-06-26T17:29:43Z</time>
      </trkpt>
      <trkpt lat="47.31041" lon="0.01908">
        <ele>44</ele>
        <time>2010-06-26T17:29:48Z</time>
      </trkpt>
      <trkpt lat="47.31064" lon="0.0192">
        <ele>45</ele>
        <time>2010-06-26T17:29:53Z</time>
      </trkpt>
      <trkpt lat="47.31092" lon="0.01934">
        <ele>47</ele>
        <time>2010-06-26T17:29:58Z</time>
      </trkpt>
      <trkpt lat="47.31118" lon="0.01948">
        <ele>48</ele>
        <time>2010-06-26T17:30:03Z</time>
      </trkpt>
      <trkpt lat="47.31133" lon="0.01975">
        <ele>48</ele>
        <time>2010-06-26T17:30:08Z</time>
      </trkpt>
      <trkpt lat="47.31123" lon="0.02019">
        <ele>49</ele>
        <time>2010-06-26T17:30:13Z</time>
      </trkpt>
      <trkpt lat="47.31115" lon="0.02054">
        <ele>49</ele>
        <time>2010-06-26T17:30:18Z</time>
      </trkpt>
      <trkpt lat="47.31104" lon="0.021">
        <ele>50</ele>
        <time>2010-06-26T17:30:23Z</time>
      </trkpt>
      <trkpt lat="47.3109" lon="0.02157">
        <ele>50</ele>
        <time>2010-06-26T17:30:28Z</time>
      </trkpt>
      <trkpt lat="47.31078" lon="0.02205">
        <ele>50</ele>
        <time>2010-06-26T17:30:33Z</time>
      </trkpt>
      <trkpt lat="47.31066" lon="0.02242">
        <ele>51</ele>
        <time>2010-06-26T17:30:38Z</time>
      </trkpt>
      <trkpt lat="47.3105" lon="0.02286">
        <ele>51</ele>
        <time>2010-06-26T17:30:43Z</time>
      </trkpt>
      <trkpt lat="47.31033" lon="0.02331">
        <ele>51</ele>
        <time>2010-06-26T17:30:48Z</time>
      </trkpt>
      <trkpt lat="47.31012" lon="0.02387">
        <ele>51</ele>
        <time>2010-06-26T17:30:53Z</time>
      </trkpt>
      <trkpt lat="47.30994" lon="0.02435">
        <ele>50</ele>
        <time>2010-06-26T17:30:58Z</time>
      </trkpt>
      <trkpt lat="47.3098" lon="0.02472">
        <ele>50</ele>
        <time>2010-06-26T17:31:03Z</time>
      </trkpt>
      <trkpt lat="47.30961" lon="0.02518">
        <ele>50</ele>
        <time>2010-06-26T17:31:08Z</time>
      </trkpt>
      <trkpt lat="47.30934" lon="0.02571">
        <ele>50</ele>
        <time>2010-06-26T17:31:13Z</time>
      </trkpt>
      <trkpt lat="47.30915" lon="0.02622">
        <ele>49</ele>
        <time>2010-06-26T17:31:18Z</time>
      </trkpt>
      <trkpt lat="47.30904" lon="0.02665">
        <ele>50</ele>
        <time>2010-06-26T17:31:23Z</time>
      </trkpt>
      <trkpt lat="47.30889" lon="0.02719">
        <ele>50</ele>
        <time>2010-06-26T17:31:28Z</time>
      </trkpt>
      <trkpt lat="47.30871" lon="0.02782">
        <ele>50</ele>
        <time>2010-06-26T17:31:33Z</time>
      </trkpt>
      <trkpt lat="47.30855" lon="0.0283">
        <ele>49</ele>
        <time>2010-06-26T17:31:38Z</time>
      </trkpt>
      <trkpt lat="47.3084" lon="0.0288">
        <ele>50</ele>
        <time>2010-06-26T17:31:43Z</time>
      </trkpt>
      <trkpt lat="47.30828" lon="0.02921">
        <ele>49</ele>
        <time>2010-06-26T17:31:48Z</time>
      </trkpt>
      <trkpt lat="47.30814" lon="0.02973">
        <ele>51</ele>
        <time>2010-06-26T17:31:53Z</time>
      </trkpt>
      <trkpt lat="47.30801" lon="0.03036">
        <ele>52</ele>
        <time>2010-06-26T17:31:58Z</time>
      </trkpt>
      <trkpt lat="47.3079" lon="0.03087">
        <ele>53</ele>
        <time>2010-06-26T17:32:03Z</time>
      </trkpt>
      <trkpt lat="47.30782" lon="0.03128">
        <ele>53</ele>
        <time>2010-06-26T17:32:08Z</time>
      </trkpt>
      <trkpt lat="47.3077" lon="0.03181">
        <ele>53</ele>
        <time>2010-06-26T17:32:13Z</time>
      </trkpt>
      <trkpt lat="47.30756" lon="0.03237">
        <ele>53</ele>
        <time>2010-06-26T17:32:18Z</time>
      </trkpt>
      <trkpt lat="47.30745" lon="0.03303">
        <ele>52</ele>
        <time>2010-06-26T17:32:23Z</time>
      </trkpt>
      <trkpt lat="47.30734" lon="0.03353">
        <ele>53</ele>
        <time>2010-06-26T17:32:28Z</time>
      </trkpt>
      <trkpt lat="47.30727" lon="0.03394">
        <ele>53</ele>
        <time>2010-06-26T17:32:33Z</time>
      </trkpt>
      <trkpt lat="47.30723" lon="0.03447">
        <ele>53</ele>
        <time>2010-06-26T17:32:38Z</time>
      </trkpt>
      <trkpt lat="47.30711" lon="0.03507">
        <ele>52</ele>
        <time>2010-06-26T17:32:43Z</time>
      </trkpt>
      <trkpt lat="47.307" lon="0.0356">
        <ele>51</ele>
        <time>2010-06-26T17:32:48Z</time>
      </trkpt>
      <trkpt lat="47.30689" lon="0.03616">
        <ele>51</ele>
        <time>2010-06-26T17:32:53Z</time>
      </trkpt>
      <trkpt lat="47.30679" lon="0.03661">
        <ele>49</ele>
        <time>2010-06-26T17:32:58Z</time>
      </trkpt>
      <trkpt lat="47.30664" lon="0.03715">
        <ele>48</ele>
        <time>2010-06-26T17:33:03Z</time>
      </trkpt>
      <trkpt lat="47.30646" lon="0.0378">
        <ele>49</ele>
        <time>2010-06-26T17:33:08Z</time>
      </trkpt>
      <trkpt lat="47.30633" lon="0.03833">
        <ele>49</ele>
        <time>2010-06-26T17:33:13Z</time>
      </trkpt>
      <trkpt lat="47.30622" lon="0.03874">
        <ele>49</ele>
        <time>2010-06-26T17:33:18Z</time>
      </trkpt>
      <trkpt lat="47.30611" lon="0.03928">
        <ele>49</ele>
        <time>2010-06-26T17:33:23Z</time>
      </trkpt>
      <trkpt lat="47.306" lon="0.03979">
        <ele>50</ele>
        <time>2010-06-26T17:33:28Z</time>
      </trkpt>
      <trkpt lat="47.30586" lon="0.04041">
        <ele>52</ele>
        <time>2010-06-26T17:33:33Z</time>
      </trkpt>
      <trkpt lat="47.30575" lon="0.04094">
        <ele>51</ele>
        <time>2010-06-26T17:33:38Z</time>
      </trkpt>
      <trkpt lat="47.30566" lon="0.04136">
        <ele>51</ele>
        <time>2010-06-26T17:33:43Z</time>
      </trkpt>
      <trkpt lat="47.30554" lon="0.04188">
        <ele>53</ele>
        <time>2010-06-26T17:33:48Z</time>
      </trkpt>
      <trkpt lat="47.30537" lon="0.04251">
        <ele>56</ele>
        <time>2010-06-26T17:33:53Z</time>
      </trkpt>
      <trkpt lat="47.30524" lon="0.04304">
        <ele>56</ele>
        <time>2010-06-26T17:33:58Z</time>
      </trkpt>
      <trkpt lat="47.30513" lon="0.04346">
        <ele>56</ele>
        <time>2010-06-26T17:34:03Z</time>
      </trkpt>
      <trkpt lat="47.30505" lon="0.04402">
        <ele>55</ele>
        <time>2010-06-26T17:34:08Z</time>
      </trkpt>
      <trkpt lat="47.30497" lon="0.04456">
        <ele>52</ele>
        <time>2010-06-26T17:34:13Z</time>
      </trkpt>
      <trkpt lat="47.30493" lon="0.04524">
        <ele>51</ele>
        <time>2010-06-26T17:34:18Z</time>
      </trkpt>
      <trkpt lat="47.30493" lon="0.04582">
        <ele>51</ele>
        <time>2010-06-26T17:34:23Z</time>
      </trkpt>
      <trkpt lat="47.30497" lon="0.04631">
        <ele>50</ele>
        <time>2010-06-26T17:34:28Z</time>
      </trkpt>
      <trkpt lat="47.30497" lon="0.04691">
        <ele>51</ele>
        <time>2010-06-26T17:34:33Z</time>
      </trkpt>
      <trkpt lat="47.30497" lon="0.04763">
        <ele>51</ele>
        <time>2010-06-26T17:34:38Z</time>
      </trkpt>
      <trkpt lat="47.30491" lon="0.04821">
        <ele>50</ele>
        <time>2010-06-26T17:34:43Z</time>
      </trkpt>
      <trkpt lat="47.30493" lon="0.04869">
        <ele>49</ele>
        <time>2010-06-26T17:34:48Z</time>
      </trkpt>
      <trkpt lat="47.30493" lon="0.04928">
        <ele>50</ele>
        <time>2010-06-26T17:34:53Z</time>
      </trkpt>
      <trkpt lat="47.30491" lon="0.04997">
        <ele>51</ele>
        <time>2010-06-26T17:34:58Z</time>
      </trkpt>
      <trkpt lat="47.30487" lon="0.05051">
        <ele>50</ele>
        <time>2010-06-26T17:35:03Z</time>
      </trkpt>
      <trkpt lat="47.30485" lon="0.05108">
        <ele>51</ele>
        <time>2010-06-26T17:35:08Z</time>
      </trkpt>
      <trkpt lat="47.30486" lon="0.05154">
        <ele>52</ele>
        <time>2010-06-26T17:35:13Z</time>
      </trkpt>
      <trkpt lat="47.30486" lon="0.05212">
        <ele>52</ele>
        <time>2010-06-26T17:35:18Z</time>
      </trkpt>
      <trkpt lat="47.30486" lon="0.05284">
        <ele>52</ele>
        <time>2010-06-26T17:35:23Z</time>
      </trkpt>
      <trkpt lat="47.30488" lon="0.05343">
        <ele>51</ele>
        <time>2010-06-26T17:35:28Z</time>
      </trkpt>
      <trkpt lat="47.30491" lon="0.05402">
        <ele>50</ele>
        <time>2010-06-26T17:35:33Z</time>
      </trkpt>
      <trkpt lat="47.30493" lon="0.05448">
        <ele>49</ele>
        <time>2010-06-26T17:35:38Z</time>
      </trkpt>
      <trkpt lat="47.30496" lon="0.05506">
        <ele>50</ele>
        <time>2010-06-26T17:35:43Z</time>
      </trkpt>
      <trkpt lat="47.30496" lon="0.05576">
        <ele>49</ele>
        <time>2010-06-26T17:35:48Z</time>
      </trkpt>
      <trkpt lat="47.30498" lon="0.05633">
        <ele>49</ele>
        <time>2010-06-26T17:35:53Z</time>
      </trkpt>
      <trkpt lat="47.30499" lon="0.05678">
        <ele>50</ele>
        <time>2010-06-26T17:35:58Z</time>
      </trkpt>
      <trkpt lat="47.30501" lon="0.05734">
        <ele>50</ele>
        <time>2010-06-26T17:36:03Z</time>
      </trkpt>
      <trkpt lat="47.30504" lon="0.05802">
        <ele>50</ele>
        <time>2010-06-26T17:36:08Z</time>
      </trkpt>
      <trkpt lat="47.3051" lon="0.05861">
        <ele>50</ele>
        <time>2010-06-26T17:36:13Z</time>
      </trkpt>
      <trkpt lat="47.30506" lon="0.05919">
        <ele>50</ele>
        <time>2010-06-26T17:36:18Z</time>
      </trkpt>
      <trkpt lat="47.30495" lon="0.05961">
        <ele>47</ele>
        <time>2010-06-26T17:36:23Z</time>
      </trkpt>
      <trkpt lat="47.3048" lon="0.06008">
        <ele>46</ele>
        <time>2010-06-26T17:36:28Z</time>
      </trkpt>
      <trkpt lat="47.30464" lon="0.06054">
        <ele>45</ele>
        <time>2010-06-26T17:36:33Z</time>
      </trkpt>
      <trkpt lat="47.30457" lon="0.06084">
        <ele>45</ele>
        <time>2010-06-26T17:36:38Z</time>
      </trkpt>
      <trkpt lat="47.3046" lon="0.06091">
        <ele>45</ele>
        <time>2010-06-26T17:36:43Z</time>
      </trkpt>
      <trkpt lat="47.30463" lon="0.06092">
        <ele>45</ele>
        <time>2010-06-26T17:36:48Z</time>
      </trkpt>
      <trkpt lat="47.30472" lon="0.06092">
        <ele>45</ele>
        <time>2010-06-26T17:36:53Z</time>
      </trkpt>
      <trkpt lat="47.30484" lon="0.06095">
        <ele>45</ele>
        <time>2010-06-26T17:36:58Z</time>
      </trkpt>
      <trkpt lat="47.30488" lon="0.06094">
        <ele>45</ele>
        <time>2010-06-26T17:37:03Z</time>
      </trkpt>
      <trkpt lat="47.30489" lon="0.06094">
        <ele>45</ele>
        <time>2010-06-26T17:37:08Z</time>
      </trkpt>
      <trkpt lat="47.30489" lon="0.06094">
        <ele>45</ele>
        <time>2010-06-26T17:37:13Z</time>
      </trkpt>
      <trkpt lat="47.30489" lon="0.06093">
        <ele>45</ele>
        <time>2010-06-26T17:37:18Z</time>
      </trkpt>
      <trkpt lat="47.3049" lon="0.06093">
        <ele>45</ele>
        <time>2010-06-26T17:37:23Z</time>
      </trkpt>
      <trkpt lat="47.30491" lon="0.06092">
        <ele>45</ele>
        <time>2010-06-26T17:37:28Z</time>
      </trkpt>
      <trkpt lat="47.30487" lon="0.06093">
        <ele>45</ele>
        <time>2010-06-26T17:37:33Z</time>
      </trkpt>
      <trkpt lat="47.30482" lon="0.06091">
        <ele>45</ele>
        <time>2010-06-26T17:37:38Z</time>
      </trkpt>
      <trkpt lat="47.30481" lon="0.06094">
        <ele>45</ele>
        <time>2010-06-26T17:37:43Z</time>
      </trkpt>
      <trkpt lat="47.30483" lon="0.06097">
        <ele>45</ele>
        <time>2010-06-26T17:37:48Z</time>
      </trkpt>
      <trkpt lat="47.30484" lon="0.06098">
        <ele>45</ele>
        <time>2010-06-26T17:37:53Z</time>
      </trkpt>
      <trkpt lat="47.30483" lon="0.06096">
        <ele>45</ele>
        <time>2010-06-26T17:37:58Z</time>
      </trkpt>
      <trkpt lat="47.30483" lon="0.06095">
        <ele>45</ele>
        <time>2010-06-26T17:38:03Z</time>
      </trkpt>
      <trkpt lat="47.30481" lon="0.06093">
        <ele>45</ele>
        <time>2010-06-26T17:38:08Z</time>
      </trkpt>
      <trkpt lat="47.30481" lon="0.06093">
        <ele>45</ele>
        <time>2010-06-26T17:38:13Z</time>
      </trkpt>
      <trkpt lat="47.30482" lon="0.06093">
        <ele>45</ele>
        <time>2010-06-26T17:38:18Z</time>
      </trkpt>
      <trkpt lat="47.30483" lon="0.06092">
        <ele>45</ele>
        <time>2010-06-26T17:38:23Z</time>
      </trkpt>
      <trkpt lat="47.30484" lon="0.06092">
        <ele>45</ele>
        <time>2010-06-26T17:38:28Z</time>
      </trkpt>
      <trkpt lat="47.30485" lon="0.0609">
        <ele>45</ele>
        <time>2010-06-26T17:38:33Z</time>
      </trkpt>
      <trkpt lat="47.30484" lon="0.0609">
        <ele>45</ele>
        <time>2010-06-26T17:38:38Z</time>
      </trkpt>
      <trkpt lat="47.30483" lon="0.0609">
        <ele>45</ele>
        <time>2010-06-26T17:38:43Z</time>
      </trkpt>
      <trkpt lat="47.30483" lon="0.0609">
        <ele>45</ele>
        <time>2010-06-26T17:38:48Z</time>
      </trkpt>
      <trkpt lat="47.30485" lon="0.06089">
        <ele>45</ele>
        <time>2010-06-26T17:38:53Z</time>
      </trkpt>
      <trkpt lat="47.30486" lon="0.06091">
        <ele>45</ele>
        <time>2010-06-26T17:38:58Z</time>
      </trkpt>
      <trkpt lat="47.30486" lon="0.06092">
        <ele>45</ele>
        <time>2010-06-26T17:39:03Z</time>
      </trkpt>
      <trkpt lat="47.30484" lon="0.06097">
        <ele>45</ele>
        <time>2010-06-26T17:39:08Z</time>
      </trkpt>
      <trkpt lat="47.30482" lon="0.06102">
        <ele>45</ele>
        <time>2010-06-26T17:39:13Z</time>
      </trkpt>
      <trkpt lat="47.30482" lon="0.06101">
        <ele>45</ele>
        <time>2010-06-26T17:39:18Z</time>
      </trkpt>
      <trkpt lat="47.30482" lon="0.06101">
        <ele>45</ele>
        <time>2010-06-26T17:39:23Z</time>
      </trkpt>
      <trkpt lat="47.30484" lon="0.06099">
        <ele>45</ele>
        <time>2010-06-26T17:39:28Z</time>
      </trkpt>
      <trkpt lat="47.30484" lon="0.06098">
        <ele>45</ele>
        <time>2010-06-26T17:39:33Z</time>
      </trkpt>
      <trkpt lat="47.30485" lon="0.06095">
        <ele>45</ele>
        <time>2010-06-26T17:39:38Z</time>
      </trkpt>
      <trkpt lat="47.30486" lon="0.06094">
        <ele>45</ele>
        <time>2010-06-26T17:39:43Z</time>
      </trkpt>
      <trkpt lat="47.30486" lon="0.06093">
        <ele>45</ele>
        <time>2010-06-26T17:39:48Z</time>
      </trkpt>
      <trkpt lat="47.30487" lon="0.06092">
        <ele>45</ele>
        <time>2010-06-26T17:39:53Z</time>
      </trkpt>
      <trkpt lat="47.3048" lon="0.06096">
        <ele>45</ele>
        <time>2010-06-26T17:39:58Z</time>
      </trkpt>
      <trkpt lat="47.30479" lon="0.06097">
        <ele>45</ele>
        <time>2010-06-26T17:40:03Z</time>
      </trkpt>
      <trkpt lat="47.30478" lon="0.06098">
        <ele>45</ele>
        <time>2010-06-26T17:40:08Z</time>
      </trkpt>
      <trkpt lat="47.30478" lon="0.06101">
        <ele>45</ele>
        <time>2010-06-26T17:40:13Z</time>
      </trkpt>
      <trkpt lat="47.30484" lon="0.06095">
        <ele>45</ele>
        <time>2010-06-26T17:40:18Z</time>
      </trkpt>
      <trkpt lat="47.30485" lon="0.06093">
        <ele>45</ele>
        <time>2010-06-26T17:40:23Z</time>
      </trkpt>
      <trkpt lat="47.30485" lon="0.06093">
        <ele>45</ele>
        <time>2010-06-26T17:40:28Z</time>
      </trkpt>
      <trkpt lat="47.30486" lon="0.06092">
        <ele>45</ele>
        <time>2010-06-26T17:40:33Z</time>
      </trkpt>
      <trkpt lat="47.30486" lon="0.06092">
        <ele>45</ele>
        <time>2010-06-26T17:40:38Z</time>
      </trkpt>
      <trkpt lat="47.30486" lon="0.06092">
        <ele>45</ele>
        <time>2010-06-26T17:40:43Z</time>
      </trkpt>
      <trkpt lat="47.30486" lon="0.06092">
        <ele>45</ele>
        <time>2010-06-26T17:40:48Z</time>
      </trkpt>
      <trkpt lat="47.30486" lon="0.06092">
        <ele>45</ele>
        <time>2010-06-26T17:40:53Z</time>
      </trkpt>
      <trkpt lat="47.30486" lon="0.06092">
        <ele>45</ele>
        <time>2010-06-26T17:40:58Z</time>
      </trkpt>
      <trkpt lat="47.30486" lon="0.06091">
        <ele>45</ele>
        <time>2010-06-26T17:41:03Z</time>
      </trkpt>
      <trkpt lat="47.30485" lon="0.06091">
        <ele>45</ele>
        <time>2010-06-26T17:41:08Z</time>
      </trkpt>
      <trkpt lat="47.30484" lon="0.0609">
        <ele>45</ele>
        <time>2010-06-26T17:41:13Z</time>
      </trkpt>
      <trkpt lat="47.30475" lon="0.06089">
        <ele>45</ele>
        <time>2010-06-26T17:41:18Z</time>
      </trkpt>
      <trkpt lat="47.30462" lon="0.06085">
        <ele>45</ele>
        <time>2010-06-26T17:41:23Z</time>
      </trkpt>
      <trkpt lat="47.30447" lon="0.06112">
        <ele>45</ele>
        <time>2010-06-26T17:41:28Z</time>
      </trkpt>
      <trkpt lat="47.30434" lon="0.06149">
        <ele>45</ele>
        <time>2010-06-26T17:41:33Z</time>
      </trkpt>
      <trkpt lat="47.30423" lon="0.06182">
        <ele>46</ele>
        <time>2010-06-26T17:41:38Z</time>
      </trkpt>
      <trkpt lat="47.30409" lon="0.06224">
        <ele>45</ele>
        <time>2010-06-26T17:41:43Z</time>
      </trkpt>
      <trkpt lat="47.3039" lon="0.06276">
        <ele>45</ele>
        <time>2010-06-26T17:41:48Z</time>
      </trkpt>
      <trkpt lat="47.30374" lon="0.06323">
        <ele>45</ele>
        <time>2010-06-26T17:41:53Z</time>
      </trkpt>
      <trkpt lat="47.30358" lon="0.06368">
        <ele>46</ele>
        <time>2010-06-26T17:41:58Z</time>
      </trkpt>
      <trkpt lat="47.30346" lon="0.06401">
        <ele>45</ele>
        <time>2010-06-26T17:42:03Z</time>
      </trkpt>
      <trkpt lat="47.30338" lon="0.06425">
        <ele>45</ele>
        <time>2010-06-26T17:42:08Z</time>
      </trkpt>
      <trkpt lat="47.30338" lon="0.06425">
        <ele>45</ele>
        <time>2010-06-26T17:42:13Z</time>
      </trkpt>
      <trkpt lat="47.30341" lon="0.06434">
        <ele>45</ele>
        <time>2010-06-26T17:42:18Z</time>
      </trkpt>
      <trkpt lat="47.30341" lon="0.06436">
        <ele>45</ele>
        <time>2010-06-26T17:42:23Z</time>
      </trkpt>
      <trkpt lat="47.30342" lon="0.06436">
        <ele>45</ele>
        <time>2010-06-26T17:42:28Z</time>
      </trkpt>
      <trkpt lat="47.30341" lon="0.06441">
        <ele>45</ele>
        <time>2010-06-26T17:42:33Z</time>
      </trkpt>
      <trkpt lat="47.3034" lon="0.0644">
        <ele>45</ele>
        <time>2010-06-26T17:42:38Z</time>
      </trkpt>
      <trkpt lat="47.30339" lon="0.0644">
        <ele>45</ele>
        <time>2010-06-26T17:42:43Z</time>
      </trkpt>
      <trkpt lat="47.3034" lon="0.0644">
        <ele>45</ele>
        <time>2010-06-26T17:42:48Z</time>
      </trkpt>
      <trkpt lat="47.30346" lon="0.06439">
        <ele>45</ele>
        <time>2010-06-26T17:42:53Z</time>
      </trkpt>
      <trkpt lat="47.30366" lon="0.06458">
        <ele>45</ele>
        <time>2010-06-26T17:42:58Z</time>
      </trkpt>
      <trkpt lat="47.30386" lon="0.06478">
        <ele>45</ele>
        <time>2010-06-26T17:43:03Z</time>
      </trkpt>
      <trkpt lat="47.30411" lon="0.065">
        <ele>45</ele>
        <time>2010-06-26T17:43:08Z</time>
      </trkpt>
      <trkpt lat="47.30432" lon="0.06518">
        <ele>45</ele>
        <time>2010-06-26T17:43:13Z</time>
      </trkpt>
      <trkpt lat="47.3046" lon="0.06542">
        <ele>46</ele>
        <time>2010-06-26T17:43:18Z</time>
      </trkpt>
      <trkpt lat="47.30494" lon="0.0657">
        <ele>46</ele>
        <time>2010-06-26T17:43:23Z</time>
      </trkpt>
      <trkpt lat="47.30521" lon="0.06593">
        <ele>46</ele>
        <time>2010-06-26T17:43:28Z</time>
      </trkpt>
      <trkpt lat="47.30543" lon="0.0661">
        <ele>46</ele>
        <time>2010-06-26T17:43:33Z</time>
      </trkpt>
      <trkpt lat="47.30568" lon="0.06635">
        <ele>46</ele>
        <time>2010-06-26T17:43:38Z</time>
      </trkpt>
      <trkpt lat="47.30593" lon="0.06658">
        <ele>46</ele>
        <time>2010-06-26T17:43:43Z</time>
      </trkpt>
      <trkpt lat="47.30623" lon="0.0668">
        <ele>46</ele>
        <time>2010-06-26T17:43:48Z</time>
      </trkpt>
      <trkpt lat="47.30651" lon="0.06701">
        <ele>45</ele>
        <time>2010-06-26T17:43:53Z</time>
      </trkpt>
      <trkpt lat="47.30673" lon="0.06723">
        <ele>44</ele>
        <time>2010-06-26T17:43:58Z</time>
      </trkpt>
      <trkpt lat="47.30701" lon="0.06753">
        <ele>43</ele>
        <time>2010-06-26T17:44:03Z</time>
      </trkpt>
      <trkpt lat="47.30736" lon="0.06792">
        <ele>43</ele>
        <time>2010-06-26T17:44:08Z</time>
      </trkpt>
      <trkpt lat="47.30766" lon="0.06824">
        <ele>43</ele>
        <time>2010-06-26T17:44:13Z</time>
      </trkpt>
      <trkpt lat="47.30789" lon="0.06849">
        <ele>44</ele>
        <time>2010-06-26T17:44:18Z</time>
      </trkpt>
      <trkpt lat="47.30818" lon="0.06881">
        <ele>45</ele>
        <time>2010-06-26T17:44:23Z</time>
      </trkpt>
      <trkpt lat="47.3085" lon="0.06917">
        <ele>46</ele>
        <time>2010-06-26T17:44:28Z</time>
      </trkpt>
      <trkpt lat="47.30874" lon="0.06946">
        <ele>46</ele>
        <time>2010-06-26T17:44:33Z</time>
      </trkpt>
      <trkpt lat="47.30898" lon="0.06977">
        <ele>47</ele>
        <time>2010-06-26T17:44:38Z</time>
      </trkpt>
      <trkpt lat="47.30916" lon="0.07003">
        <ele>47</ele>
        <time>2010-06-26T17:44:43Z</time>
      </trkpt>
      <trkpt lat="47.30941" lon="0.07038">
        <ele>46</ele>
        <time>2010-06-26T17:44:48Z</time>
      </trkpt>
      <trkpt lat="47.30967" lon="0.07075">
        <ele>46</ele>
        <time>2010-06-26T17:44:53Z</time>
      </trkpt>
      <trkpt lat="47.30999" lon="0.0712">
        <ele>46</ele>
        <time>2010-06-26T17:44:58Z</time>
      </trkpt>
      <trkpt lat="47.31026" lon="0.07157">
        <ele>46</ele>
        <time>2010-06-26T17:45:03Z</time>
      </trkpt>
      <trkpt lat="47.31048" lon="0.07183">
        <ele>46</ele>
        <time>2010-06-26T17:45:08Z</time>
      </trkpt>
      <trkpt lat="47.31084" lon="0.07216">
        <ele>48</ele>
        <time>2010-06-26T17:45:13Z</time>
      </trkpt>
      <trkpt lat="47.31115" lon="0.07241">
        <ele>48</ele>
        <time>2010-06-26T17:45:18Z</time>
      </trkpt>
      <trkpt lat="47.31145" lon="0.07265">
        <ele>48</ele>
        <time>2010-06-26T17:45:23Z</time>
      </trkpt>
      <trkpt lat="47.31169" lon="0.07284">
        <ele>50</ele>
        <time>2010-06-26T17:45:28Z</time>
      </trkpt>
      <trkpt lat="47.31197" lon="0.07307">
        <ele>50</ele>
        <time>2010-06-26T17:45:33Z</time>
      </trkpt>
      <trkpt lat="47.31225" lon="0.07328">
        <ele>51</ele>
        <time>2010-06-26T17:45:38Z</time>
      </trkpt>
      <trkpt lat="47.31258" lon="0.07354">
        <ele>54</ele>
        <time>2010-06-26T17:45:43Z</time>
      </trkpt>
      <trkpt lat="47.31285" lon="0.07377">
        <ele>54</ele>
        <time>2010-06-26T17:45:48Z</time>
      </trkpt>
      <trkpt lat="47.31307" lon="0.07395">
        <ele>54</ele>
        <time>2010-06-26T17:45:53Z</time>
      </trkpt>
      <trkpt lat="47.31335" lon="0.07419">
        <ele>54</ele>
        <time>2010-06-26T17:45:58Z</time>
      </trkpt>
      <trkpt lat="47.31369" lon="0.07448">
        <ele>55</ele>
        <time>2010-06-26T17:46:03Z</time>
      </trkpt>
      <trkpt lat="47.31399" lon="0.07472">
        <ele>55</ele>
        <time>2010-06-26T17:46:08Z</time>
      </trkpt>
      <trkpt lat="47.31423" lon="0.07492">
        <ele>57</ele>
        <time>2010-06-26T17:46:13Z</time>
      </trkpt>
      <trkpt lat="47.31454" lon="0.07513">
        <ele>56</ele>
        <time>2010-06-26T17:46:18Z</time>
      </trkpt>
      <trkpt lat="47.31491" lon="0.07542">
        <ele>55</ele>
        <time>2010-06-26T17:46:23Z</time>
      </trkpt>
      <trkpt lat="47.31521" lon="0.07568">
        <ele>56</ele>
        <time>2010-06-26T17:46:28Z</time>
      </trkpt>
      <trkpt lat="47.31553" lon="0.07593">
        <ele>56</ele>
        <time>2010-06-26T17:46:33Z</time>
      </trkpt>
      <trkpt lat="47.31576" lon="0.07613">
        <ele>56</ele>
        <time>2010-06-26T17:46:38Z</time>
      </trkpt>
      <trkpt lat="47.31605" lon="0.07638">
        <ele>57</ele>
        <time>2010-06-26T17:46:43Z</time>
      </trkpt>
      <trkpt lat="47.31638" lon="0.07662">
        <ele>58</ele>
        <time>2010-06-26T17:46:48Z</time>
      </trkpt>
      <trkpt lat="47.31672" lon="0.07687">
        <ele>59</ele>
        <time>2010-06-26T17:46:53Z</time>
      </trkpt>
      <trkpt lat="47.317" lon="0.07702">
        <ele>60</ele>
        <time>2010-06-26T17:46:58Z</time>
      </trkpt>
      <trkpt lat="47.31739" lon="0.07715">
        <ele>60</ele>
        <time>2010-06-26T17:47:03Z</time>
      </trkpt>
      <trkpt lat="47.31781" lon="0.07736">
        <ele>62</ele>
        <time>2010-06-26T17:47:08Z</time>
      </trkpt>
      <trkpt lat="47.31815" lon="0.07754">
        <ele>63</ele>
        <time>2010-06-26T17:47:13Z</time>
      </trkpt>
      <trkpt lat="47.31851" lon="0.07763">
        <ele>65</ele>
        <time>2010-06-26T17:47:18Z</time>
      </trkpt>
      <trkpt lat="47.31875" lon="0.07767">
        <ele>66</ele>
        <time>2010-06-26T17:47:23Z</time>
      </trkpt>
      <trkpt lat="47.31906" lon="0.07769">
        <ele>67</ele>
        <time>2010-06-26T17:47:28Z</time>
      </trkpt>
      <trkpt lat="47.31942" lon="0.07767">
        <ele>68</ele>
        <time>2010-06-26T17:47:33Z</time>
      </trkpt>
      <trkpt lat="47.31972" lon="0.07766">
        <ele>69</ele>
        <time>2010-06-26T17:47:38Z</time>
      </trkpt>
      <trkpt lat="47.32003" lon="0.0777">
        <ele>70</ele>
        <time>2010-06-26T17:47:43Z</time>
      </trkpt>
      <trkpt lat="47.32041" lon="0.07779">
        <ele>69</ele>
        <time>2010-06-26T17:47:48Z</time>
      </trkpt>
      <trkpt lat="47.32074" lon="0.07771">
        <ele>70</ele>
        <time>2010-06-26T17:47:53Z</time>
      </trkpt>
      <trkpt lat="47.32104" lon="0.07757">
        <ele>69</ele>
        <time>2010-06-26T17:47:58Z</time>
      </trkpt>
      <trkpt lat="47.32135" lon="0.07736">
        <ele>72</ele>
        <time>2010-06-26T17:48:03Z</time>
      </trkpt>
      <trkpt lat="47.32159" lon="0.07713">
        <ele>73</ele>
        <time>2010-06-26T17:48:08Z</time>
      </trkpt>
      <trkpt lat="47.32195" lon="0.07679">
        <ele>71</ele>
        <time>2010-06-26T17:48:13Z</time>
      </trkpt>
      <trkpt lat="47.32224" lon="0.07656">
        <ele>75</ele>
        <time>2010-06-26T17:48:18Z</time>
      </trkpt>
      <trkpt lat="47.32261" lon="0.07623">
        <ele>73</ele>
        <time>2010-06-26T17:48:23Z</time>
      </trkpt>
      <trkpt lat="47.32294" lon="0.07602">
        <ele>72</ele>
        <time>2010-06-26T17:48:28Z</time>
      </trkpt>
      <trkpt lat="47.32317" lon="0.07566">
        <ele>74</ele>
        <time>2010-06-26T17:48:33Z</time>
      </trkpt>
      <trkpt lat="47.32343" lon="0.0753">
        <ele>71</ele>
        <time>2010-06-26T17:48:38Z</time>
      </trkpt>
      <trkpt lat="47.32371" lon="0.07486">
        <ele>73</ele>
        <time>2010-06-26T17:48:43Z</time>
      </trkpt>
      <trkpt lat="47.32395" lon="0.07451">
        <ele>73</ele>
        <time>2010-06-26T17:48:48Z</time>
      </trkpt>
      <trkpt lat="47.32413" lon="0.07425">
        <ele>74</ele>
        <time>2010-06-26T17:48:53Z</time>
      </trkpt>
      <trkpt lat="47.32437" lon="0.0739">
        <ele>76</ele>
        <time>2010-06-26T17:48:58Z</time>
      </trkpt>
      <trkpt lat="47.32461" lon="0.07357">
        <ele>77</ele>
        <time>2010-06-26T17:49:03Z</time>
      </trkpt>
      <trkpt lat="47.32493" lon="0.07318">
        <ele>79</ele>
        <time>2010-06-26T17:49:08Z</time>
      </trkpt>
      <trkpt lat="47.32518" lon="0.07293">
        <ele>81</ele>
        <time>2010-06-26T17:49:13Z</time>
      </trkpt>
      <trkpt lat="47.32539" lon="0.07274">
        <ele>81</ele>
        <time>2010-06-26T17:49:18Z</time>
      </trkpt>
      <trkpt lat="47.32569" lon="0.07255">
        <ele>83</ele>
        <time>2010-06-26T17:49:23Z</time>
      </trkpt>
      <trkpt lat="47.32615" lon="0.07233">
        <ele>84</ele>
        <time>2010-06-26T17:49:28Z</time>
      </trkpt>
      <trkpt lat="47.32653" lon="0.07221">
        <ele>83</ele>
        <time>2010-06-26T17:49:33Z</time>
      </trkpt>
      <trkpt lat="47.32687" lon="0.07209">
        <ele>81</ele>
        <time>2010-06-26T17:49:38Z</time>
      </trkpt>
      <trkpt lat="47.3272" lon="0.07198">
        <ele>81</ele>
        <time>2010-06-26T17:49:43Z</time>
      </trkpt>
      <trkpt lat="47.32755" lon="0.07187">
        <ele>80</ele>
        <time>2010-06-26T17:49:48Z</time>
      </trkpt>
      <trkpt lat="47.32803" lon="0.07171">
        <ele>80</ele>
        <time>2010-06-26T17:49:53Z</time>
      </trkpt>
      <trkpt lat="47.32833" lon="0.07163">
        <ele>79</ele>
        <time>2010-06-26T17:49:58Z</time>
      </trkpt>
      <trkpt lat="47.32855" lon="0.0716">
        <ele>80</ele>
        <time>2010-06-26T17:50:03Z</time>
      </trkpt>
      <trkpt lat="47.3289" lon="0.07156">
        <ele>81</ele>
        <time>2010-06-26T17:50:08Z</time>
      </trkpt>
      <trkpt lat="47.32932" lon="0.0715">
        <ele>84</ele>
        <time>2010-06-26T17:50:13Z</time>
      </trkpt>
      <trkpt lat="47.32966" lon="0.07141">
        <ele>85</ele>
        <time>2010-06-26T17:50:18Z</time>
      </trkpt>
      <trkpt lat="47.32994" lon="0.07138">
        <ele>86</ele>
        <time>2010-06-26T17:50:23Z</time>
      </trkpt>
      <trkpt lat="47.33028" lon="0.07134">
        <ele>89</ele>
        <time>2010-06-26T17:50:28Z</time>
      </trkpt>
      <trkpt lat="47.33067" lon="0.07138">
        <ele>89</ele>
        <time>2010-06-26T17:50:33Z</time>
      </trkpt>
      <trkpt lat="47.33099" lon="0.0715">
        <ele>89</ele>
        <time>2010-06-26T17:50:38Z</time>
      </trkpt>
      <trkpt lat="47.3313" lon="0.07165">
        <ele>89</ele>
        <time>2010-06-26T17:50:43Z</time>
      </trkpt>
      <trkpt lat="47.33154" lon="0.07176">
        <ele>89</ele>
        <time>2010-06-26T17:50:48Z</time>
      </trkpt>
      <trkpt lat="47.33185" lon="0.0719">
        <ele>90</ele>
        <time>2010-06-26T17:50:53Z</time>
      </trkpt>
      <trkpt lat="47.33226" lon="0.07228">
        <ele>92</ele>
        <time>2010-06-26T17:50:58Z</time>
      </trkpt>
      <trkpt lat="47.33249" lon="0.07268">
        <ele>92</ele>
        <time>2010-06-26T17:51:03Z</time>
      </trkpt>
      <trkpt lat="47.33269" lon="0.0731">
        <ele>93</ele>
        <time>2010-06-26T17:51:08Z</time>
      </trkpt>
      <trkpt lat="47.33286" lon="0.07343">
        <ele>93</ele>
        <time>2010-06-26T17:51:13Z</time>
      </trkpt>
      <trkpt lat="47.3331" lon="0.07389">
        <ele>93</ele>
        <time>2010-06-26T17:51:18Z</time>
      </trkpt>
      <trkpt lat="47.33329" lon="0.07424">
        <ele>93</ele>
        <time>2010-06-26T17:51:23Z</time>
      </trkpt>
      <trkpt lat="47.33352" lon="0.07453">
        <ele>93</ele>
        <time>2010-06-26T17:51:28Z</time>
      </trkpt>
      <trkpt lat="47.33373" lon="0.07471">
        <ele>94</ele>
        <time>2010-06-26T17:51:33Z</time>
      </trkpt>
      <trkpt lat="47.33397" lon="0.07489">
        <ele>93</ele>
        <time>2010-06-26T17:51:38Z</time>
      </trkpt>
      <trkpt lat="47.33434" lon="0.07506">
        <ele>93</ele>
        <time>2010-06-26T17:51:43Z</time>
      </trkpt>
      <trkpt lat="47.33466" lon="0.07518">
        <ele>95</ele>
        <time>2010-06-26T17:51:48Z</time>
      </trkpt>
      <trkpt lat="47.33499" lon="0.07524">
        <ele>96</ele>
        <time>2010-06-26T17:51:53Z</time>
      </trkpt>
      <trkpt lat="47.33521" lon="0.07534">
        <ele>98</ele>
        <time>2010-06-26T17:51:58Z</time>
      </trkpt>
      <trkpt lat="47.33547" lon="0.07546">
        <ele>98</ele>
        <time>2010-06-26T17:52:03Z</time>
      </trkpt>
      <trkpt lat="47.33572" lon="0.07561">
        <ele>98</ele>
        <time>2010-06-26T17:52:08Z</time>
      </trkpt>
      <trkpt lat="47.33596" lon="0.07572">
        <ele>99</ele>
        <time>2010-06-26T17:52:13Z</time>
      </trkpt>
      <trkpt lat="47.33615" lon="0.07581">
        <ele>99</ele>
        <time>2010-06-26T17:52:18Z</time>
      </trkpt>
      <trkpt lat="47.3364" lon="0.07592">
        <ele>99</ele>
        <time>2010-06-26T17:52:23Z</time>
      </trkpt>
      <trkpt lat="47.33666" lon="0.07605">
        <ele>99</ele>
        <time>2010-06-26T17:52:28Z</time>
      </trkpt>
      <trkpt lat="47.33694" lon="0.0762">
        <ele>103</ele>
        <time>2010-06-26T17:52:33Z</time>
      </trkpt>
      <trkpt lat="47.33719" lon="0.07633">
        <ele>104</ele>
        <time>2010-06-26T17:52:38Z</time>
      </trkpt>
      <trkpt lat="47.33738" lon="0.07644">
        <ele>105</ele>
        <time>2010-06-26T17:52:43Z</time>
      </trkpt>
      <trkpt lat="47.33763" lon="0.07655">
        <ele>107</ele>
        <time>2010-06-26T17:52:48Z</time>
      </trkpt>
      <trkpt lat="47.33791" lon="0.07667">
        <ele>107</ele>
        <time>2010-06-26T17:52:53Z</time>
      </trkpt>
      <trkpt lat="47.33813" lon="0.07678">
        <ele>107</ele>
        <time>2010-06-26T17:52:58Z</time>
      </trkpt>
      <trkpt lat="47.33833" lon="0.07686">
        <ele>107</ele>
        <time>2010-06-26T17:53:03Z</time>
      </trkpt>
      <trkpt lat="47.33855" lon="0.07695">
        <ele>107</ele>
        <time>2010-06-26T17:53:08Z</time>
      </trkpt>
      <trkpt lat="47.33878" lon="0.07704">
        <ele>107</ele>
        <time>2010-06-26T17:53:13Z</time>
      </trkpt>
      <trkpt lat="47.33915" lon="0.07714">
        <ele>107</ele>
        <time>2010-06-26T17:53:18Z</time>
      </trkpt>
      <trkpt lat="47.33948" lon="0.07725">
        <ele>106</ele>
        <time>2010-06-26T17:53:23Z</time>
      </trkpt>
      <trkpt lat="47.33974" lon="0.07734">
        <ele>107</ele>
        <time>2010-06-26T17:53:28Z</time>
      </trkpt>
      <trkpt lat="47.34007" lon="0.07722">
        <ele>107</ele>
        <time>2010-06-26T17:53:33Z</time>
      </trkpt>
      <trkpt lat="47.34046" lon="0.07686">
        <ele>107</ele>
        <time>2010-06-26T17:53:38Z</time>
      </trkpt>
      <trkpt lat="47.34075" lon="0.07653">
        <ele>105</ele>
        <time>2010-06-26T17:53:43Z</time>
      </trkpt>
      <trkpt lat="47.34097" lon="0.07624">
        <ele>104</ele>
        <time>2010-06-26T17:53:48Z</time>
      </trkpt>
      <trkpt lat="47.34123" lon="0.07585">
        <ele>104</ele>
        <time>2010-06-26T17:53:53Z</time>
      </trkpt>
      <trkpt lat="47.34153" lon="0.07542">
        <ele>103</ele>
        <time>2010-06-26T17:53:58Z</time>
      </trkpt>
      <trkpt lat="47.3418" lon="0.07511">
        <ele>104</ele>
        <time>2010-06-26T17:54:03Z</time>
      </trkpt>
      <trkpt lat="47.34209" lon="0.07487">
        <ele>105</ele>
        <time>2010-06-26T17:54:08Z</time>
      </trkpt>
      <trkpt lat="47.34233" lon="0.07478">
        <ele>106</ele>
        <time>2010-06-26T17:54:13Z</time>
      </trkpt>
      <trkpt lat="47.34263" lon="0.0747">
        <ele>106</ele>
        <time>2010-06-26T17:54:18Z</time>
      </trkpt>
      <trkpt lat="47.34309" lon="0.07474">
        <ele>106</ele>
        <time>2010-06-26T17:54:23Z</time>
      </trkpt>
      <trkpt lat="47.34345" lon="0.07487">
        <ele>106</ele>
        <time>2010-06-26T17:54:28Z</time>
      </trkpt>
      <trkpt lat="47.34376" lon="0.07496">
        <ele>106</ele>
        <time>2010-06-26T17:54:33Z</time>
      </trkpt>
      <trkpt lat="47.34403" lon="0.07502">
        <ele>107</ele>
        <time>2010-06-26T17:54:38Z</time>
      </trkpt>
      <trkpt lat="47.34439" lon="0.07496">
        <ele>106</ele>
        <time>2010-06-26T17:54:43Z</time>
      </trkpt>
      <trkpt lat="47.3448" lon="0.0749">
        <ele>107</ele>
        <time>2010-06-26T17:54:48Z</time>
      </trkpt>
      <trkpt lat="47.34515" lon="0.07486">
        <ele>109</ele>
        <time>2010-06-26T17:54:53Z</time>
      </trkpt>
      <trkpt lat="47.34542" lon="0.07483">
        <ele>110</ele>
        <time>2010-06-26T17:54:58Z</time>
      </trkpt>
      <trkpt lat="47.34577" lon="0.07476">
        <ele>110</ele>
        <time>2010-06-26T17:55:03Z</time>
      </trkpt>
      <trkpt lat="47.34618" lon="0.07462">
        <ele>112</ele>
        <time>2010-06-26T17:55:08Z</time>
      </trkpt>
      <trkpt lat="47.34654" lon="0.07452">
        <ele>112</ele>
        <time>2010-06-26T17:55:13Z</time>
      </trkpt>
      <trkpt lat="47.34691" lon="0.07445">
        <ele>110</ele>
        <time>2010-06-26T17:55:18Z</time>
      </trkpt>
      <trkpt lat="47.3472" lon="0.07436">
        <ele>110</ele>
        <time>2010-06-26T17:55:23Z</time>
      </trkpt>
      <trkpt lat="47.34756" lon="0.07428">
        <ele>108</ele>
        <time>2010-06-26T17:55:28Z</time>
      </trkpt>
      <trkpt lat="47.34801" lon="0.07419">
        <ele>108</ele>
        <time>2010-06-26T17:55:33Z</time>
      </trkpt>
      <trkpt lat="47.34838" lon="0.07408">
        <ele>107</ele>
        <time>2010-06-26T17:55:38Z</time>
      </trkpt>
      <trkpt lat="47.34869" lon="0.07404">
        <ele>107</ele>
        <time>2010-06-26T17:55:43Z</time>
      </trkpt>
      <trkpt lat="47.3491" lon="0.07396">
        <ele>107</ele>
        <time>2010-06-26T17:55:48Z</time>
      </trkpt>
      <trkpt lat="47.34951" lon="0.07387">
        <ele>104</ele>
        <time>2010-06-26T17:55:53Z</time>
      </trkpt>
      <trkpt lat="47.35005" lon="0.07404">
        <ele>103</ele>
        <time>2010-06-26T17:55:58Z</time>
      </trkpt>
      <trkpt lat="47.35045" lon="0.07425">
        <ele>105</ele>
        <time>2010-06-26T17:56:03Z</time>
      </trkpt>
      <trkpt lat="47.3507" lon="0.07439">
        <ele>105</ele>
        <time>2010-06-26T17:56:08Z</time>
      </trkpt>
      <trkpt lat="47.35098" lon="0.07461">
        <ele>107</ele>
        <time>2010-06-26T17:56:13Z</time>
      </trkpt>
      <trkpt lat="47.35142" lon="0.07483">
        <ele>109</ele>
        <time>2010-06-26T17:56:18Z</time>
      </trkpt>
      <trkpt lat="47.35177" lon="0.075">
        <ele>111</ele>
        <time>2010-06-26T17:56:23Z</time>
      </trkpt>
      <trkpt lat="47.35209" lon="0.07517">
        <ele>110</ele>
        <time>2010-06-26T17:56:28Z</time>
      </trkpt>
      <trkpt lat="47.35252" lon="0.07538">
        <ele>109</ele>
        <time>2010-06-26T17:56:33Z</time>
      </trkpt>
      <trkpt lat="47.35292" lon="0.07553">
        <ele>107</ele>
        <time>2010-06-26T17:56:38Z</time>
      </trkpt>
      <trkpt lat="47.35343" lon="0.07573">
        <ele>102</ele>
        <time>2010-06-26T17:56:43Z</time>
      </trkpt>
      <trkpt lat="47.35395" lon="0.07597">
        <ele>97</ele>
        <time>2010-06-26T17:56:48Z</time>
      </trkpt>
      <trkpt lat="47.35435" lon="0.07622">
        <ele>94</ele>
        <time>2010-06-26T17:56:53Z</time>
      </trkpt>
      <trkpt lat="47.35488" lon="0.07649">
        <ele>92</ele>
        <time>2010-06-26T17:56:58Z</time>
      </trkpt>
      <trkpt lat="47.35553" lon="0.07682">
        <ele>91</ele>
        <time>2010-06-26T17:57:03Z</time>
      </trkpt>
      <trkpt lat="47.35606" lon="0.0771">
        <ele>91</ele>
        <time>2010-06-26T17:57:08Z</time>
      </trkpt>
      <trkpt lat="47.35642" lon="0.07729">
        <ele>91</ele>
        <time>2010-06-26T17:57:13Z</time>
      </trkpt>
      <trkpt lat="47.35681" lon="0.07747">
        <ele>90</ele>
        <time>2010-06-26T17:57:18Z</time>
      </trkpt>
      <trkpt lat="47.35722" lon="0.07767">
        <ele>90</ele>
        <time>2010-06-26T17:57:23Z</time>
      </trkpt>
      <trkpt lat="47.35757" lon="0.07785">
        <ele>89</ele>
        <time>2010-06-26T17:57:28Z</time>
      </trkpt>
      <trkpt lat="47.35794" lon="0.07804">
        <ele>89</ele>
        <time>2010-06-26T17:57:33Z</time>
      </trkpt>
      <trkpt lat="47.35826" lon="0.07821">
        <ele>89</ele>
        <time>2010-06-26T17:57:38Z</time>
      </trkpt>
      <trkpt lat="47.35862" lon="0.0784">
        <ele>92</ele>
        <time>2010-06-26T17:57:43Z</time>
      </trkpt>
      <trkpt lat="47.35892" lon="0.07856">
        <ele>94</ele>
        <time>2010-06-26T17:57:48Z</time>
      </trkpt>
      <trkpt lat="47.35927" lon="0.07872">
        <ele>97</ele>
        <time>2010-06-26T17:57:53Z</time>
      </trkpt>
      <trkpt lat="47.35952" lon="0.07886">
        <ele>98</ele>
        <time>2010-06-26T17:57:58Z</time>
      </trkpt>
      <trkpt lat="47.35972" lon="0.07898">
        <ele>98</ele>
        <time>2010-06-26T17:58:03Z</time>
      </trkpt>
      <trkpt lat="47.36" lon="0.07911">
        <ele>97</ele>
        <time>2010-06-26T17:58:08Z</time>
      </trkpt>
      <trkpt lat="47.36036" lon="0.07923">
        <ele>99</ele>
        <time>2010-06-26T17:58:13Z</time>
      </trkpt>
      <trkpt lat="47.36067" lon="0.07926">
        <ele>100</ele>
        <time>2010-06-26T17:58:18Z</time>
      </trkpt>
      <trkpt lat="47.36088" lon="0.07931">
        <ele>103</ele>
        <time>2010-06-26T17:58:23Z</time>
      </trkpt>
      <trkpt lat="47.36113" lon="0.07937">
        <ele>105</ele>
        <time>2010-06-26T17:58:28Z</time>
      </trkpt>
      <trkpt lat="47.3614" lon="0.07943">
        <ele>106</ele>
        <time>2010-06-26T17:58:33Z</time>
      </trkpt>
      <trkpt lat="47.36171" lon="0.07949">
        <ele>108</ele>
        <time>2010-06-26T17:58:38Z</time>
      </trkpt>
      <trkpt lat="47.36195" lon="0.07955">
        <ele>107</ele>
        <time>2010-06-26T17:58:43Z</time>
      </trkpt>
      <trkpt lat="47.36214" lon="0.07962">
        <ele>106</ele>
        <time>2010-06-26T17:58:48Z</time>
      </trkpt>
      <trkpt lat="47.36242" lon="0.07967">
        <ele>106</ele>
        <time>2010-06-26T17:58:53Z</time>
      </trkpt>
      <trkpt lat="47.36273" lon="0.07973">
        <ele>104</ele>
        <time>2010-06-26T17:58:58Z</time>
      </trkpt>
      <trkpt lat="47.363" lon="0.0798">
        <ele>104</ele>
        <time>2010-06-26T17:59:03Z</time>
      </trkpt>
      <trkpt lat="47.3632" lon="0.07986">
        <ele>105</ele>
        <time>2010-06-26T17:59:08Z</time>
      </trkpt>
      <trkpt lat="47.3635" lon="0.0799">
        <ele>105</ele>
        <time>2010-06-26T17:59:13Z</time>
      </trkpt>
      <trkpt lat="47.36389" lon="0.07996">
        <ele>106</ele>
        <time>2010-06-26T17:59:18Z</time>
      </trkpt>
      <trkpt lat="47.36423" lon="0.08002">
        <ele>106</ele>
        <time>2010-06-26T17:59:23Z</time>
      </trkpt>
      <trkpt lat="47.36453" lon="0.0801">
        <ele>106</ele>
        <time>2010-06-26T17:59:28Z</time>
      </trkpt>
      <trkpt lat="47.36478" lon="0.08014">
        <ele>106</ele>
        <time>2010-06-26T17:59:33Z</time>
      </trkpt>
      <trkpt lat="47.36508" lon="0.08021">
        <ele>106</ele>
        <time>2010-06-26T17:59:38Z</time>
      </trkpt>
      <trkpt lat="47.36542" lon="0.0803">
        <ele>107</ele>
        <time>2010-06-26T17:59:43Z</time>
      </trkpt>
      <trkpt lat="47.3657" lon="0.08035">
        <ele>107</ele>
        <time>2010-06-26T17:59:48Z</time>
      </trkpt>
      <trkpt lat="47.36593" lon="0.08042">
        <ele>108</ele>
        <time>2010-06-26T17:59:53Z</time>
      </trkpt>
      <trkpt lat="47.36622" lon="0.08046">
        <ele>108</ele>
        <time>2010-06-26T17:59:58Z</time>
      </trkpt>
      <trkpt lat="47.3665" lon="0.08052">
        <ele>109</ele>
        <time>2010-06-26T18:00:03Z</time>
      </trkpt>
      <trkpt lat="47.36689" lon="0.08063">
        <ele>110</ele>
        <time>2010-06-26T18:00:08Z</time>
      </trkpt>
      <trkpt lat="47.36723" lon="0.0807">
        <ele>110</ele>
        <time>2010-06-26T18:00:13Z</time>
      </trkpt>
      <trkpt lat="47.36748" lon="0.08075">
        <ele>111</ele>
        <time>2010-06-26T18:00:18Z</time>
      </trkpt>
      <trkpt lat="47.36782" lon="0.0808">
        <ele>111</ele>
        <time>2010-06-26T18:00:23Z</time>
      </trkpt>
      <trkpt lat="47.3683" lon="0.08075">
        <ele>111</ele>
        <time>2010-06-26T18:00:28Z</time>
      </trkpt>
      <trkpt lat="47.36873" lon="0.08075">
        <ele>111</ele>
        <time>2010-06-26T18:00:33Z</time>
      </trkpt>
      <trkpt lat="47.36906" lon="0.08079">
        <ele>111</ele>
        <time>2010-06-26T18:00:38Z</time>
      </trkpt>
      <trkpt lat="47.36936" lon="0.08089">
        <ele>110</ele>
        <time>2010-06-26T18:00:43Z</time>
      </trkpt>
      <trkpt lat="47.3698" lon="0.08098">
        <ele>109</ele>
        <time>2010-06-26T18:00:48Z</time>
      </trkpt>
      <trkpt lat="47.37027" lon="0.08108">
        <ele>107</ele>
        <time>2010-06-26T18:00:53Z</time>
      </trkpt>
      <trkpt lat="47.37069" lon="0.08112">
        <ele>107</ele>
        <time>2010-06-26T18:00:58Z</time>
      </trkpt>
      <trkpt lat="47.37105" lon="0.08112">
        <ele>105</ele>
        <time>2010-06-26T18:01:03Z</time>
      </trkpt>
      <trkpt lat="47.37142" lon="0.08118">
        <ele>104</ele>
        <time>2010-06-26T18:01:08Z</time>
      </trkpt>
      <trkpt lat="47.37189" lon="0.08123">
        <ele>103</ele>
        <time>2010-06-26T18:01:13Z</time>
      </trkpt>
      <trkpt lat="47.37227" lon="0.08125">
        <ele>102</ele>
        <time>2010-06-26T18:01:18Z</time>
      </trkpt>
      <trkpt lat="47.37264" lon="0.08119">
        <ele>102</ele>
        <time>2010-06-26T18:01:23Z</time>
      </trkpt>
      <trkpt lat="47.37293" lon="0.0811">
        <ele>102</ele>
        <time>2010-06-26T18:01:28Z</time>
      </trkpt>
      <trkpt lat="47.37329" lon="0.08098">
        <ele>102</ele>
        <time>2010-06-26T18:01:33Z</time>
      </trkpt>
      <trkpt lat="47.37371" lon="0.08082">
        <ele>103</ele>
        <time>2010-06-26T18:01:38Z</time>
      </trkpt>
      <trkpt lat="47.37403" lon="0.08067">
        <ele>103</ele>
        <time>2010-06-26T18:01:43Z</time>
      </trkpt>
      <trkpt lat="47.37426" lon="0.08051">
        <ele>105</ele>
        <time>2010-06-26T18:01:48Z</time>
      </trkpt>
      <trkpt lat="47.3746" lon="0.08038">
        <ele>106</ele>
        <time>2010-06-26T18:01:53Z</time>
      </trkpt>
      <trkpt lat="47.37485" lon="0.08035">
        <ele>106</ele>
        <time>2010-06-26T18:01:58Z</time>
      </trkpt>
      <trkpt lat="47.37523" lon="0.08025">
        <ele>107</ele>
        <time>2010-06-26T18:02:03Z</time>
      </trkpt>
      <trkpt lat="47.37555" lon="0.08017">
        <ele>108</ele>
        <time>2010-06-26T18:02:08Z</time>
      </trkpt>
      <trkpt lat="47.37581" lon="0.08018">
        <ele>108</ele>
        <time>2010-06-26T18:02:13Z</time>
      </trkpt>
      <trkpt lat="47.37613" lon="0.08019">
        <ele>107</ele>
        <time>2010-06-26T18:02:18Z</time>
      </trkpt>
      <trkpt lat="47.37654" lon="0.08021">
        <ele>107</ele>
        <time>2010-06-26T18:02:23Z</time>
      </trkpt>
      <trkpt lat="47.37687" lon="0.08021">
        <ele>107</ele>
        <time>2010-06-26T18:02:28Z</time>
      </trkpt>
      <trkpt lat="47.37716" lon="0.08021">
        <ele>107</ele>
        <time>2010-06-26T18:02:33Z</time>
      </trkpt>
      <trkpt lat="47.37751" lon="0.08021">
        <ele>107</ele>
        <time>2010-06-26T18:02:38Z</time>
      </trkpt>
      <trkpt lat="47.37789" lon="0.0802">
        <ele>108</ele>
        <time>2010-06-26T18:02:43Z</time>
      </trkpt>
      <trkpt lat="47.37836" lon="0.0802">
        <ele>109</ele>
        <time>2010-06-26T18:02:48Z</time>
      </trkpt>
      <trkpt lat="47.37877" lon="0.0802">
        <ele>107</ele>
        <time>2010-06-26T18:02:53Z</time>
      </trkpt>
      <trkpt lat="47.37911" lon="0.08019">
        <ele>105</ele>
        <time>2010-06-26T18:02:58Z</time>
      </trkpt>
      <trkpt lat="47.37952" lon="0.08019">
        <ele>103</ele>
        <time>2010-06-26T18:03:03Z</time>
      </trkpt>
      <trkpt lat="47.38" lon="0.08019">
        <ele>103</ele>
        <time>2010-06-26T18:03:08Z</time>
      </trkpt>
      <trkpt lat="47.38037" lon="0.08016">
        <ele>102</ele>
        <time>2010-06-26T18:03:13Z</time>
      </trkpt>
      <trkpt lat="47.38064" lon="0.08015">
        <ele>102</ele>
        <time>2010-06-26T18:03:18Z</time>
      </trkpt>
      <trkpt lat="47.38107" lon="0.08011">
        <ele>99</ele>
        <time>2010-06-26T18:03:23Z</time>
      </trkpt>
      <trkpt lat="47.38166" lon="0.08007">
        <ele>96</ele>
        <time>2010-06-26T18:03:28Z</time>
      </trkpt>
      <trkpt lat="47.38222" lon="0.07998">
        <ele>95</ele>
        <time>2010-06-26T18:03:33Z</time>
      </trkpt>
      <trkpt lat="47.38277" lon="0.07989">
        <ele>91</ele>
        <time>2010-06-26T18:03:38Z</time>
      </trkpt>
      <trkpt lat="47.38319" lon="0.07981">
        <ele>89</ele>
        <time>2010-06-26T18:03:43Z</time>
      </trkpt>
      <trkpt lat="47.38375" lon="0.07971">
        <ele>83</ele>
        <time>2010-06-26T18:03:48Z</time>
      </trkpt>
      <trkpt lat="47.38433" lon="0.07961">
        <ele>77</ele>
        <time>2010-06-26T18:03:53Z</time>
      </trkpt>
      <trkpt lat="47.38504" lon="0.0796">
        <ele>72</ele>
        <time>2010-06-26T18:03:58Z</time>
      </trkpt>
      <trkpt lat="47.38564" lon="0.07963">
        <ele>71</ele>
        <time>2010-06-26T18:04:03Z</time>
      </trkpt>
      <trkpt lat="47.38611" lon="0.07968">
        <ele>69</ele>
        <time>2010-06-26T18:04:08Z</time>
      </trkpt>
      <trkpt lat="47.38664" lon="0.0797">
        <ele>69</ele>
        <time>2010-06-26T18:04:13Z</time>
      </trkpt>
      <trkpt lat="47.38709" lon="0.07986">
        <ele>67</ele>
        <time>2010-06-26T18:04:18Z</time>
      </trkpt>
      <trkpt lat="47.38717" lon="0.07987">
        <ele>67</ele>
        <time>2010-06-26T18:04:23Z</time>
      </trkpt>
      <trkpt lat="47.38716" lon="0.07988">
        <ele>67</ele>
        <time>2010-06-26T18:04:28Z</time>
      </trkpt>
      <trkpt lat="47.38714" lon="0.07986">
        <ele>67</ele>
        <time>2010-06-26T18:04:33Z</time>
      </trkpt>
      <trkpt lat="47.38713" lon="0.07985">
        <ele>67</ele>
        <time>2010-06-26T18:04:38Z</time>
      </trkpt>
      <trkpt lat="47.38714" lon="0.07982">
        <ele>67</ele>
        <time>2010-06-26T18:04:43Z</time>
      </trkpt>
      <trkpt lat="47.38715" lon="0.07981">
        <ele>67</ele>
        <time>2010-06-26T18:04:48Z</time>
      </trkpt>
      <trkpt lat="47.38717" lon="0.0798">
        <ele>67</ele>
        <time>2010-06-26T18:04:53Z</time>
      </trkpt>
      <trkpt lat="47.38719" lon="0.07978">
        <ele>67</ele>
        <time>2010-06-26T18:04:58Z</time>
      </trkpt>
      <trkpt lat="47.3872" lon="0.07976">
        <ele>67</ele>
        <time>2010-06-26T18:05:03Z</time>
      </trkpt>
      <trkpt lat="47.38721" lon="0.07975">
        <ele>67</ele>
        <time>2010-06-26T18:05:08Z</time>
      </trkpt>
      <trkpt lat="47.38722" lon="0.07972">
        <ele>67</ele>
        <time>2010-06-26T18:05:13Z</time>
      </trkpt>
      <trkpt lat="47.38723" lon="0.07974">
        <ele>67</ele>
        <time>2010-06-26T18:05:18Z</time>
      </trkpt>
      <trkpt lat="47.38726" lon="0.0798">
        <ele>67</ele>
        <time>2010-06-26T18:05:23Z</time>
      </trkpt>
      <trkpt lat="47.38726" lon="0.07983">
        <ele>67</ele>
        <time>2010-06-26T18:05:28Z</time>
      </trkpt>
      <trkpt lat="47.38726" lon="0.07988">
        <ele>67</ele>
        <time>2010-06-26T18:05:33Z</time>
      </trkpt>
      <trkpt lat="47.38724" lon="0.0799">
        <ele>67</ele>
        <time>2010-06-26T18:05:38Z</time>
      </trkpt>
      <trkpt lat="47.38722" lon="0.07994">
        <ele>67</ele>
        <time>2010-06-26T18:05:43Z</time>
      </trkpt>
      <trkpt lat="47.38727" lon="0.08004">
        <ele>67</ele>
        <time>2010-06-26T18:05:48Z</time>
      </trkpt>
      <trkpt lat="47.38732" lon="0.08002">
        <ele>67</ele>
        <time>2010-06-26T18:05:53Z</time>
      </trkpt>
      <trkpt lat="47.38736" lon="0.07998">
        <ele>67</ele>
        <time>2010-06-26T18:05:58Z</time>
      </trkpt>
      <trkpt lat="47.38736" lon="0.07996">
        <ele>67</ele>
        <time>2010-06-26T18:06:03Z</time>
      </trkpt>
      <trkpt lat="47.38738" lon="0.07993">
        <ele>67</ele>
        <time>2010-06-26T18:06:08Z</time>
      </trkpt>
      <trkpt lat="47.38736" lon="0.07991">
        <ele>67</ele>
        <time>2010-06-26T18:06:13Z</time>
      </trkpt>
      <trkpt lat="47.38731" lon="0.07991">
        <ele>67</ele>
        <time>2010-06-26T18:06:18Z</time>
      </trkpt>
      <trkpt lat="47.3873" lon="0.0799">
        <ele>67</ele>
        <time>2010-06-26T18:06:23Z</time>
      </trkpt>
      <trkpt lat="47.38731" lon="0.07989">
        <ele>67</ele>
        <time>2010-06-26T18:06:28Z</time>
      </trkpt>
      <trkpt lat="47.38733" lon="0.07988">
        <ele>67</ele>
        <time>2010-06-26T18:06:33Z</time>
      </trkpt>
      <trkpt lat="47.38731" lon="0.07987">
        <ele>67</ele>
        <time>2010-06-26T18:06:38Z</time>
      </trkpt>
      <trkpt lat="47.3873" lon="0.07987">
        <ele>67</ele>
        <time>2010-06-26T18:06:43Z</time>
      </trkpt>
      <trkpt lat="47.38728" lon="0.07989">
        <ele>67</ele>
        <time>2010-06-26T18:06:48Z</time>
      </trkpt>
      <trkpt lat="47.38728" lon="0.07993">
        <ele>67</ele>
        <time>2010-06-26T18:06:53Z</time>
      </trkpt>
      <trkpt lat="47.3873" lon="0.07998">
        <ele>67</ele>
        <time>2010-06-26T18:06:58Z</time>
      </trkpt>
      <trkpt lat="47.38731" lon="0.08">
        <ele>67</ele>
        <time>2010-06-26T18:07:03Z</time>
      </trkpt>
      <trkpt lat="47.3873" lon="0.07998">
        <ele>67</ele>
        <time>2010-06-26T18:07:08Z</time>
      </trkpt>
      <trkpt lat="47.38729" lon="0.07998">
        <ele>67</ele>
        <time>2010-06-26T18:07:13Z</time>
      </trkpt>
      <trkpt lat="47.3873" lon="0.07996">
        <ele>67</ele>
        <time>2010-06-26T18:07:18Z</time>
      </trkpt>
      <trkpt lat="47.38727" lon="0.07998">
        <ele>67</ele>
        <time>2010-06-26T18:07:23Z</time>
      </trkpt>
      <trkpt lat="47.38725" lon="0.07996">
        <ele>67</ele>
        <time>2010-06-26T18:07:28Z</time>
      </trkpt>
      <trkpt lat="47.38728" lon="0.07996">
        <ele>67</ele>
        <time>2010-06-26T18:07:33Z</time>
      </trkpt>
      <trkpt lat="47.38728" lon="0.08">
        <ele>67</ele>
        <time>2010-06-26T18:07:38Z</time>
      </trkpt>
      <trkpt lat="47.38726" lon="0.07998">
        <ele>67</ele>
        <time>2010-06-26T18:07:43Z</time>
      </trkpt>
      <trkpt lat="47.3873" lon="0.07995">
        <ele>67</ele>
        <time>2010-06-26T18:07:48Z</time>
      </trkpt>
      <trkpt lat="47.3873" lon="0.07993">
        <ele>67</ele>
        <time>2010-06-26T18:07:53Z</time>
      </trkpt>
      <trkpt lat="47.38734" lon="0.07991">
        <ele>67</ele>
        <time>2010-06-26T18:07:58Z</time>
      </trkpt>
      <trkpt lat="47.38732" lon="0.07989">
        <ele>67</ele>
        <time>2010-06-26T18:08:03Z</time>
      </trkpt>
      <trkpt lat="47.38733" lon="0.07987">
        <ele>67</ele>
        <time>2010-06-26T18:08:08Z</time>
      </trkpt>
      <trkpt lat="47.38733" lon="0.07985">
        <ele>67</ele>
        <time>2010-06-26T18:08:13Z</time>
      </trkpt>
      <trkpt lat="47.38733" lon="0.07986">
        <ele>67</ele>
        <time>2010-06-26T18:08:18Z</time>
      </trkpt>
      <trkpt lat="47.38731" lon="0.07988">
        <ele>67</ele>
        <time>2010-06-26T18:08:23Z</time>
      </trkpt>
      <trkpt lat="47.38732" lon="0.07994">
        <ele>67</ele>
        <time>2010-06-26T18:08:28Z</time>
      </trkpt>
      <trkpt lat="47.38739" lon="0.08005">
        <ele>66</ele>
        <time>2010-06-26T18:08:33Z</time>
      </trkpt>
      <trkpt lat="47.38752" lon="0.08018">
        <ele>66</ele>
        <time>2010-06-26T18:08:38Z</time>
      </trkpt>
      <trkpt lat="47.38779" lon="0.08038">
        <ele>65</ele>
        <time>2010-06-26T18:08:43Z</time>
      </trkpt>
      <trkpt lat="47.38812" lon="0.08069">
        <ele>65</ele>
        <time>2010-06-26T18:08:48Z</time>
      </trkpt>
      <trkpt lat="47.38841" lon="0.08101">
        <ele>64</ele>
        <time>2010-06-26T18:08:53Z</time>
      </trkpt>
      <trkpt lat="47.38871" lon="0.08131">
        <ele>64</ele>
        <time>2010-06-26T18:08:58Z</time>
      </trkpt>
      <trkpt lat="47.38894" lon="0.08149">
        <ele>64</ele>
        <time>2010-06-26T18:09:03Z</time>
      </trkpt>
      <trkpt lat="47.38927" lon="0.08153">
        <ele>63</ele>
        <time>2010-06-26T18:09:08Z</time>
      </trkpt>
      <trkpt lat="47.3897" lon="0.08146">
        <ele>61</ele>
        <time>2010-06-26T18:09:13Z</time>
      </trkpt>
      <trkpt lat="47.39008" lon="0.08136">
        <ele>60</ele>
        <time>2010-06-26T18:09:18Z</time>
      </trkpt>
      <trkpt lat="47.39036" lon="0.08123">
        <ele>60</ele>
        <time>2010-06-26T18:09:23Z</time>
      </trkpt>
      <trkpt lat="47.39069" lon="0.08102">
        <ele>60</ele>
        <time>2010-06-26T18:09:28Z</time>
      </trkpt>
      <trkpt lat="47.39108" lon="0.08072">
        <ele>60</ele>
        <time>2010-06-26T18:09:33Z</time>
      </trkpt>
      <trkpt lat="47.39141" lon="0.08046">
        <ele>59</ele>
        <time>2010-06-26T18:09:38Z</time>
      </trkpt>
      <trkpt lat="47.39175" lon="0.0802">
        <ele>60</ele>
        <time>2010-06-26T18:09:43Z</time>
      </trkpt>
      <trkpt lat="47.39201" lon="0.08">
        <ele>60</ele>
        <time>2010-06-26T18:09:48Z</time>
      </trkpt>
      <trkpt lat="47.39233" lon="0.07976">
        <ele>60</ele>
        <time>2010-06-26T18:09:53Z</time>
      </trkpt>
      <trkpt lat="47.39274" lon="0.07951">
        <ele>59</ele>
        <time>2010-06-26T18:09:58Z</time>
      </trkpt>
      <trkpt lat="47.3931" lon="0.0794">
        <ele>59</ele>
        <time>2010-06-26T18:10:03Z</time>
      </trkpt>
      <trkpt lat="47.39347" lon="0.07936">
        <ele>59</ele>
        <time>2010-06-26T18:10:08Z</time>
      </trkpt>
      <trkpt lat="47.39376" lon="0.07934">
        <ele>58</ele>
        <time>2010-06-26T18:10:13Z</time>
      </trkpt>
      <trkpt lat="47.39422" lon="0.07931">
        <ele>57</ele>
        <time>2010-06-26T18:10:18Z</time>
      </trkpt>
      <trkpt lat="47.39459" lon="0.07929">
        <ele>57</ele>
        <time>2010-06-26T18:10:23Z</time>
      </trkpt>
      <trkpt lat="47.39498" lon="0.07926">
        <ele>57</ele>
        <time>2010-06-26T18:10:28Z</time>
      </trkpt>
      <trkpt lat="47.39527" lon="0.07924">
        <ele>57</ele>
        <time>2010-06-26T18:10:33Z</time>
      </trkpt>
      <trkpt lat="47.39562" lon="0.07921">
        <ele>58</ele>
        <time>2010-06-26T18:10:38Z</time>
      </trkpt>
      <trkpt lat="47.39611" lon="0.07918">
        <ele>58</ele>
        <time>2010-06-26T18:10:43Z</time>
      </trkpt>
      <trkpt lat="47.3965" lon="0.07917">
        <ele>58</ele>
        <time>2010-06-26T18:10:48Z</time>
      </trkpt>
      <trkpt lat="47.39689" lon="0.07914">
        <ele>58</ele>
        <time>2010-06-26T18:10:53Z</time>
      </trkpt>
      <trkpt lat="47.39717" lon="0.07907">
        <ele>58</ele>
        <time>2010-06-26T18:10:58Z</time>
      </trkpt>
      <trkpt lat="47.39757" lon="0.07904">
        <ele>57</ele>
        <time>2010-06-26T18:11:03Z</time>
      </trkpt>
      <trkpt lat="47.39803" lon="0.07901">
        <ele>58</ele>
        <time>2010-06-26T18:11:08Z</time>
      </trkpt>
      <trkpt lat="47.39841" lon="0.07898">
        <ele>59</ele>
        <time>2010-06-26T18:11:13Z</time>
      </trkpt>
      <trkpt lat="47.39871" lon="0.07896">
        <ele>59</ele>
        <time>2010-06-26T18:11:18Z</time>
      </trkpt>
      <trkpt lat="47.39911" lon="0.07892">
        <ele>60</ele>
        <time>2010-06-26T18:11:23Z</time>
      </trkpt>
      <trkpt lat="47.39944" lon="0.07864">
        <ele>62</ele>
        <time>2010-06-26T18:11:28Z</time>
      </trkpt>
      <trkpt lat="47.39981" lon="0.07831">
        <ele>63</ele>
        <time>2010-06-26T18:11:33Z</time>
      </trkpt>
      <trkpt lat="47.40013" lon="0.0781">
        <ele>67</ele>
        <time>2010-06-26T18:11:38Z</time>
      </trkpt>
      <trkpt lat="47.40037" lon="0.07793">
        <ele>67</ele>
        <time>2010-06-26T18:11:43Z</time>
      </trkpt>
      <trkpt lat="47.4007" lon="0.07774">
        <ele>68</ele>
        <time>2010-06-26T18:11:48Z</time>
      </trkpt>
      <trkpt lat="47.40109" lon="0.07745">
        <ele>70</ele>
        <time>2010-06-26T18:11:53Z</time>
      </trkpt>
      <trkpt lat="47.40139" lon="0.07727">
        <ele>70</ele>
        <time>2010-06-26T18:11:58Z</time>
      </trkpt>
      <trkpt lat="47.40165" lon="0.07723">
        <ele>70</ele>
        <time>2010-06-26T18:12:03Z</time>
      </trkpt>
      <trkpt lat="47.40198" lon="0.07719">
        <ele>69</ele>
        <time>2010-06-26T18:12:08Z</time>
      </trkpt>
      <trkpt lat="47.40237" lon="0.07716">
        <ele>69</ele>
        <time>2010-06-26T18:12:13Z</time>
      </trkpt>
      <trkpt lat="47.40295" lon="0.07714">
        <ele>63</ele>
        <time>2010-06-26T18:12:18Z</time>
      </trkpt>
      <trkpt lat="47.40344" lon="0.07711">
        <ele>57</ele>
        <time>2010-06-26T18:12:23Z</time>
      </trkpt>
      <trkpt lat="47.40383" lon="0.07711">
        <ele>56</ele>
        <time>2010-06-26T18:12:28Z</time>
      </trkpt>
      <trkpt lat="47.40433" lon="0.07717">
        <ele>53</ele>
        <time>2010-06-26T18:12:33Z</time>
      </trkpt>
      <trkpt lat="47.40486" lon="0.07729">
        <ele>54</ele>
        <time>2010-06-26T18:12:38Z</time>
      </trkpt>
      <trkpt lat="47.40529" lon="0.07737">
        <ele>52</ele>
        <time>2010-06-26T18:12:43Z</time>
      </trkpt>
      <trkpt lat="47.40563" lon="0.07745">
        <ele>52</ele>
        <time>2010-06-26T18:12:48Z</time>
      </trkpt>
      <trkpt lat="47.40603" lon="0.07747">
        <ele>51</ele>
        <time>2010-06-26T18:12:53Z</time>
      </trkpt>
      <trkpt lat="47.4065" lon="0.07746">
        <ele>52</ele>
        <time>2010-06-26T18:12:58Z</time>
      </trkpt>
      <trkpt lat="47.40688" lon="0.07744">
        <ele>52</ele>
        <time>2010-06-26T18:13:03Z</time>
      </trkpt>
      <trkpt lat="47.40727" lon="0.07746">
        <ele>52</ele>
        <time>2010-06-26T18:13:08Z</time>
      </trkpt>
      <trkpt lat="47.40752" lon="0.07762">
        <ele>53</ele>
        <time>2010-06-26T18:13:13Z</time>
      </trkpt>
      <trkpt lat="47.40781" lon="0.07794">
        <ele>54</ele>
        <time>2010-06-26T18:13:18Z</time>
      </trkpt>
      <trkpt lat="47.40816" lon="0.07833">
        <ele>54</ele>
        <time>2010-06-26T18:13:23Z</time>
      </trkpt>
      <trkpt lat="47.40856" lon="0.07841">
        <ele>53</ele>
        <time>2010-06-26T18:13:28Z</time>
      </trkpt>
      <trkpt lat="47.40896" lon="0.07843">
        <ele>52</ele>
        <time>2010-06-26T18:13:33Z</time>
      </trkpt>
      <trkpt lat="47.40928" lon="0.07842">
        <ele>51</ele>
        <time>2010-06-26T18:13:38Z</time>
      </trkpt>
      <trkpt lat="47.40967" lon="0.07829">
        <ele>51</ele>
        <time>2010-06-26T18:13:43Z</time>
      </trkpt>
      <trkpt lat="47.41015" lon="0.07817">
        <ele>51</ele>
        <time>2010-06-26T18:13:48Z</time>
      </trkpt>
      <trkpt lat="47.41056" lon="0.07822">
        <ele>51</ele>
        <time>2010-06-26T18:13:53Z</time>
      </trkpt>
      <trkpt lat="47.41088" lon="0.07828">
        <ele>52</ele>
        <time>2010-06-26T18:13:58Z</time>
      </trkpt>
      <trkpt lat="47.41127" lon="0.07834">
        <ele>52</ele>
        <time>2010-06-26T18:14:03Z</time>
      </trkpt>
      <trkpt lat="47.41166" lon="0.07837">
        <ele>50</ele>
        <time>2010-06-26T18:14:08Z</time>
      </trkpt>
      <trkpt lat="47.41212" lon="0.07841">
        <ele>50</ele>
        <time>2010-06-26T18:14:13Z</time>
      </trkpt>
      <trkpt lat="47.41251" lon="0.07842">
        <ele>49</ele>
        <time>2010-06-26T18:14:18Z</time>
      </trkpt>
      <trkpt lat="47.41281" lon="0.07842">
        <ele>49</ele>
        <time>2010-06-26T18:14:23Z</time>
      </trkpt>
      <trkpt lat="47.41318" lon="0.07841">
        <ele>50</ele>
        <time>2010-06-26T18:14:28Z</time>
      </trkpt>
      <trkpt lat="47.41363" lon="0.0784">
        <ele>50</ele>
        <time>2010-06-26T18:14:33Z</time>
      </trkpt>
      <trkpt lat="47.41401" lon="0.07839">
        <ele>50</ele>
        <time>2010-06-26T18:14:38Z</time>
      </trkpt>
      <trkpt lat="47.41432" lon="0.07839">
        <ele>50</ele>
        <time>2010-06-26T18:14:43Z</time>
      </trkpt>
      <trkpt lat="47.4147" lon="0.07839">
        <ele>50</ele>
        <time>2010-06-26T18:14:48Z</time>
      </trkpt>
      <trkpt lat="47.41517" lon="0.07838">
        <ele>50</ele>
        <time>2010-06-26T18:14:53Z</time>
      </trkpt>
      <trkpt lat="47.41555" lon="0.07837">
        <ele>49</ele>
        <time>2010-06-26T18:14:58Z</time>
      </trkpt>
      <trkpt lat="47.41594" lon="0.07836">
        <ele>49</ele>
        <time>2010-06-26T18:15:03Z</time>
      </trkpt>
      <trkpt lat="47.41624" lon="0.07835">
        <ele>49</ele>
        <time>2010-06-26T18:15:08Z</time>
      </trkpt>
      <trkpt lat="47.41663" lon="0.07835">
        <ele>49</ele>
        <time>2010-06-26T18:15:13Z</time>
      </trkpt>
      <trkpt lat="47.4171" lon="0.07835">
        <ele>49</ele>
        <time>2010-06-26T18:15:18Z</time>
      </trkpt>
      <trkpt lat="47.4175" lon="0.07835">
        <ele>48</ele>
        <time>2010-06-26T18:15:23Z</time>
      </trkpt>
      <trkpt lat="47.41782" lon="0.07834">
        <ele>48</ele>
        <time>2010-06-26T18:15:28Z</time>
      </trkpt>
      <trkpt lat="47.41822" lon="0.07833">
        <ele>48</ele>
        <time>2010-06-26T18:15:33Z</time>
      </trkpt>
      <trkpt lat="47.41861" lon="0.07833">
        <ele>50</ele>
        <time>2010-06-26T18:15:38Z</time>
      </trkpt>
      <trkpt lat="47.41906" lon="0.07832">
        <ele>50</ele>
        <time>2010-06-26T18:15:43Z</time>
      </trkpt>
      <trkpt lat="47.41945" lon="0.07833">
        <ele>52</ele>
        <time>2010-06-26T18:15:48Z</time>
      </trkpt>
      <trkpt lat="47.41977" lon="0.07832">
        <ele>53</ele>
        <time>2010-06-26T18:15:53Z</time>
      </trkpt>
      <trkpt lat="47.42014" lon="0.07839">
        <ele>51</ele>
        <time>2010-06-26T18:15:58Z</time>
      </trkpt>
      <trkpt lat="47.42058" lon="0.07841">
        <ele>50</ele>
        <time>2010-06-26T18:16:03Z</time>
      </trkpt>
      <trkpt lat="47.42096" lon="0.07836">
        <ele>51</ele>
        <time>2010-06-26T18:16:08Z</time>
      </trkpt>
      <trkpt lat="47.42135" lon="0.07834">
        <ele>52</ele>
        <time>2010-06-26T18:16:13Z</time>
      </trkpt>
      <trkpt lat="47.42167" lon="0.07832">
        <ele>53</ele>
        <time>2010-06-26T18:16:18Z</time>
      </trkpt>
      <trkpt lat="47.42206" lon="0.0783">
        <ele>54</ele>
        <time>2010-06-26T18:16:23Z</time>
      </trkpt>
      <trkpt lat="47.42253" lon="0.07828">
        <ele>53</ele>
        <time>2010-06-26T18:16:28Z</time>
      </trkpt>
      <trkpt lat="47.42292" lon="0.07828">
        <ele>53</ele>
        <time>2010-06-26T18:16:33Z</time>
      </trkpt>
      <trkpt lat="47.42323" lon="0.07828">
        <ele>52</ele>
        <time>2010-06-26T18:16:38Z</time>
      </trkpt>
      <trkpt lat="47.42363" lon="0.07825">
        <ele>52</ele>
        <time>2010-06-26T18:16:43Z</time>
      </trkpt>
      <trkpt lat="47.42403" lon="0.07825">
        <ele>51</ele>
        <time>2010-06-26T18:16:48Z</time>
      </trkpt>
      <trkpt lat="47.42451" lon="0.07825">
        <ele>51</ele>
        <time>2010-06-26T18:16:53Z</time>
      </trkpt>
      <trkpt lat="47.42489" lon="0.07825">
        <ele>52</ele>
        <time>2010-06-26T18:16:58Z</time>
      </trkpt>
      <trkpt lat="47.42518" lon="0.07823">
        <ele>52</ele>
        <time>2010-06-26T18:17:03Z</time>
      </trkpt>
      <trkpt lat="47.42555" lon="0.07822">
        <ele>53</ele>
        <time>2010-06-26T18:17:08Z</time>
      </trkpt>
      <trkpt lat="47.426" lon="0.07822">
        <ele>55</ele>
        <time>2010-06-26T18:17:13Z</time>
      </trkpt>
      <trkpt lat="47.42638" lon="0.07823">
        <ele>55</ele>
        <time>2010-06-26T18:17:18Z</time>
      </trkpt>
      <trkpt lat="47.42666" lon="0.0782">
        <ele>55</ele>
        <time>2010-06-26T18:17:23Z</time>
      </trkpt>
      <trkpt lat="47.42704" lon="0.07819">
        <ele>56</ele>
        <time>2010-06-26T18:17:28Z</time>
      </trkpt>
      <trkpt lat="47.42743" lon="0.07822">
        <ele>57</ele>
        <time>2010-06-26T18:17:33Z</time>
      </trkpt>
      <trkpt lat="47.42788" lon="0.07823">
        <ele>58</ele>
        <time>2010-06-26T18:17:38Z</time>
      </trkpt>
      <trkpt lat="47.42826" lon="0.07823">
        <ele>59</ele>
        <time>2010-06-26T18:17:43Z</time>
      </trkpt>
      <trkpt lat="47.42856" lon="0.07821">
        <ele>59</ele>
        <time>2010-06-26T18:17:48Z</time>
      </trkpt>
      <trkpt lat="47.42895" lon="0.07822">
        <ele>59</ele>
        <time>2010-06-26T18:17:53Z</time>
      </trkpt>
      <trkpt lat="47.42942" lon="0.07823">
        <ele>59</ele>
        <time>2010-06-26T18:17:58Z</time>
      </trkpt>
      <trkpt lat="47.42977" lon="0.07818">
        <ele>59</ele>
        <time>2010-06-26T18:18:03Z</time>
      </trkpt>
      <trkpt lat="47.43006" lon="0.07815">
        <ele>60</ele>
        <time>2010-06-26T18:18:08Z</time>
      </trkpt>
      <trkpt lat="47.43042" lon="0.07812">
        <ele>60</ele>
        <time>2010-06-26T18:18:13Z</time>
      </trkpt>
      <trkpt lat="47.43078" lon="0.07815">
        <ele>60</ele>
        <time>2010-06-26T18:18:18Z</time>
      </trkpt>
      <trkpt lat="47.43125" lon="0.07814">
        <ele>59</ele>
        <time>2010-06-26T18:18:23Z</time>
      </trkpt>
      <trkpt lat="47.43166" lon="0.07813">
        <ele>57</ele>
        <time>2010-06-26T18:18:28Z</time>
      </trkpt>
      <trkpt lat="47.43199" lon="0.07815">
        <ele>55</ele>
        <time>2010-06-26T18:18:33Z</time>
      </trkpt>
      <trkpt lat="47.43235" lon="0.0782">
        <ele>53</ele>
        <time>2010-06-26T18:18:38Z</time>
      </trkpt>
      <trkpt lat="47.43282" lon="0.07818">
        <ele>53</ele>
        <time>2010-06-26T18:18:43Z</time>
      </trkpt>
      <trkpt lat="47.43323" lon="0.07816">
        <ele>53</ele>
        <time>2010-06-26T18:18:48Z</time>
      </trkpt>
      <trkpt lat="47.43355" lon="0.07815">
        <ele>56</ele>
        <time>2010-06-26T18:18:53Z</time>
      </trkpt>
      <trkpt lat="47.43395" lon="0.07813">
        <ele>58</ele>
        <time>2010-06-26T18:18:58Z</time>
      </trkpt>
      <trkpt lat="47.43435" lon="0.07811">
        <ele>60</ele>
        <time>2010-06-26T18:19:03Z</time>
      </trkpt>
      <trkpt lat="47.43481" lon="0.0781">
        <ele>60</ele>
        <time>2010-06-26T18:19:08Z</time>
      </trkpt>
      <trkpt lat="47.43523" lon="0.0781">
        <ele>58</ele>
        <time>2010-06-26T18:19:13Z</time>
      </trkpt>
      <trkpt lat="47.43556" lon="0.0781">
        <ele>57</ele>
        <time>2010-06-26T18:19:18Z</time>
      </trkpt>
      <trkpt lat="47.43598" lon="0.0781">
        <ele>54</ele>
        <time>2010-06-26T18:19:23Z</time>
      </trkpt>
      <trkpt lat="47.43646" lon="0.0781">
        <ele>52</ele>
        <time>2010-06-26T18:19:28Z</time>
      </trkpt>
      <trkpt lat="47.43689" lon="0.07806">
        <ele>52</ele>
        <time>2010-06-26T18:19:33Z</time>
      </trkpt>
      <trkpt lat="47.43728" lon="0.07806">
        <ele>53</ele>
        <time>2010-06-26T18:19:38Z</time>
      </trkpt>
      <trkpt lat="47.43756" lon="0.07805">
        <ele>54</ele>
        <time>2010-06-26T18:19:43Z</time>
      </trkpt>
      <trkpt lat="47.43798" lon="0.07806">
        <ele>54</ele>
        <time>2010-06-26T18:19:48Z</time>
      </trkpt>
      <trkpt lat="47.43834" lon="0.07805">
        <ele>54</ele>
        <time>2010-06-26T18:19:53Z</time>
      </trkpt>
      <trkpt lat="47.43871" lon="0.07805">
        <ele>54</ele>
        <time>2010-06-26T18:19:58Z</time>
      </trkpt>
      <trkpt lat="47.439" lon="0.07805">
        <ele>54</ele>
        <time>2010-06-26T18:20:03Z</time>
      </trkpt>
      <trkpt lat="47.43937" lon="0.07804">
        <ele>54</ele>
        <time>2010-06-26T18:20:08Z</time>
      </trkpt>
      <trkpt lat="47.43982" lon="0.07804">
        <ele>54</ele>
        <time>2010-06-26T18:20:13Z</time>
      </trkpt>
      <trkpt lat="47.44022" lon="0.07805">
        <ele>54</ele>
        <time>2010-06-26T18:20:18Z</time>
      </trkpt>
      <trkpt lat="47.44059" lon="0.07806">
        <ele>54</ele>
        <time>2010-06-26T18:20:23Z</time>
      </trkpt>
      <trkpt lat="47.44088" lon="0.07807">
        <ele>54</ele>
        <time>2010-06-26T18:20:28Z</time>
      </trkpt>
      <trkpt lat="47.44127" lon="0.07805">
        <ele>54</ele>
        <time>2010-06-26T18:20:33Z</time>
      </trkpt>
      <trkpt lat="47.44172" lon="0.07804">
        <ele>55</ele>
        <time>2010-06-26T18:20:38Z</time>
      </trkpt>
      <trkpt lat="47.44213" lon="0.07802">
        <ele>56</ele>
        <time>2010-06-26T18:20:43Z</time>
      </trkpt>
      <trkpt lat="47.44238" lon="0.07804">
        <ele>56</ele>
        <time>2010-06-26T18:20:48Z</time>
      </trkpt>
      <trkpt lat="47.44274" lon="0.07809">
        <ele>57</ele>
        <time>2010-06-26T18:20:53Z</time>
      </trkpt>
      <trkpt lat="47.44313" lon="0.07804">
        <ele>57</ele>
        <time>2010-06-26T18:20:58Z</time>
      </trkpt>
      <trkpt lat="47.44356" lon="0.07802">
        <ele>59</ele>
        <time>2010-06-26T18:21:03Z</time>
      </trkpt>
      <trkpt lat="47.44387" lon="0.07795">
        <ele>60</ele>
        <time>2010-06-26T18:21:08Z</time>
      </trkpt>
      <trkpt lat="47.44417" lon="0.07796">
        <ele>62</ele>
        <time>2010-06-26T18:21:13Z</time>
      </trkpt>
      <trkpt lat="47.4446" lon="0.07805">
        <ele>62</ele>
        <time>2010-06-26T18:21:18Z</time>
      </trkpt>
      <trkpt lat="47.44512" lon="0.07799">
        <ele>61</ele>
        <time>2010-06-26T18:21:23Z</time>
      </trkpt>
      <trkpt lat="47.44541" lon="0.07792">
        <ele>61</ele>
        <time>2010-06-26T18:21:28Z</time>
      </trkpt>
      <trkpt lat="47.44565" lon="0.07792">
        <ele>60</ele>
        <time>2010-06-26T18:21:33Z</time>
      </trkpt>
      <trkpt lat="47.44608" lon="0.07795">
        <ele>58</ele>
        <time>2010-06-26T18:21:38Z</time>
      </trkpt>
      <trkpt lat="47.44651" lon="0.07795">
        <ele>58</ele>
        <time>2010-06-26T18:21:43Z</time>
      </trkpt>
      <trkpt lat="47.44699" lon="0.07801">
        <ele>58</ele>
        <time>2010-06-26T18:21:48Z</time>
      </trkpt>
      <trkpt lat="47.44734" lon="0.07804">
        <ele>58</ele>
        <time>2010-06-26T18:21:53Z</time>
      </trkpt>
      <trkpt lat="47.44765" lon="0.07805">
        <ele>58</ele>
        <time>2010-06-26T18:21:58Z</time>
      </trkpt>
      <trkpt lat="47.44803" lon="0.07804">
        <ele>57</ele>
        <time>2010-06-26T18:22:03Z</time>
      </trkpt>
      <trkpt lat="47.44836" lon="0.07802">
        <ele>56</ele>
        <time>2010-06-26T18:22:08Z</time>
      </trkpt>
      <trkpt lat="47.44865" lon="0.07799">
        <ele>56</ele>
        <time>2010-06-26T18:22:13Z</time>
      </trkpt>
      <trkpt lat="47.44886" lon="0.07795">
        <ele>56</ele>
        <time>2010-06-26T18:22:18Z</time>
      </trkpt>
      <trkpt lat="47.4492" lon="0.07797">
        <ele>56</ele>
        <time>2010-06-26T18:22:23Z</time>
      </trkpt>
      <trkpt lat="47.4495" lon="0.07797">
        <ele>56</ele>
        <time>2010-06-26T18:22:28Z</time>
      </trkpt>
      <trkpt lat="47.4499" lon="0.0779">
        <ele>55</ele>
        <time>2010-06-26T18:22:33Z</time>
      </trkpt>
      <trkpt lat="47.45026" lon="0.07792">
        <ele>56</ele>
        <time>2010-06-26T18:22:38Z</time>
      </trkpt>
      <trkpt lat="47.45054" lon="0.07795">
        <ele>56</ele>
        <time>2010-06-26T18:22:43Z</time>
      </trkpt>
      <trkpt lat="47.45094" lon="0.07798">
        <ele>57</ele>
        <time>2010-06-26T18:22:48Z</time>
      </trkpt>
      <trkpt lat="47.45137" lon="0.07799">
        <ele>58</ele>
        <time>2010-06-26T18:22:53Z</time>
      </trkpt>
      <trkpt lat="47.45173" lon="0.07801">
        <ele>57</ele>
        <time>2010-06-26T18:22:58Z</time>
      </trkpt>
      <trkpt lat="47.45212" lon="0.07799">
        <ele>57</ele>
        <time>2010-06-26T18:23:03Z</time>
      </trkpt>
      <trkpt lat="47.45245" lon="0.07795">
        <ele>56</ele>
        <time>2010-06-26T18:23:08Z</time>
      </trkpt>
      <trkpt lat="47.45287" lon="0.07793">
        <ele>56</ele>
        <time>2010-06-26T18:23:13Z</time>
      </trkpt>
      <trkpt lat="47.45334" lon="0.07793">
        <ele>55</ele>
        <time>2010-06-26T18:23:18Z</time>
      </trkpt>
      <trkpt lat="47.45373" lon="0.07791">
        <ele>55</ele>
        <time>2010-06-26T18:23:23Z</time>
      </trkpt>
      <trkpt lat="47.45404" lon="0.07789">
        <ele>55</ele>
        <time>2010-06-26T18:23:28Z</time>
      </trkpt>
      <trkpt lat="47.45441" lon="0.07789">
        <ele>56</ele>
        <time>2010-06-26T18:23:33Z</time>
      </trkpt>
      <trkpt lat="47.45479" lon="0.07775">
        <ele>57</ele>
        <time>2010-06-26T18:23:38Z</time>
      </trkpt>
      <trkpt lat="47.45518" lon="0.07755">
        <ele>58</ele>
        <time>2010-06-26T18:23:43Z</time>
      </trkpt>
      <trkpt lat="47.45553" lon="0.07735">
        <ele>56</ele>
        <time>2010-06-26T18:23:48Z</time>
      </trkpt>
      <trkpt lat="47.45582" lon="0.07717">
        <ele>56</ele>
        <time>2010-06-26T18:23:53Z</time>
      </trkpt>
      <trkpt lat="47.45617" lon="0.07695">
        <ele>57</ele>
        <time>2010-06-26T18:23:58Z</time>
      </trkpt>
      <trkpt lat="47.4566" lon="0.07674">
        <ele>57</ele>
        <time>2010-06-26T18:24:03Z</time>
      </trkpt>
      <trkpt lat="47.45697" lon="0.0767">
        <ele>59</ele>
        <time>2010-06-26T18:24:08Z</time>
      </trkpt>
      <trkpt lat="47.45727" lon="0.07671">
        <ele>58</ele>
        <time>2010-06-26T18:24:13Z</time>
      </trkpt>
      <trkpt lat="47.45764" lon="0.07673">
        <ele>58</ele>
        <time>2010-06-26T18:24:18Z</time>
      </trkpt>
      <trkpt lat="47.45807" lon="0.07677">
        <ele>59</ele>
        <time>2010-06-26T18:24:23Z</time>
      </trkpt>
      <trkpt lat="47.45846" lon="0.07681">
        <ele>58</ele>
        <time>2010-06-26T18:24:28Z</time>
      </trkpt>
      <trkpt lat="47.45885" lon="0.07686">
        <ele>58</ele>
        <time>2010-06-26T18:24:33Z</time>
      </trkpt>
      <trkpt lat="47.45914" lon="0.07689">
        <ele>57</ele>
        <time>2010-06-26T18:24:38Z</time>
      </trkpt>
      <trkpt lat="47.45949" lon="0.07693">
        <ele>56</ele>
        <time>2010-06-26T18:24:43Z</time>
      </trkpt>
      <trkpt lat="47.45984" lon="0.07697">
        <ele>56</ele>
        <time>2010-06-26T18:24:48Z</time>
      </trkpt>
      <trkpt lat="47.45998" lon="0.07689">
        <ele>56</ele>
        <time>2010-06-26T18:24:53Z</time>
      </trkpt>
      <trkpt lat="47.46003" lon="0.07658">
        <ele>55</ele>
        <time>2010-06-26T18:24:58Z</time>
      </trkpt>
      <trkpt lat="47.4601" lon="0.0761">
        <ele>56</ele>
        <time>2010-06-26T18:25:03Z</time>
      </trkpt>
      <trkpt lat="47.46021" lon="0.0755">
        <ele>55</ele>
        <time>2010-06-26T18:25:08Z</time>
      </trkpt>
      <trkpt lat="47.4603" lon="0.07497">
        <ele>53</ele>
        <time>2010-06-26T18:25:13Z</time>
      </trkpt>
      <trkpt lat="47.4604" lon="0.07441">
        <ele>52</ele>
        <time>2010-06-26T18:25:18Z</time>
      </trkpt>
      <trkpt lat="47.46047" lon="0.07394">
        <ele>51</ele>
        <time>2010-06-26T18:25:23Z</time>
      </trkpt>
      <trkpt lat="47.46053" lon="0.0733">
        <ele>51</ele>
        <time>2010-06-26T18:25:28Z</time>
      </trkpt>
      <trkpt lat="47.46063" lon="0.07267">
        <ele>51</ele>
        <time>2010-06-26T18:25:33Z</time>
      </trkpt>
      <trkpt lat="47.46074" lon="0.07195">
        <ele>51</ele>
        <time>2010-06-26T18:25:38Z</time>
      </trkpt>
      <trkpt lat="47.46083" lon="0.07151">
        <ele>51</ele>
        <time>2010-06-26T18:25:43Z</time>
      </trkpt>
      <trkpt lat="47.46093" lon="0.0709">
        <ele>51</ele>
        <time>2010-06-26T18:25:48Z</time>
      </trkpt>
      <trkpt lat="47.46103" lon="0.07026">
        <ele>52</ele>
        <time>2010-06-26T18:25:53Z</time>
      </trkpt>
      <trkpt lat="47.46111" lon="0.06975">
        <ele>53</ele>
        <time>2010-06-26T18:25:58Z</time>
      </trkpt>
      <trkpt lat="47.4612" lon="0.06924">
        <ele>53</ele>
        <time>2010-06-26T18:26:03Z</time>
      </trkpt>
      <trkpt lat="47.46126" lon="0.06884">
        <ele>54</ele>
        <time>2010-06-26T18:26:08Z</time>
      </trkpt>
      <trkpt lat="47.46134" lon="0.06834">
        <ele>54</ele>
        <time>2010-06-26T18:26:13Z</time>
      </trkpt>
      <trkpt lat="47.46145" lon="0.06776">
        <ele>56</ele>
        <time>2010-06-26T18:26:18Z</time>
      </trkpt>
      <trkpt lat="47.46157" lon="0.06732">
        <ele>57</ele>
        <time>2010-06-26T18:26:23Z</time>
      </trkpt>
      <trkpt lat="47.46169" lon="0.06692">
        <ele>59</ele>
        <time>2010-06-26T18:26:28Z</time>
      </trkpt>
      <trkpt lat="47.46176" lon="0.0666">
        <ele>60</ele>
        <time>2010-06-26T18:26:33Z</time>
      </trkpt>
      <trkpt lat="47.46187" lon="0.06618">
        <ele>60</ele>
        <time>2010-06-26T18:26:38Z</time>
      </trkpt>
      <trkpt lat="47.46199" lon="0.06568">
        <ele>61</ele>
        <time>2010-06-26T18:26:43Z</time>
      </trkpt>
      <trkpt lat="47.46211" lon="0.06525">
        <ele>61</ele>
        <time>2010-06-26T18:26:48Z</time>
      </trkpt>
      <trkpt lat="47.46221" lon="0.0649">
        <ele>61</ele>
        <time>2010-06-26T18:26:53Z</time>
      </trkpt>
      <trkpt lat="47.46232" lon="0.0645">
        <ele>61</ele>
        <time>2010-06-26T18:26:58Z</time>
      </trkpt>
      <trkpt lat="47.46242" lon="0.0641">
        <ele>62</ele>
        <time>2010-06-26T18:27:03Z</time>
      </trkpt>
      <trkpt lat="47.46255" lon="0.06363">
        <ele>63</ele>
        <time>2010-06-26T18:27:08Z</time>
      </trkpt>
      <trkpt lat="47.46265" lon="0.06325">
        <ele>64</ele>
        <time>2010-06-26T18:27:13Z</time>
      </trkpt>
      <trkpt lat="47.46273" lon="0.06293">
        <ele>64</ele>
        <time>2010-06-26T18:27:18Z</time>
      </trkpt>
      <trkpt lat="47.46283" lon="0.06255">
        <ele>64</ele>
        <time>2010-06-26T18:27:23Z</time>
      </trkpt>
      <trkpt lat="47.46295" lon="0.0621">
        <ele>67</ele>
        <time>2010-06-26T18:27:28Z</time>
      </trkpt>
      <trkpt lat="47.46306" lon="0.06172">
        <ele>68</ele>
        <time>2010-06-26T18:27:33Z</time>
      </trkpt>
      <trkpt lat="47.46314" lon="0.06141">
        <ele>68</ele>
        <time>2010-06-26T18:27:38Z</time>
      </trkpt>
      <trkpt lat="47.46324" lon="0.06101">
        <ele>69</ele>
        <time>2010-06-26T18:27:43Z</time>
      </trkpt>
      <trkpt lat="47.46337" lon="0.06052">
        <ele>70</ele>
        <time>2010-06-26T18:27:48Z</time>
      </trkpt>
      <trkpt lat="47.46347" lon="0.06011">
        <ele>70</ele>
        <time>2010-06-26T18:27:53Z</time>
      </trkpt>
      <trkpt lat="47.46358" lon="0.05968">
        <ele>70</ele>
        <time>2010-06-26T18:27:58Z</time>
      </trkpt>
      <trkpt lat="47.46367" lon="0.05933">
        <ele>70</ele>
        <time>2010-06-26T18:28:03Z</time>
      </trkpt>
      <trkpt lat="47.46378" lon="0.05889">
        <ele>70</ele>
        <time>2010-06-26T18:28:08Z</time>
      </trkpt>
      <trkpt lat="47.46392" lon="0.05834">
        <ele>70</ele>
        <time>2010-06-26T18:28:13Z</time>
      </trkpt>
      <trkpt lat="47.46403" lon="0.05783">
        <ele>70</ele>
        <time>2010-06-26T18:28:18Z</time>
      </trkpt>
      <trkpt lat="47.46413" lon="0.0574">
        <ele>71</ele>
        <time>2010-06-26T18:28:23Z</time>
      </trkpt>
      <trkpt lat="47.46427" lon="0.05685">
        <ele>72</ele>
        <time>2010-06-26T18:28:28Z</time>
      </trkpt>
      <trkpt lat="47.46439" lon="0.05631">
        <ele>72</ele>
        <time>2010-06-26T18:28:33Z</time>
      </trkpt>
      <trkpt lat="47.46455" lon="0.05573">
        <ele>72</ele>
        <time>2010-06-26T18:28:38Z</time>
      </trkpt>
      <trkpt lat="47.46469" lon="0.05524">
        <ele>73</ele>
        <time>2010-06-26T18:28:43Z</time>
      </trkpt>
      <trkpt lat="47.46478" lon="0.05482">
        <ele>74</ele>
        <time>2010-06-26T18:28:48Z</time>
      </trkpt>
      <trkpt lat="47.46492" lon="0.05431">
        <ele>75</ele>
        <time>2010-06-26T18:28:53Z</time>
      </trkpt>
      <trkpt lat="47.46508" lon="0.05368">
        <ele>77</ele>
        <time>2010-06-26T18:28:58Z</time>
      </trkpt>
      <trkpt lat="47.46521" lon="0.05317">
        <ele>76</ele>
        <time>2010-06-26T18:29:03Z</time>
      </trkpt>
      <trkpt lat="47.46526" lon="0.05261">
        <ele>77</ele>
        <time>2010-06-26T18:29:08Z</time>
      </trkpt>
      <trkpt lat="47.46528" lon="0.05221">
        <ele>77</ele>
        <time>2010-06-26T18:29:13Z</time>
      </trkpt>
      <trkpt lat="47.46525" lon="0.05171">
        <ele>77</ele>
        <time>2010-06-26T18:29:18Z</time>
      </trkpt>
      <trkpt lat="47.46525" lon="0.05116">
        <ele>79</ele>
        <time>2010-06-26T18:29:23Z</time>
      </trkpt>
      <trkpt lat="47.46524" lon="0.05069">
        <ele>80</ele>
        <time>2010-06-26T18:29:28Z</time>
      </trkpt>
      <trkpt lat="47.46525" lon="0.05034">
        <ele>80</ele>
        <time>2010-06-26T18:29:33Z</time>
      </trkpt>
      <trkpt lat="47.46522" lon="0.04986">
        <ele>80</ele>
        <time>2010-06-26T18:29:38Z</time>
      </trkpt>
      <trkpt lat="47.4652" lon="0.04939">
        <ele>81</ele>
        <time>2010-06-26T18:29:43Z</time>
      </trkpt>
      <trkpt lat="47.46518" lon="0.0488">
        <ele>81</ele>
        <time>2010-06-26T18:29:48Z</time>
      </trkpt>
      <trkpt lat="47.46521" lon="0.04831">
        <ele>80</ele>
        <time>2010-06-26T18:29:53Z</time>
      </trkpt>
      <trkpt lat="47.46526" lon="0.04784">
        <ele>80</ele>
        <time>2010-06-26T18:29:58Z</time>
      </trkpt>
      <trkpt lat="47.46525" lon="0.04732">
        <ele>79</ele>
        <time>2010-06-26T18:30:03Z</time>
      </trkpt>
      <trkpt lat="47.46524" lon="0.0467">
        <ele>79</ele>
        <time>2010-06-26T18:30:08Z</time>
      </trkpt>
      <trkpt lat="47.46526" lon="0.0462">
        <ele>79</ele>
        <time>2010-06-26T18:30:13Z</time>
      </trkpt>
      <trkpt lat="47.46524" lon="0.04573">
        <ele>80</ele>
        <time>2010-06-26T18:30:18Z</time>
      </trkpt>
      <trkpt lat="47.46524" lon="0.0452">
        <ele>80</ele>
        <time>2010-06-26T18:30:23Z</time>
      </trkpt>
      <trkpt lat="47.46524" lon="0.04456">
        <ele>81</ele>
        <time>2010-06-26T18:30:28Z</time>
      </trkpt>
      <trkpt lat="47.46523" lon="0.04402">
        <ele>81</ele>
        <time>2010-06-26T18:30:33Z</time>
      </trkpt>
      <trkpt lat="47.46523" lon="0.04348">
        <ele>81</ele>
        <time>2010-06-26T18:30:38Z</time>
      </trkpt>
      <trkpt lat="47.46523" lon="0.04306">
        <ele>81</ele>
        <time>2010-06-26T18:30:43Z</time>
      </trkpt>
      <trkpt lat="47.46522" lon="0.04255">
        <ele>81</ele>
        <time>2010-06-26T18:30:48Z</time>
      </trkpt>
      <trkpt lat="47.46522" lon="0.04193">
        <ele>81</ele>
        <time>2010-06-26T18:30:53Z</time>
      </trkpt>
      <trkpt lat="47.46522" lon="0.04141">
        <ele>82</ele>
        <time>2010-06-26T18:30:58Z</time>
      </trkpt>
      <trkpt lat="47.46522" lon="0.041">
        <ele>83</ele>
        <time>2010-06-26T18:31:03Z</time>
      </trkpt>
      <trkpt lat="47.46522" lon="0.04048">
        <ele>83</ele>
        <time>2010-06-26T18:31:08Z</time>
      </trkpt>
      <trkpt lat="47.46521" lon="0.03984">
        <ele>84</ele>
        <time>2010-06-26T18:31:13Z</time>
      </trkpt>
      <trkpt lat="47.4652" lon="0.03932">
        <ele>85</ele>
        <time>2010-06-26T18:31:18Z</time>
      </trkpt>
      <trkpt lat="47.4652" lon="0.03879">
        <ele>86</ele>
        <time>2010-06-26T18:31:23Z</time>
      </trkpt>
      <trkpt lat="47.4652" lon="0.03837">
        <ele>86</ele>
        <time>2010-06-26T18:31:28Z</time>
      </trkpt>
      <trkpt lat="47.4652" lon="0.03783">
        <ele>87</ele>
        <time>2010-06-26T18:31:33Z</time>
      </trkpt>
      <trkpt lat="47.46519" lon="0.0372">
        <ele>87</ele>
        <time>2010-06-26T18:31:38Z</time>
      </trkpt>
      <trkpt lat="47.46519" lon="0.03668">
        <ele>87</ele>
        <time>2010-06-26T18:31:43Z</time>
      </trkpt>
      <trkpt lat="47.46518" lon="0.03628">
        <ele>88</ele>
        <time>2010-06-26T18:31:48Z</time>
      </trkpt>
      <trkpt lat="47.46516" lon="0.03577">
        <ele>89</ele>
        <time>2010-06-26T18:31:53Z</time>
      </trkpt>
      <trkpt lat="47.46512" lon="0.03528">
        <ele>89</ele>
        <time>2010-06-26T18:31:58Z</time>
      </trkpt>
      <trkpt lat="47.46511" lon="0.03467">
        <ele>89</ele>
        <time>2010-06-26T18:32:03Z</time>
      </trkpt>
      <trkpt lat="47.46511" lon="0.03415">
        <ele>89</ele>
        <time>2010-06-26T18:32:08Z</time>
      </trkpt>
      <trkpt lat="47.46511" lon="0.03372">
        <ele>88</ele>
        <time>2010-06-26T18:32:13Z</time>
      </trkpt>
      <trkpt lat="47.46511" lon="0.03315">
        <ele>89</ele>
        <time>2010-06-26T18:32:18Z</time>
      </trkpt>
      <trkpt lat="47.4651" lon="0.03251">
        <ele>89</ele>
        <time>2010-06-26T18:32:23Z</time>
      </trkpt>
      <trkpt lat="47.4651" lon="0.03197">
        <ele>88</ele>
        <time>2010-06-26T18:32:28Z</time>
      </trkpt>
      <trkpt lat="47.4651" lon="0.03144">
        <ele>88</ele>
        <time>2010-06-26T18:32:33Z</time>
      </trkpt>
      <trkpt lat="47.46511" lon="0.03097">
        <ele>88</ele>
        <time>2010-06-26T18:32:38Z</time>
      </trkpt>
      <trkpt lat="47.46511" lon="0.03038">
        <ele>87</ele>
        <time>2010-06-26T18:32:43Z</time>
      </trkpt>
      <trkpt lat="47.46514" lon="0.02971">
        <ele>88</ele>
        <time>2010-06-26T18:32:48Z</time>
      </trkpt>
      <trkpt lat="47.4652" lon="0.02916">
        <ele>90</ele>
        <time>2010-06-26T18:32:53Z</time>
      </trkpt>
      <trkpt lat="47.46528" lon="0.02874">
        <ele>91</ele>
        <time>2010-06-26T18:32:58Z</time>
      </trkpt>
      <trkpt lat="47.46538" lon="0.02822">
        <ele>90</ele>
        <time>2010-06-26T18:33:03Z</time>
      </trkpt>
      <trkpt lat="47.46546" lon="0.02769">
        <ele>90</ele>
        <time>2010-06-26T18:33:08Z</time>
      </trkpt>
      <trkpt lat="47.46555" lon="0.02707">
        <ele>90</ele>
        <time>2010-06-26T18:33:13Z</time>
      </trkpt>
      <trkpt lat="47.46563" lon="0.02655">
        <ele>89</ele>
        <time>2010-06-26T18:33:18Z</time>
      </trkpt>
      <trkpt lat="47.4657" lon="0.02613">
        <ele>90</ele>
        <time>2010-06-26T18:33:23Z</time>
      </trkpt>
      <trkpt lat="47.46578" lon="0.0256">
        <ele>89</ele>
        <time>2010-06-26T18:33:28Z</time>
      </trkpt>
      <trkpt lat="47.46588" lon="0.02496">
        <ele>89</ele>
        <time>2010-06-26T18:33:33Z</time>
      </trkpt>
      <trkpt lat="47.46597" lon="0.02443">
        <ele>90</ele>
        <time>2010-06-26T18:33:38Z</time>
      </trkpt>
      <trkpt lat="47.46604" lon="0.024">
        <ele>90</ele>
        <time>2010-06-26T18:33:43Z</time>
      </trkpt>
      <trkpt lat="47.46612" lon="0.02347">
        <ele>90</ele>
        <time>2010-06-26T18:33:48Z</time>
      </trkpt>
      <trkpt lat="47.4662" lon="0.02294">
        <ele>90</ele>
        <time>2010-06-26T18:33:53Z</time>
      </trkpt>
      <trkpt lat="47.46625" lon="0.02231">
        <ele>90</ele>
        <time>2010-06-26T18:33:58Z</time>
      </trkpt>
      <trkpt lat="47.46619" lon="0.02179">
        <ele>90</ele>
        <time>2010-06-26T18:34:03Z</time>
      </trkpt>
      <trkpt lat="47.46608" lon="0.02137">
        <ele>88</ele>
        <time>2010-06-26T18:34:08Z</time>
      </trkpt>
      <trkpt lat="47.46588" lon="0.02084">
        <ele>87</ele>
        <time>2010-06-26T18:34:13Z</time>
      </trkpt>
      <trkpt lat="47.46556" lon="0.02029">
        <ele>87</ele>
        <time>2010-06-26T18:34:18Z</time>
      </trkpt>
      <trkpt lat="47.46525" lon="0.01992">
        <ele>85</ele>
        <time>2010-06-26T18:34:23Z</time>
      </trkpt>
      <trkpt lat="47.46499" lon="0.01963">
        <ele>86</ele>
        <time>2010-06-26T18:34:28Z</time>
      </trkpt>
      <trkpt lat="47.46464" lon="0.01926">
        <ele>86</ele>
        <time>2010-06-26T18:34:33Z</time>
      </trkpt>
      <trkpt lat="47.46425" lon="0.01882">
        <ele>83</ele>
        <time>2010-06-26T18:34:38Z</time>
      </trkpt>
      <trkpt lat="47.46393" lon="0.01787">
        <ele>79</ele>
        <time>2010-06-26T18:34:43Z</time>
      </trkpt>
      <trkpt lat="47.46398" lon="0.01708">
        <ele>73</ele>
        <time>2010-06-26T18:34:48Z</time>
      </trkpt>
      <trkpt lat="47.46434" lon="0.01682">
        <ele>68</ele>
        <time>2010-06-26T18:34:53Z</time>
      </trkpt>
      <trkpt lat="47.46492" lon="0.01683">
        <ele>66</ele>
        <time>2010-06-26T18:34:58Z</time>
      </trkpt>
      <trkpt lat="47.46556" lon="0.01661">
        <ele>62</ele>
        <time>2010-06-26T18:35:03Z</time>
      </trkpt>
      <trkpt lat="47.46589" lon="0.01597">
        <ele>63</ele>
        <time>2010-06-26T18:35:08Z</time>
      </trkpt>
      <trkpt lat="47.4661" lon="0.01544">
        <ele>65</ele>
        <time>2010-06-26T18:35:13Z</time>
      </trkpt>
      <trkpt lat="47.46614" lon="0.01533">
        <ele>65</ele>
        <time>2010-06-26T18:35:18Z</time>
      </trkpt>
      <trkpt lat="47.46611" lon="0.01531">
        <ele>65</ele>
        <time>2010-06-26T18:35:23Z</time>
      </trkpt>
      <trkpt lat="47.4661" lon="0.01529">
        <ele>65</ele>
        <time>2010-06-26T18:35:28Z</time>
      </trkpt>
      <trkpt lat="47.46609" lon="0.01529">
        <ele>65</ele>
        <time>2010-06-26T18:35:33Z</time>
      </trkpt>
      <trkpt lat="47.46609" lon="0.0153">
        <ele>65</ele>
        <time>2010-06-26T18:35:38Z</time>
      </trkpt>
      <trkpt lat="47.46609" lon="0.0153">
        <ele>65</ele>
        <time>2010-06-26T18:35:43Z</time>
      </trkpt>
      <trkpt lat="47.46609" lon="0.01531">
        <ele>65</ele>
        <time>2010-06-26T18:35:48Z</time>
      </trkpt>
      <trkpt lat="47.4661" lon="0.01531">
        <ele>65</ele>
        <time>2010-06-26T18:35:53Z</time>
      </trkpt>
      <trkpt lat="47.46612" lon="0.01533">
        <ele>65</ele>
        <time>2010-06-26T18:35:58Z</time>
      </trkpt>
      <trkpt lat="47.46615" lon="0.01534">
        <ele>65</ele>
        <time>2010-06-26T18:36:03Z</time>
      </trkpt>
      <trkpt lat="47.46616" lon="0.01534">
        <ele>65</ele>
        <time>2010-06-26T18:36:08Z</time>
      </trkpt>
      <trkpt lat="47.46615" lon="0.01535">
        <ele>65</ele>
        <time>2010-06-26T18:36:13Z</time>
      </trkpt>
      <trkpt lat="47.46616" lon="0.01535">
        <ele>65</ele>
        <time>2010-06-26T18:36:18Z</time>
      </trkpt>
      <trkpt lat="47.46617" lon="0.01533">
        <ele>65</ele>
        <time>2010-06-26T18:36:23Z</time>
      </trkpt>
      <trkpt lat="47.4662" lon="0.01535">
        <ele>65</ele>
        <time>2010-06-26T18:36:28Z</time>
      </trkpt>
      <trkpt lat="47.46636" lon="0.01556">
        <ele>65</ele>
        <time>2010-06-26T18:36:33Z</time>
      </trkpt>
      <trkpt lat="47.46655" lon="0.01583">
        <ele>65</ele>
        <time>2010-06-26T18:36:38Z</time>
      </trkpt>
      <trkpt lat="47.4668" lon="0.01607">
        <ele>66</ele>
        <time>2010-06-26T18:36:43Z</time>
      </trkpt>
      <trkpt lat="47.46701" lon="0.01623">
        <ele>67</ele>
        <time>2010-06-26T18:36:48Z</time>
      </trkpt>
      <trkpt lat="47.46727" lon="0.01635">
        <ele>68</ele>
        <time>2010-06-26T18:36:53Z</time>
      </trkpt>
      <trkpt lat="47.46751" lon="0.01619">
        <ele>71</ele>
        <time>2010-06-26T18:36:58Z</time>
      </trkpt>
      <trkpt lat="47.46778" lon="0.01598">
        <ele>71</ele>
        <time>2010-06-26T18:37:03Z</time>
      </trkpt>
      <trkpt lat="47.46788" lon="0.01577">
        <ele>70</ele>
        <time>2010-06-26T18:37:08Z</time>
      </trkpt>
      <trkpt lat="47.46795" lon="0.01548">
        <ele>70</ele>
        <time>2010-06-26T18:37:13Z</time>
      </trkpt>
      <trkpt lat="47.46807" lon="0.01517">
        <ele>70</ele>
        <time>2010-06-26T18:37:18Z</time>
      </trkpt>
      <trkpt lat="47.46821" lon="0.01498">
        <ele>71</ele>
        <time>2010-06-26T18:37:23Z</time>
      </trkpt>
      <trkpt lat="47.46837" lon="0.01486">
        <ele>73</ele>
        <time>2010-06-26T18:37:28Z</time>
      </trkpt>
      <trkpt lat="47.46852" lon="0.01479">
        <ele>74</ele>
        <time>2010-06-26T18:37:33Z</time>
      </trkpt>
      <trkpt lat="47.4687" lon="0.0147">
        <ele>75</ele>
        <time>2010-06-26T18:37:38Z</time>
      </trkpt>
      <trkpt lat="47.46892" lon="0.01457">
        <ele>76</ele>
        <time>2010-06-26T18:37:43Z</time>
      </trkpt>
      <trkpt lat="47.46906" lon="0.01437">
        <ele>77</ele>
        <time>2010-06-26T18:37:48Z</time>
      </trkpt>
      <trkpt lat="47.46911" lon="0.01416">
        <ele>79</ele>
        <time>2010-06-26T18:37:53Z</time>
      </trkpt>
      <trkpt lat="47.46913" lon="0.01385">
        <ele>80</ele>
        <time>2010-06-26T18:37:58Z</time>
      </trkpt>
      <trkpt lat="47.46913" lon="0.01356">
        <ele>81</ele>
        <time>2010-06-26T18:38:03Z</time>
      </trkpt>
      <trkpt lat="47.46915" lon="0.01323">
        <ele>83</ele>
        <time>2010-06-26T18:38:08Z</time>
      </trkpt>
      <trkpt lat="47.46921" lon="0.01295">
        <ele>84</ele>
        <time>2010-06-26T18:38:13Z</time>
      </trkpt>
      <trkpt lat="47.46927" lon="0.01274">
        <ele>84</ele>
        <time>2010-06-26T18:38:18Z</time>
      </trkpt>
      <trkpt lat="47.46935" lon="0.01246">
        <ele>86</ele>
        <time>2010-06-26T18:38:23Z</time>
      </trkpt>
      <trkpt lat="47.46943" lon="0.01218">
        <ele>86</ele>
        <time>2010-06-26T18:38:28Z</time>
      </trkpt>
      <trkpt lat="47.46954" lon="0.01183">
        <ele>87</ele>
        <time>2010-06-26T18:38:33Z</time>
      </trkpt>
      <trkpt lat="47.46963" lon="0.01153">
        <ele>88</ele>
        <time>2010-06-26T18:38:38Z</time>
      </trkpt>
      <trkpt lat="47.46972" lon="0.01126">
        <ele>88</ele>
        <time>2010-06-26T18:38:43Z</time>
      </trkpt>
      <trkpt lat="47.46984" lon="0.01089">
        <ele>88</ele>
        <time>2010-06-26T18:38:48Z</time>
      </trkpt>
      <trkpt lat="47.46999" lon="0.01043">
        <ele>88</ele>
        <time>2010-06-26T18:38:53Z</time>
      </trkpt>
      <trkpt lat="47.47011" lon="0.01003">
        <ele>89</ele>
        <time>2010-06-26T18:38:58Z</time>
      </trkpt>
      <trkpt lat="47.47021" lon="0.00973">
        <ele>89</ele>
        <time>2010-06-26T18:39:03Z</time>
      </trkpt>
      <trkpt lat="47.47036" lon="0.00934">
        <ele>89</ele>
        <time>2010-06-26T18:39:08Z</time>
      </trkpt>
      <trkpt lat="47.47054" lon="0.00896">
        <ele>90</ele>
        <time>2010-06-26T18:39:13Z</time>
      </trkpt>
      <trkpt lat="47.47077" lon="0.00851">
        <ele>90</ele>
        <time>2010-06-26T18:39:18Z</time>
      </trkpt>
      <trkpt lat="47.47096" lon="0.00813">
        <ele>91</ele>
        <time>2010-06-26T18:39:23Z</time>
      </trkpt>
      <trkpt lat="47.47111" lon="0.00782">
        <ele>91</ele>
        <time>2010-06-26T18:39:28Z</time>
      </trkpt>
      <trkpt lat="47.4713" lon="0.00743">
        <ele>93</ele>
        <time>2010-06-26T18:39:33Z</time>
      </trkpt>
      <trkpt lat="47.47152" lon="0.00698">
        <ele>93</ele>
        <time>2010-06-26T18:39:38Z</time>
      </trkpt>
      <trkpt lat="47.4717" lon="0.00662">
        <ele>95</ele>
        <time>2010-06-26T18:39:43Z</time>
      </trkpt>
      <trkpt lat="47.47185" lon="0.00633">
        <ele>95</ele>
        <time>2010-06-26T18:39:48Z</time>
      </trkpt>
      <trkpt lat="47.47202" lon="0.00598">
        <ele>95</ele>
        <time>2010-06-26T18:39:53Z</time>
      </trkpt>
      <trkpt lat="47.4722" lon="0.00562">
        <ele>95</ele>
        <time>2010-06-26T18:39:58Z</time>
      </trkpt>
      <trkpt lat="47.47242" lon="0.00518">
        <ele>95</ele>
        <time>2010-06-26T18:40:03Z</time>
      </trkpt>
      <trkpt lat="47.47261" lon="0.00481">
        <ele>95</ele>
        <time>2010-06-26T18:40:08Z</time>
      </trkpt>
      <trkpt lat="47.47276" lon="0.00451">
        <ele>96</ele>
        <time>2010-06-26T18:40:13Z</time>
      </trkpt>
      <trkpt lat="47.47295" lon="0.00413">
        <ele>96</ele>
        <time>2010-06-26T18:40:18Z</time>
      </trkpt>
      <trkpt lat="47.47315" lon="0.00375">
        <ele>96</ele>
        <time>2010-06-26T18:40:23Z</time>
      </trkpt>
      <trkpt lat="47.47339" lon="0.00327">
        <ele>96</ele>
        <time>2010-06-26T18:40:28Z</time>
      </trkpt>
      <trkpt lat="47.47356" lon="0.00294">
        <ele>96</ele>
        <time>2010-06-26T18:40:33Z</time>
      </trkpt>
      <trkpt lat="47.47376" lon="0.00253">
        <ele>97</ele>
        <time>2010-06-26T18:40:38Z</time>
      </trkpt>
      <trkpt lat="47.47397" lon="0.00212">
        <ele>96</ele>
        <time>2010-06-26T18:40:43Z</time>
      </trkpt>
      <trkpt lat="47.47421" lon="0.0016">
        <ele>95</ele>
        <time>2010-06-26T18:40:48Z</time>
      </trkpt>
      <trkpt lat="47.47441" lon="0.00118">
        <ele>96</ele>
        <time>2010-06-26T18:40:53Z</time>
      </trkpt>
      <trkpt lat="47.47458" lon="0.00082">
        <ele>97</ele>
        <time>2010-06-26T18:40:58Z</time>
      </trkpt>
      <trkpt lat="47.47481" lon="0.0004">
        <ele>96</ele>
        <time>2010-06-26T18:41:03Z</time>
      </trkpt>
      <trkpt lat="47.47508" lon="-0.00015">
        <ele>96</ele>
        <time>2010-06-26T18:41:08Z</time>
      </trkpt>
      <trkpt lat="47.47529" lon="-0.00059">
        <ele>96</ele>
        <time>2010-06-26T18:41:13Z</time>
      </trkpt>
      <trkpt lat="47.47545" lon="-0.00098">
        <ele>97</ele>
        <time>2010-06-26T18:41:18Z</time>
      </trkpt>
      <trkpt lat="47.47564" lon="-0.00145">
        <ele>97</ele>
        <time>2010-06-26T18:41:23Z</time>
      </trkpt>
      <trkpt lat="47.47583" lon="-0.00196">
        <ele>97</ele>
        <time>2010-06-26T18:41:28Z</time>
      </trkpt>
      <trkpt lat="47.47604" lon="-0.00245">
        <ele>100</ele>
        <time>2010-06-26T18:41:33Z</time>
      </trkpt>
      <trkpt lat="47.47631" lon="-0.00303">
        <ele>100</ele>
        <time>2010-06-26T18:41:38Z</time>
      </trkpt>
      <trkpt lat="47.47649" lon="-0.00342">
        <ele>99</ele>
        <time>2010-06-26T18:41:43Z</time>
      </trkpt>
      <trkpt lat="47.47666" lon="-0.00404">
        <ele>98</ele>
        <time>2010-06-26T18:41:48Z</time>
      </trkpt>
      <trkpt lat="47.47684" lon="-0.00456">
        <ele>100</ele>
        <time>2010-06-26T18:41:53Z</time>
      </trkpt>
      <trkpt lat="47.47708" lon="-0.00506">
        <ele>100</ele>
        <time>2010-06-26T18:41:58Z</time>
      </trkpt>
      <trkpt lat="47.47727" lon="-0.00556">
        <ele>100</ele>
        <time>2010-06-26T18:42:03Z</time>
      </trkpt>
      <trkpt lat="47.47741" lon="-0.00592">
        <ele>101</ele>
        <time>2010-06-26T18:42:08Z</time>
      </trkpt>
      <trkpt lat="47.4776" lon="-0.00638">
        <ele>102</ele>
        <time>2010-06-26T18:42:13Z</time>
      </trkpt>
      <trkpt lat="47.47781" lon="-0.00696">
        <ele>101</ele>
        <time>2010-06-26T18:42:18Z</time>
      </trkpt>
      <trkpt lat="47.47802" lon="-0.00743">
        <ele>100</ele>
        <time>2010-06-26T18:42:23Z</time>
      </trkpt>
      <trkpt lat="47.47814" lon="-0.0079">
        <ele>99</ele>
        <time>2010-06-26T18:42:28Z</time>
      </trkpt>
      <trkpt lat="47.47835" lon="-0.00836">
        <ele>98</ele>
        <time>2010-06-26T18:42:33Z</time>
      </trkpt>
      <trkpt lat="47.47856" lon="-0.00887">
        <ele>97</ele>
        <time>2010-06-26T18:42:38Z</time>
      </trkpt>
      <trkpt lat="47.47882" lon="-0.00951">
        <ele>96</ele>
        <time>2010-06-26T18:42:43Z</time>
      </trkpt>
      <trkpt lat="47.47904" lon="-0.01006">
        <ele>94</ele>
        <time>2010-06-26T18:42:48Z</time>
      </trkpt>
      <trkpt lat="47.47922" lon="-0.01051">
        <ele>95</ele>
        <time>2010-06-26T18:42:53Z</time>
      </trkpt>
      <trkpt lat="47.47944" lon="-0.01108">
        <ele>95</ele>
        <time>2010-06-26T18:42:58Z</time>
      </trkpt>
      <trkpt lat="47.47968" lon="-0.0117">
        <ele>95</ele>
        <time>2010-06-26T18:43:03Z</time>
      </trkpt>
      <trkpt lat="47.47988" lon="-0.01221">
        <ele>95</ele>
        <time>2010-06-26T18:43:08Z</time>
      </trkpt>
      <trkpt lat="47.48003" lon="-0.01264">
        <ele>95</ele>
        <time>2010-06-26T18:43:13Z</time>
      </trkpt>
      <trkpt lat="47.48024" lon="-0.01323">
        <ele>95</ele>
        <time>2010-06-26T18:43:18Z</time>
      </trkpt>
      <trkpt lat="47.48049" lon="-0.01384">
        <ele>95</ele>
        <time>2010-06-26T18:43:23Z</time>
      </trkpt>
      <trkpt lat="47.48069" lon="-0.01432">
        <ele>95</ele>
        <time>2010-06-26T18:43:28Z</time>
      </trkpt>
      <trkpt lat="47.4809" lon="-0.01482">
        <ele>95</ele>
        <time>2010-06-26T18:43:33Z</time>
      </trkpt>
      <trkpt lat="47.48108" lon="-0.01517">
        <ele>96</ele>
        <time>2010-06-26T18:43:38Z</time>
      </trkpt>
      <trkpt lat="47.48129" lon="-0.01562">
        <ele>97</ele>
        <time>2010-06-26T18:43:43Z</time>
      </trkpt>
      <trkpt lat="47.48148" lon="-0.01609">
        <ele>98</ele>
        <time>2010-06-26T18:43:48Z</time>
      </trkpt>
      <trkpt lat="47.48171" lon="-0.01673">
        <ele>100</ele>
        <time>2010-06-26T18:43:53Z</time>
      </trkpt>
      <trkpt lat="47.48182" lon="-0.01709">
        <ele>101</ele>
        <time>2010-06-26T18:43:58Z</time>
      </trkpt>
      <trkpt lat="47.48198" lon="-0.01756">
        <ele>102</ele>
        <time>2010-06-26T18:44:03Z</time>
      </trkpt>
      <trkpt lat="47.48213" lon="-0.01807">
        <ele>103</ele>
        <time>2010-06-26T18:44:08Z</time>
      </trkpt>
      <trkpt lat="47.48233" lon="-0.01851">
        <ele>105</ele>
        <time>2010-06-26T18:44:13Z</time>
      </trkpt>
      <trkpt lat="47.48249" lon="-0.01891">
        <ele>105</ele>
        <time>2010-06-26T18:44:18Z</time>
      </trkpt>
      <trkpt lat="47.48262" lon="-0.01924">
        <ele>107</ele>
        <time>2010-06-26T18:44:23Z</time>
      </trkpt>
      <trkpt lat="47.48279" lon="-0.0196">
        <ele>108</ele>
        <time>2010-06-26T18:44:28Z</time>
      </trkpt>
      <trkpt lat="47.483" lon="-0.02017">
        <ele>109</ele>
        <time>2010-06-26T18:44:33Z</time>
      </trkpt>
      <trkpt lat="47.48317" lon="-0.02062">
        <ele>110</ele>
        <time>2010-06-26T18:44:38Z</time>
      </trkpt>
      <trkpt lat="47.48335" lon="-0.02107">
        <ele>110</ele>
        <time>2010-06-26T18:44:43Z</time>
      </trkpt>
      <trkpt lat="47.4835" lon="-0.02142">
        <ele>110</ele>
        <time>2010-06-26T18:44:48Z</time>
      </trkpt>
      <trkpt lat="47.48372" lon="-0.02197">
        <ele>107</ele>
        <time>2010-06-26T18:44:53Z</time>
      </trkpt>
      <trkpt lat="47.48387" lon="-0.02235">
        <ele>107</ele>
        <time>2010-06-26T18:44:58Z</time>
      </trkpt>
      <trkpt lat="47.48409" lon="-0.02291">
        <ele>106</ele>
        <time>2010-06-26T18:45:03Z</time>
      </trkpt>
      <trkpt lat="47.48423" lon="-0.02329">
        <ele>106</ele>
        <time>2010-06-26T18:45:08Z</time>
      </trkpt>
      <trkpt lat="47.48442" lon="-0.02376">
        <ele>105</ele>
        <time>2010-06-26T18:45:13Z</time>
      </trkpt>
      <trkpt lat="47.48461" lon="-0.02425">
        <ele>105</ele>
        <time>2010-06-26T18:45:18Z</time>
      </trkpt>
      <trkpt lat="47.48484" lon="-0.02489">
        <ele>104</ele>
        <time>2010-06-26T18:45:23Z</time>
      </trkpt>
      <trkpt lat="47.48503" lon="-0.02543">
        <ele>102</ele>
        <time>2010-06-26T18:45:28Z</time>
      </trkpt>
      <trkpt lat="47.48519" lon="-0.02568">
        <ele>102</ele>
        <time>2010-06-26T18:45:33Z</time>
      </trkpt>
      <trkpt lat="47.48543" lon="-0.02619">
        <ele>101</ele>
        <time>2010-06-26T18:45:38Z</time>
      </trkpt>
      <trkpt lat="47.48569" lon="-0.02677">
        <ele>99</ele>
        <time>2010-06-26T18:45:43Z</time>
      </trkpt>
      <trkpt lat="47.4859" lon="-0.02738">
        <ele>98</ele>
        <time>2010-06-26T18:45:48Z</time>
      </trkpt>
      <trkpt lat="47.4861" lon="-0.02782">
        <ele>99</ele>
        <time>2010-06-26T18:45:53Z</time>
      </trkpt>
      <trkpt lat="47.4863" lon="-0.0284">
        <ele>101</ele>
        <time>2010-06-26T18:45:58Z</time>
      </trkpt>
      <trkpt lat="47.48657" lon="-0.02908">
        <ele>101</ele>
        <time>2010-06-26T18:46:03Z</time>
      </trkpt>
      <trkpt lat="47.48683" lon="-0.02968">
        <ele>99</ele>
        <time>2010-06-26T18:46:08Z</time>
      </trkpt>
      <trkpt lat="47.4871" lon="-0.03033">
        <ele>96</ele>
        <time>2010-06-26T18:46:13Z</time>
      </trkpt>
      <trkpt lat="47.48734" lon="-0.03089">
        <ele>92</ele>
        <time>2010-06-26T18:46:18Z</time>
      </trkpt>
      <trkpt lat="47.48767" lon="-0.03164">
        <ele>89</ele>
        <time>2010-06-26T18:46:23Z</time>
      </trkpt>
      <trkpt lat="47.48805" lon="-0.03254">
        <ele>82</ele>
        <time>2010-06-26T18:46:28Z</time>
      </trkpt>
      <trkpt lat="47.48834" lon="-0.03327">
        <ele>79</ele>
        <time>2010-06-26T18:46:33Z</time>
      </trkpt>
      <trkpt lat="47.48856" lon="-0.0338">
        <ele>80</ele>
        <time>2010-06-26T18:46:38Z</time>
      </trkpt>
      <trkpt lat="47.48879" lon="-0.03445">
        <ele>82</ele>
        <time>2010-06-26T18:46:43Z</time>
      </trkpt>
      <trkpt lat="47.48906" lon="-0.03508">
        <ele>80</ele>
        <time>2010-06-26T18:46:48Z</time>
      </trkpt>
      <trkpt lat="47.48931" lon="-0.03568">
        <ele>78</ele>
        <time>2010-06-26T18:46:53Z</time>
      </trkpt>
      <trkpt lat="47.48952" lon="-0.0363">
        <ele>79</ele>
        <time>2010-06-26T18:46:58Z</time>
      </trkpt>
      <trkpt lat="47.48971" lon="-0.0367">
        <ele>79</ele>
        <time>2010-06-26T18:47:03Z</time>
      </trkpt>
      <trkpt lat="47.48996" lon="-0.03728">
        <ele>79</ele>
        <time>2010-06-26T18:47:08Z</time>
      </trkpt>
      <trkpt lat="47.49024" lon="-0.03796">
        <ele>75</ele>
        <time>2010-06-26T18:47:13Z</time>
      </trkpt>
      <trkpt lat="47.49049" lon="-0.03852">
        <ele>73</ele>
        <time>2010-06-26T18:47:18Z</time>
      </trkpt>
      <trkpt lat="47.49075" lon="-0.03905">
        <ele>70</ele>
        <time>2010-06-26T18:47:23Z</time>
      </trkpt>
      <trkpt lat="47.49094" lon="-0.03953">
        <ele>69</ele>
        <time>2010-06-26T18:47:28Z</time>
      </trkpt>
      <trkpt lat="47.49123" lon="-0.04024">
        <ele>68</ele>
        <time>2010-06-26T18:47:33Z</time>
      </trkpt>
      <trkpt lat="47.49147" lon="-0.04082">
        <ele>68</ele>
        <time>2010-06-26T18:47:38Z</time>
      </trkpt>
      <trkpt lat="47.49171" lon="-0.0414">
        <ele>68</ele>
        <time>2010-06-26T18:47:43Z</time>
      </trkpt>
      <trkpt lat="47.4919" lon="-0.04187">
        <ele>68</ele>
        <time>2010-06-26T18:47:48Z</time>
      </trkpt>
      <trkpt lat="47.49214" lon="-0.04245">
        <ele>68</ele>
        <time>2010-06-26T18:47:53Z</time>
      </trkpt>
      <trkpt lat="47.49243" lon="-0.04314">
        <ele>67</ele>
        <time>2010-06-26T18:47:58Z</time>
      </trkpt>
      <trkpt lat="47.49266" lon="-0.0437">
        <ele>66</ele>
        <time>2010-06-26T18:48:03Z</time>
      </trkpt>
      <trkpt lat="47.49289" lon="-0.04425">
        <ele>65</ele>
        <time>2010-06-26T18:48:08Z</time>
      </trkpt>
      <trkpt lat="47.49308" lon="-0.0447">
        <ele>65</ele>
        <time>2010-06-26T18:48:13Z</time>
      </trkpt>
      <trkpt lat="47.49331" lon="-0.04526">
        <ele>64</ele>
        <time>2010-06-26T18:48:18Z</time>
      </trkpt>
      <trkpt lat="47.49358" lon="-0.0458">
        <ele>63</ele>
        <time>2010-06-26T18:48:23Z</time>
      </trkpt>
      <trkpt lat="47.49403" lon="-0.04618">
        <ele>61</ele>
        <time>2010-06-26T18:48:28Z</time>
      </trkpt>
      <trkpt lat="47.4943" lon="-0.04642">
        <ele>61</ele>
        <time>2010-06-26T18:48:33Z</time>
      </trkpt>
      <trkpt lat="47.4946" lon="-0.04668">
        <ele>62</ele>
        <time>2010-06-26T18:48:38Z</time>
      </trkpt>
      <trkpt lat="47.49491" lon="-0.04697">
        <ele>62</ele>
        <time>2010-06-26T18:48:43Z</time>
      </trkpt>
      <trkpt lat="47.49514" lon="-0.04722">
        <ele>65</ele>
        <time>2010-06-26T18:48:48Z</time>
      </trkpt>
      <trkpt lat="47.49537" lon="-0.04741">
        <ele>66</ele>
        <time>2010-06-26T18:48:53Z</time>
      </trkpt>
      <trkpt lat="47.49555" lon="-0.04755">
        <ele>67</ele>
        <time>2010-06-26T18:48:58Z</time>
      </trkpt>
      <trkpt lat="47.49577" lon="-0.0477">
        <ele>67</ele>
        <time>2010-06-26T18:49:03Z</time>
      </trkpt>
      <trkpt lat="47.49604" lon="-0.04787">
        <ele>70</ele>
        <time>2010-06-26T18:49:08Z</time>
      </trkpt>
      <trkpt lat="47.49625" lon="-0.048">
        <ele>71</ele>
        <time>2010-06-26T18:49:13Z</time>
      </trkpt>
      <trkpt lat="47.49643" lon="-0.04809">
        <ele>71</ele>
        <time>2010-06-26T18:49:18Z</time>
      </trkpt>
      <trkpt lat="47.49664" lon="-0.04821">
        <ele>72</ele>
        <time>2010-06-26T18:49:23Z</time>
      </trkpt>
      <trkpt lat="47.49686" lon="-0.04832">
        <ele>74</ele>
        <time>2010-06-26T18:49:28Z</time>
      </trkpt>
      <trkpt lat="47.49713" lon="-0.04846">
        <ele>74</ele>
        <time>2010-06-26T18:49:33Z</time>
      </trkpt>
      <trkpt lat="47.49735" lon="-0.04858">
        <ele>75</ele>
        <time>2010-06-26T18:49:38Z</time>
      </trkpt>
      <trkpt lat="47.49755" lon="-0.04869">
        <ele>75</ele>
        <time>2010-06-26T18:49:43Z</time>
      </trkpt>
      <trkpt lat="47.49778" lon="-0.04882">
        <ele>75</ele>
        <time>2010-06-26T18:49:48Z</time>
      </trkpt>
      <trkpt lat="47.4981" lon="-0.04899">
        <ele>75</ele>
        <time>2010-06-26T18:49:53Z</time>
      </trkpt>
      <trkpt lat="47.49837" lon="-0.04913">
        <ele>75</ele>
        <time>2010-06-26T18:49:58Z</time>
      </trkpt>
      <trkpt lat="47.49859" lon="-0.04925">
        <ele>75</ele>
        <time>2010-06-26T18:50:03Z</time>
      </trkpt>
      <trkpt lat="47.49887" lon="-0.04942">
        <ele>76</ele>
        <time>2010-06-26T18:50:08Z</time>
      </trkpt>
      <trkpt lat="47.49921" lon="-0.04964">
        <ele>77</ele>
        <time>2010-06-26T18:50:13Z</time>
      </trkpt>
      <trkpt lat="47.49952" lon="-0.04982">
        <ele>77</ele>
        <time>2010-06-26T18:50:18Z</time>
      </trkpt>
      <trkpt lat="47.49982" lon="-0.05002">
        <ele>77</ele>
        <time>2010-06-26T18:50:23Z</time>
      </trkpt>
      <trkpt lat="47.50007" lon="-0.0502">
        <ele>77</ele>
        <time>2010-06-26T18:50:28Z</time>
      </trkpt>
      <trkpt lat="47.50038" lon="-0.05046">
        <ele>77</ele>
        <time>2010-06-26T18:50:33Z</time>
      </trkpt>
      <trkpt lat="47.50075" lon="-0.05076">
        <ele>76</ele>
        <time>2010-06-26T18:50:38Z</time>
      </trkpt>
      <trkpt lat="47.50106" lon="-0.05104">
        <ele>76</ele>
        <time>2010-06-26T18:50:43Z</time>
      </trkpt>
      <trkpt lat="47.50135" lon="-0.05134">
        <ele>76</ele>
        <time>2010-06-26T18:50:48Z</time>
      </trkpt>
      <trkpt lat="47.50158" lon="-0.05161">
        <ele>77</ele>
        <time>2010-06-26T18:50:53Z</time>
      </trkpt>
      <trkpt lat="47.50186" lon="-0.05194">
        <ele>77</ele>
        <time>2010-06-26T18:50:58Z</time>
      </trkpt>
      <trkpt lat="47.50221" lon="-0.05229">
        <ele>77</ele>
        <time>2010-06-26T18:51:03Z</time>
      </trkpt>
      <trkpt lat="47.50254" lon="-0.05248">
        <ele>78</ele>
        <time>2010-06-26T18:51:08Z</time>
      </trkpt>
      <trkpt lat="47.5028" lon="-0.0526">
        <ele>78</ele>
        <time>2010-06-26T18:51:13Z</time>
      </trkpt>
      <trkpt lat="47.50312" lon="-0.05275">
        <ele>78</ele>
        <time>2010-06-26T18:51:18Z</time>
      </trkpt>
      <trkpt lat="47.50349" lon="-0.05293">
        <ele>78</ele>
        <time>2010-06-26T18:51:23Z</time>
      </trkpt>
      <trkpt lat="47.50381" lon="-0.05308">
        <ele>78</ele>
        <time>2010-06-26T18:51:28Z</time>
      </trkpt>
      <trkpt lat="47.50413" lon="-0.05323">
        <ele>78</ele>
        <time>2010-06-26T18:51:33Z</time>
      </trkpt>
      <trkpt lat="47.5044" lon="-0.05336">
        <ele>79</ele>
        <time>2010-06-26T18:51:38Z</time>
      </trkpt>
      <trkpt lat="47.50473" lon="-0.05352">
        <ele>80</ele>
        <time>2010-06-26T18:51:43Z</time>
      </trkpt>
      <trkpt lat="47.50514" lon="-0.05371">
        <ele>80</ele>
        <time>2010-06-26T18:51:48Z</time>
      </trkpt>
      <trkpt lat="47.50547" lon="-0.05386">
        <ele>80</ele>
        <time>2010-06-26T18:51:53Z</time>
      </trkpt>
      <trkpt lat="47.50574" lon="-0.05397">
        <ele>80</ele>
        <time>2010-06-26T18:51:58Z</time>
      </trkpt>
      <trkpt lat="47.50609" lon="-0.05408">
        <ele>82</ele>
        <time>2010-06-26T18:52:03Z</time>
      </trkpt>
      <trkpt lat="47.50644" lon="-0.05416">
        <ele>83</ele>
        <time>2010-06-26T18:52:08Z</time>
      </trkpt>
      <trkpt lat="47.50685" lon="-0.05423">
        <ele>83</ele>
        <time>2010-06-26T18:52:13Z</time>
      </trkpt>
      <trkpt lat="47.50719" lon="-0.05426">
        <ele>85</ele>
        <time>2010-06-26T18:52:18Z</time>
      </trkpt>
      <trkpt lat="47.50748" lon="-0.05428">
        <ele>87</ele>
        <time>2010-06-26T18:52:23Z</time>
      </trkpt>
      <trkpt lat="47.50784" lon="-0.05428">
        <ele>88</ele>
        <time>2010-06-26T18:52:28Z</time>
      </trkpt>
      <trkpt lat="47.50827" lon="-0.05426">
        <ele>91</ele>
        <time>2010-06-26T18:52:33Z</time>
      </trkpt>
      <trkpt lat="47.50863" lon="-0.05424">
        <ele>90</ele>
        <time>2010-06-26T18:52:38Z</time>
      </trkpt>
      <trkpt lat="47.50892" lon="-0.05424">
        <ele>90</ele>
        <time>2010-06-26T18:52:43Z</time>
      </trkpt>
      <trkpt lat="47.50929" lon="-0.05423">
        <ele>91</ele>
        <time>2010-06-26T18:52:48Z</time>
      </trkpt>
      <trkpt lat="47.50975" lon="-0.05422">
        <ele>90</ele>
        <time>2010-06-26T18:52:53Z</time>
      </trkpt>
      <trkpt lat="47.51006" lon="-0.05421">
        <ele>92</ele>
        <time>2010-06-26T18:52:58Z</time>
      </trkpt>
      <trkpt lat="47.51053" lon="-0.05415">
        <ele>96</ele>
        <time>2010-06-26T18:53:03Z</time>
      </trkpt>
      <trkpt lat="47.51084" lon="-0.05411">
        <ele>93</ele>
        <time>2010-06-26T18:53:08Z</time>
      </trkpt>
      <trkpt lat="47.51122" lon="-0.05404">
        <ele>94</ele>
        <time>2010-06-26T18:53:13Z</time>
      </trkpt>
      <trkpt lat="47.51165" lon="-0.05389">
        <ele>92</ele>
        <time>2010-06-26T18:53:18Z</time>
      </trkpt>
      <trkpt lat="47.51201" lon="-0.05366">
        <ele>91</ele>
        <time>2010-06-26T18:53:23Z</time>
      </trkpt>
      <trkpt lat="47.51231" lon="-0.05346">
        <ele>91</ele>
        <time>2010-06-26T18:53:28Z</time>
      </trkpt>
      <trkpt lat="47.51269" lon="-0.0532">
        <ele>93</ele>
        <time>2010-06-26T18:53:33Z</time>
      </trkpt>
      <trkpt lat="47.51309" lon="-0.05291">
        <ele>94</ele>
        <time>2010-06-26T18:53:38Z</time>
      </trkpt>
      <trkpt lat="47.5134" lon="-0.05273">
        <ele>94</ele>
        <time>2010-06-26T18:53:43Z</time>
      </trkpt>
      <trkpt lat="47.51371" lon="-0.0526">
        <ele>93</ele>
        <time>2010-06-26T18:53:48Z</time>
      </trkpt>
      <trkpt lat="47.51397" lon="-0.05253">
        <ele>94</ele>
        <time>2010-06-26T18:53:53Z</time>
      </trkpt>
      <trkpt lat="47.51428" lon="-0.05251">
        <ele>94</ele>
        <time>2010-06-26T18:53:58Z</time>
      </trkpt>
      <trkpt lat="47.51468" lon="-0.05252">
        <ele>92</ele>
        <time>2010-06-26T18:54:03Z</time>
      </trkpt>
      <trkpt lat="47.51501" lon="-0.05247">
        <ele>95</ele>
        <time>2010-06-26T18:54:08Z</time>
      </trkpt>
      <trkpt lat="47.51536" lon="-0.05236">
        <ele>96</ele>
        <time>2010-06-26T18:54:13Z</time>
      </trkpt>
      <trkpt lat="47.51564" lon="-0.05226">
        <ele>94</ele>
        <time>2010-06-26T18:54:18Z</time>
      </trkpt>
      <trkpt lat="47.51599" lon="-0.05214">
        <ele>92</ele>
        <time>2010-06-26T18:54:23Z</time>
      </trkpt>
      <trkpt lat="47.51637" lon="-0.052">
        <ele>92</ele>
        <time>2010-06-26T18:54:28Z</time>
      </trkpt>
      <trkpt lat="47.51666" lon="-0.05191">
        <ele>93</ele>
        <time>2010-06-26T18:54:33Z</time>
      </trkpt>
      <trkpt lat="47.51689" lon="-0.05183">
        <ele>94</ele>
        <time>2010-06-26T18:54:38Z</time>
      </trkpt>
      <trkpt lat="47.51717" lon="-0.05172">
        <ele>94</ele>
        <time>2010-06-26T18:54:43Z</time>
      </trkpt>
      <trkpt lat="47.51749" lon="-0.05163">
        <ele>98</ele>
        <time>2010-06-26T18:54:48Z</time>
      </trkpt>
      <trkpt lat="47.51773" lon="-0.05156">
        <ele>100</ele>
        <time>2010-06-26T18:54:53Z</time>
      </trkpt>
      <trkpt lat="47.51796" lon="-0.05148">
        <ele>101</ele>
        <time>2010-06-26T18:54:58Z</time>
      </trkpt>
      <trkpt lat="47.51816" lon="-0.05143">
        <ele>101</ele>
        <time>2010-06-26T18:55:03Z</time>
      </trkpt>
      <trkpt lat="47.51841" lon="-0.05142">
        <ele>104</ele>
        <time>2010-06-26T18:55:08Z</time>
      </trkpt>
      <trkpt lat="47.51873" lon="-0.05155">
        <ele>106</ele>
        <time>2010-06-26T18:55:13Z</time>
      </trkpt>
      <trkpt lat="47.51899" lon="-0.05177">
        <ele>103</ele>
        <time>2010-06-26T18:55:18Z</time>
      </trkpt>
      <trkpt lat="47.51922" lon="-0.05195">
        <ele>107</ele>
        <time>2010-06-26T18:55:23Z</time>
      </trkpt>
      <trkpt lat="47.51952" lon="-0.05221">
        <ele>107</ele>
        <time>2010-06-26T18:55:28Z</time>
      </trkpt>
      <trkpt lat="47.51991" lon="-0.05257">
        <ele>105</ele>
        <time>2010-06-26T18:55:33Z</time>
      </trkpt>
      <trkpt lat="47.52025" lon="-0.05292">
        <ele>108</ele>
        <time>2010-06-26T18:55:38Z</time>
      </trkpt>
      <trkpt lat="47.52059" lon="-0.05324">
        <ele>109</ele>
        <time>2010-06-26T18:55:43Z</time>
      </trkpt>
      <trkpt lat="47.52087" lon="-0.05342">
        <ele>110</ele>
        <time>2010-06-26T18:55:48Z</time>
      </trkpt>
      <trkpt lat="47.5212" lon="-0.05368">
        <ele>111</ele>
        <time>2010-06-26T18:55:53Z</time>
      </trkpt>
      <trkpt lat="47.52158" lon="-0.05404">
        <ele>111</ele>
        <time>2010-06-26T18:55:58Z</time>
      </trkpt>
      <trkpt lat="47.52192" lon="-0.0543">
        <ele>112</ele>
        <time>2010-06-26T18:56:03Z</time>
      </trkpt>
      <trkpt lat="47.52218" lon="-0.05457">
        <ele>112</ele>
        <time>2010-06-26T18:56:08Z</time>
      </trkpt>
      <trkpt lat="47.52248" lon="-0.0549">
        <ele>113</ele>
        <time>2010-06-26T18:56:13Z</time>
      </trkpt>
      <trkpt lat="47.52273" lon="-0.05531">
        <ele>114</ele>
        <time>2010-06-26T18:56:18Z</time>
      </trkpt>
      <trkpt lat="47.52294" lon="-0.05584">
        <ele>113</ele>
        <time>2010-06-26T18:56:23Z</time>
      </trkpt>
      <trkpt lat="47.52308" lon="-0.05616">
        <ele>113</ele>
        <time>2010-06-26T18:56:28Z</time>
      </trkpt>
      <trkpt lat="47.5232" lon="-0.05643">
        <ele>112</ele>
        <time>2010-06-26T18:56:33Z</time>
      </trkpt>
      <trkpt lat="47.52337" lon="-0.05679">
        <ele>113</ele>
        <time>2010-06-26T18:56:38Z</time>
      </trkpt>
      <trkpt lat="47.52358" lon="-0.05722">
        <ele>111</ele>
        <time>2010-06-26T18:56:43Z</time>
      </trkpt>
      <trkpt lat="47.52381" lon="-0.05768">
        <ele>109</ele>
        <time>2010-06-26T18:56:48Z</time>
      </trkpt>
      <trkpt lat="47.52403" lon="-0.05798">
        <ele>110</ele>
        <time>2010-06-26T18:56:53Z</time>
      </trkpt>
      <trkpt lat="47.52418" lon="-0.05848">
        <ele>111</ele>
        <time>2010-06-26T18:56:58Z</time>
      </trkpt>
      <trkpt lat="47.52428" lon="-0.05904">
        <ele>111</ele>
        <time>2010-06-26T18:57:03Z</time>
      </trkpt>
      <trkpt lat="47.52442" lon="-0.05957">
        <ele>111</ele>
        <time>2010-06-26T18:57:08Z</time>
      </trkpt>
      <trkpt lat="47.52458" lon="-0.05992">
        <ele>110</ele>
        <time>2010-06-26T18:57:13Z</time>
      </trkpt>
      <trkpt lat="47.52469" lon="-0.06027">
        <ele>110</ele>
        <time>2010-06-26T18:57:18Z</time>
      </trkpt>
      <trkpt lat="47.52483" lon="-0.0607">
        <ele>110</ele>
        <time>2010-06-26T18:57:23Z</time>
      </trkpt>
      <trkpt lat="47.52506" lon="-0.06132">
        <ele>112</ele>
        <time>2010-06-26T18:57:28Z</time>
      </trkpt>
      <trkpt lat="47.52526" lon="-0.06184">
        <ele>111</ele>
        <time>2010-06-26T18:57:33Z</time>
      </trkpt>
      <trkpt lat="47.52545" lon="-0.0624">
        <ele>111</ele>
        <time>2010-06-26T18:57:38Z</time>
      </trkpt>
      <trkpt lat="47.52556" lon="-0.06293">
        <ele>109</ele>
        <time>2010-06-26T18:57:43Z</time>
      </trkpt>
      <trkpt lat="47.52574" lon="-0.06359">
        <ele>108</ele>
        <time>2010-06-26T18:57:48Z</time>
      </trkpt>
      <trkpt lat="47.52595" lon="-0.06427">
        <ele>110</ele>
        <time>2010-06-26T18:57:53Z</time>
      </trkpt>
      <trkpt lat="47.52624" lon="-0.06464">
        <ele>110</ele>
        <time>2010-06-26T18:57:58Z</time>
      </trkpt>
      <trkpt lat="47.52635" lon="-0.06495">
        <ele>110</ele>
        <time>2010-06-26T18:58:03Z</time>
      </trkpt>
      <trkpt lat="47.52646" lon="-0.0659">
        <ele>108</ele>
        <time>2010-06-26T18:58:08Z</time>
      </trkpt>
      <trkpt lat="47.5267" lon="-0.06642">
        <ele>109</ele>
        <time>2010-06-26T18:58:13Z</time>
      </trkpt>
      <trkpt lat="47.5269" lon="-0.067">
        <ele>109</ele>
        <time>2010-06-26T18:58:18Z</time>
      </trkpt>
      <trkpt lat="47.52709" lon="-0.06766">
        <ele>110</ele>
        <time>2010-06-26T18:58:23Z</time>
      </trkpt>
      <trkpt lat="47.52724" lon="-0.06817">
        <ele>111</ele>
        <time>2010-06-26T18:58:28Z</time>
      </trkpt>
      <trkpt lat="47.52735" lon="-0.06911">
        <ele>112</ele>
        <time>2010-06-26T18:58:33Z</time>
      </trkpt>
      <trkpt lat="47.52749" lon="-0.06981">
        <ele>109</ele>
        <time>2010-06-26T18:58:38Z</time>
      </trkpt>
      <trkpt lat="47.52764" lon="-0.0703">
        <ele>109</ele>
        <time>2010-06-26T18:58:43Z</time>
      </trkpt>
      <trkpt lat="47.52777" lon="-0.07075">
        <ele>109</ele>
        <time>2010-06-26T18:58:48Z</time>
      </trkpt>
      <trkpt lat="47.5279" lon="-0.07133">
        <ele>111</ele>
        <time>2010-06-26T18:58:53Z</time>
      </trkpt>
      <trkpt lat="47.52811" lon="-0.07198">
        <ele>111</ele>
        <time>2010-06-26T18:58:58Z</time>
      </trkpt>
      <trkpt lat="47.52827" lon="-0.07258">
        <ele>110</ele>
        <time>2010-06-26T18:59:03Z</time>
      </trkpt>
      <trkpt lat="47.52845" lon="-0.07306">
        <ele>108</ele>
        <time>2010-06-26T18:59:08Z</time>
      </trkpt>
      <trkpt lat="47.52862" lon="-0.07339">
        <ele>104</ele>
        <time>2010-06-26T18:59:13Z</time>
      </trkpt>
      <trkpt lat="47.52881" lon="-0.07398">
        <ele>101</ele>
        <time>2010-06-26T18:59:18Z</time>
      </trkpt>
      <trkpt lat="47.52904" lon="-0.0747">
        <ele>96</ele>
        <time>2010-06-26T18:59:23Z</time>
      </trkpt>
      <trkpt lat="47.52927" lon="-0.07535">
        <ele>88</ele>
        <time>2010-06-26T18:59:28Z</time>
      </trkpt>
      <trkpt lat="47.52942" lon="-0.07609">
        <ele>85</ele>
        <time>2010-06-26T18:59:33Z</time>
      </trkpt>
      <trkpt lat="47.52959" lon="-0.07693">
        <ele>82</ele>
        <time>2010-06-26T18:59:38Z</time>
      </trkpt>
      <trkpt lat="47.52976" lon="-0.07775">
        <ele>80</ele>
        <time>2010-06-26T18:59:43Z</time>
      </trkpt>
      <trkpt lat="47.52996" lon="-0.07882">
        <ele>79</ele>
        <time>2010-06-26T18:59:48Z</time>
      </trkpt>
      <trkpt lat="47.53014" lon="-0.07973">
        <ele>74</ele>
        <time>2010-06-26T18:59:53Z</time>
      </trkpt>
      <trkpt lat="47.53028" lon="-0.08041">
        <ele>72</ele>
        <time>2010-06-26T18:59:58Z</time>
      </trkpt>
      <trkpt lat="47.53043" lon="-0.08121">
        <ele>71</ele>
        <time>2010-06-26T19:00:03Z</time>
      </trkpt>
      <trkpt lat="47.53061" lon="-0.08214">
        <ele>72</ele>
        <time>2010-06-26T19:00:08Z</time>
      </trkpt>
      <trkpt lat="47.53076" lon="-0.08279">
        <ele>72</ele>
        <time>2010-06-26T19:00:13Z</time>
      </trkpt>
      <trkpt lat="47.53098" lon="-0.08338">
        <ele>72</ele>
        <time>2010-06-26T19:00:18Z</time>
      </trkpt>
      <trkpt lat="47.53121" lon="-0.08383">
        <ele>72</ele>
        <time>2010-06-26T19:00:23Z</time>
      </trkpt>
      <trkpt lat="47.53153" lon="-0.08437">
        <ele>73</ele>
        <time>2010-06-26T19:00:28Z</time>
      </trkpt>
      <trkpt lat="47.53203" lon="-0.08482">
        <ele>71</ele>
        <time>2010-06-26T19:00:33Z</time>
      </trkpt>
      <trkpt lat="47.53246" lon="-0.08505">
        <ele>70</ele>
        <time>2010-06-26T19:00:38Z</time>
      </trkpt>
      <trkpt lat="47.5328" lon="-0.08515">
        <ele>69</ele>
        <time>2010-06-26T19:00:43Z</time>
      </trkpt>
      <trkpt lat="47.53319" lon="-0.08533">
        <ele>69</ele>
        <time>2010-06-26T19:00:48Z</time>
      </trkpt>
      <trkpt lat="47.53349" lon="-0.08564">
        <ele>71</ele>
        <time>2010-06-26T19:00:53Z</time>
      </trkpt>
      <trkpt lat="47.53377" lon="-0.08611">
        <ele>73</ele>
        <time>2010-06-26T19:00:58Z</time>
      </trkpt>
      <trkpt lat="47.53397" lon="-0.0866">
        <ele>74</ele>
        <time>2010-06-26T19:01:03Z</time>
      </trkpt>
      <trkpt lat="47.53408" lon="-0.08705">
        <ele>75</ele>
        <time>2010-06-26T19:01:08Z</time>
      </trkpt>
      <trkpt lat="47.53418" lon="-0.08754">
        <ele>76</ele>
        <time>2010-06-26T19:01:13Z</time>
      </trkpt>
      <trkpt lat="47.53427" lon="-0.08815">
        <ele>75</ele>
        <time>2010-06-26T19:01:18Z</time>
      </trkpt>
      <trkpt lat="47.53429" lon="-0.08871">
        <ele>75</ele>
        <time>2010-06-26T19:01:23Z</time>
      </trkpt>
      <trkpt lat="47.53435" lon="-0.08909">
        <ele>75</ele>
        <time>2010-06-26T19:01:28Z</time>
      </trkpt>
      <trkpt lat="47.5345" lon="-0.08964">
        <ele>74</ele>
        <time>2010-06-26T19:01:33Z</time>
      </trkpt>
      <trkpt lat="47.5347" lon="-0.09006">
        <ele>73</ele>
        <time>2010-06-26T19:01:38Z</time>
      </trkpt>
      <trkpt lat="47.53498" lon="-0.09061">
        <ele>72</ele>
        <time>2010-06-26T19:01:43Z</time>
      </trkpt>
      <trkpt lat="47.53522" lon="-0.09111">
        <ele>68</ele>
        <time>2010-06-26T19:01:48Z</time>
      </trkpt>
      <trkpt lat="47.53541" lon="-0.09156">
        <ele>67</ele>
        <time>2010-06-26T19:01:53Z</time>
      </trkpt>
      <trkpt lat="47.53566" lon="-0.09212">
        <ele>66</ele>
        <time>2010-06-26T19:01:58Z</time>
      </trkpt>
      <trkpt lat="47.53599" lon="-0.09283">
        <ele>62</ele>
        <time>2010-06-26T19:02:03Z</time>
      </trkpt>
      <trkpt lat="47.53631" lon="-0.09343">
        <ele>60</ele>
        <time>2010-06-26T19:02:08Z</time>
      </trkpt>
      <trkpt lat="47.53654" lon="-0.09382">
        <ele>60</ele>
        <time>2010-06-26T19:02:13Z</time>
      </trkpt>
      <trkpt lat="47.53672" lon="-0.0939">
        <ele>58</ele>
        <time>2010-06-26T19:02:18Z</time>
      </trkpt>
      <trkpt lat="47.53682" lon="-0.09419">
        <ele>58</ele>
        <time>2010-06-26T19:02:23Z</time>
      </trkpt>
      <trkpt lat="47.5369" lon="-0.09464">
        <ele>57</ele>
        <time>2010-06-26T19:02:28Z</time>
      </trkpt>
      <trkpt lat="47.53698" lon="-0.09516">
        <ele>58</ele>
        <time>2010-06-26T19:02:33Z</time>
      </trkpt>
      <trkpt lat="47.53704" lon="-0.0956">
        <ele>58</ele>
        <time>2010-06-26T19:02:38Z</time>
      </trkpt>
      <trkpt lat="47.5371" lon="-0.09618">
        <ele>58</ele>
        <time>2010-06-26T19:02:43Z</time>
      </trkpt>
      <trkpt lat="47.53716" lon="-0.09695">
        <ele>58</ele>
        <time>2010-06-26T19:02:48Z</time>
      </trkpt>
      <trkpt lat="47.53726" lon="-0.09762">
        <ele>57</ele>
        <time>2010-06-26T19:02:53Z</time>
      </trkpt>
      <trkpt lat="47.5373" lon="-0.09819">
        <ele>56</ele>
        <time>2010-06-26T19:02:58Z</time>
      </trkpt>
      <trkpt lat="47.53742" lon="-0.09889">
        <ele>55</ele>
        <time>2010-06-26T19:03:03Z</time>
      </trkpt>
      <trkpt lat="47.5375" lon="-0.09976">
        <ele>55</ele>
        <time>2010-06-26T19:03:08Z</time>
      </trkpt>
      <trkpt lat="47.53758" lon="-0.10017">
        <ele>54</ele>
        <time>2010-06-26T19:03:13Z</time>
      </trkpt>
      <trkpt lat="47.53762" lon="-0.10036">
        <ele>54</ele>
        <time>2010-06-26T19:03:18Z</time>
      </trkpt>
      <trkpt lat="47.53764" lon="-0.10047">
        <ele>54</ele>
        <time>2010-06-26T19:03:23Z</time>
      </trkpt>
      <trkpt lat="47.5377" lon="-0.10071">
        <ele>54</ele>
        <time>2010-06-26T19:03:28Z</time>
      </trkpt>
      <trkpt lat="47.53792" lon="-0.10101">
        <ele>53</ele>
        <time>2010-06-26T19:03:33Z</time>
      </trkpt>
      <trkpt lat="47.53809" lon="-0.10135">
        <ele>53</ele>
        <time>2010-06-26T19:03:38Z</time>
      </trkpt>
      <trkpt lat="47.53794" lon="-0.10182">
        <ele>53</ele>
        <time>2010-06-26T19:03:43Z</time>
      </trkpt>
      <trkpt lat="47.53784" lon="-0.10219">
        <ele>53</ele>
        <time>2010-06-26T19:03:48Z</time>
      </trkpt>
      <trkpt lat="47.53786" lon="-0.10281">
        <ele>53</ele>
        <time>2010-06-26T19:03:53Z</time>
      </trkpt>
      <trkpt lat="47.53791" lon="-0.10337">
        <ele>52</ele>
        <time>2010-06-26T19:03:58Z</time>
      </trkpt>
      <trkpt lat="47.53796" lon="-0.10393">
        <ele>52</ele>
        <time>2010-06-26T19:04:03Z</time>
      </trkpt>
      <trkpt lat="47.53799" lon="-0.10439">
        <ele>52</ele>
        <time>2010-06-26T19:04:08Z</time>
      </trkpt>
      <trkpt lat="47.53789" lon="-0.10495">
        <ele>52</ele>
        <time>2010-06-26T19:04:13Z</time>
      </trkpt>
      <trkpt lat="47.53802" lon="-0.10563">
        <ele>51</ele>
        <time>2010-06-26T19:04:18Z</time>
      </trkpt>
      <trkpt lat="47.53828" lon="-0.10611">
        <ele>50</ele>
        <time>2010-06-26T19:04:23Z</time>
      </trkpt>
      <trkpt lat="47.53861" lon="-0.10659">
        <ele>48</ele>
        <time>2010-06-26T19:04:28Z</time>
      </trkpt>
      <trkpt lat="47.53889" lon="-0.10701">
        <ele>46</ele>
        <time>2010-06-26T19:04:33Z</time>
      </trkpt>
      <trkpt lat="47.53923" lon="-0.1075">
        <ele>45</ele>
        <time>2010-06-26T19:04:38Z</time>
      </trkpt>
      <trkpt lat="47.53958" lon="-0.108">
        <ele>47</ele>
        <time>2010-06-26T19:04:43Z</time>
      </trkpt>
      <trkpt lat="47.53988" lon="-0.10837">
        <ele>49</ele>
        <time>2010-06-26T19:04:48Z</time>
      </trkpt>
      <trkpt lat="47.54009" lon="-0.10861">
        <ele>53</ele>
        <time>2010-06-26T19:04:53Z</time>
      </trkpt>
      <trkpt lat="47.54032" lon="-0.10889">
        <ele>54</ele>
        <time>2010-06-26T19:04:58Z</time>
      </trkpt>
      <trkpt lat="47.54054" lon="-0.10921">
        <ele>54</ele>
        <time>2010-06-26T19:05:03Z</time>
      </trkpt>
      <trkpt lat="47.54069" lon="-0.10949">
        <ele>54</ele>
        <time>2010-06-26T19:05:08Z</time>
      </trkpt>
      <trkpt lat="47.54077" lon="-0.10967">
        <ele>54</ele>
        <time>2010-06-26T19:05:13Z</time>
      </trkpt>
      <trkpt lat="47.54076" lon="-0.10967">
        <ele>54</ele>
        <time>2010-06-26T19:05:18Z</time>
      </trkpt>
      <trkpt lat="47.54075" lon="-0.10973">
        <ele>54</ele>
        <time>2010-06-26T19:05:23Z</time>
      </trkpt>
      <trkpt lat="47.54061" lon="-0.11003">
        <ele>54</ele>
        <time>2010-06-26T19:05:28Z</time>
      </trkpt>
      <trkpt lat="47.54047" lon="-0.11041">
        <ele>54</ele>
        <time>2010-06-26T19:05:33Z</time>
      </trkpt>
      <trkpt lat="47.54032" lon="-0.11069">
        <ele>54</ele>
        <time>2010-06-26T19:05:38Z</time>
      </trkpt>
      <trkpt lat="47.54012" lon="-0.11102">
        <ele>55</ele>
        <time>2010-06-26T19:05:43Z</time>
      </trkpt>
      <trkpt lat="47.53983" lon="-0.11143">
        <ele>53</ele>
        <time>2010-06-26T19:05:48Z</time>
      </trkpt>
      <trkpt lat="47.53964" lon="-0.11185">
        <ele>54</ele>
        <time>2010-06-26T19:05:53Z</time>
      </trkpt>
      <trkpt lat="47.53941" lon="-0.11232">
        <ele>54</ele>
        <time>2010-06-26T19:05:58Z</time>
      </trkpt>
      <trkpt lat="47.53921" lon="-0.11273">
        <ele>54</ele>
        <time>2010-06-26T19:06:03Z</time>
      </trkpt>
      <trkpt lat="47.53893" lon="-0.11324">
        <ele>50</ele>
        <time>2010-06-26T19:06:08Z</time>
      </trkpt>
      <trkpt lat="47.5385" lon="-0.1138">
        <ele>49</ele>
        <time>2010-06-26T19:06:13Z</time>
      </trkpt>
      <trkpt lat="47.5381" lon="-0.11414">
        <ele>47</ele>
        <time>2010-06-26T19:06:18Z</time>
      </trkpt>
      <trkpt lat="47.5377" lon="-0.11438">
        <ele>48</ele>
        <time>2010-06-26T19:06:23Z</time>
      </trkpt>
      <trkpt lat="47.53741" lon="-0.11457">
        <ele>50</ele>
        <time>2010-06-26T19:06:28Z</time>
      </trkpt>
      <trkpt lat="47.53706" lon="-0.1148">
        <ele>51</ele>
        <time>2010-06-26T19:06:33Z</time>
      </trkpt>
      <trkpt lat="47.53667" lon="-0.11506">
        <ele>54</ele>
        <time>2010-06-26T19:06:38Z</time>
      </trkpt>
      <trkpt lat="47.53635" lon="-0.11526">
        <ele>55</ele>
        <time>2010-06-26T19:06:43Z</time>
      </trkpt>
      <trkpt lat="47.5361" lon="-0.11544">
        <ele>56</ele>
        <time>2010-06-26T19:06:48Z</time>
      </trkpt>
      <trkpt lat="47.53579" lon="-0.11566">
        <ele>54</ele>
        <time>2010-06-26T19:06:53Z</time>
      </trkpt>
      <trkpt lat="47.53538" lon="-0.11591">
        <ele>57</ele>
        <time>2010-06-26T19:06:58Z</time>
      </trkpt>
      <trkpt lat="47.53504" lon="-0.11613">
        <ele>57</ele>
        <time>2010-06-26T19:07:03Z</time>
      </trkpt>
      <trkpt lat="47.5347" lon="-0.11634">
        <ele>56</ele>
        <time>2010-06-26T19:07:08Z</time>
      </trkpt>
      <trkpt lat="47.53444" lon="-0.11651">
        <ele>56</ele>
        <time>2010-06-26T19:07:13Z</time>
      </trkpt>
      <trkpt lat="47.53412" lon="-0.11675">
        <ele>58</ele>
        <time>2010-06-26T19:07:18Z</time>
      </trkpt>
      <trkpt lat="47.53377" lon="-0.11705">
        <ele>58</ele>
        <time>2010-06-26T19:07:23Z</time>
      </trkpt>
      <trkpt lat="47.53351" lon="-0.11734">
        <ele>59</ele>
        <time>2010-06-26T19:07:28Z</time>
      </trkpt>
      <trkpt lat="47.53332" lon="-0.11761">
        <ele>60</ele>
        <time>2010-06-26T19:07:33Z</time>
      </trkpt>
      <trkpt lat="47.5331" lon="-0.11796">
        <ele>60</ele>
        <time>2010-06-26T19:07:38Z</time>
      </trkpt>
      <trkpt lat="47.53286" lon="-0.11832">
        <ele>60</ele>
        <time>2010-06-26T19:07:43Z</time>
      </trkpt>
      <trkpt lat="47.53253" lon="-0.11872">
        <ele>62</ele>
        <time>2010-06-26T19:07:48Z</time>
      </trkpt>
      <trkpt lat="47.53228" lon="-0.11907">
        <ele>59</ele>
        <time>2010-06-26T19:07:53Z</time>
      </trkpt>
      <trkpt lat="47.53209" lon="-0.11935">
        <ele>59</ele>
        <time>2010-06-26T19:07:58Z</time>
      </trkpt>
      <trkpt lat="47.53191" lon="-0.11975">
        <ele>58</ele>
        <time>2010-06-26T19:08:03Z</time>
      </trkpt>
      <trkpt lat="47.53176" lon="-0.11998">
        <ele>56</ele>
        <time>2010-06-26T19:08:08Z</time>
      </trkpt>
      <trkpt lat="47.53149" lon="-0.11984">
        <ele>53</ele>
        <time>2010-06-26T19:08:13Z</time>
      </trkpt>
      <trkpt lat="47.53128" lon="-0.11945">
        <ele>52</ele>
        <time>2010-06-26T19:08:18Z</time>
      </trkpt>
      <trkpt lat="47.53103" lon="-0.11886">
        <ele>49</ele>
        <time>2010-06-26T19:08:23Z</time>
      </trkpt>
      <trkpt lat="47.53077" lon="-0.11823">
        <ele>43</ele>
        <time>2010-06-26T19:08:28Z</time>
      </trkpt>
      <trkpt lat="47.53056" lon="-0.11794">
        <ele>43</ele>
        <time>2010-06-26T19:08:33Z</time>
      </trkpt>
      <trkpt lat="47.53053" lon="-0.11793">
        <ele>43</ele>
        <time>2010-06-26T19:08:38Z</time>
      </trkpt>
      <trkpt lat="47.53054" lon="-0.11795">
        <ele>43</ele>
        <time>2010-06-26T19:08:43Z</time>
      </trkpt>
      <trkpt lat="47.53055" lon="-0.11796">
        <ele>43</ele>
        <time>2010-06-26T19:08:48Z</time>
      </trkpt>
      <trkpt lat="47.53055" lon="-0.11797">
        <ele>43</ele>
        <time>2010-06-26T19:08:53Z</time>
      </trkpt>
      <trkpt lat="47.53053" lon="-0.11795">
        <ele>43</ele>
        <time>2010-06-26T19:08:58Z</time>
      </trkpt>
      <trkpt lat="47.5305" lon="-0.11794">
        <ele>43</ele>
        <time>2010-06-26T19:09:03Z</time>
      </trkpt>
      <trkpt lat="47.53048" lon="-0.11794">
        <ele>43</ele>
        <time>2010-06-26T19:09:08Z</time>
      </trkpt>
      <trkpt lat="47.53048" lon="-0.11794">
        <ele>43</ele>
        <time>2010-06-26T19:09:13Z</time>
      </trkpt>
      <trkpt lat="47.5305" lon="-0.11794">
        <ele>43</ele>
        <time>2010-06-26T19:09:18Z</time>
      </trkpt>
      <trkpt lat="47.53056" lon="-0.11794">
        <ele>43</ele>
        <time>2010-06-26T19:09:23Z</time>
      </trkpt>
      <trkpt lat="47.53059" lon="-0.11796">
        <ele>43</ele>
        <time>2010-06-26T19:09:28Z</time>
      </trkpt>
      <trkpt lat="47.5306" lon="-0.11799">
        <ele>43</ele>
        <time>2010-06-26T19:09:33Z</time>
      </trkpt>
      <trkpt lat="47.5306" lon="-0.11798">
        <ele>43</ele>
        <time>2010-06-26T19:09:38Z</time>
      </trkpt>
      <trkpt lat="47.53059" lon="-0.118">
        <ele>43</ele>
        <time>2010-06-26T19:09:43Z</time>
      </trkpt>
      <trkpt lat="47.53058" lon="-0.11799">
        <ele>43</ele>
        <time>2010-06-26T19:09:48Z</time>
      </trkpt>
      <trkpt lat="47.5306" lon="-0.118">
        <ele>43</ele>
        <time>2010-06-26T19:09:53Z</time>
      </trkpt>
      <trkpt lat="47.53063" lon="-0.118">
        <ele>43</ele>
        <time>2010-06-26T19:09:58Z</time>
      </trkpt>
      <trkpt lat="47.53065" lon="-0.11799">
        <ele>43</ele>
        <time>2010-06-26T19:10:03Z</time>
      </trkpt>
      <trkpt lat="47.53064" lon="-0.11798">
        <ele>43</ele>
        <time>2010-06-26T19:10:08Z</time>
      </trkpt>
      <trkpt lat="47.53062" lon="-0.11795">
        <ele>43</ele>
        <time>2010-06-26T19:10:13Z</time>
      </trkpt>
      <trkpt lat="47.53064" lon="-0.11794">
        <ele>43</ele>
        <time>2010-06-26T19:10:18Z</time>
      </trkpt>
      <trkpt lat="47.53063" lon="-0.11795">
        <ele>43</ele>
        <time>2010-06-26T19:10:23Z</time>
      </trkpt>
      <trkpt lat="47.53061" lon="-0.11798">
        <ele>43</ele>
        <time>2010-06-26T19:10:28Z</time>
      </trkpt>
      <trkpt lat="47.5306" lon="-0.118">
        <ele>43</ele>
        <time>2010-06-26T19:10:33Z</time>
      </trkpt>
      <trkpt lat="47.53063" lon="-0.11801">
        <ele>43</ele>
        <time>2010-06-26T19:10:38Z</time>
      </trkpt>
      <trkpt lat="47.53068" lon="-0.118">
        <ele>43</ele>
        <time>2010-06-26T19:10:43Z</time>
      </trkpt>
      <trkpt lat="47.53071" lon="-0.118">
        <ele>43</ele>
        <time>2010-06-26T19:10:48Z</time>
      </trkpt>
      <trkpt lat="47.53071" lon="-0.11799">
        <ele>43</ele>
        <time>2010-06-26T19:10:53Z</time>
      </trkpt>
      <trkpt lat="47.53072" lon="-0.118">
        <ele>43</ele>
        <time>2010-06-26T19:10:58Z</time>
      </trkpt>
      <trkpt lat="47.53076" lon="-0.11799">
        <ele>43</ele>
        <time>2010-06-26T19:11:03Z</time>
      </trkpt>
      <trkpt lat="47.53077" lon="-0.11798">
        <ele>43</ele>
        <time>2010-06-26T19:11:08Z</time>
      </trkpt>
      <trkpt lat="47.53078" lon="-0.11798">
        <ele>43</ele>
        <time>2010-06-26T19:11:13Z</time>
      </trkpt>
      <trkpt lat="47.53077" lon="-0.11798">
        <ele>43</ele>
        <time>2010-06-26T19:11:18Z</time>
      </trkpt>
      <trkpt lat="47.53083" lon="-0.11795">
        <ele>43</ele>
        <time>2010-06-26T19:11:23Z</time>
      </trkpt>
      <trkpt lat="47.53086" lon="-0.11794">
        <ele>45</ele>
        <time>2010-06-26T19:11:28Z</time>
      </trkpt>
      <trkpt lat="47.5308" lon="-0.11795">
        <ele>43</ele>
        <time>2010-06-26T19:11:33Z</time>
      </trkpt>
      <trkpt lat="47.53074" lon="-0.11794">
        <ele>43</ele>
        <time>2010-06-26T19:11:38Z</time>
      </trkpt>
      <trkpt lat="47.53071" lon="-0.11794">
        <ele>43</ele>
        <time>2010-06-26T19:11:43Z</time>
      </trkpt>
      <trkpt lat="47.53067" lon="-0.11792">
        <ele>43</ele>
        <time>2010-06-26T19:11:48Z</time>
      </trkpt>
      <trkpt lat="47.5306" lon="-0.11795">
        <ele>43</ele>
        <time>2010-06-26T19:11:53Z</time>
      </trkpt>
      <trkpt lat="47.53063" lon="-0.11796">
        <ele>43</ele>
        <time>2010-06-26T19:11:58Z</time>
      </trkpt>
      <trkpt lat="47.53062" lon="-0.11798">
        <ele>43</ele>
        <time>2010-06-26T19:12:03Z</time>
      </trkpt>
      <trkpt lat="47.53062" lon="-0.118">
        <ele>43</ele>
        <time>2010-06-26T19:12:08Z</time>
      </trkpt>
      <trkpt lat="47.53059" lon="-0.11806">
        <ele>43</ele>
        <time>2010-06-26T19:12:13Z</time>
      </trkpt>
      <trkpt lat="47.53057" lon="-0.11807">
        <ele>43</ele>
        <time>2010-06-26T19:12:18Z</time>
      </trkpt>
      <trkpt lat="47.5305" lon="-0.11806">
        <ele>43</ele>
        <time>2010-06-26T19:12:23Z</time>
      </trkpt>
      <trkpt lat="47.53052" lon="-0.11805">
        <ele>43</ele>
        <time>2010-06-26T19:12:28Z</time>
      </trkpt>
      <trkpt lat="47.53057" lon="-0.11806">
        <ele>43</ele>
        <time>2010-06-26T19:12:33Z</time>
      </trkpt>
      <trkpt lat="47.53059" lon="-0.11802">
        <ele>43</ele>
        <time>2010-06-26T19:12:38Z</time>
      </trkpt>
      <trkpt lat="47.5306" lon="-0.118">
        <ele>43</ele>
        <time>2010-06-26T19:12:43Z</time>
      </trkpt>
      <trkpt lat="47.53054" lon="-0.118">
        <ele>43</ele>
        <time>2010-06-26T19:12:48Z</time>
      </trkpt>
      <trkpt lat="47.53053" lon="-0.11799">
        <ele>43</ele>
        <time>2010-06-26T19:12:53Z</time>
      </trkpt>
      <trkpt lat="47.53056" lon="-0.11799">
        <ele>43</ele>
        <time>2010-06-26T19:12:58Z</time>
      </trkpt>
      <trkpt lat="47.53058" lon="-0.11796">
        <ele>43</ele>
        <time>2010-06-26T19:13:03Z</time>
      </trkpt>
      <trkpt lat="47.53056" lon="-0.11796">
        <ele>43</ele>
        <time>2010-06-26T19:13:08Z</time>
      </trkpt>
      <trkpt lat="47.53053" lon="-0.11794">
        <ele>43</ele>
        <time>2010-06-26T19:13:13Z</time>
      </trkpt>
      <trkpt lat="47.53054" lon="-0.11794">
        <ele>43</ele>
        <time>2010-06-26T19:13:18Z</time>
      </trkpt>
      <trkpt lat="47.53054" lon="-0.11793">
        <ele>43</ele>
        <time>2010-06-26T19:13:23Z</time>
      </trkpt>
      <trkpt lat="47.53055" lon="-0.11795">
        <ele>43</ele>
        <time>2010-06-26T19:13:28Z</time>
      </trkpt>
      <trkpt lat="47.53052" lon="-0.11792">
        <ele>43</ele>
        <time>2010-06-26T19:13:33Z</time>
      </trkpt>
      <trkpt lat="47.53051" lon="-0.11791">
        <ele>43</ele>
        <time>2010-06-26T19:13:38Z</time>
      </trkpt>
      <trkpt lat="47.53053" lon="-0.11791">
        <ele>43</ele>
        <time>2010-06-26T19:13:43Z</time>
      </trkpt>
      <trkpt lat="47.53054" lon="-0.11792">
        <ele>43</ele>
        <time>2010-06-26T19:13:48Z</time>
      </trkpt>
      <trkpt lat="47.53056" lon="-0.11793">
        <ele>43</ele>
        <time>2010-06-26T19:13:53Z</time>
      </trkpt>
      <trkpt lat="47.53058" lon="-0.11795">
        <ele>43</ele>
        <time>2010-06-26T19:13:58Z</time>
      </trkpt>
      <trkpt lat="47.53059" lon="-0.11797">
        <ele>43</ele>
        <time>2010-06-26T19:14:03Z</time>
      </trkpt>
      <trkpt lat="47.53057" lon="-0.11799">
        <ele>43</ele>
        <time>2010-06-26T19:14:08Z</time>
      </trkpt>
      <trkpt lat="47.53056" lon="-0.11798">
        <ele>43</ele>
        <time>2010-06-26T19:14:13Z</time>
      </trkpt>
      <trkpt lat="47.53055" lon="-0.11798">
        <ele>43</ele>
        <time>2010-06-26T19:14:18Z</time>
      </trkpt>
      <trkpt lat="47.53052" lon="-0.11796">
        <ele>43</ele>
        <time>2010-06-26T19:14:23Z</time>
      </trkpt>
      <trkpt lat="47.53047" lon="-0.11791">
        <ele>43</ele>
        <time>2010-06-26T19:14:28Z</time>
      </trkpt>
      <trkpt lat="47.53049" lon="-0.11792">
        <ele>43</ele>
        <time>2010-06-26T19:14:33Z</time>
      </trkpt>
      <trkpt lat="47.53047" lon="-0.1179">
        <ele>43</ele>
        <time>2010-06-26T19:14:38Z</time>
      </trkpt>
      <trkpt lat="47.53047" lon="-0.1179">
        <ele>43</ele>
        <time>2010-06-26T19:14:43Z</time>
      </trkpt>
      <trkpt lat="47.53047" lon="-0.11792">
        <ele>43</ele>
        <time>2010-06-26T19:14:48Z</time>
      </trkpt>
      <trkpt lat="47.53049" lon="-0.11789">
        <ele>43</ele>
        <time>2010-06-26T19:14:53Z</time>
      </trkpt>
      <trkpt lat="47.53049" lon="-0.11788">
        <ele>43</ele>
        <time>2010-06-26T19:14:58Z</time>
      </trkpt>
      <trkpt lat="47.53049" lon="-0.11788">
        <ele>43</ele>
        <time>2010-06-26T19:15:03Z</time>
      </trkpt>
      <trkpt lat="47.53047" lon="-0.11788">
        <ele>43</ele>
        <time>2010-06-26T19:15:08Z</time>
      </trkpt>
      <trkpt lat="47.53047" lon="-0.11788">
        <ele>43</ele>
        <time>2010-06-26T19:15:13Z</time>
      </trkpt>
      <trkpt lat="47.53046" lon="-0.11791">
        <ele>43</ele>
        <time>2010-06-26T19:15:18Z</time>
      </trkpt>
      <trkpt lat="47.53046" lon="-0.11794">
        <ele>43</ele>
        <time>2010-06-26T19:15:23Z</time>
      </trkpt>
      <trkpt lat="47.53044" lon="-0.11791">
        <ele>43</ele>
        <time>2010-06-26T19:15:28Z</time>
      </trkpt>
      <trkpt lat="47.5304" lon="-0.11785">
        <ele>43</ele>
        <time>2010-06-26T19:15:33Z</time>
      </trkpt>
      <trkpt lat="47.53038" lon="-0.11782">
        <ele>43</ele>
        <time>2010-06-26T19:15:38Z</time>
      </trkpt>
      <trkpt lat="47.5304" lon="-0.11781">
        <ele>43</ele>
        <time>2010-06-26T19:15:43Z</time>
      </trkpt>
      <trkpt lat="47.53042" lon="-0.11781">
        <ele>43</ele>
        <time>2010-06-26T19:15:48Z</time>
      </trkpt>
      <trkpt lat="47.53044" lon="-0.11782">
        <ele>43</ele>
        <time>2010-06-26T19:15:53Z</time>
      </trkpt>
      <trkpt lat="47.53045" lon="-0.11783">
        <ele>43</ele>
        <time>2010-06-26T19:15:58Z</time>
      </trkpt>
      <trkpt lat="47.53044" lon="-0.1178">
        <ele>43</ele>
        <time>2010-06-26T19:16:03Z</time>
      </trkpt>
      <trkpt lat="47.53047" lon="-0.11784">
        <ele>43</ele>
        <time>2010-06-26T19:16:08Z</time>
      </trkpt>
      <trkpt lat="47.53047" lon="-0.11785">
        <ele>43</ele>
        <time>2010-06-26T19:16:13Z</time>
      </trkpt>
      <trkpt lat="47.53048" lon="-0.11785">
        <ele>43</ele>
        <time>2010-06-26T19:16:18Z</time>
      </trkpt>
      <trkpt lat="47.53048" lon="-0.11784">
        <ele>43</ele>
        <time>2010-06-26T19:16:23Z</time>
      </trkpt>
      <trkpt lat="47.53049" lon="-0.11782">
        <ele>43</ele>
        <time>2010-06-26T19:16:28Z</time>
      </trkpt>
      <trkpt lat="47.53049" lon="-0.11781">
        <ele>43</ele>
        <time>2010-06-26T19:16:33Z</time>
      </trkpt>
      <trkpt lat="47.53046" lon="-0.11781">
        <ele>43</ele>
        <time>2010-06-26T19:16:38Z</time>
      </trkpt>
      <trkpt lat="47.53045" lon="-0.11783">
        <ele>43</ele>
        <time>2010-06-26T19:16:43Z</time>
      </trkpt>
      <trkpt lat="47.53046" lon="-0.11787">
        <ele>43</ele>
        <time>2010-06-26T19:16:48Z</time>
      </trkpt>
      <trkpt lat="47.53045" lon="-0.11787">
        <ele>43</ele>
        <time>2010-06-26T19:16:53Z</time>
      </trkpt>
      <trkpt lat="47.53047" lon="-0.11788">
        <ele>43</ele>
        <time>2010-06-26T19:16:58Z</time>
      </trkpt>
      <trkpt lat="47.53047" lon="-0.11788">
        <ele>43</ele>
        <time>2010-06-26T19:17:03Z</time>
      </trkpt>
      <trkpt lat="47.53049" lon="-0.11787">
        <ele>43</ele>
        <time>2010-06-26T19:17:08Z</time>
      </trkpt>
      <trkpt lat="47.53049" lon="-0.11788">
        <ele>43</ele>
        <time>2010-06-26T19:17:13Z</time>
      </trkpt>
      <trkpt lat="47.53051" lon="-0.1179">
        <ele>43</ele>
        <time>2010-06-26T19:17:18Z</time>
      </trkpt>
      <trkpt lat="47.53052" lon="-0.1179">
        <ele>43</ele>
        <time>2010-06-26T19:17:23Z</time>
      </trkpt>
      <trkpt lat="47.53051" lon="-0.1179">
        <ele>43</ele>
        <time>2010-06-26T19:17:28Z</time>
      </trkpt>
      <trkpt lat="47.53056" lon="-0.11793">
        <ele>43</ele>
        <time>2010-06-26T19:17:33Z</time>
      </trkpt>
      <trkpt lat="47.53059" lon="-0.11795">
        <ele>43</ele>
        <time>2010-06-26T19:17:38Z</time>
      </trkpt>
      <trkpt lat="47.53067" lon="-0.11803">
        <ele>43</ele>
        <time>2010-06-26T19:17:43Z</time>
      </trkpt>
      <trkpt lat="47.53073" lon="-0.11815">
        <ele>43</ele>
        <time>2010-06-26T19:17:48Z</time>
      </trkpt>
      <trkpt lat="47.53081" lon="-0.11835">
        <ele>44</ele>
        <time>2010-06-26T19:17:53Z</time>
      </trkpt>
      <trkpt lat="47.5309" lon="-0.11855">
        <ele>47</ele>
        <time>2010-06-26T19:17:58Z</time>
      </trkpt>
      <trkpt lat="47.531" lon="-0.1188">
        <ele>49</ele>
        <time>2010-06-26T19:18:03Z</time>
      </trkpt>
      <trkpt lat="47.53112" lon="-0.11907">
        <ele>50</ele>
        <time>2010-06-26T19:18:08Z</time>
      </trkpt>
      <trkpt lat="47.53121" lon="-0.11929">
        <ele>52</ele>
        <time>2010-06-26T19:18:13Z</time>
      </trkpt>
      <trkpt lat="47.53133" lon="-0.11957">
        <ele>53</ele>
        <time>2010-06-26T19:18:18Z</time>
      </trkpt>
      <trkpt lat="47.53153" lon="-0.11984">
        <ele>54</ele>
        <time>2010-06-26T19:18:23Z</time>
      </trkpt>
      <trkpt lat="47.53174" lon="-0.11996">
        <ele>56</ele>
        <time>2010-06-26T19:18:28Z</time>
      </trkpt>
      <trkpt lat="47.53186" lon="-0.12001">
        <ele>56</ele>
        <time>2010-06-26T19:18:33Z</time>
      </trkpt>
      <trkpt lat="47.53186" lon="-0.12002">
        <ele>56</ele>
        <time>2010-06-26T19:18:38Z</time>
      </trkpt>
      <trkpt lat="47.53186" lon="-0.12002">
        <ele>56</ele>
        <time>2010-06-26T19:18:43Z</time>
      </trkpt>
      <trkpt lat="47.53185" lon="-0.12005">
        <ele>56</ele>
        <time>2010-06-26T19:18:48Z</time>
      </trkpt>
      <trkpt lat="47.53187" lon="-0.12005">
        <ele>56</ele>
        <time>2010-06-26T19:18:53Z</time>
      </trkpt>
      <trkpt lat="47.53188" lon="-0.12014">
        <ele>56</ele>
        <time>2010-06-26T19:18:58Z</time>
      </trkpt>
      <trkpt lat="47.53178" lon="-0.12044">
        <ele>56</ele>
        <time>2010-06-26T19:19:03Z</time>
      </trkpt>
      <trkpt lat="47.53156" lon="-0.12096">
        <ele>51</ele>
        <time>2010-06-26T19:19:08Z</time>
      </trkpt>
      <trkpt lat="47.5313" lon="-0.12149">
        <ele>50</ele>
        <time>2010-06-26T19:19:13Z</time>
      </trkpt>
      <trkpt lat="47.53104" lon="-0.12204">
        <ele>49</ele>
        <time>2010-06-26T19:19:18Z</time>
      </trkpt>
      <trkpt lat="47.53091" lon="-0.12248">
        <ele>48</ele>
        <time>2010-06-26T19:19:23Z</time>
      </trkpt>
      <trkpt lat="47.53079" lon="-0.12298">
        <ele>49</ele>
        <time>2010-06-26T19:19:28Z</time>
      </trkpt>
      <trkpt lat="47.53076" lon="-0.12357">
        <ele>51</ele>
        <time>2010-06-26T19:19:33Z</time>
      </trkpt>
      <trkpt lat="47.53076" lon="-0.12405">
        <ele>51</ele>
        <time>2010-06-26T19:19:38Z</time>
      </trkpt>
      <trkpt lat="47.53076" lon="-0.12444">
        <ele>51</ele>
        <time>2010-06-26T19:19:43Z</time>
      </trkpt>
      <trkpt lat="47.53075" lon="-0.12487">
        <ele>52</ele>
        <time>2010-06-26T19:19:48Z</time>
      </trkpt>
      <trkpt lat="47.53077" lon="-0.12532">
        <ele>52</ele>
        <time>2010-06-26T19:19:53Z</time>
      </trkpt>
      <trkpt lat="47.53076" lon="-0.12589">
        <ele>52</ele>
        <time>2010-06-26T19:19:58Z</time>
      </trkpt>
      <trkpt lat="47.53073" lon="-0.12641">
        <ele>51</ele>
        <time>2010-06-26T19:20:03Z</time>
      </trkpt>
      <trkpt lat="47.53068" lon="-0.12684">
        <ele>52</ele>
        <time>2010-06-26T19:20:08Z</time>
      </trkpt>
      <trkpt lat="47.53061" lon="-0.12736">
        <ele>51</ele>
        <time>2010-06-26T19:20:13Z</time>
      </trkpt>
      <trkpt lat="47.53056" lon="-0.12798">
        <ele>52</ele>
        <time>2010-06-26T19:20:18Z</time>
      </trkpt>
      <trkpt lat="47.53055" lon="-0.1285">
        <ele>51</ele>
        <time>2010-06-26T19:20:23Z</time>
      </trkpt>
      <trkpt lat="47.53051" lon="-0.12893">
        <ele>51</ele>
        <time>2010-06-26T19:20:28Z</time>
      </trkpt>
      <trkpt lat="47.53045" lon="-0.12947">
        <ele>52</ele>
        <time>2010-06-26T19:20:33Z</time>
      </trkpt>
      <trkpt lat="47.53036" lon="-0.12999">
        <ele>52</ele>
        <time>2010-06-26T19:20:38Z</time>
      </trkpt>
      <trkpt lat="47.53025" lon="-0.13062">
        <ele>53</ele>
        <time>2010-06-26T19:20:43Z</time>
      </trkpt>
      <trkpt lat="47.5302" lon="-0.13114">
        <ele>54</ele>
        <time>2010-06-26T19:20:48Z</time>
      </trkpt>
      <trkpt lat="47.53017" lon="-0.13155">
        <ele>54</ele>
        <time>2010-06-26T19:20:53Z</time>
      </trkpt>
      <trkpt lat="47.53015" lon="-0.13207">
        <ele>54</ele>
        <time>2010-06-26T19:20:58Z</time>
      </trkpt>
      <trkpt lat="47.53014" lon="-0.13269">
        <ele>55</ele>
        <time>2010-06-26T19:21:03Z</time>
      </trkpt>
      <trkpt lat="47.53014" lon="-0.13319">
        <ele>55</ele>
        <time>2010-06-26T19:21:08Z</time>
      </trkpt>
      <trkpt lat="47.53014" lon="-0.13359">
        <ele>56</ele>
        <time>2010-06-26T19:21:13Z</time>
      </trkpt>
      <trkpt lat="47.53015" lon="-0.13409">
        <ele>56</ele>
        <time>2010-06-26T19:21:18Z</time>
      </trkpt>
      <trkpt lat="47.53014" lon="-0.13459">
        <ele>57</ele>
        <time>2010-06-26T19:21:23Z</time>
      </trkpt>
      <trkpt lat="47.53008" lon="-0.13517">
        <ele>57</ele>
        <time>2010-06-26T19:21:28Z</time>
      </trkpt>
      <trkpt lat="47.52998" lon="-0.13565">
        <ele>57</ele>
        <time>2010-06-26T19:21:33Z</time>
      </trkpt>
      <trkpt lat="47.5299" lon="-0.13601">
        <ele>58</ele>
        <time>2010-06-26T19:21:38Z</time>
      </trkpt>
      <trkpt lat="47.52981" lon="-0.13649">
        <ele>59</ele>
        <time>2010-06-26T19:21:43Z</time>
      </trkpt>
      <trkpt lat="47.52976" lon="-0.13697">
        <ele>60</ele>
        <time>2010-06-26T19:21:48Z</time>
      </trkpt>
      <trkpt lat="47.52974" lon="-0.13756">
        <ele>60</ele>
        <time>2010-06-26T19:21:53Z</time>
      </trkpt>
      <trkpt lat="47.52971" lon="-0.13805">
        <ele>61</ele>
        <time>2010-06-26T19:21:58Z</time>
      </trkpt>
      <trkpt lat="47.5297" lon="-0.13844">
        <ele>61</ele>
        <time>2010-06-26T19:22:03Z</time>
      </trkpt>
      <trkpt lat="47.52967" lon="-0.13903">
        <ele>62</ele>
        <time>2010-06-26T19:22:08Z</time>
      </trkpt>
      <trkpt lat="47.52965" lon="-0.13953">
        <ele>63</ele>
        <time>2010-06-26T19:22:13Z</time>
      </trkpt>
      <trkpt lat="47.52964" lon="-0.14005">
        <ele>64</ele>
        <time>2010-06-26T19:22:18Z</time>
      </trkpt>
      <trkpt lat="47.52961" lon="-0.14047">
        <ele>64</ele>
        <time>2010-06-26T19:22:23Z</time>
      </trkpt>
      <trkpt lat="47.52955" lon="-0.14099">
        <ele>66</ele>
        <time>2010-06-26T19:22:28Z</time>
      </trkpt>
      <trkpt lat="47.52945" lon="-0.14162">
        <ele>66</ele>
        <time>2010-06-26T19:22:33Z</time>
      </trkpt>
      <trkpt lat="47.52937" lon="-0.14213">
        <ele>68</ele>
        <time>2010-06-26T19:22:38Z</time>
      </trkpt>
      <trkpt lat="47.52932" lon="-0.14266">
        <ele>70</ele>
        <time>2010-06-26T19:22:43Z</time>
      </trkpt>
      <trkpt lat="47.52932" lon="-0.14307">
        <ele>72</ele>
        <time>2010-06-26T19:22:48Z</time>
      </trkpt>
      <trkpt lat="47.52935" lon="-0.14354">
        <ele>74</ele>
        <time>2010-06-26T19:22:53Z</time>
      </trkpt>
      <trkpt lat="47.52942" lon="-0.1441">
        <ele>74</ele>
        <time>2010-06-26T19:22:58Z</time>
      </trkpt>
      <trkpt lat="47.52949" lon="-0.14456">
        <ele>75</ele>
        <time>2010-06-26T19:23:03Z</time>
      </trkpt>
      <trkpt lat="47.52954" lon="-0.14491">
        <ele>75</ele>
        <time>2010-06-26T19:23:08Z</time>
      </trkpt>
      <trkpt lat="47.52957" lon="-0.14533">
        <ele>75</ele>
        <time>2010-06-26T19:23:13Z</time>
      </trkpt>
      <trkpt lat="47.52953" lon="-0.14573">
        <ele>75</ele>
        <time>2010-06-26T19:23:18Z</time>
      </trkpt>
      <trkpt lat="47.52947" lon="-0.14628">
        <ele>74</ele>
        <time>2010-06-26T19:23:23Z</time>
      </trkpt>
      <trkpt lat="47.52943" lon="-0.14682">
        <ele>72</ele>
        <time>2010-06-26T19:23:28Z</time>
      </trkpt>
      <trkpt lat="47.5294" lon="-0.14728">
        <ele>71</ele>
        <time>2010-06-26T19:23:33Z</time>
      </trkpt>
      <trkpt lat="47.5293" lon="-0.14785">
        <ele>70</ele>
        <time>2010-06-26T19:23:38Z</time>
      </trkpt>
      <trkpt lat="47.52908" lon="-0.14847">
        <ele>70</ele>
        <time>2010-06-26T19:23:43Z</time>
      </trkpt>
      <trkpt lat="47.52887" lon="-0.14897">
        <ele>71</ele>
        <time>2010-06-26T19:23:48Z</time>
      </trkpt>
      <trkpt lat="47.5287" lon="-0.14935">
        <ele>71</ele>
        <time>2010-06-26T19:23:53Z</time>
      </trkpt>
      <trkpt lat="47.52849" lon="-0.14984">
        <ele>70</ele>
        <time>2010-06-26T19:23:58Z</time>
      </trkpt>
      <trkpt lat="47.52828" lon="-0.15034">
        <ele>70</ele>
        <time>2010-06-26T19:24:03Z</time>
      </trkpt>
      <trkpt lat="47.52809" lon="-0.15096">
        <ele>70</ele>
        <time>2010-06-26T19:24:08Z</time>
      </trkpt>
      <trkpt lat="47.52795" lon="-0.15147">
        <ele>71</ele>
        <time>2010-06-26T19:24:13Z</time>
      </trkpt>
      <trkpt lat="47.52787" lon="-0.15189">
        <ele>72</ele>
        <time>2010-06-26T19:24:18Z</time>
      </trkpt>
      <trkpt lat="47.52781" lon="-0.15243">
        <ele>72</ele>
        <time>2010-06-26T19:24:23Z</time>
      </trkpt>
      <trkpt lat="47.52775" lon="-0.15311">
        <ele>72</ele>
        <time>2010-06-26T19:24:28Z</time>
      </trkpt>
      <trkpt lat="47.5277" lon="-0.15371">
        <ele>71</ele>
        <time>2010-06-26T19:24:33Z</time>
      </trkpt>
      <trkpt lat="47.52765" lon="-0.15418">
        <ele>71</ele>
        <time>2010-06-26T19:24:38Z</time>
      </trkpt>
      <trkpt lat="47.52754" lon="-0.15477">
        <ele>71</ele>
        <time>2010-06-26T19:24:43Z</time>
      </trkpt>
      <trkpt lat="47.5273" lon="-0.15546">
        <ele>68</ele>
        <time>2010-06-26T19:24:48Z</time>
      </trkpt>
      <trkpt lat="47.52708" lon="-0.15606">
        <ele>68</ele>
        <time>2010-06-26T19:24:53Z</time>
      </trkpt>
      <trkpt lat="47.5268" lon="-0.15665">
        <ele>67</ele>
        <time>2010-06-26T19:24:58Z</time>
      </trkpt>
      <trkpt lat="47.52656" lon="-0.15713">
        <ele>65</ele>
        <time>2010-06-26T19:25:03Z</time>
      </trkpt>
      <trkpt lat="47.52626" lon="-0.1577">
        <ele>66</ele>
        <time>2010-06-26T19:25:08Z</time>
      </trkpt>
      <trkpt lat="47.52589" lon="-0.1584">
        <ele>66</ele>
        <time>2010-06-26T19:25:13Z</time>
      </trkpt>
      <trkpt lat="47.52555" lon="-0.15893">
        <ele>65</ele>
        <time>2010-06-26T19:25:18Z</time>
      </trkpt>
      <trkpt lat="47.52517" lon="-0.15938">
        <ele>66</ele>
        <time>2010-06-26T19:25:23Z</time>
      </trkpt>
      <trkpt lat="47.52486" lon="-0.15974">
        <ele>66</ele>
        <time>2010-06-26T19:25:28Z</time>
      </trkpt>
      <trkpt lat="47.52451" lon="-0.16027">
        <ele>65</ele>
        <time>2010-06-26T19:25:33Z</time>
      </trkpt>
      <trkpt lat="47.52416" lon="-0.16103">
        <ele>63</ele>
        <time>2010-06-26T19:25:38Z</time>
      </trkpt>
      <trkpt lat="47.52385" lon="-0.16167">
        <ele>62</ele>
        <time>2010-06-26T19:25:43Z</time>
      </trkpt>
      <trkpt lat="47.52359" lon="-0.16219">
        <ele>61</ele>
        <time>2010-06-26T19:25:48Z</time>
      </trkpt>
      <trkpt lat="47.52326" lon="-0.16284">
        <ele>58</ele>
        <time>2010-06-26T19:25:53Z</time>
      </trkpt>
      <trkpt lat="47.5229" lon="-0.16362">
        <ele>56</ele>
        <time>2010-06-26T19:25:58Z</time>
      </trkpt>
      <trkpt lat="47.52264" lon="-0.16429">
        <ele>55</ele>
        <time>2010-06-26T19:26:03Z</time>
      </trkpt>
      <trkpt lat="47.5224" lon="-0.16495">
        <ele>55</ele>
        <time>2010-06-26T19:26:08Z</time>
      </trkpt>
      <trkpt lat="47.52215" lon="-0.16541">
        <ele>55</ele>
        <time>2010-06-26T19:26:13Z</time>
      </trkpt>
      <trkpt lat="47.52174" lon="-0.16585">
        <ele>55</ele>
        <time>2010-06-26T19:26:18Z</time>
      </trkpt>
      <trkpt lat="47.52137" lon="-0.16655">
        <ele>53</ele>
        <time>2010-06-26T19:26:23Z</time>
      </trkpt>
      <trkpt lat="47.52109" lon="-0.1672">
        <ele>53</ele>
        <time>2010-06-26T19:26:28Z</time>
      </trkpt>
      <trkpt lat="47.52088" lon="-0.16774">
        <ele>53</ele>
        <time>2010-06-26T19:26:33Z</time>
      </trkpt>
      <trkpt lat="47.52066" lon="-0.16846">
        <ele>51</ele>
        <time>2010-06-26T19:26:38Z</time>
      </trkpt>
      <trkpt lat="47.5205" lon="-0.16918">
        <ele>49</ele>
        <time>2010-06-26T19:26:43Z</time>
      </trkpt>
      <trkpt lat="47.52035" lon="-0.17006">
        <ele>47</ele>
        <time>2010-06-26T19:26:48Z</time>
      </trkpt>
      <trkpt lat="47.52023" lon="-0.17077">
        <ele>47</ele>
        <time>2010-06-26T19:26:53Z</time>
      </trkpt>
      <trkpt lat="47.52013" lon="-0.17134">
        <ele>47</ele>
        <time>2010-06-26T19:26:58Z</time>
      </trkpt>
      <trkpt lat="47.52001" lon="-0.17205">
        <ele>46</ele>
        <time>2010-06-26T19:27:03Z</time>
      </trkpt>
      <trkpt lat="47.51993" lon="-0.17293">
        <ele>43</ele>
        <time>2010-06-26T19:27:08Z</time>
      </trkpt>
      <trkpt lat="47.51993" lon="-0.17365">
        <ele>43</ele>
        <time>2010-06-26T19:27:13Z</time>
      </trkpt>
      <trkpt lat="47.51991" lon="-0.17421">
        <ele>44</ele>
        <time>2010-06-26T19:27:18Z</time>
      </trkpt>
      <trkpt lat="47.51975" lon="-0.17488">
        <ele>44</ele>
        <time>2010-06-26T19:27:23Z</time>
      </trkpt>
      <trkpt lat="47.51952" lon="-0.17564">
        <ele>43</ele>
        <time>2010-06-26T19:27:28Z</time>
      </trkpt>
      <trkpt lat="47.51928" lon="-0.17625">
        <ele>42</ele>
        <time>2010-06-26T19:27:33Z</time>
      </trkpt>
      <trkpt lat="47.51908" lon="-0.17689">
        <ele>40</ele>
        <time>2010-06-26T19:27:38Z</time>
      </trkpt>
      <trkpt lat="47.51897" lon="-0.17743">
        <ele>40</ele>
        <time>2010-06-26T19:27:43Z</time>
      </trkpt>
      <trkpt lat="47.51886" lon="-0.1781">
        <ele>41</ele>
        <time>2010-06-26T19:27:48Z</time>
      </trkpt>
      <trkpt lat="47.51869" lon="-0.17889">
        <ele>41</ele>
        <time>2010-06-26T19:27:53Z</time>
      </trkpt>
      <trkpt lat="47.51863" lon="-0.17955">
        <ele>41</ele>
        <time>2010-06-26T19:27:58Z</time>
      </trkpt>
      <trkpt lat="47.51863" lon="-0.18008">
        <ele>41</ele>
        <time>2010-06-26T19:28:03Z</time>
      </trkpt>
      <trkpt lat="47.51857" lon="-0.18072">
        <ele>42</ele>
        <time>2010-06-26T19:28:08Z</time>
      </trkpt>
      <trkpt lat="47.51841" lon="-0.18145">
        <ele>41</ele>
        <time>2010-06-26T19:28:13Z</time>
      </trkpt>
      <trkpt lat="47.51826" lon="-0.18204">
        <ele>40</ele>
        <time>2010-06-26T19:28:18Z</time>
      </trkpt>
      <trkpt lat="47.51814" lon="-0.18266">
        <ele>41</ele>
        <time>2010-06-26T19:28:23Z</time>
      </trkpt>
      <trkpt lat="47.51807" lon="-0.18318">
        <ele>40</ele>
        <time>2010-06-26T19:28:28Z</time>
      </trkpt>
      <trkpt lat="47.51802" lon="-0.18386">
        <ele>39</ele>
        <time>2010-06-26T19:28:33Z</time>
      </trkpt>
      <trkpt lat="47.5179" lon="-0.18468">
        <ele>37</ele>
        <time>2010-06-26T19:28:38Z</time>
      </trkpt>
      <trkpt lat="47.5177" lon="-0.18535">
        <ele>37</ele>
        <time>2010-06-26T19:28:43Z</time>
      </trkpt>
      <trkpt lat="47.51747" lon="-0.18602">
        <ele>36</ele>
        <time>2010-06-26T19:28:48Z</time>
      </trkpt>
      <trkpt lat="47.5173" lon="-0.18655">
        <ele>35</ele>
        <time>2010-06-26T19:28:53Z</time>
      </trkpt>
      <trkpt lat="47.51708" lon="-0.1872">
        <ele>36</ele>
        <time>2010-06-26T19:28:58Z</time>
      </trkpt>
      <trkpt lat="47.51674" lon="-0.18786">
        <ele>36</ele>
        <time>2010-06-26T19:29:03Z</time>
      </trkpt>
      <trkpt lat="47.51641" lon="-0.18833">
        <ele>35</ele>
        <time>2010-06-26T19:29:08Z</time>
      </trkpt>
      <trkpt lat="47.51619" lon="-0.18874">
        <ele>36</ele>
        <time>2010-06-26T19:29:13Z</time>
      </trkpt>
      <trkpt lat="47.51595" lon="-0.18929">
        <ele>36</ele>
        <time>2010-06-26T19:29:18Z</time>
      </trkpt>
      <trkpt lat="47.51567" lon="-0.18996">
        <ele>36</ele>
        <time>2010-06-26T19:29:23Z</time>
      </trkpt>
      <trkpt lat="47.51546" lon="-0.19054">
        <ele>37</ele>
        <time>2010-06-26T19:29:28Z</time>
      </trkpt>
      <trkpt lat="47.51527" lon="-0.19113">
        <ele>37</ele>
        <time>2010-06-26T19:29:33Z</time>
      </trkpt>
      <trkpt lat="47.51511" lon="-0.1916">
        <ele>37</ele>
        <time>2010-06-26T19:29:38Z</time>
      </trkpt>
      <trkpt lat="47.5149" lon="-0.19217">
        <ele>36</ele>
        <time>2010-06-26T19:29:43Z</time>
      </trkpt>
      <trkpt lat="47.51449" lon="-0.19269">
        <ele>35</ele>
        <time>2010-06-26T19:29:48Z</time>
      </trkpt>
      <trkpt lat="47.51408" lon="-0.19305">
        <ele>35</ele>
        <time>2010-06-26T19:29:53Z</time>
      </trkpt>
      <trkpt lat="47.51377" lon="-0.1934">
        <ele>34</ele>
        <time>2010-06-26T19:29:58Z</time>
      </trkpt>
      <trkpt lat="47.51349" lon="-0.19401">
        <ele>33</ele>
        <time>2010-06-26T19:30:03Z</time>
      </trkpt>
      <trkpt lat="47.51337" lon="-0.19488">
        <ele>32</ele>
        <time>2010-06-26T19:30:08Z</time>
      </trkpt>
      <trkpt lat="47.51329" lon="-0.1956">
        <ele>31</ele>
        <time>2010-06-26T19:30:13Z</time>
      </trkpt>
      <trkpt lat="47.51317" lon="-0.1963">
        <ele>32</ele>
        <time>2010-06-26T19:30:18Z</time>
      </trkpt>
      <trkpt lat="47.51306" lon="-0.19682">
        <ele>32</ele>
        <time>2010-06-26T19:30:23Z</time>
      </trkpt>
      <trkpt lat="47.51293" lon="-0.19748">
        <ele>32</ele>
        <time>2010-06-26T19:30:28Z</time>
      </trkpt>
      <trkpt lat="47.51279" lon="-0.1983">
        <ele>31</ele>
        <time>2010-06-26T19:30:33Z</time>
      </trkpt>
      <trkpt lat="47.51278" lon="-0.19898">
        <ele>32</ele>
        <time>2010-06-26T19:30:38Z</time>
      </trkpt>
      <trkpt lat="47.51279" lon="-0.19952">
        <ele>34</ele>
        <time>2010-06-26T19:30:43Z</time>
      </trkpt>
      <trkpt lat="47.51281" lon="-0.20019">
        <ele>35</ele>
        <time>2010-06-26T19:30:48Z</time>
      </trkpt>
      <trkpt lat="47.51282" lon="-0.20078">
        <ele>36</ele>
        <time>2010-06-26T19:30:53Z</time>
      </trkpt>
      <trkpt lat="47.51283" lon="-0.20145">
        <ele>36</ele>
        <time>2010-06-26T19:30:58Z</time>
      </trkpt>
      <trkpt lat="47.51283" lon="-0.20201">
        <ele>36</ele>
        <time>2010-06-26T19:31:03Z</time>
      </trkpt>
      <trkpt lat="47.51284" lon="-0.20245">
        <ele>36</ele>
        <time>2010-06-26T19:31:08Z</time>
      </trkpt>
      <trkpt lat="47.51283" lon="-0.20301">
        <ele>36</ele>
        <time>2010-06-26T19:31:13Z</time>
      </trkpt>
      <trkpt lat="47.51277" lon="-0.20368">
        <ele>36</ele>
        <time>2010-06-26T19:31:18Z</time>
      </trkpt>
      <trkpt lat="47.51268" lon="-0.20424">
        <ele>36</ele>
        <time>2010-06-26T19:31:23Z</time>
      </trkpt>
      <trkpt lat="47.51258" lon="-0.20478">
        <ele>36</ele>
        <time>2010-06-26T19:31:28Z</time>
      </trkpt>
      <trkpt lat="47.51251" lon="-0.20523">
        <ele>36</ele>
        <time>2010-06-26T19:31:33Z</time>
      </trkpt>
      <trkpt lat="47.51242" lon="-0.20581">
        <ele>36</ele>
        <time>2010-06-26T19:31:38Z</time>
      </trkpt>
      <trkpt lat="47.51234" lon="-0.20648">
        <ele>35</ele>
        <time>2010-06-26T19:31:43Z</time>
      </trkpt>
      <trkpt lat="47.51232" lon="-0.20705">
        <ele>35</ele>
        <time>2010-06-26T19:31:48Z</time>
      </trkpt>
      <trkpt lat="47.51231" lon="-0.2074">
        <ele>35</ele>
        <time>2010-06-26T19:31:53Z</time>
      </trkpt>
      <trkpt lat="47.5123" lon="-0.20811">
        <ele>35</ele>
        <time>2010-06-26T19:31:58Z</time>
      </trkpt>
      <trkpt lat="47.51227" lon="-0.20882">
        <ele>35</ele>
        <time>2010-06-26T19:32:03Z</time>
      </trkpt>
      <trkpt lat="47.51218" lon="-0.20942">
        <ele>36</ele>
        <time>2010-06-26T19:32:08Z</time>
      </trkpt>
      <trkpt lat="47.51208" lon="-0.21002">
        <ele>35</ele>
        <time>2010-06-26T19:32:13Z</time>
      </trkpt>
      <trkpt lat="47.51198" lon="-0.21049">
        <ele>35</ele>
        <time>2010-06-26T19:32:18Z</time>
      </trkpt>
      <trkpt lat="47.51181" lon="-0.21118">
        <ele>36</ele>
        <time>2010-06-26T19:32:23Z</time>
      </trkpt>
      <trkpt lat="47.51166" lon="-0.21172">
        <ele>36</ele>
        <time>2010-06-26T19:32:28Z</time>
      </trkpt>
      <trkpt lat="47.51153" lon="-0.21227">
        <ele>37</ele>
        <time>2010-06-26T19:32:33Z</time>
      </trkpt>
      <trkpt lat="47.5114" lon="-0.21266">
        <ele>38</ele>
        <time>2010-06-26T19:32:38Z</time>
      </trkpt>
      <trkpt lat="47.51122" lon="-0.21315">
        <ele>38</ele>
        <time>2010-06-26T19:32:43Z</time>
      </trkpt>
      <trkpt lat="47.51097" lon="-0.21371">
        <ele>39</ele>
        <time>2010-06-26T19:32:48Z</time>
      </trkpt>
      <trkpt lat="47.51078" lon="-0.21419">
        <ele>39</ele>
        <time>2010-06-26T19:32:53Z</time>
      </trkpt>
      <trkpt lat="47.51058" lon="-0.21468">
        <ele>39</ele>
        <time>2010-06-26T19:32:58Z</time>
      </trkpt>
      <trkpt lat="47.51042" lon="-0.21505">
        <ele>40</ele>
        <time>2010-06-26T19:33:03Z</time>
      </trkpt>
      <trkpt lat="47.51023" lon="-0.21554">
        <ele>39</ele>
        <time>2010-06-26T19:33:08Z</time>
      </trkpt>
      <trkpt lat="47.51001" lon="-0.21614">
        <ele>39</ele>
        <time>2010-06-26T19:33:13Z</time>
      </trkpt>
      <trkpt lat="47.50985" lon="-0.21667">
        <ele>39</ele>
        <time>2010-06-26T19:33:18Z</time>
      </trkpt>
      <trkpt lat="47.50973" lon="-0.21711">
        <ele>40</ele>
        <time>2010-06-26T19:33:23Z</time>
      </trkpt>
      <trkpt lat="47.50958" lon="-0.21765">
        <ele>41</ele>
        <time>2010-06-26T19:33:28Z</time>
      </trkpt>
      <trkpt lat="47.5094" lon="-0.21815">
        <ele>41</ele>
        <time>2010-06-26T19:33:33Z</time>
      </trkpt>
      <trkpt lat="47.50909" lon="-0.21866">
        <ele>42</ele>
        <time>2010-06-26T19:33:38Z</time>
      </trkpt>
      <trkpt lat="47.50877" lon="-0.21907">
        <ele>42</ele>
        <time>2010-06-26T19:33:43Z</time>
      </trkpt>
      <trkpt lat="47.5085" lon="-0.21941">
        <ele>41</ele>
        <time>2010-06-26T19:33:48Z</time>
      </trkpt>
      <trkpt lat="47.50817" lon="-0.21985">
        <ele>40</ele>
        <time>2010-06-26T19:33:53Z</time>
      </trkpt>
      <trkpt lat="47.50779" lon="-0.22036">
        <ele>39</ele>
        <time>2010-06-26T19:33:58Z</time>
      </trkpt>
      <trkpt lat="47.50747" lon="-0.22078">
        <ele>39</ele>
        <time>2010-06-26T19:34:03Z</time>
      </trkpt>
      <trkpt lat="47.50723" lon="-0.2211">
        <ele>40</ele>
        <time>2010-06-26T19:34:08Z</time>
      </trkpt>
      <trkpt lat="47.50693" lon="-0.2215">
        <ele>41</ele>
        <time>2010-06-26T19:34:13Z</time>
      </trkpt>
      <trkpt lat="47.50658" lon="-0.22197">
        <ele>43</ele>
        <time>2010-06-26T19:34:18Z</time>
      </trkpt>
      <trkpt lat="47.50631" lon="-0.22239">
        <ele>42</ele>
        <time>2010-06-26T19:34:23Z</time>
      </trkpt>
      <trkpt lat="47.50606" lon="-0.22286">
        <ele>41</ele>
        <time>2010-06-26T19:34:28Z</time>
      </trkpt>
      <trkpt lat="47.50592" lon="-0.22332">
        <ele>40</ele>
        <time>2010-06-26T19:34:33Z</time>
      </trkpt>
      <trkpt lat="47.50588" lon="-0.22397">
        <ele>38</ele>
        <time>2010-06-26T19:34:38Z</time>
      </trkpt>
      <trkpt lat="47.50583" lon="-0.2248">
        <ele>37</ele>
        <time>2010-06-26T19:34:43Z</time>
      </trkpt>
      <trkpt lat="47.50578" lon="-0.2255">
        <ele>36</ele>
        <time>2010-06-26T19:34:48Z</time>
      </trkpt>
      <trkpt lat="47.50573" lon="-0.22619">
        <ele>35</ele>
        <time>2010-06-26T19:34:53Z</time>
      </trkpt>
      <trkpt lat="47.50569" lon="-0.22673">
        <ele>36</ele>
        <time>2010-06-26T19:34:58Z</time>
      </trkpt>
      <trkpt lat="47.50566" lon="-0.22737">
        <ele>36</ele>
        <time>2010-06-26T19:35:03Z</time>
      </trkpt>
      <trkpt lat="47.50561" lon="-0.22811">
        <ele>36</ele>
        <time>2010-06-26T19:35:08Z</time>
      </trkpt>
      <trkpt lat="47.50558" lon="-0.2287">
        <ele>36</ele>
        <time>2010-06-26T19:35:13Z</time>
      </trkpt>
      <trkpt lat="47.50555" lon="-0.22917">
        <ele>36</ele>
        <time>2010-06-26T19:35:18Z</time>
      </trkpt>
      <trkpt lat="47.50552" lon="-0.22974">
        <ele>36</ele>
        <time>2010-06-26T19:35:23Z</time>
      </trkpt>
      <trkpt lat="47.5055" lon="-0.23027">
        <ele>36</ele>
        <time>2010-06-26T19:35:28Z</time>
      </trkpt>
      <trkpt lat="47.50549" lon="-0.23091">
        <ele>37</ele>
        <time>2010-06-26T19:35:33Z</time>
      </trkpt>
      <trkpt lat="47.50549" lon="-0.23146">
        <ele>38</ele>
        <time>2010-06-26T19:35:38Z</time>
      </trkpt>
      <trkpt lat="47.50546" lon="-0.2319">
        <ele>38</ele>
        <time>2010-06-26T19:35:43Z</time>
      </trkpt>
      <trkpt lat="47.50533" lon="-0.23244">
        <ele>38</ele>
        <time>2010-06-26T19:35:48Z</time>
      </trkpt>
      <trkpt lat="47.50514" lon="-0.23306">
        <ele>38</ele>
        <time>2010-06-26T19:35:53Z</time>
      </trkpt>
      <trkpt lat="47.50501" lon="-0.23359">
        <ele>38</ele>
        <time>2010-06-26T19:35:58Z</time>
      </trkpt>
      <trkpt lat="47.50494" lon="-0.23402">
        <ele>39</ele>
        <time>2010-06-26T19:36:03Z</time>
      </trkpt>
      <trkpt lat="47.50487" lon="-0.23456">
        <ele>39</ele>
        <time>2010-06-26T19:36:08Z</time>
      </trkpt>
      <trkpt lat="47.5048" lon="-0.23521">
        <ele>40</ele>
        <time>2010-06-26T19:36:13Z</time>
      </trkpt>
      <trkpt lat="47.50475" lon="-0.23576">
        <ele>41</ele>
        <time>2010-06-26T19:36:18Z</time>
      </trkpt>
      <trkpt lat="47.50472" lon="-0.23632">
        <ele>41</ele>
        <time>2010-06-26T19:36:23Z</time>
      </trkpt>
      <trkpt lat="47.50472" lon="-0.23676">
        <ele>41</ele>
        <time>2010-06-26T19:36:28Z</time>
      </trkpt>
      <trkpt lat="47.50476" lon="-0.23731">
        <ele>41</ele>
        <time>2010-06-26T19:36:33Z</time>
      </trkpt>
      <trkpt lat="47.5048" lon="-0.23795">
        <ele>42</ele>
        <time>2010-06-26T19:36:38Z</time>
      </trkpt>
      <trkpt lat="47.50476" lon="-0.23848">
        <ele>43</ele>
        <time>2010-06-26T19:36:43Z</time>
      </trkpt>
      <trkpt lat="47.50472" lon="-0.23891">
        <ele>43</ele>
        <time>2010-06-26T19:36:48Z</time>
      </trkpt>
      <trkpt lat="47.50464" lon="-0.23943">
        <ele>44</ele>
        <time>2010-06-26T19:36:53Z</time>
      </trkpt>
      <trkpt lat="47.50456" lon="-0.24005">
        <ele>46</ele>
        <time>2010-06-26T19:36:58Z</time>
      </trkpt>
      <trkpt lat="47.50452" lon="-0.24057">
        <ele>47</ele>
        <time>2010-06-26T19:37:03Z</time>
      </trkpt>
      <trkpt lat="47.50449" lon="-0.24109">
        <ele>48</ele>
        <time>2010-06-26T19:37:08Z</time>
      </trkpt>
      <trkpt lat="47.50443" lon="-0.2415">
        <ele>48</ele>
        <time>2010-06-26T19:37:13Z</time>
      </trkpt>
      <trkpt lat="47.50431" lon="-0.24199">
        <ele>50</ele>
        <time>2010-06-26T19:37:18Z</time>
      </trkpt>
      <trkpt lat="47.50408" lon="-0.24254">
        <ele>50</ele>
        <time>2010-06-26T19:37:23Z</time>
      </trkpt>
      <trkpt lat="47.50389" lon="-0.24301">
        <ele>50</ele>
        <time>2010-06-26T19:37:28Z</time>
      </trkpt>
      <trkpt lat="47.5037" lon="-0.24349">
        <ele>51</ele>
        <time>2010-06-26T19:37:33Z</time>
      </trkpt>
      <trkpt lat="47.50351" lon="-0.24385">
        <ele>51</ele>
        <time>2010-06-26T19:37:38Z</time>
      </trkpt>
      <trkpt lat="47.50324" lon="-0.24425">
        <ele>52</ele>
        <time>2010-06-26T19:37:43Z</time>
      </trkpt>
      <trkpt lat="47.50291" lon="-0.24474">
        <ele>53</ele>
        <time>2010-06-26T19:37:48Z</time>
      </trkpt>
      <trkpt lat="47.50264" lon="-0.24514">
        <ele>55</ele>
        <time>2010-06-26T19:37:53Z</time>
      </trkpt>
      <trkpt lat="47.50241" lon="-0.24545">
        <ele>52</ele>
        <time>2010-06-26T19:37:58Z</time>
      </trkpt>
      <trkpt lat="47.50215" lon="-0.24588">
        <ele>53</ele>
        <time>2010-06-26T19:38:03Z</time>
      </trkpt>
      <trkpt lat="47.50192" lon="-0.24644">
        <ele>53</ele>
        <time>2010-06-26T19:38:08Z</time>
      </trkpt>
      <trkpt lat="47.50184" lon="-0.24697">
        <ele>55</ele>
        <time>2010-06-26T19:38:13Z</time>
      </trkpt>
      <trkpt lat="47.5018" lon="-0.24752">
        <ele>55</ele>
        <time>2010-06-26T19:38:18Z</time>
      </trkpt>
      <trkpt lat="47.50175" lon="-0.24795">
        <ele>55</ele>
        <time>2010-06-26T19:38:23Z</time>
      </trkpt>
      <trkpt lat="47.5017" lon="-0.24854">
        <ele>53</ele>
        <time>2010-06-26T19:38:28Z</time>
      </trkpt>
      <trkpt lat="47.50167" lon="-0.24928">
        <ele>50</ele>
        <time>2010-06-26T19:38:33Z</time>
      </trkpt>
      <trkpt lat="47.50155" lon="-0.2499">
        <ele>49</ele>
        <time>2010-06-26T19:38:38Z</time>
      </trkpt>
      <trkpt lat="47.50152" lon="-0.25038">
        <ele>51</ele>
        <time>2010-06-26T19:38:43Z</time>
      </trkpt>
      <trkpt lat="47.50158" lon="-0.2509">
        <ele>53</ele>
        <time>2010-06-26T19:38:48Z</time>
      </trkpt>
      <trkpt lat="47.5017" lon="-0.25146">
        <ele>56</ele>
        <time>2010-06-26T19:38:53Z</time>
      </trkpt>
      <trkpt lat="47.50171" lon="-0.25197">
        <ele>58</ele>
        <time>2010-06-26T19:38:58Z</time>
      </trkpt>
      <trkpt lat="47.50168" lon="-0.25243">
        <ele>57</ele>
        <time>2010-06-26T19:39:03Z</time>
      </trkpt>
      <trkpt lat="47.50163" lon="-0.25278">
        <ele>56</ele>
        <time>2010-06-26T19:39:08Z</time>
      </trkpt>
      <trkpt lat="47.50155" lon="-0.25321">
        <ele>56</ele>
        <time>2010-06-26T19:39:13Z</time>
      </trkpt>
      <trkpt lat="47.50144" lon="-0.25372">
        <ele>57</ele>
        <time>2010-06-26T19:39:18Z</time>
      </trkpt>
      <trkpt lat="47.50136" lon="-0.25415">
        <ele>57</ele>
        <time>2010-06-26T19:39:23Z</time>
      </trkpt>
      <trkpt lat="47.5013" lon="-0.25451">
        <ele>59</ele>
        <time>2010-06-26T19:39:28Z</time>
      </trkpt>
      <trkpt lat="47.5012" lon="-0.25497">
        <ele>59</ele>
        <time>2010-06-26T19:39:33Z</time>
      </trkpt>
      <trkpt lat="47.50108" lon="-0.25557">
        <ele>60</ele>
        <time>2010-06-26T19:39:38Z</time>
      </trkpt>
      <trkpt lat="47.50098" lon="-0.25609">
        <ele>61</ele>
        <time>2010-06-26T19:39:43Z</time>
      </trkpt>
      <trkpt lat="47.50083" lon="-0.25663">
        <ele>60</ele>
        <time>2010-06-26T19:39:48Z</time>
      </trkpt>
      <trkpt lat="47.50068" lon="-0.25702">
        <ele>60</ele>
        <time>2010-06-26T19:39:53Z</time>
      </trkpt>
      <trkpt lat="47.50048" lon="-0.25747">
        <ele>60</ele>
        <time>2010-06-26T19:39:58Z</time>
      </trkpt>
      <trkpt lat="47.50025" lon="-0.25801">
        <ele>62</ele>
        <time>2010-06-26T19:40:03Z</time>
      </trkpt>
      <trkpt lat="47.50006" lon="-0.25847">
        <ele>64</ele>
        <time>2010-06-26T19:40:08Z</time>
      </trkpt>
      <trkpt lat="47.49991" lon="-0.25884">
        <ele>61</ele>
        <time>2010-06-26T19:40:13Z</time>
      </trkpt>
      <trkpt lat="47.49971" lon="-0.2593">
        <ele>63</ele>
        <time>2010-06-26T19:40:18Z</time>
      </trkpt>
      <trkpt lat="47.49946" lon="-0.2599">
        <ele>62</ele>
        <time>2010-06-26T19:40:23Z</time>
      </trkpt>
      <trkpt lat="47.49924" lon="-0.26043">
        <ele>65</ele>
        <time>2010-06-26T19:40:28Z</time>
      </trkpt>
      <trkpt lat="47.49903" lon="-0.26094">
        <ele>63</ele>
        <time>2010-06-26T19:40:33Z</time>
      </trkpt>
      <trkpt lat="47.49886" lon="-0.26134">
        <ele>63</ele>
        <time>2010-06-26T19:40:38Z</time>
      </trkpt>
      <trkpt lat="47.49866" lon="-0.26183">
        <ele>65</ele>
        <time>2010-06-26T19:40:43Z</time>
      </trkpt>
      <trkpt lat="47.49843" lon="-0.2624">
        <ele>64</ele>
        <time>2010-06-26T19:40:48Z</time>
      </trkpt>
      <trkpt lat="47.49822" lon="-0.2629">
        <ele>62</ele>
        <time>2010-06-26T19:40:53Z</time>
      </trkpt>
      <trkpt lat="47.49801" lon="-0.26341">
        <ele>65</ele>
        <time>2010-06-26T19:40:58Z</time>
      </trkpt>
      <trkpt lat="47.49784" lon="-0.26383">
        <ele>65</ele>
        <time>2010-06-26T19:41:03Z</time>
      </trkpt>
      <trkpt lat="47.49763" lon="-0.26432">
        <ele>65</ele>
        <time>2010-06-26T19:41:08Z</time>
      </trkpt>
      <trkpt lat="47.4974" lon="-0.26487">
        <ele>62</ele>
        <time>2010-06-26T19:41:13Z</time>
      </trkpt>
      <trkpt lat="47.49721" lon="-0.26532">
        <ele>64</ele>
        <time>2010-06-26T19:41:18Z</time>
      </trkpt>
      <trkpt lat="47.49706" lon="-0.26568">
        <ele>64</ele>
        <time>2010-06-26T19:41:23Z</time>
      </trkpt>
      <trkpt lat="47.49686" lon="-0.26611">
        <ele>66</ele>
        <time>2010-06-26T19:41:28Z</time>
      </trkpt>
      <trkpt lat="47.49664" lon="-0.26653">
        <ele>64</ele>
        <time>2010-06-26T19:41:33Z</time>
      </trkpt>
      <trkpt lat="47.4963" lon="-0.26706">
        <ele>62</ele>
        <time>2010-06-26T19:41:38Z</time>
      </trkpt>
      <trkpt lat="47.49601" lon="-0.26754">
        <ele>62</ele>
        <time>2010-06-26T19:41:43Z</time>
      </trkpt>
      <trkpt lat="47.4958" lon="-0.26798">
        <ele>57</ele>
        <time>2010-06-26T19:41:48Z</time>
      </trkpt>
      <trkpt lat="47.49553" lon="-0.26855">
        <ele>57</ele>
        <time>2010-06-26T19:41:53Z</time>
      </trkpt>
      <trkpt lat="47.49519" lon="-0.26925">
        <ele>54</ele>
        <time>2010-06-26T19:41:58Z</time>
      </trkpt>
      <trkpt lat="47.49492" lon="-0.26983">
        <ele>51</ele>
        <time>2010-06-26T19:42:03Z</time>
      </trkpt>
      <trkpt lat="47.49472" lon="-0.27031">
        <ele>52</ele>
        <time>2010-06-26T19:42:08Z</time>
      </trkpt>
      <trkpt lat="47.49446" lon="-0.27087">
        <ele>52</ele>
        <time>2010-06-26T19:42:13Z</time>
      </trkpt>
      <trkpt lat="47.49414" lon="-0.27142">
        <ele>49</ele>
        <time>2010-06-26T19:42:18Z</time>
      </trkpt>
      <trkpt lat="47.49372" lon="-0.27202">
        <ele>48</ele>
        <time>2010-06-26T19:42:23Z</time>
      </trkpt>
      <trkpt lat="47.49339" lon="-0.27248">
        <ele>46</ele>
        <time>2010-06-26T19:42:28Z</time>
      </trkpt>
      <trkpt lat="47.49314" lon="-0.27283">
        <ele>46</ele>
        <time>2010-06-26T19:42:33Z</time>
      </trkpt>
      <trkpt lat="47.49283" lon="-0.27326">
        <ele>46</ele>
        <time>2010-06-26T19:42:38Z</time>
      </trkpt>
      <trkpt lat="47.49242" lon="-0.27374">
        <ele>47</ele>
        <time>2010-06-26T19:42:43Z</time>
      </trkpt>
      <trkpt lat="47.49206" lon="-0.27414">
        <ele>47</ele>
        <time>2010-06-26T19:42:48Z</time>
      </trkpt>
      <trkpt lat="47.49175" lon="-0.27448">
        <ele>48</ele>
        <time>2010-06-26T19:42:53Z</time>
      </trkpt>
      <trkpt lat="47.49137" lon="-0.27489">
        <ele>49</ele>
        <time>2010-06-26T19:42:58Z</time>
      </trkpt>
      <trkpt lat="47.491" lon="-0.27541">
        <ele>49</ele>
        <time>2010-06-26T19:43:03Z</time>
      </trkpt>
      <trkpt lat="47.49086" lon="-0.27599">
        <ele>49</ele>
        <time>2010-06-26T19:43:08Z</time>
      </trkpt>
      <trkpt lat="47.49083" lon="-0.27663">
        <ele>48</ele>
        <time>2010-06-26T19:43:13Z</time>
      </trkpt>
      <trkpt lat="47.49074" lon="-0.27715">
        <ele>46</ele>
        <time>2010-06-26T19:43:18Z</time>
      </trkpt>
      <trkpt lat="47.49053" lon="-0.2778">
        <ele>45</ele>
        <time>2010-06-26T19:43:23Z</time>
      </trkpt>
      <trkpt lat="47.49026" lon="-0.2786">
        <ele>45</ele>
        <time>2010-06-26T19:43:28Z</time>
      </trkpt>
      <trkpt lat="47.49005" lon="-0.27925">
        <ele>45</ele>
        <time>2010-06-26T19:43:33Z</time>
      </trkpt>
      <trkpt lat="47.48987" lon="-0.27975">
        <ele>44</ele>
        <time>2010-06-26T19:43:38Z</time>
      </trkpt>
      <trkpt lat="47.48964" lon="-0.28035">
        <ele>44</ele>
        <time>2010-06-26T19:43:43Z</time>
      </trkpt>
      <trkpt lat="47.48933" lon="-0.28104">
        <ele>44</ele>
        <time>2010-06-26T19:43:48Z</time>
      </trkpt>
      <trkpt lat="47.48905" lon="-0.28158">
        <ele>43</ele>
        <time>2010-06-26T19:43:53Z</time>
      </trkpt>
      <trkpt lat="47.48875" lon="-0.2821">
        <ele>42</ele>
        <time>2010-06-26T19:43:58Z</time>
      </trkpt>
      <trkpt lat="47.4885" lon="-0.28252">
        <ele>41</ele>
        <time>2010-06-26T19:44:03Z</time>
      </trkpt>
      <trkpt lat="47.4882" lon="-0.28305">
        <ele>40</ele>
        <time>2010-06-26T19:44:08Z</time>
      </trkpt>
      <trkpt lat="47.4879" lon="-0.28373">
        <ele>38</ele>
        <time>2010-06-26T19:44:13Z</time>
      </trkpt>
      <trkpt lat="47.48773" lon="-0.28434">
        <ele>37</ele>
        <time>2010-06-26T19:44:18Z</time>
      </trkpt>
      <trkpt lat="47.48764" lon="-0.28499">
        <ele>36</ele>
        <time>2010-06-26T19:44:23Z</time>
      </trkpt>
      <trkpt lat="47.4876" lon="-0.28551">
        <ele>36</ele>
        <time>2010-06-26T19:44:28Z</time>
      </trkpt>
      <trkpt lat="47.48757" lon="-0.28616">
        <ele>36</ele>
        <time>2010-06-26T19:44:33Z</time>
      </trkpt>
      <trkpt lat="47.48751" lon="-0.28693">
        <ele>36</ele>
        <time>2010-06-26T19:44:38Z</time>
      </trkpt>
      <trkpt lat="47.48742" lon="-0.28755">
        <ele>37</ele>
        <time>2010-06-26T19:44:43Z</time>
      </trkpt>
      <trkpt lat="47.48727" lon="-0.288">
        <ele>38</ele>
        <time>2010-06-26T19:44:48Z</time>
      </trkpt>
      <trkpt lat="47.48704" lon="-0.28852">
        <ele>39</ele>
        <time>2010-06-26T19:44:53Z</time>
      </trkpt>
      <trkpt lat="47.48682" lon="-0.28917">
        <ele>39</ele>
        <time>2010-06-26T19:44:58Z</time>
      </trkpt>
      <trkpt lat="47.48683" lon="-0.28977">
        <ele>39</ele>
        <time>2010-06-26T19:45:03Z</time>
      </trkpt>
      <trkpt lat="47.48692" lon="-0.29034">
        <ele>39</ele>
        <time>2010-06-26T19:45:08Z</time>
      </trkpt>
      <trkpt lat="47.48694" lon="-0.2908">
        <ele>39</ele>
        <time>2010-06-26T19:45:13Z</time>
      </trkpt>
      <trkpt lat="47.48674" lon="-0.29143">
        <ele>39</ele>
        <time>2010-06-26T19:45:18Z</time>
      </trkpt>
      <trkpt lat="47.48652" lon="-0.29192">
        <ele>40</ele>
        <time>2010-06-26T19:45:23Z</time>
      </trkpt>
      <trkpt lat="47.4863" lon="-0.29241">
        <ele>40</ele>
        <time>2010-06-26T19:45:28Z</time>
      </trkpt>
      <trkpt lat="47.48612" lon="-0.29281">
        <ele>40</ele>
        <time>2010-06-26T19:45:33Z</time>
      </trkpt>
      <trkpt lat="47.48588" lon="-0.29333">
        <ele>39</ele>
        <time>2010-06-26T19:45:38Z</time>
      </trkpt>
      <trkpt lat="47.48554" lon="-0.29398">
        <ele>38</ele>
        <time>2010-06-26T19:45:43Z</time>
      </trkpt>
      <trkpt lat="47.48523" lon="-0.2946">
        <ele>35</ele>
        <time>2010-06-26T19:45:48Z</time>
      </trkpt>
      <trkpt lat="47.48493" lon="-0.29532">
        <ele>33</ele>
        <time>2010-06-26T19:45:53Z</time>
      </trkpt>
      <trkpt lat="47.48473" lon="-0.29594">
        <ele>31</ele>
        <time>2010-06-26T19:45:58Z</time>
      </trkpt>
      <trkpt lat="47.4845" lon="-0.29669">
        <ele>29</ele>
        <time>2010-06-26T19:46:03Z</time>
      </trkpt>
      <trkpt lat="47.48424" lon="-0.29755">
        <ele>29</ele>
        <time>2010-06-26T19:46:08Z</time>
      </trkpt>
      <trkpt lat="47.48405" lon="-0.29824">
        <ele>27</ele>
        <time>2010-06-26T19:46:13Z</time>
      </trkpt>
      <trkpt lat="47.48393" lon="-0.29879">
        <ele>25</ele>
        <time>2010-06-26T19:46:18Z</time>
      </trkpt>
      <trkpt lat="47.48385" lon="-0.29949">
        <ele>24</ele>
        <time>2010-06-26T19:46:23Z</time>
      </trkpt>
      <trkpt lat="47.48383" lon="-0.30035">
        <ele>24</ele>
        <time>2010-06-26T19:46:28Z</time>
      </trkpt>
      <trkpt lat="47.48385" lon="-0.30104">
        <ele>23</ele>
        <time>2010-06-26T19:46:33Z</time>
      </trkpt>
      <trkpt lat="47.48387" lon="-0.3017">
        <ele>23</ele>
        <time>2010-06-26T19:46:38Z</time>
      </trkpt>
      <trkpt lat="47.48383" lon="-0.30223">
        <ele>23</ele>
        <time>2010-06-26T19:46:43Z</time>
      </trkpt>
      <trkpt lat="47.4837" lon="-0.30286">
        <ele>23</ele>
        <time>2010-06-26T19:46:48Z</time>
      </trkpt>
      <trkpt lat="47.48353" lon="-0.30362">
        <ele>24</ele>
        <time>2010-06-26T19:46:53Z</time>
      </trkpt>
      <trkpt lat="47.48339" lon="-0.30424">
        <ele>25</ele>
        <time>2010-06-26T19:46:58Z</time>
      </trkpt>
      <trkpt lat="47.48319" lon="-0.30483">
        <ele>25</ele>
        <time>2010-06-26T19:47:03Z</time>
      </trkpt>
      <trkpt lat="47.48302" lon="-0.30528">
        <ele>25</ele>
        <time>2010-06-26T19:47:08Z</time>
      </trkpt>
      <trkpt lat="47.48283" lon="-0.30585">
        <ele>24</ele>
        <time>2010-06-26T19:47:13Z</time>
      </trkpt>
      <trkpt lat="47.48266" lon="-0.30655">
        <ele>24</ele>
        <time>2010-06-26T19:47:18Z</time>
      </trkpt>
      <trkpt lat="47.4826" lon="-0.30709">
        <ele>23</ele>
        <time>2010-06-26T19:47:23Z</time>
      </trkpt>
      <trkpt lat="47.4828" lon="-0.30727">
        <ele>23</ele>
        <time>2010-06-26T19:47:28Z</time>
      </trkpt>
      <trkpt lat="47.48316" lon="-0.30729">
        <ele>24</ele>
        <time>2010-06-26T19:47:33Z</time>
      </trkpt>
      <trkpt lat="47.4836" lon="-0.3073">
        <ele>24</ele>
        <time>2010-06-26T19:47:38Z</time>
      </trkpt>
      <trkpt lat="47.48397" lon="-0.30733">
        <ele>25</ele>
        <time>2010-06-26T19:47:43Z</time>
      </trkpt>
      <trkpt lat="47.48432" lon="-0.30743">
        <ele>25</ele>
        <time>2010-06-26T19:47:48Z</time>
      </trkpt>
      <trkpt lat="47.48459" lon="-0.30757">
        <ele>23</ele>
        <time>2010-06-26T19:47:53Z</time>
      </trkpt>
      <trkpt lat="47.48493" lon="-0.30774">
        <ele>23</ele>
        <time>2010-06-26T19:47:58Z</time>
      </trkpt>
      <trkpt lat="47.48535" lon="-0.30795">
        <ele>24</ele>
        <time>2010-06-26T19:48:03Z</time>
      </trkpt>
      <trkpt lat="47.4857" lon="-0.30822">
        <ele>25</ele>
        <time>2010-06-26T19:48:08Z</time>
      </trkpt>
      <trkpt lat="47.48594" lon="-0.30853">
        <ele>24</ele>
        <time>2010-06-26T19:48:13Z</time>
      </trkpt>
      <trkpt lat="47.48624" lon="-0.30895">
        <ele>24</ele>
        <time>2010-06-26T19:48:18Z</time>
      </trkpt>
      <trkpt lat="47.48667" lon="-0.30935">
        <ele>22</ele>
        <time>2010-06-26T19:48:23Z</time>
      </trkpt>
      <trkpt lat="47.48707" lon="-0.30953">
        <ele>22</ele>
        <time>2010-06-26T19:48:28Z</time>
      </trkpt>
      <trkpt lat="47.48746" lon="-0.30969">
        <ele>21</ele>
        <time>2010-06-26T19:48:33Z</time>
      </trkpt>
      <trkpt lat="47.48773" lon="-0.30994">
        <ele>21</ele>
        <time>2010-06-26T19:48:38Z</time>
      </trkpt>
      <trkpt lat="47.48802" lon="-0.31034">
        <ele>21</ele>
        <time>2010-06-26T19:48:43Z</time>
      </trkpt>
      <trkpt lat="47.48836" lon="-0.31082">
        <ele>23</ele>
        <time>2010-06-26T19:48:48Z</time>
      </trkpt>
      <trkpt lat="47.48862" lon="-0.3112">
        <ele>22</ele>
        <time>2010-06-26T19:48:53Z</time>
      </trkpt>
      <trkpt lat="47.48883" lon="-0.31151">
        <ele>22</ele>
        <time>2010-06-26T19:48:58Z</time>
      </trkpt>
      <trkpt lat="47.4891" lon="-0.31188">
        <ele>22</ele>
        <time>2010-06-26T19:49:03Z</time>
      </trkpt>
      <trkpt lat="47.48936" lon="-0.31227">
        <ele>24</ele>
        <time>2010-06-26T19:49:08Z</time>
      </trkpt>
      <trkpt lat="47.48967" lon="-0.31274">
        <ele>24</ele>
        <time>2010-06-26T19:49:13Z</time>
      </trkpt>
      <trkpt lat="47.48991" lon="-0.31317">
        <ele>24</ele>
        <time>2010-06-26T19:49:18Z</time>
      </trkpt>
      <trkpt lat="47.4901" lon="-0.31352">
        <ele>24</ele>
        <time>2010-06-26T19:49:23Z</time>
      </trkpt>
      <trkpt lat="47.49034" lon="-0.31396">
        <ele>24</ele>
        <time>2010-06-26T19:49:28Z</time>
      </trkpt>
      <trkpt lat="47.49065" lon="-0.31448">
        <ele>23</ele>
        <time>2010-06-26T19:49:33Z</time>
      </trkpt>
      <trkpt lat="47.49094" lon="-0.31488">
        <ele>24</ele>
        <time>2010-06-26T19:49:38Z</time>
      </trkpt>
      <trkpt lat="47.49119" lon="-0.31514">
        <ele>25</ele>
        <time>2010-06-26T19:49:43Z</time>
      </trkpt>
      <trkpt lat="47.4915" lon="-0.31545">
        <ele>26</ele>
        <time>2010-06-26T19:49:48Z</time>
      </trkpt>
      <trkpt lat="47.49178" lon="-0.31579">
        <ele>29</ele>
        <time>2010-06-26T19:49:53Z</time>
      </trkpt>
      <trkpt lat="47.49206" lon="-0.31623">
        <ele>27</ele>
        <time>2010-06-26T19:49:58Z</time>
      </trkpt>
      <trkpt lat="47.49233" lon="-0.31657">
        <ele>25</ele>
        <time>2010-06-26T19:50:03Z</time>
      </trkpt>
      <trkpt lat="47.49257" lon="-0.31685">
        <ele>25</ele>
        <time>2010-06-26T19:50:08Z</time>
      </trkpt>
      <trkpt lat="47.49286" lon="-0.31723">
        <ele>26</ele>
        <time>2010-06-26T19:50:13Z</time>
      </trkpt>
      <trkpt lat="47.49316" lon="-0.31777">
        <ele>25</ele>
        <time>2010-06-26T19:50:18Z</time>
      </trkpt>
      <trkpt lat="47.49341" lon="-0.31819">
        <ele>26</ele>
        <time>2010-06-26T19:50:23Z</time>
      </trkpt>
      <trkpt lat="47.49369" lon="-0.31857">
        <ele>25</ele>
        <time>2010-06-26T19:50:28Z</time>
      </trkpt>
      <trkpt lat="47.49393" lon="-0.31883">
        <ele>25</ele>
        <time>2010-06-26T19:50:33Z</time>
      </trkpt>
      <trkpt lat="47.49433" lon="-0.31916">
        <ele>25</ele>
        <time>2010-06-26T19:50:38Z</time>
      </trkpt>
      <trkpt lat="47.49469" lon="-0.31931">
        <ele>25</ele>
        <time>2010-06-26T19:50:43Z</time>
      </trkpt>
      <trkpt lat="47.49511" lon="-0.31934">
        <ele>26</ele>
        <time>2010-06-26T19:50:48Z</time>
      </trkpt>
      <trkpt lat="47.49543" lon="-0.31937">
        <ele>27</ele>
        <time>2010-06-26T19:50:53Z</time>
      </trkpt>
      <trkpt lat="47.49581" lon="-0.31942">
        <ele>27</ele>
        <time>2010-06-26T19:50:58Z</time>
      </trkpt>
      <trkpt lat="47.49616" lon="-0.31947">
        <ele>28</ele>
        <time>2010-06-26T19:51:03Z</time>
      </trkpt>
      <trkpt lat="47.4965" lon="-0.31948">
        <ele>28</ele>
        <time>2010-06-26T19:51:08Z</time>
      </trkpt>
      <trkpt lat="47.49676" lon="-0.31947">
        <ele>28</ele>
        <time>2010-06-26T19:51:13Z</time>
      </trkpt>
      <trkpt lat="47.49697" lon="-0.31943">
        <ele>28</ele>
        <time>2010-06-26T19:51:18Z</time>
      </trkpt>
      <trkpt lat="47.4972" lon="-0.31936">
        <ele>28</ele>
        <time>2010-06-26T19:51:23Z</time>
      </trkpt>
      <trkpt lat="47.49751" lon="-0.31921">
        <ele>28</ele>
        <time>2010-06-26T19:51:28Z</time>
      </trkpt>
      <trkpt lat="47.4978" lon="-0.31911">
        <ele>28</ele>
        <time>2010-06-26T19:51:33Z</time>
      </trkpt>
      <trkpt lat="47.49804" lon="-0.31906">
        <ele>27</ele>
        <time>2010-06-26T19:51:38Z</time>
      </trkpt>
      <trkpt lat="47.49834" lon="-0.31903">
        <ele>27</ele>
        <time>2010-06-26T19:51:43Z</time>
      </trkpt>
      <trkpt lat="47.49872" lon="-0.31896">
        <ele>28</ele>
        <time>2010-06-26T19:51:48Z</time>
      </trkpt>
      <trkpt lat="47.49897" lon="-0.31897">
        <ele>28</ele>
        <time>2010-06-26T19:51:53Z</time>
      </trkpt>
      <trkpt lat="47.49921" lon="-0.31901">
        <ele>29</ele>
        <time>2010-06-26T19:51:58Z</time>
      </trkpt>
      <trkpt lat="47.49926" lon="-0.31908">
        <ele>29</ele>
        <time>2010-06-26T19:52:03Z</time>
      </trkpt>
      <trkpt lat="47.49931" lon="-0.31934">
        <ele>28</ele>
        <time>2010-06-26T19:52:08Z</time>
      </trkpt>
      <trkpt lat="47.4994" lon="-0.31982">
        <ele>28</ele>
        <time>2010-06-26T19:52:13Z</time>
      </trkpt>
      <trkpt lat="47.49943" lon="-0.32031">
        <ele>28</ele>
        <time>2010-06-26T19:52:18Z</time>
      </trkpt>
      <trkpt lat="47.49947" lon="-0.3207">
        <ele>28</ele>
        <time>2010-06-26T19:52:23Z</time>
      </trkpt>
      <trkpt lat="47.49947" lon="-0.32119">
        <ele>29</ele>
        <time>2010-06-26T19:52:28Z</time>
      </trkpt>
      <trkpt lat="47.49947" lon="-0.32166">
        <ele>30</ele>
        <time>2010-06-26T19:52:33Z</time>
      </trkpt>
      <trkpt lat="47.49944" lon="-0.3222">
        <ele>31</ele>
        <time>2010-06-26T19:52:38Z</time>
      </trkpt>
      <trkpt lat="47.4994" lon="-0.32264">
        <ele>33</ele>
        <time>2010-06-26T19:52:43Z</time>
      </trkpt>
      <trkpt lat="47.49935" lon="-0.32297">
        <ele>33</ele>
        <time>2010-06-26T19:52:48Z</time>
      </trkpt>
      <trkpt lat="47.49926" lon="-0.32338">
        <ele>34</ele>
        <time>2010-06-26T19:52:53Z</time>
      </trkpt>
      <trkpt lat="47.49914" lon="-0.32386">
        <ele>33</ele>
        <time>2010-06-26T19:52:58Z</time>
      </trkpt>
      <trkpt lat="47.49904" lon="-0.32426">
        <ele>34</ele>
        <time>2010-06-26T19:53:03Z</time>
      </trkpt>
      <trkpt lat="47.49897" lon="-0.32459">
        <ele>34</ele>
        <time>2010-06-26T19:53:08Z</time>
      </trkpt>
      <trkpt lat="47.49887" lon="-0.325">
        <ele>34</ele>
        <time>2010-06-26T19:53:13Z</time>
      </trkpt>
      <trkpt lat="47.49877" lon="-0.32545">
        <ele>34</ele>
        <time>2010-06-26T19:53:18Z</time>
      </trkpt>
      <trkpt lat="47.49863" lon="-0.32603">
        <ele>35</ele>
        <time>2010-06-26T19:53:23Z</time>
      </trkpt>
      <trkpt lat="47.49849" lon="-0.32655">
        <ele>34</ele>
        <time>2010-06-26T19:53:28Z</time>
      </trkpt>
      <trkpt lat="47.49834" lon="-0.32696">
        <ele>34</ele>
        <time>2010-06-26T19:53:33Z</time>
      </trkpt>
      <trkpt lat="47.4981" lon="-0.32745">
        <ele>32</ele>
        <time>2010-06-26T19:53:38Z</time>
      </trkpt>
      <trkpt lat="47.49784" lon="-0.32804">
        <ele>32</ele>
        <time>2010-06-26T19:53:43Z</time>
      </trkpt>
      <trkpt lat="47.49763" lon="-0.32851">
        <ele>32</ele>
        <time>2010-06-26T19:53:48Z</time>
      </trkpt>
      <trkpt lat="47.49743" lon="-0.32895">
        <ele>34</ele>
        <time>2010-06-26T19:53:53Z</time>
      </trkpt>
      <trkpt lat="47.49727" lon="-0.3293">
        <ele>35</ele>
        <time>2010-06-26T19:53:58Z</time>
      </trkpt>
      <trkpt lat="47.49708" lon="-0.32973">
        <ele>36</ele>
        <time>2010-06-26T19:54:03Z</time>
      </trkpt>
      <trkpt lat="47.49685" lon="-0.33025">
        <ele>37</ele>
        <time>2010-06-26T19:54:08Z</time>
      </trkpt>
      <trkpt lat="47.49665" lon="-0.3307">
        <ele>38</ele>
        <time>2010-06-26T19:54:13Z</time>
      </trkpt>
      <trkpt lat="47.49649" lon="-0.33105">
        <ele>38</ele>
        <time>2010-06-26T19:54:18Z</time>
      </trkpt>
      <trkpt lat="47.49628" lon="-0.33149">
        <ele>38</ele>
        <time>2010-06-26T19:54:23Z</time>
      </trkpt>
      <trkpt lat="47.496" lon="-0.33199">
        <ele>38</ele>
        <time>2010-06-26T19:54:28Z</time>
      </trkpt>
      <trkpt lat="47.49572" lon="-0.33235">
        <ele>40</ele>
        <time>2010-06-26T19:54:33Z</time>
      </trkpt>
      <trkpt lat="47.49543" lon="-0.33266">
        <ele>40</ele>
        <time>2010-06-26T19:54:38Z</time>
      </trkpt>
      <trkpt lat="47.49517" lon="-0.33287">
        <ele>41</ele>
        <time>2010-06-26T19:54:43Z</time>
      </trkpt>
      <trkpt lat="47.49477" lon="-0.3331">
        <ele>43</ele>
        <time>2010-06-26T19:54:48Z</time>
      </trkpt>
      <trkpt lat="47.49443" lon="-0.33325">
        <ele>43</ele>
        <time>2010-06-26T19:54:53Z</time>
      </trkpt>
      <trkpt lat="47.4941" lon="-0.33341">
        <ele>45</ele>
        <time>2010-06-26T19:54:58Z</time>
      </trkpt>
      <trkpt lat="47.49384" lon="-0.33354">
        <ele>46</ele>
        <time>2010-06-26T19:55:03Z</time>
      </trkpt>
      <trkpt lat="47.49351" lon="-0.3337">
        <ele>46</ele>
        <time>2010-06-26T19:55:08Z</time>
      </trkpt>
      <trkpt lat="47.49312" lon="-0.33389">
        <ele>48</ele>
        <time>2010-06-26T19:55:13Z</time>
      </trkpt>
      <trkpt lat="47.49279" lon="-0.33405">
        <ele>48</ele>
        <time>2010-06-26T19:55:18Z</time>
      </trkpt>
      <trkpt lat="47.49245" lon="-0.33422">
        <ele>48</ele>
        <time>2010-06-26T19:55:23Z</time>
      </trkpt>
      <trkpt lat="47.49218" lon="-0.33435">
        <ele>50</ele>
        <time>2010-06-26T19:55:28Z</time>
      </trkpt>
      <trkpt lat="47.49184" lon="-0.33452">
        <ele>50</ele>
        <time>2010-06-26T19:55:33Z</time>
      </trkpt>
      <trkpt lat="47.49143" lon="-0.33471">
        <ele>51</ele>
        <time>2010-06-26T19:55:38Z</time>
      </trkpt>
      <trkpt lat="47.49105" lon="-0.33489">
        <ele>51</ele>
        <time>2010-06-26T19:55:43Z</time>
      </trkpt>
      <trkpt lat="47.49074" lon="-0.33505">
        <ele>50</ele>
        <time>2010-06-26T19:55:48Z</time>
      </trkpt>
      <trkpt lat="47.49033" lon="-0.33526">
        <ele>49</ele>
        <time>2010-06-26T19:55:53Z</time>
      </trkpt>
      <trkpt lat="47.48982" lon="-0.3355">
        <ele>47</ele>
        <time>2010-06-26T19:55:58Z</time>
      </trkpt>
      <trkpt lat="47.48938" lon="-0.33571">
        <ele>46</ele>
        <time>2010-06-26T19:56:03Z</time>
      </trkpt>
      <trkpt lat="47.48894" lon="-0.33592">
        <ele>45</ele>
        <time>2010-06-26T19:56:08Z</time>
      </trkpt>
      <trkpt lat="47.4886" lon="-0.3361">
        <ele>45</ele>
        <time>2010-06-26T19:56:13Z</time>
      </trkpt>
      <trkpt lat="47.48818" lon="-0.33631">
        <ele>47</ele>
        <time>2010-06-26T19:56:18Z</time>
      </trkpt>
      <trkpt lat="47.4877" lon="-0.33654">
        <ele>48</ele>
        <time>2010-06-26T19:56:23Z</time>
      </trkpt>
      <trkpt lat="47.48731" lon="-0.33674">
        <ele>50</ele>
        <time>2010-06-26T19:56:28Z</time>
      </trkpt>
      <trkpt lat="47.48693" lon="-0.33693">
        <ele>50</ele>
        <time>2010-06-26T19:56:33Z</time>
      </trkpt>
      <trkpt lat="47.48662" lon="-0.33708">
        <ele>51</ele>
        <time>2010-06-26T19:56:38Z</time>
      </trkpt>
      <trkpt lat="47.48618" lon="-0.33729">
        <ele>50</ele>
        <time>2010-06-26T19:56:43Z</time>
      </trkpt>
      <trkpt lat="47.48579" lon="-0.33747">
        <ele>49</ele>
        <time>2010-06-26T19:56:48Z</time>
      </trkpt>
      <trkpt lat="47.48535" lon="-0.33769">
        <ele>47</ele>
        <time>2010-06-26T19:56:53Z</time>
      </trkpt>
      <trkpt lat="47.48495" lon="-0.33787">
        <ele>43</ele>
        <time>2010-06-26T19:56:58Z</time>
      </trkpt>
      <trkpt lat="47.48444" lon="-0.33812">
        <ele>42</ele>
        <time>2010-06-26T19:57:03Z</time>
      </trkpt>
      <trkpt lat="47.48384" lon="-0.33843">
        <ele>40</ele>
        <time>2010-06-26T19:57:08Z</time>
      </trkpt>
      <trkpt lat="47.48336" lon="-0.33867">
        <ele>39</ele>
        <time>2010-06-26T19:57:13Z</time>
      </trkpt>
      <trkpt lat="47.4829" lon="-0.33891">
        <ele>38</ele>
        <time>2010-06-26T19:57:18Z</time>
      </trkpt>
      <trkpt lat="47.48252" lon="-0.33908">
        <ele>38</ele>
        <time>2010-06-26T19:57:23Z</time>
      </trkpt>
      <trkpt lat="47.48206" lon="-0.3393">
        <ele>38</ele>
        <time>2010-06-26T19:57:28Z</time>
      </trkpt>
      <trkpt lat="47.4815" lon="-0.33943">
        <ele>38</ele>
        <time>2010-06-26T19:57:33Z</time>
      </trkpt>
      <trkpt lat="47.48103" lon="-0.33954">
        <ele>38</ele>
        <time>2010-06-26T19:57:38Z</time>
      </trkpt>
      <trkpt lat="47.48067" lon="-0.33964">
        <ele>37</ele>
        <time>2010-06-26T19:57:43Z</time>
      </trkpt>
      <trkpt lat="47.48021" lon="-0.33974">
        <ele>37</ele>
        <time>2010-06-26T19:57:48Z</time>
      </trkpt>
      <trkpt lat="47.47966" lon="-0.33987">
        <ele>35</ele>
        <time>2010-06-26T19:57:53Z</time>
      </trkpt>
      <trkpt lat="47.4792" lon="-0.33994">
        <ele>34</ele>
        <time>2010-06-26T19:57:58Z</time>
      </trkpt>
      <trkpt lat="47.47873" lon="-0.33996">
        <ele>35</ele>
        <time>2010-06-26T19:58:03Z</time>
      </trkpt>
      <trkpt lat="47.47837" lon="-0.33998">
        <ele>35</ele>
        <time>2010-06-26T19:58:08Z</time>
      </trkpt>
      <trkpt lat="47.47792" lon="-0.34002">
        <ele>36</ele>
        <time>2010-06-26T19:58:13Z</time>
      </trkpt>
      <trkpt lat="47.47739" lon="-0.34012">
        <ele>37</ele>
        <time>2010-06-26T19:58:18Z</time>
      </trkpt>
      <trkpt lat="47.47697" lon="-0.34024">
        <ele>37</ele>
        <time>2010-06-26T19:58:23Z</time>
      </trkpt>
      <trkpt lat="47.47664" lon="-0.34034">
        <ele>37</ele>
        <time>2010-06-26T19:58:28Z</time>
      </trkpt>
      <trkpt lat="47.47622" lon="-0.34044">
        <ele>37</ele>
        <time>2010-06-26T19:58:33Z</time>
      </trkpt>
      <trkpt lat="47.47582" lon="-0.34052">
        <ele>37</ele>
        <time>2010-06-26T19:58:38Z</time>
      </trkpt>
      <trkpt lat="47.47535" lon="-0.34053">
        <ele>37</ele>
        <time>2010-06-26T19:58:43Z</time>
      </trkpt>
      <trkpt lat="47.47499" lon="-0.34047">
        <ele>36</ele>
        <time>2010-06-26T19:58:48Z</time>
      </trkpt>
      <trkpt lat="47.47474" lon="-0.34049">
        <ele>35</ele>
        <time>2010-06-26T19:58:53Z</time>
      </trkpt>
      <trkpt lat="47.47444" lon="-0.34049">
        <ele>35</ele>
        <time>2010-06-26T19:58:58Z</time>
      </trkpt>
      <trkpt lat="47.47398" lon="-0.34037">
        <ele>32</ele>
        <time>2010-06-26T19:59:03Z</time>
      </trkpt>
      <trkpt lat="47.47353" lon="-0.34035">
        <ele>31</ele>
        <time>2010-06-26T19:59:08Z</time>
      </trkpt>
      <trkpt lat="47.47315" lon="-0.34036">
        <ele>28</ele>
        <time>2010-06-26T19:59:13Z</time>
      </trkpt>
      <trkpt lat="47.47267" lon="-0.34038">
        <ele>28</ele>
        <time>2010-06-26T19:59:18Z</time>
      </trkpt>
      <trkpt lat="47.47223" lon="-0.34039">
        <ele>26</ele>
        <time>2010-06-26T19:59:23Z</time>
      </trkpt>
      <trkpt lat="47.47188" lon="-0.34039">
        <ele>26</ele>
        <time>2010-06-26T19:59:28Z</time>
      </trkpt>
      <trkpt lat="47.47172" lon="-0.34074">
        <ele>25</ele>
        <time>2010-06-26T19:59:33Z</time>
      </trkpt>
      <trkpt lat="47.47158" lon="-0.34112">
        <ele>24</ele>
        <time>2010-06-26T19:59:38Z</time>
      </trkpt>
      <trkpt lat="47.47139" lon="-0.34161">
        <ele>25</ele>
        <time>2010-06-26T19:59:43Z</time>
      </trkpt>
      <trkpt lat="47.47117" lon="-0.34226">
        <ele>26</ele>
        <time>2010-06-26T19:59:48Z</time>
      </trkpt>
      <trkpt lat="47.47102" lon="-0.34282">
        <ele>25</ele>
        <time>2010-06-26T19:59:53Z</time>
      </trkpt>
      <trkpt lat="47.47093" lon="-0.34326">
        <ele>25</ele>
        <time>2010-06-26T19:59:58Z</time>
      </trkpt>
      <trkpt lat="47.47083" lon="-0.34383">
        <ele>24</ele>
        <time>2010-06-26T20:00:03Z</time>
      </trkpt>
      <trkpt lat="47.47078" lon="-0.34451">
        <ele>24</ele>
        <time>2010-06-26T20:00:08Z</time>
      </trkpt>
      <trkpt lat="47.47079" lon="-0.34507">
        <ele>25</ele>
        <time>2010-06-26T20:00:13Z</time>
      </trkpt>
      <trkpt lat="47.4708" lon="-0.34561">
        <ele>24</ele>
        <time>2010-06-26T20:00:18Z</time>
      </trkpt>
      <trkpt lat="47.4708" lon="-0.34606">
        <ele>23</ele>
        <time>2010-06-26T20:00:23Z</time>
      </trkpt>
      <trkpt lat="47.4708" lon="-0.34661">
        <ele>23</ele>
        <time>2010-06-26T20:00:28Z</time>
      </trkpt>
      <trkpt lat="47.47079" lon="-0.34727">
        <ele>24</ele>
        <time>2010-06-26T20:00:33Z</time>
      </trkpt>
      <trkpt lat="47.47078" lon="-0.34784">
        <ele>25</ele>
        <time>2010-06-26T20:00:38Z</time>
      </trkpt>
      <trkpt lat="47.47081" lon="-0.34838">
        <ele>26</ele>
        <time>2010-06-26T20:00:43Z</time>
      </trkpt>
      <trkpt lat="47.47081" lon="-0.34881">
        <ele>25</ele>
        <time>2010-06-26T20:00:48Z</time>
      </trkpt>
      <trkpt lat="47.47084" lon="-0.34933">
        <ele>28</ele>
        <time>2010-06-26T20:00:53Z</time>
      </trkpt>
      <trkpt lat="47.47085" lon="-0.34994">
        <ele>28</ele>
        <time>2010-06-26T20:00:58Z</time>
      </trkpt>
      <trkpt lat="47.47091" lon="-0.35042">
        <ele>28</ele>
        <time>2010-06-26T20:01:03Z</time>
      </trkpt>
      <trkpt lat="47.47099" lon="-0.35082">
        <ele>28</ele>
        <time>2010-06-26T20:01:08Z</time>
      </trkpt>
      <trkpt lat="47.4711" lon="-0.35128">
        <ele>28</ele>
        <time>2010-06-26T20:01:13Z</time>
      </trkpt>
      <trkpt lat="47.47125" lon="-0.35173">
        <ele>28</ele>
        <time>2010-06-26T20:01:18Z</time>
      </trkpt>
      <trkpt lat="47.47136" lon="-0.35231">
        <ele>27</ele>
        <time>2010-06-26T20:01:23Z</time>
      </trkpt>
      <trkpt lat="47.47141" lon="-0.35284">
        <ele>26</ele>
        <time>2010-06-26T20:01:28Z</time>
      </trkpt>
      <trkpt lat="47.4715" lon="-0.35324">
        <ele>25</ele>
        <time>2010-06-26T20:01:33Z</time>
      </trkpt>
      <trkpt lat="47.47166" lon="-0.35373">
        <ele>23</ele>
        <time>2010-06-26T20:01:38Z</time>
      </trkpt>
      <trkpt lat="47.47192" lon="-0.35431">
        <ele>23</ele>
        <time>2010-06-26T20:01:43Z</time>
      </trkpt>
      <trkpt lat="47.47211" lon="-0.35469">
        <ele>23</ele>
        <time>2010-06-26T20:01:48Z</time>
      </trkpt>
      <trkpt lat="47.47239" lon="-0.35473">
        <ele>24</ele>
        <time>2010-06-26T20:01:53Z</time>
      </trkpt>
      <trkpt lat="47.47271" lon="-0.35479">
        <ele>25</ele>
        <time>2010-06-26T20:01:58Z</time>
      </trkpt>
      <trkpt lat="47.47309" lon="-0.35478">
        <ele>25</ele>
        <time>2010-06-26T20:02:03Z</time>
      </trkpt>
      <trkpt lat="47.47352" lon="-0.35478">
        <ele>26</ele>
        <time>2010-06-26T20:02:08Z</time>
      </trkpt>
      <trkpt lat="47.47389" lon="-0.35479">
        <ele>26</ele>
        <time>2010-06-26T20:02:13Z</time>
      </trkpt>
      <trkpt lat="47.47417" lon="-0.35483">
        <ele>25</ele>
        <time>2010-06-26T20:02:18Z</time>
      </trkpt>
      <trkpt lat="47.47451" lon="-0.35499">
        <ele>25</ele>
        <time>2010-06-26T20:02:23Z</time>
      </trkpt>
      <trkpt lat="47.47487" lon="-0.35525">
        <ele>23</ele>
        <time>2010-06-26T20:02:28Z</time>
      </trkpt>
      <trkpt lat="47.47516" lon="-0.35527">
        <ele>23</ele>
        <time>2010-06-26T20:02:33Z</time>
      </trkpt>
      <trkpt lat="47.47534" lon="-0.3555">
        <ele>22</ele>
        <time>2010-06-26T20:02:38Z</time>
      </trkpt>
      <trkpt lat="47.47566" lon="-0.35578">
        <ele>22</ele>
        <time>2010-06-26T20:02:43Z</time>
      </trkpt>
      <trkpt lat="47.47583" lon="-0.35615">
        <ele>21</ele>
        <time>2010-06-26T20:02:48Z</time>
      </trkpt>
      <trkpt lat="47.47569" lon="-0.35679">
        <ele>20</ele>
        <time>2010-06-26T20:02:53Z</time>
      </trkpt>
      <trkpt lat="47.4757" lon="-0.35738">
        <ele>20</ele>
        <time>2010-06-26T20:02:58Z</time>
      </trkpt>
      <trkpt lat="47.47572" lon="-0.35785">
        <ele>20</ele>
        <time>2010-06-26T20:03:03Z</time>
      </trkpt>
      <trkpt lat="47.47564" lon="-0.35845">
        <ele>20</ele>
        <time>2010-06-26T20:03:08Z</time>
      </trkpt>
      <trkpt lat="47.47551" lon="-0.35902">
        <ele>20</ele>
        <time>2010-06-26T20:03:13Z</time>
      </trkpt>
      <trkpt lat="47.47534" lon="-0.35969">
        <ele>21</ele>
        <time>2010-06-26T20:03:18Z</time>
      </trkpt>
      <trkpt lat="47.4752" lon="-0.36024">
        <ele>23</ele>
        <time>2010-06-26T20:03:23Z</time>
      </trkpt>
      <trkpt lat="47.47511" lon="-0.36067">
        <ele>25</ele>
        <time>2010-06-26T20:03:28Z</time>
      </trkpt>
      <trkpt lat="47.47502" lon="-0.36124">
        <ele>25</ele>
        <time>2010-06-26T20:03:33Z</time>
      </trkpt>
      <trkpt lat="47.47488" lon="-0.36133">
        <ele>23</ele>
        <time>2010-06-26T20:03:38Z</time>
      </trkpt>
      <trkpt lat="47.47462" lon="-0.36128">
        <ele>23</ele>
        <time>2010-06-26T20:03:43Z</time>
      </trkpt>
      <trkpt lat="47.47439" lon="-0.36132">
        <ele>22</ele>
        <time>2010-06-26T20:03:48Z</time>
      </trkpt>
      <trkpt lat="47.47406" lon="-0.36122">
        <ele>20</ele>
        <time>2010-06-26T20:03:53Z</time>
      </trkpt>
      <trkpt lat="47.47377" lon="-0.36118">
        <ele>20</ele>
        <time>2010-06-26T20:03:58Z</time>
      </trkpt>
      <trkpt lat="47.47363" lon="-0.36172">
        <ele>20</ele>
        <time>2010-06-26T20:04:03Z</time>
      </trkpt>
      <trkpt lat="47.47359" lon="-0.36221">
        <ele>20</ele>
        <time>2010-06-26T20:04:08Z</time>
      </trkpt>
      <trkpt lat="47.47373" lon="-0.36257">
        <ele>20</ele>
        <time>2010-06-26T20:04:13Z</time>
      </trkpt>
      <trkpt lat="47.47394" lon="-0.363">
        <ele>21</ele>
        <time>2010-06-26T20:04:18Z</time>
      </trkpt>
      <trkpt lat="47.47418" lon="-0.3635">
        <ele>22</ele>
        <time>2010-06-26T20:04:23Z</time>
      </trkpt>
      <trkpt lat="47.47437" lon="-0.36391">
        <ele>23</ele>
        <time>2010-06-26T20:04:28Z</time>
      </trkpt>
      <trkpt lat="47.47455" lon="-0.36424">
        <ele>24</ele>
        <time>2010-06-26T20:04:33Z</time>
      </trkpt>
      <trkpt lat="47.47474" lon="-0.36465">
        <ele>24</ele>
        <time>2010-06-26T20:04:38Z</time>
      </trkpt>
      <trkpt lat="47.47492" lon="-0.36504">
        <ele>26</ele>
        <time>2010-06-26T20:04:43Z</time>
      </trkpt>
      <trkpt lat="47.47514" lon="-0.36551">
        <ele>27</ele>
        <time>2010-06-26T20:04:48Z</time>
      </trkpt>
      <trkpt lat="47.47534" lon="-0.36587">
        <ele>28</ele>
        <time>2010-06-26T20:04:53Z</time>
      </trkpt>
      <trkpt lat="47.47553" lon="-0.36613">
        <ele>27</ele>
        <time>2010-06-26T20:04:58Z</time>
      </trkpt>
      <trkpt lat="47.47567" lon="-0.36654">
        <ele>27</ele>
        <time>2010-06-26T20:05:03Z</time>
      </trkpt>
      <trkpt lat="47.47566" lon="-0.36713">
        <ele>27</ele>
        <time>2010-06-26T20:05:08Z</time>
      </trkpt>
      <trkpt lat="47.4756" lon="-0.36764">
        <ele>26</ele>
        <time>2010-06-26T20:05:13Z</time>
      </trkpt>
      <trkpt lat="47.47554" lon="-0.36806">
        <ele>26</ele>
        <time>2010-06-26T20:05:18Z</time>
      </trkpt>
      <trkpt lat="47.47547" lon="-0.36859">
        <ele>27</ele>
        <time>2010-06-26T20:05:23Z</time>
      </trkpt>
      <trkpt lat="47.47543" lon="-0.36925">
        <ele>26</ele>
        <time>2010-06-26T20:05:28Z</time>
      </trkpt>
      <trkpt lat="47.4754" lon="-0.36981">
        <ele>27</ele>
        <time>2010-06-26T20:05:33Z</time>
      </trkpt>
      <trkpt lat="47.47539" lon="-0.37038">
        <ele>27</ele>
        <time>2010-06-26T20:05:38Z</time>
      </trkpt>
      <trkpt lat="47.47539" lon="-0.37083">
        <ele>27</ele>
        <time>2010-06-26T20:05:43Z</time>
      </trkpt>
      <trkpt lat="47.47539" lon="-0.3714">
        <ele>27</ele>
        <time>2010-06-26T20:05:48Z</time>
      </trkpt>
      <trkpt lat="47.4754" lon="-0.3721">
        <ele>27</ele>
        <time>2010-06-26T20:05:53Z</time>
      </trkpt>
      <trkpt lat="47.47545" lon="-0.37268">
        <ele>26</ele>
        <time>2010-06-26T20:05:58Z</time>
      </trkpt>
      <trkpt lat="47.4755" lon="-0.37328">
        <ele>26</ele>
        <time>2010-06-26T20:06:03Z</time>
      </trkpt>
      <trkpt lat="47.47557" lon="-0.37376">
        <ele>24</ele>
        <time>2010-06-26T20:06:08Z</time>
      </trkpt>
      <trkpt lat="47.47561" lon="-0.37441">
        <ele>22</ele>
        <time>2010-06-26T20:06:13Z</time>
      </trkpt>
      <trkpt lat="47.47576" lon="-0.3752">
        <ele>21</ele>
        <time>2010-06-26T20:06:18Z</time>
      </trkpt>
      <trkpt lat="47.47578" lon="-0.37578">
        <ele>21</ele>
        <time>2010-06-26T20:06:23Z</time>
      </trkpt>
      <trkpt lat="47.47575" lon="-0.37623">
        <ele>22</ele>
        <time>2010-06-26T20:06:28Z</time>
      </trkpt>
      <trkpt lat="47.47571" lon="-0.37677">
        <ele>24</ele>
        <time>2010-06-26T20:06:33Z</time>
      </trkpt>
      <trkpt lat="47.47568" lon="-0.37741">
        <ele>26</ele>
        <time>2010-06-26T20:06:38Z</time>
      </trkpt>
      <trkpt lat="47.47572" lon="-0.37792">
        <ele>27</ele>
        <time>2010-06-26T20:06:43Z</time>
      </trkpt>
      <trkpt lat="47.47579" lon="-0.37842">
        <ele>27</ele>
        <time>2010-06-26T20:06:48Z</time>
      </trkpt>
      <trkpt lat="47.47585" lon="-0.37882">
        <ele>27</ele>
        <time>2010-06-26T20:06:53Z</time>
      </trkpt>
      <trkpt lat="47.47588" lon="-0.37944">
        <ele>27</ele>
        <time>2010-06-26T20:06:58Z</time>
      </trkpt>
      <trkpt lat="47.47587" lon="-0.37995">
        <ele>27</ele>
        <time>2010-06-26T20:07:03Z</time>
      </trkpt>
      <trkpt lat="47.47585" lon="-0.38044">
        <ele>27</ele>
        <time>2010-06-26T20:07:08Z</time>
      </trkpt>
      <trkpt lat="47.47585" lon="-0.38077">
        <ele>27</ele>
        <time>2010-06-26T20:07:13Z</time>
      </trkpt>
      <trkpt lat="47.47574" lon="-0.38098">
        <ele>28</ele>
        <time>2010-06-26T20:07:18Z</time>
      </trkpt>
      <trkpt lat="47.47546" lon="-0.38098">
        <ele>28</ele>
        <time>2010-06-26T20:07:23Z</time>
      </trkpt>
      <trkpt lat="47.47508" lon="-0.38094">
        <ele>28</ele>
        <time>2010-06-26T20:07:28Z</time>
      </trkpt>
      <trkpt lat="47.47473" lon="-0.38081">
        <ele>28</ele>
        <time>2010-06-26T20:07:33Z</time>
      </trkpt>
      <trkpt lat="47.47443" lon="-0.38069">
        <ele>28</ele>
        <time>2010-06-26T20:07:38Z</time>
      </trkpt>
      <trkpt lat="47.47404" lon="-0.38056">
        <ele>28</ele>
        <time>2010-06-26T20:07:43Z</time>
      </trkpt>
      <trkpt lat="47.47359" lon="-0.38048">
        <ele>28</ele>
        <time>2010-06-26T20:07:48Z</time>
      </trkpt>
      <trkpt lat="47.47323" lon="-0.38051">
        <ele>29</ele>
        <time>2010-06-26T20:07:53Z</time>
      </trkpt>
      <trkpt lat="47.47294" lon="-0.38062">
        <ele>29</ele>
        <time>2010-06-26T20:07:58Z</time>
      </trkpt>
      <trkpt lat="47.47258" lon="-0.38078">
        <ele>29</ele>
        <time>2010-06-26T20:08:03Z</time>
      </trkpt>
      <trkpt lat="47.47221" lon="-0.38088">
        <ele>29</ele>
        <time>2010-06-26T20:08:08Z</time>
      </trkpt>
      <trkpt lat="47.47174" lon="-0.38096">
        <ele>28</ele>
        <time>2010-06-26T20:08:13Z</time>
      </trkpt>
      <trkpt lat="47.47135" lon="-0.38104">
        <ele>28</ele>
        <time>2010-06-26T20:08:18Z</time>
      </trkpt>
      <trkpt lat="47.47103" lon="-0.38111">
        <ele>28</ele>
        <time>2010-06-26T20:08:23Z</time>
      </trkpt>
      <trkpt lat="47.47062" lon="-0.38122">
        <ele>27</ele>
        <time>2010-06-26T20:08:28Z</time>
      </trkpt>
      <trkpt lat="47.47012" lon="-0.3815">
        <ele>26</ele>
        <time>2010-06-26T20:08:33Z</time>
      </trkpt>
      <trkpt lat="47.4697" lon="-0.38177">
        <ele>25</ele>
        <time>2010-06-26T20:08:38Z</time>
      </trkpt>
      <trkpt lat="47.46936" lon="-0.38193">
        <ele>24</ele>
        <time>2010-06-26T20:08:43Z</time>
      </trkpt>
      <trkpt lat="47.46896" lon="-0.38216">
        <ele>22</ele>
        <time>2010-06-26T20:08:48Z</time>
      </trkpt>
      <trkpt lat="47.46871" lon="-0.38272">
        <ele>23</ele>
        <time>2010-06-26T20:08:53Z</time>
      </trkpt>
      <trkpt lat="47.46851" lon="-0.38296">
        <ele>22</ele>
        <time>2010-06-26T20:08:58Z</time>
      </trkpt>
      <trkpt lat="47.46811" lon="-0.38291">
        <ele>21</ele>
        <time>2010-06-26T20:09:03Z</time>
      </trkpt>
      <trkpt lat="47.46778" lon="-0.3829">
        <ele>20</ele>
        <time>2010-06-26T20:09:08Z</time>
      </trkpt>
      <trkpt lat="47.4674" lon="-0.3829">
        <ele>19</ele>
        <time>2010-06-26T20:09:13Z</time>
      </trkpt>
      <trkpt lat="47.46702" lon="-0.38296">
        <ele>18</ele>
        <time>2010-06-26T20:09:18Z</time>
      </trkpt>
      <trkpt lat="47.46669" lon="-0.38338">
        <ele>18</ele>
        <time>2010-06-26T20:09:23Z</time>
      </trkpt>
      <trkpt lat="47.46635" lon="-0.38337">
        <ele>18</ele>
        <time>2010-06-26T20:09:28Z</time>
      </trkpt>
      <trkpt lat="47.46604" lon="-0.38338">
        <ele>17</ele>
        <time>2010-06-26T20:09:33Z</time>
      </trkpt>
      <trkpt lat="47.46566" lon="-0.38379">
        <ele>18</ele>
        <time>2010-06-26T20:09:38Z</time>
      </trkpt>
      <trkpt lat="47.46533" lon="-0.3841">
        <ele>18</ele>
        <time>2010-06-26T20:09:43Z</time>
      </trkpt>
      <trkpt lat="47.465" lon="-0.38441">
        <ele>19</ele>
        <time>2010-06-26T20:09:48Z</time>
      </trkpt>
      <trkpt lat="47.46474" lon="-0.38465">
        <ele>19</ele>
        <time>2010-06-26T20:09:53Z</time>
      </trkpt>
      <trkpt lat="47.46441" lon="-0.38496">
        <ele>20</ele>
        <time>2010-06-26T20:09:58Z</time>
      </trkpt>
      <trkpt lat="47.46407" lon="-0.38527">
        <ele>20</ele>
        <time>2010-06-26T20:10:03Z</time>
      </trkpt>
      <trkpt lat="47.46367" lon="-0.38563">
        <ele>21</ele>
        <time>2010-06-26T20:10:08Z</time>
      </trkpt>
      <trkpt lat="47.46335" lon="-0.38597">
        <ele>21</ele>
        <time>2010-06-26T20:10:13Z</time>
      </trkpt>
      <trkpt lat="47.46307" lon="-0.38621">
        <ele>22</ele>
        <time>2010-06-26T20:10:18Z</time>
      </trkpt>
      <trkpt lat="47.46274" lon="-0.38653">
        <ele>22</ele>
        <time>2010-06-26T20:10:23Z</time>
      </trkpt>
      <trkpt lat="47.46235" lon="-0.38691">
        <ele>23</ele>
        <time>2010-06-26T20:10:28Z</time>
      </trkpt>
      <trkpt lat="47.46202" lon="-0.38724">
        <ele>23</ele>
        <time>2010-06-26T20:10:33Z</time>
      </trkpt>
      <trkpt lat="47.46174" lon="-0.38749">
        <ele>23</ele>
        <time>2010-06-26T20:10:38Z</time>
      </trkpt>
      <trkpt lat="47.46139" lon="-0.3878">
        <ele>23</ele>
        <time>2010-06-26T20:10:43Z</time>
      </trkpt>
      <trkpt lat="47.46107" lon="-0.38816">
        <ele>23</ele>
        <time>2010-06-26T20:10:48Z</time>
      </trkpt>
      <trkpt lat="47.46071" lon="-0.38864">
        <ele>23</ele>
        <time>2010-06-26T20:10:53Z</time>
      </trkpt>
      <trkpt lat="47.4604" lon="-0.38904">
        <ele>23</ele>
        <time>2010-06-26T20:10:58Z</time>
      </trkpt>
      <trkpt lat="47.46016" lon="-0.38938">
        <ele>23</ele>
        <time>2010-06-26T20:11:03Z</time>
      </trkpt>
      <trkpt lat="47.45986" lon="-0.3898">
        <ele>22</ele>
        <time>2010-06-26T20:11:08Z</time>
      </trkpt>
      <trkpt lat="47.45947" lon="-0.39025">
        <ele>22</ele>
        <time>2010-06-26T20:11:13Z</time>
      </trkpt>
      <trkpt lat="47.45911" lon="-0.39059">
        <ele>22</ele>
        <time>2010-06-26T20:11:18Z</time>
      </trkpt>
      <trkpt lat="47.45881" lon="-0.39085">
        <ele>22</ele>
        <time>2010-06-26T20:11:23Z</time>
      </trkpt>
      <trkpt lat="47.45842" lon="-0.39118">
        <ele>21</ele>
        <time>2010-06-26T20:11:28Z</time>
      </trkpt>
      <trkpt lat="47.45803" lon="-0.39153">
        <ele>21</ele>
        <time>2010-06-26T20:11:33Z</time>
      </trkpt>
      <trkpt lat="47.45764" lon="-0.39207">
        <ele>20</ele>
        <time>2010-06-26T20:11:38Z</time>
      </trkpt>
      <trkpt lat="47.45744" lon="-0.39256">
        <ele>20</ele>
        <time>2010-06-26T20:11:43Z</time>
      </trkpt>
      <trkpt lat="47.45724" lon="-0.39291">
        <ele>20</ele>
        <time>2010-06-26T20:11:48Z</time>
      </trkpt>
      <trkpt lat="47.45701" lon="-0.39341">
        <ele>20</ele>
        <time>2010-06-26T20:11:53Z</time>
      </trkpt>
      <trkpt lat="47.45686" lon="-0.39396">
        <ele>20</ele>
        <time>2010-06-26T20:11:58Z</time>
      </trkpt>
      <trkpt lat="47.4568" lon="-0.39467">
        <ele>21</ele>
        <time>2010-06-26T20:12:03Z</time>
      </trkpt>
      <trkpt lat="47.45679" lon="-0.39513">
        <ele>21</ele>
        <time>2010-06-26T20:12:08Z</time>
      </trkpt>
      <trkpt lat="47.45676" lon="-0.39569">
        <ele>21</ele>
        <time>2010-06-26T20:12:13Z</time>
      </trkpt>
      <trkpt lat="47.45671" lon="-0.39635">
        <ele>22</ele>
        <time>2010-06-26T20:12:18Z</time>
      </trkpt>
      <trkpt lat="47.45667" lon="-0.39689">
        <ele>22</ele>
        <time>2010-06-26T20:12:23Z</time>
      </trkpt>
      <trkpt lat="47.45664" lon="-0.39741">
        <ele>22</ele>
        <time>2010-06-26T20:12:28Z</time>
      </trkpt>
      <trkpt lat="47.45655" lon="-0.39784">
        <ele>24</ele>
        <time>2010-06-26T20:12:33Z</time>
      </trkpt>
      <trkpt lat="47.45643" lon="-0.39835">
        <ele>25</ele>
        <time>2010-06-26T20:12:38Z</time>
      </trkpt>
      <trkpt lat="47.45631" lon="-0.39904">
        <ele>25</ele>
        <time>2010-06-26T20:12:43Z</time>
      </trkpt>
      <trkpt lat="47.45621" lon="-0.3996">
        <ele>24</ele>
        <time>2010-06-26T20:12:48Z</time>
      </trkpt>
      <trkpt lat="47.4561" lon="-0.40016">
        <ele>23</ele>
        <time>2010-06-26T20:12:53Z</time>
      </trkpt>
      <trkpt lat="47.45601" lon="-0.40062">
        <ele>23</ele>
        <time>2010-06-26T20:12:58Z</time>
      </trkpt>
      <trkpt lat="47.45589" lon="-0.4013">
        <ele>23</ele>
        <time>2010-06-26T20:13:03Z</time>
      </trkpt>
      <trkpt lat="47.45578" lon="-0.40186">
        <ele>23</ele>
        <time>2010-06-26T20:13:08Z</time>
      </trkpt>
      <trkpt lat="47.45569" lon="-0.40241">
        <ele>23</ele>
        <time>2010-06-26T20:13:13Z</time>
      </trkpt>
      <trkpt lat="47.45561" lon="-0.40286">
        <ele>23</ele>
        <time>2010-06-26T20:13:18Z</time>
      </trkpt>
      <trkpt lat="47.4555" lon="-0.40343">
        <ele>23</ele>
        <time>2010-06-26T20:13:23Z</time>
      </trkpt>
      <trkpt lat="47.45537" lon="-0.40411">
        <ele>24</ele>
        <time>2010-06-26T20:13:28Z</time>
      </trkpt>
      <trkpt lat="47.45526" lon="-0.40469">
        <ele>23</ele>
        <time>2010-06-26T20:13:33Z</time>
      </trkpt>
      <trkpt lat="47.45515" lon="-0.40528">
        <ele>22</ele>
        <time>2010-06-26T20:13:38Z</time>
      </trkpt>
      <trkpt lat="47.45507" lon="-0.40574">
        <ele>22</ele>
        <time>2010-06-26T20:13:43Z</time>
      </trkpt>
      <trkpt lat="47.45497" lon="-0.40633">
        <ele>24</ele>
        <time>2010-06-26T20:13:48Z</time>
      </trkpt>
      <trkpt lat="47.45484" lon="-0.40704">
        <ele>24</ele>
        <time>2010-06-26T20:13:53Z</time>
      </trkpt>
      <trkpt lat="47.45475" lon="-0.40763">
        <ele>24</ele>
        <time>2010-06-26T20:13:58Z</time>
      </trkpt>
      <trkpt lat="47.45467" lon="-0.40807">
        <ele>24</ele>
        <time>2010-06-26T20:14:03Z</time>
      </trkpt>
      <trkpt lat="47.45461" lon="-0.40857">
        <ele>24</ele>
        <time>2010-06-26T20:14:08Z</time>
      </trkpt>
      <trkpt lat="47.45448" lon="-0.4091">
        <ele>24</ele>
        <time>2010-06-26T20:14:13Z</time>
      </trkpt>
      <trkpt lat="47.45429" lon="-0.40974">
        <ele>25</ele>
        <time>2010-06-26T20:14:18Z</time>
      </trkpt>
      <trkpt lat="47.45409" lon="-0.41024">
        <ele>25</ele>
        <time>2010-06-26T20:14:23Z</time>
      </trkpt>
      <trkpt lat="47.45395" lon="-0.41069">
        <ele>25</ele>
        <time>2010-06-26T20:14:28Z</time>
      </trkpt>
      <trkpt lat="47.45378" lon="-0.41123">
        <ele>24</ele>
        <time>2010-06-26T20:14:33Z</time>
      </trkpt>
      <trkpt lat="47.45357" lon="-0.41185">
        <ele>24</ele>
        <time>2010-06-26T20:14:38Z</time>
      </trkpt>
      <trkpt lat="47.4534" lon="-0.41238">
        <ele>24</ele>
        <time>2010-06-26T20:14:43Z</time>
      </trkpt>
      <trkpt lat="47.45326" lon="-0.41281">
        <ele>24</ele>
        <time>2010-06-26T20:14:48Z</time>
      </trkpt>
      <trkpt lat="47.45308" lon="-0.41335">
        <ele>24</ele>
        <time>2010-06-26T20:14:53Z</time>
      </trkpt>
      <trkpt lat="47.45287" lon="-0.41401">
        <ele>24</ele>
        <time>2010-06-26T20:14:58Z</time>
      </trkpt>
      <trkpt lat="47.45269" lon="-0.41457">
        <ele>24</ele>
        <time>2010-06-26T20:15:03Z</time>
      </trkpt>
      <trkpt lat="47.4525" lon="-0.41514">
        <ele>23</ele>
        <time>2010-06-26T20:15:08Z</time>
      </trkpt>
      <trkpt lat="47.45236" lon="-0.41561">
        <ele>23</ele>
        <time>2010-06-26T20:15:13Z</time>
      </trkpt>
      <trkpt lat="47.45217" lon="-0.41619">
        <ele>22</ele>
        <time>2010-06-26T20:15:18Z</time>
      </trkpt>
      <trkpt lat="47.45195" lon="-0.41689">
        <ele>22</ele>
        <time>2010-06-26T20:15:23Z</time>
      </trkpt>
      <trkpt lat="47.45177" lon="-0.41747">
        <ele>21</ele>
        <time>2010-06-26T20:15:28Z</time>
      </trkpt>
      <trkpt lat="47.45158" lon="-0.41804">
        <ele>21</ele>
        <time>2010-06-26T20:15:33Z</time>
      </trkpt>
      <trkpt lat="47.45143" lon="-0.4185">
        <ele>21</ele>
        <time>2010-06-26T20:15:38Z</time>
      </trkpt>
      <trkpt lat="47.45121" lon="-0.41918">
        <ele>21</ele>
        <time>2010-06-26T20:15:43Z</time>
      </trkpt>
      <trkpt lat="47.45102" lon="-0.41973">
        <ele>22</ele>
        <time>2010-06-26T20:15:48Z</time>
      </trkpt>
      <trkpt lat="47.45084" lon="-0.42031">
        <ele>23</ele>
        <time>2010-06-26T20:15:53Z</time>
      </trkpt>
      <trkpt lat="47.4507" lon="-0.42076">
        <ele>23</ele>
        <time>2010-06-26T20:15:58Z</time>
      </trkpt>
      <trkpt lat="47.45052" lon="-0.42132">
        <ele>23</ele>
        <time>2010-06-26T20:16:03Z</time>
      </trkpt>
      <trkpt lat="47.4503" lon="-0.42199">
        <ele>25</ele>
        <time>2010-06-26T20:16:08Z</time>
      </trkpt>
      <trkpt lat="47.45012" lon="-0.42254">
        <ele>25</ele>
        <time>2010-06-26T20:16:13Z</time>
      </trkpt>
      <trkpt lat="47.44998" lon="-0.42311">
        <ele>25</ele>
        <time>2010-06-26T20:16:18Z</time>
      </trkpt>
      <trkpt lat="47.4499" lon="-0.42359">
        <ele>25</ele>
        <time>2010-06-26T20:16:23Z</time>
      </trkpt>
      <trkpt lat="47.4498" lon="-0.4242">
        <ele>25</ele>
        <time>2010-06-26T20:16:28Z</time>
      </trkpt>
      <trkpt lat="47.44969" lon="-0.42492">
        <ele>25</ele>
        <time>2010-06-26T20:16:33Z</time>
      </trkpt>
      <trkpt lat="47.44959" lon="-0.42553">
        <ele>24</ele>
        <time>2010-06-26T20:16:38Z</time>
      </trkpt>
      <trkpt lat="47.44951" lon="-0.42601">
        <ele>24</ele>
        <time>2010-06-26T20:16:43Z</time>
      </trkpt>
      <trkpt lat="47.44941" lon="-0.42662">
        <ele>24</ele>
        <time>2010-06-26T20:16:48Z</time>
      </trkpt>
      <trkpt lat="47.44931" lon="-0.42722">
        <ele>25</ele>
        <time>2010-06-26T20:16:53Z</time>
      </trkpt>
      <trkpt lat="47.44921" lon="-0.42793">
        <ele>25</ele>
        <time>2010-06-26T20:16:58Z</time>
      </trkpt>
      <trkpt lat="47.44911" lon="-0.42852">
        <ele>26</ele>
        <time>2010-06-26T20:17:03Z</time>
      </trkpt>
      <trkpt lat="47.44903" lon="-0.42899">
        <ele>25</ele>
        <time>2010-06-26T20:17:08Z</time>
      </trkpt>
      <trkpt lat="47.44893" lon="-0.42959">
        <ele>25</ele>
        <time>2010-06-26T20:17:13Z</time>
      </trkpt>
      <trkpt lat="47.44882" lon="-0.43028">
        <ele>26</ele>
        <time>2010-06-26T20:17:18Z</time>
      </trkpt>
      <trkpt lat="47.44871" lon="-0.43087">
        <ele>27</ele>
        <time>2010-06-26T20:17:23Z</time>
      </trkpt>
      <trkpt lat="47.44865" lon="-0.43138">
        <ele>26</ele>
        <time>2010-06-26T20:17:28Z</time>
      </trkpt>
      <trkpt lat="47.4486" lon="-0.43199">
        <ele>25</ele>
        <time>2010-06-26T20:17:33Z</time>
      </trkpt>
      <trkpt lat="47.44855" lon="-0.4326">
        <ele>24</ele>
        <time>2010-06-26T20:17:38Z</time>
      </trkpt>
      <trkpt lat="47.4485" lon="-0.43334">
        <ele>24</ele>
        <time>2010-06-26T20:17:43Z</time>
      </trkpt>
      <trkpt lat="47.44845" lon="-0.43396">
        <ele>23</ele>
        <time>2010-06-26T20:17:48Z</time>
      </trkpt>
      <trkpt lat="47.44842" lon="-0.43445">
        <ele>23</ele>
        <time>2010-06-26T20:17:53Z</time>
      </trkpt>
      <trkpt lat="47.44838" lon="-0.43507">
        <ele>23</ele>
        <time>2010-06-26T20:17:58Z</time>
      </trkpt>
      <trkpt lat="47.44832" lon="-0.43582">
        <ele>23</ele>
        <time>2010-06-26T20:18:03Z</time>
      </trkpt>
      <trkpt lat="47.44827" lon="-0.43645">
        <ele>22</ele>
        <time>2010-06-26T20:18:08Z</time>
      </trkpt>
      <trkpt lat="47.44823" lon="-0.43695">
        <ele>22</ele>
        <time>2010-06-26T20:18:13Z</time>
      </trkpt>
      <trkpt lat="47.44816" lon="-0.43759">
        <ele>23</ele>
        <time>2010-06-26T20:18:18Z</time>
      </trkpt>
      <trkpt lat="47.44809" lon="-0.43823">
        <ele>23</ele>
        <time>2010-06-26T20:18:23Z</time>
      </trkpt>
      <trkpt lat="47.448" lon="-0.43901">
        <ele>22</ele>
        <time>2010-06-26T20:18:28Z</time>
      </trkpt>
      <trkpt lat="47.44793" lon="-0.43966">
        <ele>22</ele>
        <time>2010-06-26T20:18:33Z</time>
      </trkpt>
      <trkpt lat="47.44788" lon="-0.44018">
        <ele>22</ele>
        <time>2010-06-26T20:18:38Z</time>
      </trkpt>
      <trkpt lat="47.4478" lon="-0.44086">
        <ele>21</ele>
        <time>2010-06-26T20:18:43Z</time>
      </trkpt>
      <trkpt lat="47.44773" lon="-0.44168">
        <ele>21</ele>
        <time>2010-06-26T20:18:48Z</time>
      </trkpt>
      <trkpt lat="47.44769" lon="-0.44238">
        <ele>21</ele>
        <time>2010-06-26T20:18:53Z</time>
      </trkpt>
      <trkpt lat="47.44766" lon="-0.44306">
        <ele>20</ele>
        <time>2010-06-26T20:18:58Z</time>
      </trkpt>
      <trkpt lat="47.44764" lon="-0.4436">
        <ele>20</ele>
        <time>2010-06-26T20:19:03Z</time>
      </trkpt>
      <trkpt lat="47.44761" lon="-0.4444">
        <ele>21</ele>
        <time>2010-06-26T20:19:08Z</time>
      </trkpt>
      <trkpt lat="47.44758" lon="-0.44505">
        <ele>21</ele>
        <time>2010-06-26T20:19:13Z</time>
      </trkpt>
      <trkpt lat="47.44756" lon="-0.44569">
        <ele>22</ele>
        <time>2010-06-26T20:19:18Z</time>
      </trkpt>
      <trkpt lat="47.44754" lon="-0.4462">
        <ele>21</ele>
        <time>2010-06-26T20:19:23Z</time>
      </trkpt>
      <trkpt lat="47.44755" lon="-0.44684">
        <ele>21</ele>
        <time>2010-06-26T20:19:28Z</time>
      </trkpt>
      <trkpt lat="47.44757" lon="-0.44747">
        <ele>21</ele>
        <time>2010-06-26T20:19:33Z</time>
      </trkpt>
      <trkpt lat="47.44758" lon="-0.44821">
        <ele>22</ele>
        <time>2010-06-26T20:19:38Z</time>
      </trkpt>
      <trkpt lat="47.44749" lon="-0.44883">
        <ele>22</ele>
        <time>2010-06-26T20:19:43Z</time>
      </trkpt>
      <trkpt lat="47.44736" lon="-0.44933">
        <ele>21</ele>
        <time>2010-06-26T20:19:48Z</time>
      </trkpt>
      <trkpt lat="47.44727" lon="-0.44996">
        <ele>21</ele>
        <time>2010-06-26T20:19:53Z</time>
      </trkpt>
      <trkpt lat="47.44716" lon="-0.45069">
        <ele>20</ele>
        <time>2010-06-26T20:19:58Z</time>
      </trkpt>
      <trkpt lat="47.44705" lon="-0.4513">
        <ele>20</ele>
        <time>2010-06-26T20:20:03Z</time>
      </trkpt>
      <trkpt lat="47.44697" lon="-0.45179">
        <ele>20</ele>
        <time>2010-06-26T20:20:08Z</time>
      </trkpt>
      <trkpt lat="47.44687" lon="-0.45239">
        <ele>20</ele>
        <time>2010-06-26T20:20:13Z</time>
      </trkpt>
      <trkpt lat="47.44677" lon="-0.45301">
        <ele>20</ele>
        <time>2010-06-26T20:20:18Z</time>
      </trkpt>
      <trkpt lat="47.44664" lon="-0.45376">
        <ele>19</ele>
        <time>2010-06-26T20:20:23Z</time>
      </trkpt>
      <trkpt lat="47.44653" lon="-0.45437">
        <ele>19</ele>
        <time>2010-06-26T20:20:28Z</time>
      </trkpt>
      <trkpt lat="47.44645" lon="-0.45486">
        <ele>19</ele>
        <time>2010-06-26T20:20:33Z</time>
      </trkpt>
      <trkpt lat="47.44634" lon="-0.45548">
        <ele>20</ele>
        <time>2010-06-26T20:20:38Z</time>
      </trkpt>
      <trkpt lat="47.44625" lon="-0.45621">
        <ele>21</ele>
        <time>2010-06-26T20:20:43Z</time>
      </trkpt>
      <trkpt lat="47.4462" lon="-0.45682">
        <ele>22</ele>
        <time>2010-06-26T20:20:48Z</time>
      </trkpt>
      <trkpt lat="47.44617" lon="-0.4573">
        <ele>22</ele>
        <time>2010-06-26T20:20:53Z</time>
      </trkpt>
      <trkpt lat="47.44621" lon="-0.45787">
        <ele>22</ele>
        <time>2010-06-26T20:20:58Z</time>
      </trkpt>
      <trkpt lat="47.44612" lon="-0.45843">
        <ele>22</ele>
        <time>2010-06-26T20:21:03Z</time>
      </trkpt>
      <trkpt lat="47.44605" lon="-0.45913">
        <ele>22</ele>
        <time>2010-06-26T20:21:08Z</time>
      </trkpt>
      <trkpt lat="47.44601" lon="-0.45972">
        <ele>22</ele>
        <time>2010-06-26T20:21:13Z</time>
      </trkpt>
      <trkpt lat="47.44598" lon="-0.46019">
        <ele>21</ele>
        <time>2010-06-26T20:21:18Z</time>
      </trkpt>
      <trkpt lat="47.44594" lon="-0.4608">
        <ele>21</ele>
        <time>2010-06-26T20:21:23Z</time>
      </trkpt>
      <trkpt lat="47.44588" lon="-0.46155">
        <ele>21</ele>
        <time>2010-06-26T20:21:28Z</time>
      </trkpt>
      <trkpt lat="47.44582" lon="-0.46217">
        <ele>21</ele>
        <time>2010-06-26T20:21:33Z</time>
      </trkpt>
      <trkpt lat="47.44576" lon="-0.46266">
        <ele>21</ele>
        <time>2010-06-26T20:21:38Z</time>
      </trkpt>
      <trkpt lat="47.44565" lon="-0.46327">
        <ele>21</ele>
        <time>2010-06-26T20:21:43Z</time>
      </trkpt>
      <trkpt lat="47.44553" lon="-0.46403">
        <ele>21</ele>
        <time>2010-06-26T20:21:48Z</time>
      </trkpt>
      <trkpt lat="47.44545" lon="-0.46467">
        <ele>21</ele>
        <time>2010-06-26T20:21:53Z</time>
      </trkpt>
      <trkpt lat="47.44546" lon="-0.46529">
        <ele>22</ele>
        <time>2010-06-26T20:21:58Z</time>
      </trkpt>
      <trkpt lat="47.44548" lon="-0.46575">
        <ele>22</ele>
        <time>2010-06-26T20:22:03Z</time>
      </trkpt>
      <trkpt lat="47.44552" lon="-0.46629">
        <ele>22</ele>
        <time>2010-06-26T20:22:08Z</time>
      </trkpt>
      <trkpt lat="47.44549" lon="-0.46663">
        <ele>22</ele>
        <time>2010-06-26T20:22:13Z</time>
      </trkpt>
      <trkpt lat="47.44552" lon="-0.46715">
        <ele>22</ele>
        <time>2010-06-26T20:22:18Z</time>
      </trkpt>
      <trkpt lat="47.44552" lon="-0.46763">
        <ele>22</ele>
        <time>2010-06-26T20:22:23Z</time>
      </trkpt>
      <trkpt lat="47.44553" lon="-0.46804">
        <ele>22</ele>
        <time>2010-06-26T20:22:28Z</time>
      </trkpt>
      <trkpt lat="47.44554" lon="-0.46862">
        <ele>21</ele>
        <time>2010-06-26T20:22:33Z</time>
      </trkpt>
      <trkpt lat="47.44558" lon="-0.46927">
        <ele>19</ele>
        <time>2010-06-26T20:22:38Z</time>
      </trkpt>
      <trkpt lat="47.4455" lon="-0.46981">
        <ele>19</ele>
        <time>2010-06-26T20:22:43Z</time>
      </trkpt>
      <trkpt lat="47.44548" lon="-0.47026">
        <ele>20</ele>
        <time>2010-06-26T20:22:48Z</time>
      </trkpt>
      <trkpt lat="47.44544" lon="-0.47082">
        <ele>21</ele>
        <time>2010-06-26T20:22:53Z</time>
      </trkpt>
      <trkpt lat="47.44528" lon="-0.47145">
        <ele>22</ele>
        <time>2010-06-26T20:22:58Z</time>
      </trkpt>
      <trkpt lat="47.44513" lon="-0.47197">
        <ele>21</ele>
        <time>2010-06-26T20:23:03Z</time>
      </trkpt>
      <trkpt lat="47.44501" lon="-0.47253">
        <ele>19</ele>
        <time>2010-06-26T20:23:08Z</time>
      </trkpt>
      <trkpt lat="47.44488" lon="-0.47298">
        <ele>20</ele>
        <time>2010-06-26T20:23:13Z</time>
      </trkpt>
      <trkpt lat="47.44474" lon="-0.47354">
        <ele>19</ele>
        <time>2010-06-26T20:23:18Z</time>
      </trkpt>
      <trkpt lat="47.44455" lon="-0.47425">
        <ele>19</ele>
        <time>2010-06-26T20:23:23Z</time>
      </trkpt>
      <trkpt lat="47.4444" lon="-0.47485">
        <ele>19</ele>
        <time>2010-06-26T20:23:28Z</time>
      </trkpt>
      <trkpt lat="47.44427" lon="-0.47533">
        <ele>20</ele>
        <time>2010-06-26T20:23:33Z</time>
      </trkpt>
      <trkpt lat="47.44413" lon="-0.47593">
        <ele>20</ele>
        <time>2010-06-26T20:23:38Z</time>
      </trkpt>
      <trkpt lat="47.44398" lon="-0.47652">
        <ele>20</ele>
        <time>2010-06-26T20:23:43Z</time>
      </trkpt>
      <trkpt lat="47.4438" lon="-0.47722">
        <ele>20</ele>
        <time>2010-06-26T20:23:48Z</time>
      </trkpt>
      <trkpt lat="47.44364" lon="-0.47779">
        <ele>22</ele>
        <time>2010-06-26T20:23:53Z</time>
      </trkpt>
      <trkpt lat="47.44351" lon="-0.47826">
        <ele>22</ele>
        <time>2010-06-26T20:23:58Z</time>
      </trkpt>
      <trkpt lat="47.44336" lon="-0.47884">
        <ele>24</ele>
        <time>2010-06-26T20:24:03Z</time>
      </trkpt>
      <trkpt lat="47.44318" lon="-0.47953">
        <ele>23</ele>
        <time>2010-06-26T20:24:08Z</time>
      </trkpt>
      <trkpt lat="47.44303" lon="-0.4801">
        <ele>22</ele>
        <time>2010-06-26T20:24:13Z</time>
      </trkpt>
      <trkpt lat="47.44291" lon="-0.48055">
        <ele>21</ele>
        <time>2010-06-26T20:24:18Z</time>
      </trkpt>
      <trkpt lat="47.44275" lon="-0.48113">
        <ele>20</ele>
        <time>2010-06-26T20:24:23Z</time>
      </trkpt>
      <trkpt lat="47.44257" lon="-0.48185">
        <ele>20</ele>
        <time>2010-06-26T20:24:28Z</time>
      </trkpt>
      <trkpt lat="47.44241" lon="-0.48243">
        <ele>19</ele>
        <time>2010-06-26T20:24:33Z</time>
      </trkpt>
      <trkpt lat="47.44234" lon="-0.48303">
        <ele>19</ele>
        <time>2010-06-26T20:24:38Z</time>
      </trkpt>
      <trkpt lat="47.44223" lon="-0.48337">
        <ele>19</ele>
        <time>2010-06-26T20:24:43Z</time>
      </trkpt>
      <trkpt lat="47.44188" lon="-0.48321">
        <ele>20</ele>
        <time>2010-06-26T20:24:48Z</time>
      </trkpt>
      <trkpt lat="47.44141" lon="-0.48334">
        <ele>20</ele>
        <time>2010-06-26T20:24:53Z</time>
      </trkpt>
      <trkpt lat="47.44106" lon="-0.48373">
        <ele>19</ele>
        <time>2010-06-26T20:24:58Z</time>
      </trkpt>
      <trkpt lat="47.44074" lon="-0.48417">
        <ele>19</ele>
        <time>2010-06-26T20:25:03Z</time>
      </trkpt>
      <trkpt lat="47.44048" lon="-0.48452">
        <ele>20</ele>
        <time>2010-06-26T20:25:08Z</time>
      </trkpt>
      <trkpt lat="47.44016" lon="-0.48493">
        <ele>22</ele>
        <time>2010-06-26T20:25:13Z</time>
      </trkpt>
      <trkpt lat="47.43979" lon="-0.48541">
        <ele>23</ele>
        <time>2010-06-26T20:25:18Z</time>
      </trkpt>
      <trkpt lat="47.4395" lon="-0.48583">
        <ele>23</ele>
        <time>2010-06-26T20:25:23Z</time>
      </trkpt>
      <trkpt lat="47.4394" lon="-0.48627">
        <ele>23</ele>
        <time>2010-06-26T20:25:28Z</time>
      </trkpt>
      <trkpt lat="47.43909" lon="-0.48662">
        <ele>22</ele>
        <time>2010-06-26T20:25:33Z</time>
      </trkpt>
      <trkpt lat="47.43873" lon="-0.48696">
        <ele>22</ele>
        <time>2010-06-26T20:25:38Z</time>
      </trkpt>
      <trkpt lat="47.43836" lon="-0.4875">
        <ele>21</ele>
        <time>2010-06-26T20:25:43Z</time>
      </trkpt>
      <trkpt lat="47.43808" lon="-0.488">
        <ele>20</ele>
        <time>2010-06-26T20:25:48Z</time>
      </trkpt>
      <trkpt lat="47.43791" lon="-0.48845">
        <ele>19</ele>
        <time>2010-06-26T20:25:53Z</time>
      </trkpt>
      <trkpt lat="47.43774" lon="-0.48906">
        <ele>19</ele>
        <time>2010-06-26T20:25:58Z</time>
      </trkpt>
      <trkpt lat="47.43754" lon="-0.48978">
        <ele>19</ele>
        <time>2010-06-26T20:26:03Z</time>
      </trkpt>
      <trkpt lat="47.43737" lon="-0.49039">
        <ele>19</ele>
        <time>2010-06-26T20:26:08Z</time>
      </trkpt>
      <trkpt lat="47.43724" lon="-0.49088">
        <ele>20</ele>
        <time>2010-06-26T20:26:13Z</time>
      </trkpt>
      <trkpt lat="47.43706" lon="-0.49149">
        <ele>20</ele>
        <time>2010-06-26T20:26:18Z</time>
      </trkpt>
      <trkpt lat="47.43686" lon="-0.49224">
        <ele>20</ele>
        <time>2010-06-26T20:26:23Z</time>
      </trkpt>
      <trkpt lat="47.43669" lon="-0.49287">
        <ele>19</ele>
        <time>2010-06-26T20:26:28Z</time>
      </trkpt>
      <trkpt lat="47.43652" lon="-0.4935">
        <ele>20</ele>
        <time>2010-06-26T20:26:33Z</time>
      </trkpt>
      <trkpt lat="47.43638" lon="-0.49402">
        <ele>20</ele>
        <time>2010-06-26T20:26:38Z</time>
      </trkpt>
      <trkpt lat="47.4362" lon="-0.49466">
        <ele>20</ele>
        <time>2010-06-26T20:26:43Z</time>
      </trkpt>
      <trkpt lat="47.436" lon="-0.49543">
        <ele>20</ele>
        <time>2010-06-26T20:26:48Z</time>
      </trkpt>
      <trkpt lat="47.43582" lon="-0.49606">
        <ele>19</ele>
        <time>2010-06-26T20:26:53Z</time>
      </trkpt>
      <trkpt lat="47.43568" lon="-0.49656">
        <ele>19</ele>
        <time>2010-06-26T20:26:58Z</time>
      </trkpt>
      <trkpt lat="47.43552" lon="-0.4972">
        <ele>19</ele>
        <time>2010-06-26T20:27:03Z</time>
      </trkpt>
      <trkpt lat="47.43539" lon="-0.49785">
        <ele>20</ele>
        <time>2010-06-26T20:27:08Z</time>
      </trkpt>
      <trkpt lat="47.43522" lon="-0.49863">
        <ele>21</ele>
        <time>2010-06-26T20:27:13Z</time>
      </trkpt>
      <trkpt lat="47.43505" lon="-0.49924">
        <ele>21</ele>
        <time>2010-06-26T20:27:18Z</time>
      </trkpt>
      <trkpt lat="47.43507" lon="-0.49972">
        <ele>21</ele>
        <time>2010-06-26T20:27:23Z</time>
      </trkpt>
      <trkpt lat="47.43498" lon="-0.50031">
        <ele>19</ele>
        <time>2010-06-26T20:27:28Z</time>
      </trkpt>
      <trkpt lat="47.43524" lon="-0.50092">
        <ele>20</ele>
        <time>2010-06-26T20:27:33Z</time>
      </trkpt>
      <trkpt lat="47.43551" lon="-0.50142">
        <ele>20</ele>
        <time>2010-06-26T20:27:38Z</time>
      </trkpt>
      <trkpt lat="47.43572" lon="-0.50179">
        <ele>20</ele>
        <time>2010-06-26T20:27:43Z</time>
      </trkpt>
      <trkpt lat="47.43596" lon="-0.50225">
        <ele>21</ele>
        <time>2010-06-26T20:27:48Z</time>
      </trkpt>
      <trkpt lat="47.43622" lon="-0.50285">
        <ele>22</ele>
        <time>2010-06-26T20:27:53Z</time>
      </trkpt>
      <trkpt lat="47.43644" lon="-0.50333">
        <ele>22</ele>
        <time>2010-06-26T20:27:58Z</time>
      </trkpt>
      <trkpt lat="47.43663" lon="-0.5037">
        <ele>23</ele>
        <time>2010-06-26T20:28:03Z</time>
      </trkpt>
      <trkpt lat="47.43687" lon="-0.50417">
        <ele>23</ele>
        <time>2010-06-26T20:28:08Z</time>
      </trkpt>
      <trkpt lat="47.43712" lon="-0.50462">
        <ele>23</ele>
        <time>2010-06-26T20:28:13Z</time>
      </trkpt>
      <trkpt lat="47.43738" lon="-0.50515">
        <ele>23</ele>
        <time>2010-06-26T20:28:18Z</time>
      </trkpt>
      <trkpt lat="47.43758" lon="-0.5056">
        <ele>24</ele>
        <time>2010-06-26T20:28:23Z</time>
      </trkpt>
      <trkpt lat="47.43773" lon="-0.50608">
        <ele>24</ele>
        <time>2010-06-26T20:28:28Z</time>
      </trkpt>
      <trkpt lat="47.43781" lon="-0.50647">
        <ele>24</ele>
        <time>2010-06-26T20:28:33Z</time>
      </trkpt>
      <trkpt lat="47.4379" lon="-0.50712">
        <ele>24</ele>
        <time>2010-06-26T20:28:38Z</time>
      </trkpt>
      <trkpt lat="47.43797" lon="-0.50767">
        <ele>23</ele>
        <time>2010-06-26T20:28:43Z</time>
      </trkpt>
      <trkpt lat="47.43803" lon="-0.50823">
        <ele>23</ele>
        <time>2010-06-26T20:28:48Z</time>
      </trkpt>
      <trkpt lat="47.43817" lon="-0.50858">
        <ele>23</ele>
        <time>2010-06-26T20:28:53Z</time>
      </trkpt>
      <trkpt lat="47.4383" lon="-0.50894">
        <ele>24</ele>
        <time>2010-06-26T20:28:58Z</time>
      </trkpt>
      <trkpt lat="47.43818" lon="-0.5093">
        <ele>24</ele>
        <time>2010-06-26T20:29:03Z</time>
      </trkpt>
      <trkpt lat="47.43805" lon="-0.50972">
        <ele>24</ele>
        <time>2010-06-26T20:29:08Z</time>
      </trkpt>
      <trkpt lat="47.43795" lon="-0.51009">
        <ele>24</ele>
        <time>2010-06-26T20:29:13Z</time>
      </trkpt>
      <trkpt lat="47.43787" lon="-0.5104">
        <ele>24</ele>
        <time>2010-06-26T20:29:18Z</time>
      </trkpt>
      <trkpt lat="47.43777" lon="-0.51081">
        <ele>24</ele>
        <time>2010-06-26T20:29:23Z</time>
      </trkpt>
      <trkpt lat="47.4377" lon="-0.51142">
        <ele>23</ele>
        <time>2010-06-26T20:29:28Z</time>
      </trkpt>
      <trkpt lat="47.43767" lon="-0.51202">
        <ele>24</ele>
        <time>2010-06-26T20:29:33Z</time>
      </trkpt>
      <trkpt lat="47.4376" lon="-0.51251">
        <ele>24</ele>
        <time>2010-06-26T20:29:38Z</time>
      </trkpt>
      <trkpt lat="47.43745" lon="-0.51306">
        <ele>23</ele>
        <time>2010-06-26T20:29:43Z</time>
      </trkpt>
      <trkpt lat="47.43729" lon="-0.51375">
        <ele>22</ele>
        <time>2010-06-26T20:29:48Z</time>
      </trkpt>
      <trkpt lat="47.43716" lon="-0.51431">
        <ele>21</ele>
        <time>2010-06-26T20:29:53Z</time>
      </trkpt>
      <trkpt lat="47.43707" lon="-0.51481">
        <ele>21</ele>
        <time>2010-06-26T20:29:58Z</time>
      </trkpt>
      <trkpt lat="47.43696" lon="-0.51522">
        <ele>21</ele>
        <time>2010-06-26T20:30:03Z</time>
      </trkpt>
      <trkpt lat="47.43683" lon="-0.51573">
        <ele>21</ele>
        <time>2010-06-26T20:30:08Z</time>
      </trkpt>
      <trkpt lat="47.43668" lon="-0.51635">
        <ele>22</ele>
        <time>2010-06-26T20:30:13Z</time>
      </trkpt>
      <trkpt lat="47.43655" lon="-0.51689">
        <ele>23</ele>
        <time>2010-06-26T20:30:18Z</time>
      </trkpt>
      <trkpt lat="47.43645" lon="-0.51732">
        <ele>23</ele>
        <time>2010-06-26T20:30:23Z</time>
      </trkpt>
      <trkpt lat="47.4363" lon="-0.51786">
        <ele>22</ele>
        <time>2010-06-26T20:30:28Z</time>
      </trkpt>
      <trkpt lat="47.43617" lon="-0.51843">
        <ele>21</ele>
        <time>2010-06-26T20:30:33Z</time>
      </trkpt>
      <trkpt lat="47.43599" lon="-0.5191">
        <ele>20</ele>
        <time>2010-06-26T20:30:38Z</time>
      </trkpt>
      <trkpt lat="47.43586" lon="-0.51972">
        <ele>19</ele>
        <time>2010-06-26T20:30:43Z</time>
      </trkpt>
      <trkpt lat="47.43575" lon="-0.52021">
        <ele>18</ele>
        <time>2010-06-26T20:30:48Z</time>
      </trkpt>
      <trkpt lat="47.43563" lon="-0.5208">
        <ele>19</ele>
        <time>2010-06-26T20:30:53Z</time>
      </trkpt>
      <trkpt lat="47.43548" lon="-0.52148">
        <ele>19</ele>
        <time>2010-06-26T20:30:58Z</time>
      </trkpt>
      <trkpt lat="47.43535" lon="-0.52205">
        <ele>20</ele>
        <time>2010-06-26T20:31:03Z</time>
      </trkpt>
      <trkpt lat="47.43523" lon="-0.5226">
        <ele>20</ele>
        <time>2010-06-26T20:31:08Z</time>
      </trkpt>
      <trkpt lat="47.43511" lon="-0.52301">
        <ele>19</ele>
        <time>2010-06-26T20:31:13Z</time>
      </trkpt>
      <trkpt lat="47.43502" lon="-0.5234">
        <ele>19</ele>
        <time>2010-06-26T20:31:18Z</time>
      </trkpt>
      <trkpt lat="47.43502" lon="-0.52339">
        <ele>19</ele>
        <time>2010-06-26T20:31:23Z</time>
      </trkpt>
      <trkpt lat="47.43501" lon="-0.52338">
        <ele>19</ele>
        <time>2010-06-26T20:31:28Z</time>
      </trkpt>
      <trkpt lat="47.43501" lon="-0.52337">
        <ele>19</ele>
        <time>2010-06-26T20:31:33Z</time>
      </trkpt>
      <trkpt lat="47.43502" lon="-0.52337">
        <ele>19</ele>
        <time>2010-06-26T20:31:38Z</time>
      </trkpt>
      <trkpt lat="47.43501" lon="-0.52341">
        <ele>19</ele>
        <time>2010-06-26T20:31:43Z</time>
      </trkpt>
      <trkpt lat="47.43495" lon="-0.52366">
        <ele>19</ele>
        <time>2010-06-26T20:31:48Z</time>
      </trkpt>
      <trkpt lat="47.43487" lon="-0.52416">
        <ele>19</ele>
        <time>2010-06-26T20:31:53Z</time>
      </trkpt>
      <trkpt lat="47.43477" lon="-0.52453">
        <ele>19</ele>
        <time>2010-06-26T20:31:58Z</time>
      </trkpt>
      <trkpt lat="47.43465" lon="-0.52501">
        <ele>19</ele>
        <time>2010-06-26T20:32:03Z</time>
      </trkpt>
      <trkpt lat="47.43451" lon="-0.52559">
        <ele>19</ele>
        <time>2010-06-26T20:32:08Z</time>
      </trkpt>
      <trkpt lat="47.43439" lon="-0.52608">
        <ele>19</ele>
        <time>2010-06-26T20:32:13Z</time>
      </trkpt>
      <trkpt lat="47.43431" lon="-0.52646">
        <ele>19</ele>
        <time>2010-06-26T20:32:18Z</time>
      </trkpt>
      <trkpt lat="47.43418" lon="-0.52695">
        <ele>20</ele>
        <time>2010-06-26T20:32:23Z</time>
      </trkpt>
      <trkpt lat="47.43404" lon="-0.5275">
        <ele>22</ele>
        <time>2010-06-26T20:32:28Z</time>
      </trkpt>
      <trkpt lat="47.43393" lon="-0.52796">
        <ele>22</ele>
        <time>2010-06-26T20:32:33Z</time>
      </trkpt>
      <trkpt lat="47.43381" lon="-0.52842">
        <ele>21</ele>
        <time>2010-06-26T20:32:38Z</time>
      </trkpt>
      <trkpt lat="47.43372" lon="-0.52879">
        <ele>21</ele>
        <time>2010-06-26T20:32:43Z</time>
      </trkpt>
      <trkpt lat="47.43382" lon="-0.52933">
        <ele>21</ele>
        <time>2010-06-26T20:32:48Z</time>
      </trkpt>
      <trkpt lat="47.43361" lon="-0.52971">
        <ele>21</ele>
        <time>2010-06-26T20:32:53Z</time>
      </trkpt>
      <trkpt lat="47.4334" lon="-0.5301">
        <ele>21</ele>
        <time>2010-06-26T20:32:58Z</time>
      </trkpt>
      <trkpt lat="47.43328" lon="-0.53048">
        <ele>21</ele>
        <time>2010-06-26T20:33:03Z</time>
      </trkpt>
      <trkpt lat="47.43313" lon="-0.53099">
        <ele>22</ele>
        <time>2010-06-26T20:33:08Z</time>
      </trkpt>
      <trkpt lat="47.43299" lon="-0.53151">
        <ele>23</ele>
        <time>2010-06-26T20:33:13Z</time>
      </trkpt>
      <trkpt lat="47.43279" lon="-0.53209">
        <ele>23</ele>
        <time>2010-06-26T20:33:18Z</time>
      </trkpt>
      <trkpt lat="47.43261" lon="-0.53254">
        <ele>24</ele>
        <time>2010-06-26T20:33:23Z</time>
      </trkpt>
      <trkpt lat="47.43249" lon="-0.53299">
        <ele>23</ele>
        <time>2010-06-26T20:33:28Z</time>
      </trkpt>
      <trkpt lat="47.43234" lon="-0.5335">
        <ele>22</ele>
        <time>2010-06-26T20:33:33Z</time>
      </trkpt>
      <trkpt lat="47.4322" lon="-0.53407">
        <ele>22</ele>
        <time>2010-06-26T20:33:38Z</time>
      </trkpt>
      <trkpt lat="47.43228" lon="-0.53455">
        <ele>22</ele>
        <time>2010-06-26T20:33:43Z</time>
      </trkpt>
      <trkpt lat="47.43232" lon="-0.53492">
        <ele>21</ele>
        <time>2010-06-26T20:33:48Z</time>
      </trkpt>
      <trkpt lat="47.43201" lon="-0.53477">
        <ele>21</ele>
        <time>2010-06-26T20:33:53Z</time>
      </trkpt>
      <trkpt lat="47.43213" lon="-0.53425">
        <ele>22</ele>
        <time>2010-06-26T20:33:58Z</time>
      </trkpt>
      <trkpt lat="47.43232" lon="-0.53357">
        <ele>22</ele>
        <time>2010-06-26T20:34:03Z</time>
      </trkpt>
      <trkpt lat="47.43254" lon="-0.53306">
        <ele>23</ele>
        <time>2010-06-26T20:34:08Z</time>
      </trkpt>
      <trkpt lat="47.43269" lon="-0.53266">
        <ele>23</ele>
        <time>2010-06-26T20:34:13Z</time>
      </trkpt>
      <trkpt lat="47.43286" lon="-0.53214">
        <ele>23</ele>
        <time>2010-06-26T20:34:18Z</time>
      </trkpt>
      <trkpt lat="47.43305" lon="-0.53149">
        <ele>23</ele>
        <time>2010-06-26T20:34:23Z</time>
      </trkpt>
      <trkpt lat="47.43321" lon="-0.53099">
        <ele>22</ele>
        <time>2010-06-26T20:34:28Z</time>
      </trkpt>
      <trkpt lat="47.43336" lon="-0.53047">
        <ele>21</ele>
        <time>2010-06-26T20:34:33Z</time>
      </trkpt>
      <trkpt lat="47.43348" lon="-0.53007">
        <ele>21</ele>
        <time>2010-06-26T20:34:38Z</time>
      </trkpt>
      <trkpt lat="47.43354" lon="-0.52976">
        <ele>21</ele>
        <time>2010-06-26T20:34:43Z</time>
      </trkpt>
      <trkpt lat="47.43352" lon="-0.52977">
        <ele>21</ele>
        <time>2010-06-26T20:34:48Z</time>
      </trkpt>
      <trkpt lat="47.43354" lon="-0.52977">
        <ele>21</ele>
        <time>2010-06-26T20:34:53Z</time>
      </trkpt>
      <trkpt lat="47.43357" lon="-0.52977">
        <ele>21</ele>
        <time>2010-06-26T20:34:58Z</time>
      </trkpt>
      <trkpt lat="47.43355" lon="-0.52977">
        <ele>21</ele>
        <time>2010-06-26T20:35:03Z</time>
      </trkpt>
      <trkpt lat="47.43353" lon="-0.52977">
        <ele>21</ele>
        <time>2010-06-26T20:35:08Z</time>
      </trkpt>
      <trkpt lat="47.43352" lon="-0.52977">
        <ele>21</ele>
        <time>2010-06-26T20:35:13Z</time>
      </trkpt>
      <trkpt lat="47.43352" lon="-0.52978">
        <ele>21</ele>
        <time>2010-06-26T20:35:18Z</time>
      </trkpt>
      <trkpt lat="47.43353" lon="-0.52977">
        <ele>21</ele>
        <time>2010-06-26T20:35:23Z</time>
      </trkpt>
      <trkpt lat="47.43354" lon="-0.52977">
        <ele>21</ele>
        <time>2010-06-26T20:35:28Z</time>
      </trkpt>
      <trkpt lat="47.43352" lon="-0.52977">
        <ele>21</ele>
        <time>2010-06-26T20:35:33Z</time>
      </trkpt>
      <trkpt lat="47.43353" lon="-0.52977">
        <ele>21</ele>
        <time>2010-06-26T20:35:38Z</time>
      </trkpt>
      <trkpt lat="47.43352" lon="-0.52977">
        <ele>21</ele>
        <time>2010-06-26T20:35:43Z</time>
      </trkpt>
      <trkpt lat="47.43352" lon="-0.52973">
        <ele>21</ele>
        <time>2010-06-26T20:35:48Z</time>
      </trkpt>
      <trkpt lat="47.43352" lon="-0.52943">
        <ele>21</ele>
        <time>2010-06-26T20:35:53Z</time>
      </trkpt>
      <trkpt lat="47.43374" lon="-0.52883">
        <ele>21</ele>
        <time>2010-06-26T20:35:58Z</time>
      </trkpt>
      <trkpt lat="47.43387" lon="-0.52825">
        <ele>22</ele>
        <time>2010-06-26T20:36:03Z</time>
      </trkpt>
      <trkpt lat="47.43397" lon="-0.52779">
        <ele>22</ele>
        <time>2010-06-26T20:36:08Z</time>
      </trkpt>
      <trkpt lat="47.43413" lon="-0.52722">
        <ele>21</ele>
        <time>2010-06-26T20:36:13Z</time>
      </trkpt>
      <trkpt lat="47.43433" lon="-0.52655">
        <ele>19</ele>
        <time>2010-06-26T20:36:18Z</time>
      </trkpt>
      <trkpt lat="47.43444" lon="-0.52601">
        <ele>19</ele>
        <time>2010-06-26T20:36:23Z</time>
      </trkpt>
      <trkpt lat="47.43454" lon="-0.52556">
        <ele>19</ele>
        <time>2010-06-26T20:36:28Z</time>
      </trkpt>
      <trkpt lat="47.43466" lon="-0.52501">
        <ele>19</ele>
        <time>2010-06-26T20:36:33Z</time>
      </trkpt>
      <trkpt lat="47.43478" lon="-0.52446">
        <ele>19</ele>
        <time>2010-06-26T20:36:38Z</time>
      </trkpt>
      <trkpt lat="47.43488" lon="-0.52389">
        <ele>19</ele>
        <time>2010-06-26T20:36:43Z</time>
      </trkpt>
      <trkpt lat="47.43488" lon="-0.52385">
        <ele>19</ele>
        <time>2010-06-26T20:36:48Z</time>
      </trkpt>
      <trkpt lat="47.43488" lon="-0.52386">
        <ele>19</ele>
        <time>2010-06-26T20:36:53Z</time>
      </trkpt>
      <trkpt lat="47.43489" lon="-0.52387">
        <ele>19</ele>
        <time>2010-06-26T20:36:58Z</time>
      </trkpt>
      <trkpt lat="47.43489" lon="-0.52387">
        <ele>19</ele>
        <time>2010-06-26T20:37:03Z</time>
      </trkpt>
      <trkpt lat="47.43489" lon="-0.52387">
        <ele>19</ele>
        <time>2010-06-26T20:37:08Z</time>
      </trkpt>
      <trkpt lat="47.4349" lon="-0.52388">
        <ele>19</ele>
        <time>2010-06-26T20:37:13Z</time>
      </trkpt>
      <trkpt lat="47.4349" lon="-0.52388">
        <ele>19</ele>
        <time>2010-06-26T20:37:18Z</time>
      </trkpt>
      <trkpt lat="47.4349" lon="-0.52388">
        <ele>19</ele>
        <time>2010-06-26T20:37:23Z</time>
      </trkpt>
      <trkpt lat="47.43491" lon="-0.52388">
        <ele>19</ele>
        <time>2010-06-26T20:37:28Z</time>
      </trkpt>
      <trkpt lat="47.43491" lon="-0.52388">
        <ele>19</ele>
        <time>2010-06-26T20:37:33Z</time>
      </trkpt>
      <trkpt lat="47.43491" lon="-0.52387">
        <ele>19</ele>
        <time>2010-06-26T20:37:38Z</time>
      </trkpt>
      <trkpt lat="47.43495" lon="-0.52365">
        <ele>19</ele>
        <time>2010-06-26T20:37:43Z</time>
      </trkpt>
      <trkpt lat="47.43508" lon="-0.52311">
        <ele>19</ele>
        <time>2010-06-26T20:37:48Z</time>
      </trkpt>
      <trkpt lat="47.43521" lon="-0.52262">
        <ele>20</ele>
        <time>2010-06-26T20:37:53Z</time>
      </trkpt>
      <trkpt lat="47.43533" lon="-0.5221">
        <ele>20</ele>
        <time>2010-06-26T20:37:58Z</time>
      </trkpt>
      <trkpt lat="47.43543" lon="-0.52169">
        <ele>20</ele>
        <time>2010-06-26T20:38:03Z</time>
      </trkpt>
      <trkpt lat="47.43556" lon="-0.52109">
        <ele>19</ele>
        <time>2010-06-26T20:38:08Z</time>
      </trkpt>
      <trkpt lat="47.43566" lon="-0.52061">
        <ele>18</ele>
        <time>2010-06-26T20:38:13Z</time>
      </trkpt>
      <trkpt lat="47.43576" lon="-0.5202">
        <ele>18</ele>
        <time>2010-06-26T20:38:18Z</time>
      </trkpt>
      <trkpt lat="47.43582" lon="-0.51988">
        <ele>18</ele>
        <time>2010-06-26T20:38:23Z</time>
      </trkpt>
      <trkpt lat="47.43595" lon="-0.51937">
        <ele>19</ele>
        <time>2010-06-26T20:38:28Z</time>
      </trkpt>
      <trkpt lat="47.4361" lon="-0.5187">
        <ele>20</ele>
        <time>2010-06-26T20:38:33Z</time>
      </trkpt>
      <trkpt lat="47.43622" lon="-0.51817">
        <ele>22</ele>
        <time>2010-06-26T20:38:38Z</time>
      </trkpt>
      <trkpt lat="47.43635" lon="-0.51764">
        <ele>23</ele>
        <time>2010-06-26T20:38:43Z</time>
      </trkpt>
      <trkpt lat="47.43646" lon="-0.51722">
        <ele>23</ele>
        <time>2010-06-26T20:38:48Z</time>
      </trkpt>
      <trkpt lat="47.43658" lon="-0.51669">
        <ele>23</ele>
        <time>2010-06-26T20:38:53Z</time>
      </trkpt>
      <trkpt lat="47.43672" lon="-0.51605">
        <ele>22</ele>
        <time>2010-06-26T20:38:58Z</time>
      </trkpt>
      <trkpt lat="47.43686" lon="-0.51551">
        <ele>21</ele>
        <time>2010-06-26T20:39:03Z</time>
      </trkpt>
      <trkpt lat="47.43695" lon="-0.51508">
        <ele>21</ele>
        <time>2010-06-26T20:39:08Z</time>
      </trkpt>
      <trkpt lat="47.43705" lon="-0.51452">
        <ele>21</ele>
        <time>2010-06-26T20:39:13Z</time>
      </trkpt>
      <trkpt lat="47.43721" lon="-0.51401">
        <ele>22</ele>
        <time>2010-06-26T20:39:18Z</time>
      </trkpt>
      <trkpt lat="47.43738" lon="-0.51338">
        <ele>22</ele>
        <time>2010-06-26T20:39:23Z</time>
      </trkpt>
      <trkpt lat="47.4375" lon="-0.51287">
        <ele>23</ele>
        <time>2010-06-26T20:39:28Z</time>
      </trkpt>
      <trkpt lat="47.43763" lon="-0.51245">
        <ele>24</ele>
        <time>2010-06-26T20:39:33Z</time>
      </trkpt>
      <trkpt lat="47.43768" lon="-0.5119">
        <ele>24</ele>
        <time>2010-06-26T20:39:38Z</time>
      </trkpt>
      <trkpt lat="47.43769" lon="-0.51127">
        <ele>23</ele>
        <time>2010-06-26T20:39:43Z</time>
      </trkpt>
      <trkpt lat="47.43774" lon="-0.51075">
        <ele>24</ele>
        <time>2010-06-26T20:39:48Z</time>
      </trkpt>
      <trkpt lat="47.43783" lon="-0.51034">
        <ele>24</ele>
        <time>2010-06-26T20:39:53Z</time>
      </trkpt>
      <trkpt lat="47.43797" lon="-0.50985">
        <ele>24</ele>
        <time>2010-06-26T20:39:58Z</time>
      </trkpt>
      <trkpt lat="47.43804" lon="-0.50932">
        <ele>24</ele>
        <time>2010-06-26T20:40:03Z</time>
      </trkpt>
      <trkpt lat="47.43788" lon="-0.50866">
        <ele>23</ele>
        <time>2010-06-26T20:40:08Z</time>
      </trkpt>
      <trkpt lat="47.43821" lon="-0.50854">
        <ele>23</ele>
        <time>2010-06-26T20:40:13Z</time>
      </trkpt>
      <trkpt lat="47.43848" lon="-0.50856">
        <ele>24</ele>
        <time>2010-06-26T20:40:18Z</time>
      </trkpt>
      <trkpt lat="47.43884" lon="-0.50852">
        <ele>24</ele>
        <time>2010-06-26T20:40:23Z</time>
      </trkpt>
      <trkpt lat="47.43921" lon="-0.50881">
        <ele>23</ele>
        <time>2010-06-26T20:40:28Z</time>
      </trkpt>
      <trkpt lat="47.43933" lon="-0.50933">
        <ele>22</ele>
        <time>2010-06-26T20:40:33Z</time>
      </trkpt>
      <trkpt lat="47.43947" lon="-0.50976">
        <ele>22</ele>
        <time>2010-06-26T20:40:38Z</time>
      </trkpt>
      <trkpt lat="47.43965" lon="-0.5103">
        <ele>23</ele>
        <time>2010-06-26T20:40:43Z</time>
      </trkpt>
      <trkpt lat="47.44012" lon="-0.5105">
        <ele>23</ele>
        <time>2010-06-26T20:40:48Z</time>
      </trkpt>
      <trkpt lat="47.44051" lon="-0.51033">
        <ele>22</ele>
        <time>2010-06-26T20:40:53Z</time>
      </trkpt>
      <trkpt lat="47.44093" lon="-0.51018">
        <ele>21</ele>
        <time>2010-06-26T20:40:58Z</time>
      </trkpt>
      <trkpt lat="47.44127" lon="-0.51002">
        <ele>21</ele>
        <time>2010-06-26T20:41:03Z</time>
      </trkpt>
      <trkpt lat="47.44165" lon="-0.50984">
        <ele>22</ele>
        <time>2010-06-26T20:41:08Z</time>
      </trkpt>
      <trkpt lat="47.44211" lon="-0.50964">
        <ele>23</ele>
        <time>2010-06-26T20:41:13Z</time>
      </trkpt>
      <trkpt lat="47.44251" lon="-0.50949">
        <ele>23</ele>
        <time>2010-06-26T20:41:18Z</time>
      </trkpt>
      <trkpt lat="47.44284" lon="-0.50935">
        <ele>23</ele>
        <time>2010-06-26T20:41:23Z</time>
      </trkpt>
    </trkseg>
  </trk>
</gpx>